<?xml version='1.0' encoding='UTF-8'?><gpx version="1.1" creator="JPX - https://github.com/jenetics/jpx" xmlns="http://www.topografix.com/GPX/1/1"><trk><trkseg><trkpt lat="45.2355587" lon="9.037123"><ele>67.0</ele><time>2026-03-28T08:33:12.829Z</time></trkpt><trkpt lat="45.2356273" lon="9.0370965"><ele>67.0</ele><time>2026-03-28T08:33:43.854Z</time></trkpt><trkpt lat="45.2356872" lon="9.0370315"><ele>67.0</ele><time>2026-03-28T08:33:47.849Z</time></trkpt><trkpt lat="45.2357455" lon="9.0369557"><ele>67.0</ele><time>2026-03-28T08:33:50.859Z</time></trkpt><trkpt lat="45.2357968" lon="9.036859"><ele>67.0</ele><time>2026-03-28T08:33:53.852Z</time></trkpt><trkpt lat="45.2358611" lon="9.0367893"><ele>67.0</ele><time>2026-03-28T08:33:56.847Z</time></trkpt><trkpt lat="45.2359074" lon="9.0367268"><ele>67.0</ele><time>2026-03-28T08:33:58.876Z</time></trkpt><trkpt lat="45.235966" lon="9.0366371"><ele>67.0</ele><time>2026-03-28T08:34:01.867Z</time></trkpt><trkpt lat="45.2360234" lon="9.0365574"><ele>67.0</ele><time>2026-03-28T08:34:04.856Z</time></trkpt><trkpt lat="45.2360669" lon="9.0364876"><ele>67.0</ele><time>2026-03-28T08:34:07.843Z</time></trkpt><trkpt lat="45.2361182" lon="9.0363932"><ele>67.0</ele><time>2026-03-28T08:34:10.857Z</time></trkpt><trkpt lat="45.2361764" lon="9.0362995"><ele>67.0</ele><time>2026-03-28T08:34:13.847Z</time></trkpt><trkpt lat="45.236231" lon="9.0362083"><ele>67.0</ele><time>2026-03-28T08:34:16.877Z</time></trkpt><trkpt lat="45.2362746" lon="9.0361427"><ele>67.0</ele><time>2026-03-28T08:34:18.857Z</time></trkpt><trkpt lat="45.2363281" lon="9.0360675"><ele>67.0</ele><time>2026-03-28T08:34:21.845Z</time></trkpt><trkpt lat="45.2363983" lon="9.0359903"><ele>67.0</ele><time>2026-03-28T08:34:24.867Z</time></trkpt><trkpt lat="45.2364475" lon="9.0359303"><ele>67.0</ele><time>2026-03-28T08:34:26.859Z</time></trkpt><trkpt lat="45.2364969" lon="9.0358365"><ele>67.0</ele><time>2026-03-28T08:34:29.868Z</time></trkpt><trkpt lat="45.2365358" lon="9.0357197"><ele>67.28571428571429</ele><time>2026-03-28T08:34:32.847Z</time></trkpt><trkpt lat="45.2365416" lon="9.0355967"><ele>67.57142857142857</ele><time>2026-03-28T08:34:35.848Z</time></trkpt><trkpt lat="45.2365449" lon="9.0354995"><ele>67.85714285714286</ele><time>2026-03-28T08:34:37.874Z</time></trkpt><trkpt lat="45.2365285" lon="9.0353945"><ele>68.14285714285714</ele><time>2026-03-28T08:34:39.844Z</time></trkpt><trkpt lat="45.2365173" lon="9.0353026"><ele>68.42857142857143</ele><time>2026-03-28T08:34:41.845Z</time></trkpt><trkpt lat="45.2365183" lon="9.035211"><ele>68.71428571428572</ele><time>2026-03-28T08:34:43.953Z</time></trkpt><trkpt lat="45.2365286" lon="9.0350931"><ele>69.0</ele><time>2026-03-28T08:34:46.855Z</time></trkpt><trkpt lat="45.2364894" lon="9.0350116"><ele>69.0</ele><time>2026-03-28T08:34:51.858Z</time></trkpt><trkpt lat="45.2364476" lon="9.0349424"><ele>69.0</ele><time>2026-03-28T08:34:54.875Z</time></trkpt><trkpt lat="45.2364284" lon="9.0348525"><ele>69.0</ele><time>2026-03-28T08:34:58.85Z</time></trkpt><trkpt lat="45.2364949" lon="9.0347894"><ele>69.0</ele><time>2026-03-28T08:35:03.85Z</time></trkpt><trkpt lat="45.2365549" lon="9.0347459"><ele>69.0</ele><time>2026-03-28T08:35:07.856Z</time></trkpt><trkpt lat="45.2365911" lon="9.0346475"><ele>69.0</ele><time>2026-03-28T08:35:12.861Z</time></trkpt><trkpt lat="45.2366471" lon="9.0346001"><ele>69.0</ele><time>2026-03-28T08:35:15.85Z</time></trkpt><trkpt lat="45.2366745" lon="9.0347517"><ele>69.0</ele><time>2026-03-28T08:35:19.858Z</time></trkpt><trkpt lat="45.236706" lon="9.0348684"><ele>69.0</ele><time>2026-03-28T08:35:21.855Z</time></trkpt><trkpt lat="45.2368343" lon="9.0349523"><ele>69.0</ele><time>2026-03-28T08:35:26.847Z</time></trkpt><trkpt lat="45.2369065" lon="9.0346531"><ele>69.0</ele><time>2026-03-28T08:35:27.844Z</time></trkpt><trkpt lat="45.2368631" lon="9.0343574"><ele>69.0</ele><time>2026-03-28T08:35:28.846Z</time></trkpt><trkpt lat="45.236897" lon="9.0341989"><ele>69.0</ele><time>2026-03-28T08:35:30.852Z</time></trkpt><trkpt lat="45.2369665" lon="9.0341996"><ele>69.0</ele><time>2026-03-28T08:35:31.855Z</time></trkpt><trkpt lat="45.2370484" lon="9.0342043"><ele>69.0</ele><time>2026-03-28T08:35:32.851Z</time></trkpt><trkpt lat="45.2371618" lon="9.0342245"><ele>69.0</ele><time>2026-03-28T08:35:34.842Z</time></trkpt><trkpt lat="45.2372367" lon="9.0342772"><ele>69.0</ele><time>2026-03-28T08:35:36.852Z</time></trkpt><trkpt lat="45.2372995" lon="9.0343259"><ele>69.0</ele><time>2026-03-28T08:35:38.857Z</time></trkpt><trkpt lat="45.2373614" lon="9.0343602"><ele>69.0</ele><time>2026-03-28T08:35:40.844Z</time></trkpt><trkpt lat="45.2374356" lon="9.034395"><ele>69.0</ele><time>2026-03-28T08:35:43.843Z</time></trkpt><trkpt lat="45.2375191" lon="9.0344128"><ele>69.0</ele><time>2026-03-28T08:35:46.84Z</time></trkpt><trkpt lat="45.2375944" lon="9.03444"><ele>69.0</ele><time>2026-03-28T08:35:50.861Z</time></trkpt><trkpt lat="45.2376555" lon="9.0344699"><ele>69.0</ele><time>2026-03-28T08:35:53.861Z</time></trkpt><trkpt lat="45.2377365" lon="9.0345083"><ele>69.0</ele><time>2026-03-28T08:35:56.866Z</time></trkpt><trkpt lat="45.2378135" lon="9.0345375"><ele>69.0</ele><time>2026-03-28T08:35:59.845Z</time></trkpt><trkpt lat="45.2378912" lon="9.0345562"><ele>69.0</ele><time>2026-03-28T08:36:02.846Z</time></trkpt><trkpt lat="45.2379571" lon="9.0345912"><ele>69.0</ele><time>2026-03-28T08:36:05.844Z</time></trkpt><trkpt lat="45.2380314" lon="9.0346057"><ele>69.0</ele><time>2026-03-28T08:36:08.857Z</time></trkpt><trkpt lat="45.2381063" lon="9.0346358"><ele>69.0</ele><time>2026-03-28T08:36:11.851Z</time></trkpt><trkpt lat="45.2381797" lon="9.0346699"><ele>69.0</ele><time>2026-03-28T08:36:14.857Z</time></trkpt><trkpt lat="45.2382591" lon="9.034687"><ele>69.0</ele><time>2026-03-28T08:36:17.844Z</time></trkpt><trkpt lat="45.2383281" lon="9.0346948"><ele>69.0</ele><time>2026-03-28T08:36:20.858Z</time></trkpt><trkpt lat="45.2383946" lon="9.0347278"><ele>69.57142857142857</ele><time>2026-03-28T08:36:23.848Z</time></trkpt><trkpt lat="45.2384651" lon="9.0347503"><ele>70.14285714285715</ele><time>2026-03-28T08:36:26.846Z</time></trkpt><trkpt lat="45.2385311" lon="9.0347427"><ele>70.71428571428572</ele><time>2026-03-28T08:36:30.853Z</time></trkpt><trkpt lat="45.2386021" lon="9.03478"><ele>71.28571428571429</ele><time>2026-03-28T08:36:34.849Z</time></trkpt><trkpt lat="45.2386749" lon="9.0348046"><ele>71.85714285714286</ele><time>2026-03-28T08:36:37.85Z</time></trkpt><trkpt lat="45.2387418" lon="9.0348176"><ele>72.42857142857143</ele><time>2026-03-28T08:36:40.851Z</time></trkpt><trkpt lat="45.2388246" lon="9.0348207"><ele>73.0</ele><time>2026-03-28T08:36:44.839Z</time></trkpt><trkpt lat="45.2389033" lon="9.0348435"><ele>74.14285714285714</ele><time>2026-03-28T08:36:47.841Z</time></trkpt><trkpt lat="45.2389703" lon="9.0348721"><ele>75.28571428571429</ele><time>2026-03-28T08:36:50.861Z</time></trkpt><trkpt lat="45.2390412" lon="9.0349102"><ele>76.42857142857143</ele><time>2026-03-28T08:36:53.845Z</time></trkpt><trkpt lat="45.2391262" lon="9.0349351"><ele>77.57142857142857</ele><time>2026-03-28T08:36:56.864Z</time></trkpt><trkpt lat="45.2391957" lon="9.0349534"><ele>78.71428571428571</ele><time>2026-03-28T08:36:59.867Z</time></trkpt><trkpt lat="45.2392596" lon="9.0349771"><ele>79.85714285714286</ele><time>2026-03-28T08:37:02.856Z</time></trkpt><trkpt lat="45.239324" lon="9.0349978"><ele>81.0</ele><time>2026-03-28T08:37:05.848Z</time></trkpt><trkpt lat="45.2393973" lon="9.0350324"><ele>81.0</ele><time>2026-03-28T08:37:08.87Z</time></trkpt><trkpt lat="45.2394692" lon="9.0350662"><ele>81.0</ele><time>2026-03-28T08:37:11.849Z</time></trkpt><trkpt lat="45.2395358" lon="9.0351007"><ele>81.0</ele><time>2026-03-28T08:37:14.84Z</time></trkpt><trkpt lat="45.2396075" lon="9.0351199"><ele>81.0</ele><time>2026-03-28T08:37:17.869Z</time></trkpt><trkpt lat="45.239688" lon="9.0351345"><ele>81.0</ele><time>2026-03-28T08:37:20.846Z</time></trkpt><trkpt lat="45.2397581" lon="9.0351601"><ele>81.0</ele><time>2026-03-28T08:37:23.855Z</time></trkpt><trkpt lat="45.2398301" lon="9.0351921"><ele>81.0</ele><time>2026-03-28T08:37:26.849Z</time></trkpt><trkpt lat="45.2397743" lon="9.0351136"><ele>81.0</ele><time>2026-03-28T08:37:31.875Z</time></trkpt><trkpt lat="45.2397013" lon="9.0350823"><ele>81.0</ele><time>2026-03-28T08:37:34.847Z</time></trkpt><trkpt lat="45.2396401" lon="9.0350481"><ele>81.0</ele><time>2026-03-28T08:37:37.845Z</time></trkpt><trkpt lat="45.2395656" lon="9.035002"><ele>81.0</ele><time>2026-03-28T08:37:40.845Z</time></trkpt><trkpt lat="45.2394957" lon="9.0349657"><ele>81.0</ele><time>2026-03-28T08:37:43.872Z</time></trkpt><trkpt lat="45.2394239" lon="9.0349233"><ele>81.0</ele><time>2026-03-28T08:37:46.857Z</time></trkpt><trkpt lat="45.2393587" lon="9.034877"><ele>81.0</ele><time>2026-03-28T08:37:49.867Z</time></trkpt><trkpt lat="45.2392956" lon="9.0348129"><ele>81.33333333333333</ele><time>2026-03-28T08:37:52.852Z</time></trkpt><trkpt lat="45.2392434" lon="9.0347362"><ele>81.66666666666667</ele><time>2026-03-28T08:37:55.847Z</time></trkpt><trkpt lat="45.2391934" lon="9.0346687"><ele>82.0</ele><time>2026-03-28T08:37:58.85Z</time></trkpt><trkpt lat="45.239143" lon="9.0345971"><ele>82.33333333333334</ele><time>2026-03-28T08:38:01.845Z</time></trkpt><trkpt lat="45.2390825" lon="9.0345101"><ele>82.66666666666667</ele><time>2026-03-28T08:38:04.855Z</time></trkpt><trkpt lat="45.2390181" lon="9.0344394"><ele>83.0</ele><time>2026-03-28T08:38:07.949Z</time></trkpt><trkpt lat="45.2389518" lon="9.0343675"><ele>81.33333333333334</ele><time>2026-03-28T08:38:10.844Z</time></trkpt><trkpt lat="45.2388913" lon="9.0342828"><ele>79.66666666666667</ele><time>2026-03-28T08:38:13.862Z</time></trkpt><trkpt lat="45.2388558" lon="9.0341815"><ele>78.0</ele><time>2026-03-28T08:38:16.868Z</time></trkpt><trkpt lat="45.2388533" lon="9.0340499"><ele>76.33333333333333</ele><time>2026-03-28T08:38:19.863Z</time></trkpt><trkpt lat="45.2388691" lon="9.0339307"><ele>74.66666666666666</ele><time>2026-03-28T08:38:22.945Z</time></trkpt><trkpt lat="45.2388831" lon="9.0338111"><ele>73.0</ele><time>2026-03-28T08:38:25.847Z</time></trkpt><trkpt lat="45.2388947" lon="9.0337051"><ele>72.83333333333333</ele><time>2026-03-28T08:38:28.862Z</time></trkpt><trkpt lat="45.23893" lon="9.033608"><ele>72.66666666666666</ele><time>2026-03-28T08:38:31.867Z</time></trkpt><trkpt lat="45.2389791" lon="9.0335205"><ele>72.5</ele><time>2026-03-28T08:38:34.847Z</time></trkpt><trkpt lat="45.2390416" lon="9.0334354"><ele>72.33333333333333</ele><time>2026-03-28T08:38:37.846Z</time></trkpt><trkpt lat="45.2391024" lon="9.0333614"><ele>72.16666666666667</ele><time>2026-03-28T08:38:40.855Z</time></trkpt><trkpt lat="45.2391372" lon="9.0332606"><ele>72.0</ele><time>2026-03-28T08:38:43.842Z</time></trkpt><trkpt lat="45.2391477" lon="9.0331309"><ele>72.16666666666667</ele><time>2026-03-28T08:38:46.845Z</time></trkpt><trkpt lat="45.2391392" lon="9.0330237"><ele>72.33333333333333</ele><time>2026-03-28T08:38:49.847Z</time></trkpt><trkpt lat="45.2390903" lon="9.0329439"><ele>72.5</ele><time>2026-03-28T08:38:52.849Z</time></trkpt><trkpt lat="45.2390237" lon="9.0329072"><ele>72.66666666666666</ele><time>2026-03-28T08:38:55.846Z</time></trkpt><trkpt lat="45.2389512" lon="9.0328934"><ele>72.83333333333333</ele><time>2026-03-28T08:38:58.877Z</time></trkpt><trkpt lat="45.2388695" lon="9.0328884"><ele>73.0</ele><time>2026-03-28T08:39:01.853Z</time></trkpt><trkpt lat="45.2387955" lon="9.0329016"><ele>73.0</ele><time>2026-03-28T08:39:04.846Z</time></trkpt><trkpt lat="45.2387226" lon="9.0329011"><ele>73.0</ele><time>2026-03-28T08:39:07.844Z</time></trkpt><trkpt lat="45.2386657" lon="9.0328112"><ele>73.0</ele><time>2026-03-28T08:39:10.853Z</time></trkpt><trkpt lat="45.2386179" lon="9.0327032"><ele>73.0</ele><time>2026-03-28T08:39:13.845Z</time></trkpt><trkpt lat="45.2385983" lon="9.0325826"><ele>73.0</ele><time>2026-03-28T08:39:16.852Z</time></trkpt><trkpt lat="45.2385881" lon="9.0324605"><ele>73.0</ele><time>2026-03-28T08:39:19.85Z</time></trkpt><trkpt lat="45.2385934" lon="9.0323508"><ele>73.33333333333333</ele><time>2026-03-28T08:39:22.865Z</time></trkpt><trkpt lat="45.2386046" lon="9.0322627"><ele>73.66666666666666</ele><time>2026-03-28T08:39:24.939Z</time></trkpt><trkpt lat="45.2386129" lon="9.0321537"><ele>74.0</ele><time>2026-03-28T08:39:27.856Z</time></trkpt><trkpt lat="45.2386131" lon="9.0320399"><ele>74.33333333333333</ele><time>2026-03-28T08:39:30.865Z</time></trkpt><trkpt lat="45.238616" lon="9.0319195"><ele>74.66666666666667</ele><time>2026-03-28T08:39:33.87Z</time></trkpt><trkpt lat="45.238664" lon="9.0318222"><ele>75.0</ele><time>2026-03-28T08:39:36.854Z</time></trkpt><trkpt lat="45.2387164" lon="9.0317292"><ele>75.0</ele><time>2026-03-28T08:39:39.927Z</time></trkpt><trkpt lat="45.2387682" lon="9.0316318"><ele>75.0</ele><time>2026-03-28T08:39:42.843Z</time></trkpt><trkpt lat="45.2388239" lon="9.0315474"><ele>75.0</ele><time>2026-03-28T08:39:45.846Z</time></trkpt><trkpt lat="45.2388818" lon="9.0314595"><ele>75.0</ele><time>2026-03-28T08:39:48.848Z</time></trkpt><trkpt lat="45.2389331" lon="9.0313646"><ele>75.0</ele><time>2026-03-28T08:39:51.848Z</time></trkpt><trkpt lat="45.2389903" lon="9.031278"><ele>75.0</ele><time>2026-03-28T08:39:54.853Z</time></trkpt><trkpt lat="45.2390486" lon="9.031201"><ele>76.33333333333333</ele><time>2026-03-28T08:39:57.85Z</time></trkpt><trkpt lat="45.2391018" lon="9.0311227"><ele>77.66666666666667</ele><time>2026-03-28T08:40:00.848Z</time></trkpt><trkpt lat="45.2391593" lon="9.0310294"><ele>79.0</ele><time>2026-03-28T08:40:03.85Z</time></trkpt><trkpt lat="45.2392063" lon="9.0309685"><ele>80.33333333333334</ele><time>2026-03-28T08:40:05.845Z</time></trkpt><trkpt lat="45.2392911" lon="9.030959"><ele>81.66666666666667</ele><time>2026-03-28T08:40:08.848Z</time></trkpt><trkpt lat="45.2393712" lon="9.0310184"><ele>83.0</ele><time>2026-03-28T08:40:11.841Z</time></trkpt><trkpt lat="45.2394368" lon="9.031085"><ele>83.0</ele><time>2026-03-28T08:40:14.843Z</time></trkpt><trkpt lat="45.2394863" lon="9.0311429"><ele>83.0</ele><time>2026-03-28T08:40:16.852Z</time></trkpt><trkpt lat="45.2395691" lon="9.0312095"><ele>83.0</ele><time>2026-03-28T08:40:19.849Z</time></trkpt><trkpt lat="45.2396316" lon="9.0312608"><ele>83.0</ele><time>2026-03-28T08:40:21.848Z</time></trkpt><trkpt lat="45.2396858" lon="9.0313274"><ele>83.0</ele><time>2026-03-28T08:40:23.842Z</time></trkpt><trkpt lat="45.2397396" lon="9.0313878"><ele>83.0</ele><time>2026-03-28T08:40:25.847Z</time></trkpt><trkpt lat="45.2398106" lon="9.0314691"><ele>82.85714285714285</ele><time>2026-03-28T08:40:28.868Z</time></trkpt><trkpt lat="45.2398675" lon="9.0315131"><ele>82.71428571428572</ele><time>2026-03-28T08:40:30.853Z</time></trkpt><trkpt lat="45.239932" lon="9.031552"><ele>82.57142857142857</ele><time>2026-03-28T08:40:32.857Z</time></trkpt><trkpt lat="45.23999" lon="9.0315886"><ele>82.42857142857142</ele><time>2026-03-28T08:40:34.86Z</time></trkpt><trkpt lat="45.2400693" lon="9.0316314"><ele>82.28571428571428</ele><time>2026-03-28T08:40:36.867Z</time></trkpt><trkpt lat="45.2401396" lon="9.0316626"><ele>82.14285714285714</ele><time>2026-03-28T08:40:38.869Z</time></trkpt><trkpt lat="45.2402034" lon="9.0316954"><ele>82.0</ele><time>2026-03-28T08:40:40.87Z</time></trkpt><trkpt lat="45.2402722" lon="9.0317226"><ele>82.14285714285714</ele><time>2026-03-28T08:40:42.869Z</time></trkpt><trkpt lat="45.2403384" lon="9.0317598"><ele>82.28571428571428</ele><time>2026-03-28T08:40:44.865Z</time></trkpt><trkpt lat="45.2404061" lon="9.0318185"><ele>82.42857142857142</ele><time>2026-03-28T08:40:46.854Z</time></trkpt><trkpt lat="45.2404683" lon="9.0318758"><ele>82.57142857142857</ele><time>2026-03-28T08:40:48.845Z</time></trkpt><trkpt lat="45.2405215" lon="9.0319309"><ele>82.71428571428572</ele><time>2026-03-28T08:40:50.846Z</time></trkpt><trkpt lat="45.2405792" lon="9.0319894"><ele>82.85714285714285</ele><time>2026-03-28T08:40:52.849Z</time></trkpt><trkpt lat="45.2406342" lon="9.0320516"><ele>83.0</ele><time>2026-03-28T08:40:54.84Z</time></trkpt><trkpt lat="45.2406936" lon="9.0321179"><ele>83.0</ele><time>2026-03-28T08:40:56.922Z</time></trkpt><trkpt lat="45.2407472" lon="9.0321859"><ele>83.0</ele><time>2026-03-28T08:40:58.854Z</time></trkpt><trkpt lat="45.2407993" lon="9.0322495"><ele>83.0</ele><time>2026-03-28T08:41:00.85Z</time></trkpt><trkpt lat="45.2408539" lon="9.0323136"><ele>83.0</ele><time>2026-03-28T08:41:02.856Z</time></trkpt><trkpt lat="45.2409107" lon="9.0323788"><ele>83.0</ele><time>2026-03-28T08:41:04.848Z</time></trkpt><trkpt lat="45.2409661" lon="9.0324414"><ele>83.0</ele><time>2026-03-28T08:41:06.922Z</time></trkpt><trkpt lat="45.2410205" lon="9.0325071"><ele>83.0</ele><time>2026-03-28T08:41:08.855Z</time></trkpt><trkpt lat="45.2410781" lon="9.032572"><ele>83.28571428571428</ele><time>2026-03-28T08:41:10.851Z</time></trkpt><trkpt lat="45.2411361" lon="9.0326313"><ele>83.57142857142858</ele><time>2026-03-28T08:41:12.848Z</time></trkpt><trkpt lat="45.2412" lon="9.0326877"><ele>83.85714285714286</ele><time>2026-03-28T08:41:14.843Z</time></trkpt><trkpt lat="45.2412648" lon="9.0327443"><ele>84.14285714285714</ele><time>2026-03-28T08:41:16.856Z</time></trkpt><trkpt lat="45.2413233" lon="9.0328041"><ele>84.42857142857142</ele><time>2026-03-28T08:41:18.847Z</time></trkpt><trkpt lat="45.2413845" lon="9.0328559"><ele>84.71428571428572</ele><time>2026-03-28T08:41:20.844Z</time></trkpt><trkpt lat="45.2414386" lon="9.0329248"><ele>85.0</ele><time>2026-03-28T08:41:22.85Z</time></trkpt><trkpt lat="45.2414946" lon="9.0329932"><ele>84.42857142857143</ele><time>2026-03-28T08:41:24.85Z</time></trkpt><trkpt lat="45.2415403" lon="9.0330723"><ele>83.85714285714285</ele><time>2026-03-28T08:41:26.836Z</time></trkpt><trkpt lat="45.2415871" lon="9.033149"><ele>83.28571428571428</ele><time>2026-03-28T08:41:28.849Z</time></trkpt><trkpt lat="45.2416416" lon="9.0332328"><ele>82.71428571428572</ele><time>2026-03-28T08:41:30.858Z</time></trkpt><trkpt lat="45.2416904" lon="9.033306"><ele>82.14285714285714</ele><time>2026-03-28T08:41:32.917Z</time></trkpt><trkpt lat="45.2417368" lon="9.0333888"><ele>81.57142857142857</ele><time>2026-03-28T08:41:34.851Z</time></trkpt><trkpt lat="45.2417808" lon="9.0334605"><ele>81.0</ele><time>2026-03-28T08:41:36.847Z</time></trkpt><trkpt lat="45.2418247" lon="9.0335389"><ele>81.0</ele><time>2026-03-28T08:41:38.854Z</time></trkpt><trkpt lat="45.2418691" lon="9.0336179"><ele>81.0</ele><time>2026-03-28T08:41:40.851Z</time></trkpt><trkpt lat="45.2419137" lon="9.0336903"><ele>81.0</ele><time>2026-03-28T08:41:42.847Z</time></trkpt><trkpt lat="45.2419591" lon="9.0337626"><ele>81.0</ele><time>2026-03-28T08:41:44.848Z</time></trkpt><trkpt lat="45.242001" lon="9.0338392"><ele>81.0</ele><time>2026-03-28T08:41:46.843Z</time></trkpt><trkpt lat="45.2420451" lon="9.033924"><ele>81.0</ele><time>2026-03-28T08:41:48.866Z</time></trkpt><trkpt lat="45.2420881" lon="9.0340009"><ele>81.0</ele><time>2026-03-28T08:41:50.868Z</time></trkpt><trkpt lat="45.2421319" lon="9.03408"><ele>81.14285714285714</ele><time>2026-03-28T08:41:52.866Z</time></trkpt><trkpt lat="45.2421749" lon="9.0341673"><ele>81.28571428571428</ele><time>2026-03-28T08:41:54.866Z</time></trkpt><trkpt lat="45.2422148" lon="9.0342436"><ele>81.42857142857142</ele><time>2026-03-28T08:41:56.868Z</time></trkpt><trkpt lat="45.2422562" lon="9.0343167"><ele>81.57142857142857</ele><time>2026-03-28T08:41:58.94Z</time></trkpt><trkpt lat="45.2422972" lon="9.0344118"><ele>81.71428571428571</ele><time>2026-03-28T08:42:00.885Z</time></trkpt><trkpt lat="45.2423332" lon="9.0345008"><ele>81.85714285714285</ele><time>2026-03-28T08:42:02.878Z</time></trkpt><trkpt lat="45.2423764" lon="9.0345814"><ele>82.0</ele><time>2026-03-28T08:42:04.86Z</time></trkpt><trkpt lat="45.242421" lon="9.0346634"><ele>82.28571428571428</ele><time>2026-03-28T08:42:06.855Z</time></trkpt><trkpt lat="45.2424686" lon="9.0347417"><ele>82.57142857142857</ele><time>2026-03-28T08:42:08.935Z</time></trkpt><trkpt lat="45.2425117" lon="9.0348212"><ele>82.85714285714286</ele><time>2026-03-28T08:42:10.844Z</time></trkpt><trkpt lat="45.2425518" lon="9.0349008"><ele>83.14285714285714</ele><time>2026-03-28T08:42:12.869Z</time></trkpt><trkpt lat="45.2425942" lon="9.0349735"><ele>83.42857142857143</ele><time>2026-03-28T08:42:14.864Z</time></trkpt><trkpt lat="45.2426463" lon="9.0350477"><ele>83.71428571428571</ele><time>2026-03-28T08:42:16.878Z</time></trkpt><trkpt lat="45.242705" lon="9.0351148"><ele>84.0</ele><time>2026-03-28T08:42:18.871Z</time></trkpt><trkpt lat="45.2427792" lon="9.0351649"><ele>84.0</ele><time>2026-03-28T08:42:21.87Z</time></trkpt><trkpt lat="45.2428394" lon="9.0350859"><ele>84.0</ele><time>2026-03-28T08:42:25.854Z</time></trkpt><trkpt lat="45.242857" lon="9.0349923"><ele>84.0</ele><time>2026-03-28T08:42:27.844Z</time></trkpt><trkpt lat="45.2428853" lon="9.0348948"><ele>84.0</ele><time>2026-03-28T08:42:29.846Z</time></trkpt><trkpt lat="45.242927" lon="9.0347699"><ele>84.0</ele><time>2026-03-28T08:42:32.849Z</time></trkpt><trkpt lat="45.242957" lon="9.0346824"><ele>84.0</ele><time>2026-03-28T08:42:34.852Z</time></trkpt><trkpt lat="45.2429925" lon="9.0346018"><ele>84.0</ele><time>2026-03-28T08:42:36.854Z</time></trkpt><trkpt lat="45.2430302" lon="9.0345278"><ele>84.0</ele><time>2026-03-28T08:42:38.855Z</time></trkpt><trkpt lat="45.2430757" lon="9.0344554"><ele>84.0</ele><time>2026-03-28T08:42:40.841Z</time></trkpt><trkpt lat="45.2431228" lon="9.0343923"><ele>84.0</ele><time>2026-03-28T08:42:42.845Z</time></trkpt><trkpt lat="45.2431646" lon="9.0343247"><ele>84.0</ele><time>2026-03-28T08:42:44.878Z</time></trkpt><trkpt lat="45.243209" lon="9.0342488"><ele>84.0</ele><time>2026-03-28T08:42:46.848Z</time></trkpt><trkpt lat="45.2432542" lon="9.0341752"><ele>84.0</ele><time>2026-03-28T08:42:48.841Z</time></trkpt><trkpt lat="45.2432963" lon="9.0340882"><ele>84.0</ele><time>2026-03-28T08:42:50.853Z</time></trkpt><trkpt lat="45.2433399" lon="9.0340153"><ele>84.0</ele><time>2026-03-28T08:42:52.841Z</time></trkpt><trkpt lat="45.2433805" lon="9.0339351"><ele>84.0</ele><time>2026-03-28T08:42:54.848Z</time></trkpt><trkpt lat="45.243425" lon="9.0338519"><ele>84.0</ele><time>2026-03-28T08:42:56.842Z</time></trkpt><trkpt lat="45.2434662" lon="9.0337717"><ele>84.0</ele><time>2026-03-28T08:42:58.85Z</time></trkpt><trkpt lat="45.2435055" lon="9.0336948"><ele>84.0</ele><time>2026-03-28T08:43:00.93Z</time></trkpt><trkpt lat="45.2435508" lon="9.0336132"><ele>84.0</ele><time>2026-03-28T08:43:02.848Z</time></trkpt><trkpt lat="45.2435911" lon="9.0335283"><ele>84.0</ele><time>2026-03-28T08:43:04.847Z</time></trkpt><trkpt lat="45.2436276" lon="9.0334433"><ele>84.0</ele><time>2026-03-28T08:43:06.851Z</time></trkpt><trkpt lat="45.2436558" lon="9.0333521"><ele>84.0</ele><time>2026-03-28T08:43:08.848Z</time></trkpt><trkpt lat="45.2436905" lon="9.0332626"><ele>84.0</ele><time>2026-03-28T08:43:10.835Z</time></trkpt><trkpt lat="45.2437262" lon="9.0331679"><ele>84.0</ele><time>2026-03-28T08:43:12.842Z</time></trkpt><trkpt lat="45.2437556" lon="9.0330724"><ele>84.0</ele><time>2026-03-28T08:43:14.837Z</time></trkpt><trkpt lat="45.2437918" lon="9.0329825"><ele>84.0</ele><time>2026-03-28T08:43:16.865Z</time></trkpt><trkpt lat="45.2438264" lon="9.0328897"><ele>84.14285714285714</ele><time>2026-03-28T08:43:18.856Z</time></trkpt><trkpt lat="45.2438631" lon="9.0328009"><ele>84.28571428571428</ele><time>2026-03-28T08:43:20.864Z</time></trkpt><trkpt lat="45.2439005" lon="9.0327103"><ele>84.42857142857143</ele><time>2026-03-28T08:43:22.875Z</time></trkpt><trkpt lat="45.2439391" lon="9.0326217"><ele>84.57142857142857</ele><time>2026-03-28T08:43:24.87Z</time></trkpt><trkpt lat="45.243978" lon="9.0325472"><ele>84.71428571428571</ele><time>2026-03-28T08:43:26.859Z</time></trkpt><trkpt lat="45.244041" lon="9.0325454"><ele>84.85714285714286</ele><time>2026-03-28T08:43:28.855Z</time></trkpt><trkpt lat="45.244105" lon="9.0326024"><ele>85.0</ele><time>2026-03-28T08:43:30.842Z</time></trkpt><trkpt lat="45.2441732" lon="9.032658"><ele>85.28571428571429</ele><time>2026-03-28T08:43:32.86Z</time></trkpt><trkpt lat="45.2442387" lon="9.0327188"><ele>85.57142857142857</ele><time>2026-03-28T08:43:34.844Z</time></trkpt><trkpt lat="45.2443066" lon="9.0327758"><ele>85.85714285714286</ele><time>2026-03-28T08:43:36.876Z</time></trkpt><trkpt lat="45.2443699" lon="9.032826"><ele>86.14285714285714</ele><time>2026-03-28T08:43:38.866Z</time></trkpt><trkpt lat="45.2444362" lon="9.0328714"><ele>86.42857142857143</ele><time>2026-03-28T08:43:40.856Z</time></trkpt><trkpt lat="45.244498" lon="9.0329099"><ele>86.71428571428571</ele><time>2026-03-28T08:43:42.838Z</time></trkpt><trkpt lat="45.2445647" lon="9.0329542"><ele>87.0</ele><time>2026-03-28T08:43:44.857Z</time></trkpt><trkpt lat="45.2446244" lon="9.0330099"><ele>87.0</ele><time>2026-03-28T08:43:46.847Z</time></trkpt><trkpt lat="45.244695" lon="9.0330558"><ele>87.0</ele><time>2026-03-28T08:43:48.855Z</time></trkpt><trkpt lat="45.2447579" lon="9.033102"><ele>87.0</ele><time>2026-03-28T08:43:50.849Z</time></trkpt><trkpt lat="45.2448234" lon="9.0331465"><ele>87.0</ele><time>2026-03-28T08:43:52.849Z</time></trkpt><trkpt lat="45.2448895" lon="9.0331909"><ele>87.0</ele><time>2026-03-28T08:43:54.852Z</time></trkpt><trkpt lat="45.2449623" lon="9.0332449"><ele>87.0</ele><time>2026-03-28T08:43:56.858Z</time></trkpt><trkpt lat="45.2450317" lon="9.0332883"><ele>86.71428571428571</ele><time>2026-03-28T08:43:58.846Z</time></trkpt><trkpt lat="45.2450978" lon="9.0333407"><ele>86.42857142857143</ele><time>2026-03-28T08:44:00.849Z</time></trkpt><trkpt lat="45.2451586" lon="9.0333863"><ele>86.14285714285714</ele><time>2026-03-28T08:44:02.867Z</time></trkpt><trkpt lat="45.2452246" lon="9.0334342"><ele>85.85714285714286</ele><time>2026-03-28T08:44:04.864Z</time></trkpt><trkpt lat="45.2452953" lon="9.0334798"><ele>85.57142857142857</ele><time>2026-03-28T08:44:06.844Z</time></trkpt><trkpt lat="45.2453593" lon="9.0335256"><ele>85.28571428571429</ele><time>2026-03-28T08:44:08.864Z</time></trkpt><trkpt lat="45.2454176" lon="9.0335676"><ele>85.0</ele><time>2026-03-28T08:44:10.867Z</time></trkpt><trkpt lat="45.2454836" lon="9.0336039"><ele>85.0</ele><time>2026-03-28T08:44:12.859Z</time></trkpt><trkpt lat="45.2455443" lon="9.0336513"><ele>85.0</ele><time>2026-03-28T08:44:14.846Z</time></trkpt><trkpt lat="45.2456092" lon="9.0336993"><ele>85.0</ele><time>2026-03-28T08:44:16.879Z</time></trkpt><trkpt lat="45.2456675" lon="9.0337482"><ele>85.0</ele><time>2026-03-28T08:44:18.86Z</time></trkpt><trkpt lat="45.2457296" lon="9.0337981"><ele>85.0</ele><time>2026-03-28T08:44:20.88Z</time></trkpt><trkpt lat="45.2457909" lon="9.0338491"><ele>85.0</ele><time>2026-03-28T08:44:22.877Z</time></trkpt><trkpt lat="45.2458576" lon="9.0338883"><ele>85.0</ele><time>2026-03-28T08:44:24.846Z</time></trkpt><trkpt lat="45.245925" lon="9.0339216"><ele>85.0</ele><time>2026-03-28T08:44:26.875Z</time></trkpt><trkpt lat="45.2459886" lon="9.0339665"><ele>85.0</ele><time>2026-03-28T08:44:28.86Z</time></trkpt><trkpt lat="45.2460552" lon="9.0340162"><ele>85.0</ele><time>2026-03-28T08:44:30.952Z</time></trkpt><trkpt lat="45.2461188" lon="9.0340637"><ele>85.0</ele><time>2026-03-28T08:44:32.868Z</time></trkpt><trkpt lat="45.2461799" lon="9.0341096"><ele>85.0</ele><time>2026-03-28T08:44:34.856Z</time></trkpt><trkpt lat="45.2462469" lon="9.0341559"><ele>85.0</ele><time>2026-03-28T08:44:36.872Z</time></trkpt><trkpt lat="45.2463107" lon="9.0342001"><ele>85.0</ele><time>2026-03-28T08:44:38.872Z</time></trkpt><trkpt lat="45.2463724" lon="9.0342429"><ele>85.0</ele><time>2026-03-28T08:44:40.851Z</time></trkpt><trkpt lat="45.2464372" lon="9.0342908"><ele>85.0</ele><time>2026-03-28T08:44:42.849Z</time></trkpt><trkpt lat="45.2464995" lon="9.0343296"><ele>85.0</ele><time>2026-03-28T08:44:44.842Z</time></trkpt><trkpt lat="45.2465656" lon="9.0343641"><ele>85.0</ele><time>2026-03-28T08:44:46.845Z</time></trkpt><trkpt lat="45.2466323" lon="9.0343998"><ele>85.0</ele><time>2026-03-28T08:44:48.853Z</time></trkpt><trkpt lat="45.2466946" lon="9.0344287"><ele>85.0</ele><time>2026-03-28T08:44:50.848Z</time></trkpt><trkpt lat="45.2467543" lon="9.0343942"><ele>85.0</ele><time>2026-03-28T08:44:52.85Z</time></trkpt><trkpt lat="45.2467985" lon="9.0343192"><ele>85.28571428571429</ele><time>2026-03-28T08:44:54.854Z</time></trkpt><trkpt lat="45.2468377" lon="9.0342374"><ele>85.57142857142857</ele><time>2026-03-28T08:44:56.854Z</time></trkpt><trkpt lat="45.2468791" lon="9.0341567"><ele>85.85714285714286</ele><time>2026-03-28T08:44:58.838Z</time></trkpt><trkpt lat="45.2469167" lon="9.0340754"><ele>86.14285714285714</ele><time>2026-03-28T08:45:00.85Z</time></trkpt><trkpt lat="45.2469622" lon="9.0339924"><ele>86.42857142857143</ele><time>2026-03-28T08:45:02.85Z</time></trkpt><trkpt lat="45.2470118" lon="9.0339122"><ele>86.71428571428571</ele><time>2026-03-28T08:45:04.848Z</time></trkpt><trkpt lat="45.2470625" lon="9.0338286"><ele>87.0</ele><time>2026-03-28T08:45:06.846Z</time></trkpt><trkpt lat="45.247105" lon="9.0337537"><ele>87.0</ele><time>2026-03-28T08:45:08.854Z</time></trkpt><trkpt lat="45.2471463" lon="9.0336766"><ele>87.0</ele><time>2026-03-28T08:45:10.931Z</time></trkpt><trkpt lat="45.2471872" lon="9.033594"><ele>87.0</ele><time>2026-03-28T08:45:12.851Z</time></trkpt><trkpt lat="45.2472306" lon="9.0335173"><ele>87.0</ele><time>2026-03-28T08:45:14.85Z</time></trkpt><trkpt lat="45.247273" lon="9.0334351"><ele>87.0</ele><time>2026-03-28T08:45:16.849Z</time></trkpt><trkpt lat="45.247314" lon="9.0333588"><ele>87.0</ele><time>2026-03-28T08:45:18.847Z</time></trkpt><trkpt lat="45.2473575" lon="9.0332821"><ele>87.0</ele><time>2026-03-28T08:45:20.845Z</time></trkpt><trkpt lat="45.2474022" lon="9.0332034"><ele>87.28571428571428</ele><time>2026-03-28T08:45:22.871Z</time></trkpt><trkpt lat="45.2474381" lon="9.0331294"><ele>87.57142857142857</ele><time>2026-03-28T08:45:24.861Z</time></trkpt><trkpt lat="45.2474743" lon="9.0330536"><ele>87.85714285714286</ele><time>2026-03-28T08:45:26.87Z</time></trkpt><trkpt lat="45.2475076" lon="9.0329656"><ele>88.14285714285714</ele><time>2026-03-28T08:45:28.87Z</time></trkpt><trkpt lat="45.2475408" lon="9.0328368"><ele>88.42857142857143</ele><time>2026-03-28T08:45:31.865Z</time></trkpt><trkpt lat="45.2475684" lon="9.0327373"><ele>88.71428571428571</ele><time>2026-03-28T08:45:33.87Z</time></trkpt><trkpt lat="45.2475981" lon="9.0326522"><ele>89.0</ele><time>2026-03-28T08:45:35.852Z</time></trkpt><trkpt lat="45.2476342" lon="9.0325544"><ele>88.85714285714285</ele><time>2026-03-28T08:45:37.855Z</time></trkpt><trkpt lat="45.2476643" lon="9.0324619"><ele>88.71428571428571</ele><time>2026-03-28T08:45:39.866Z</time></trkpt><trkpt lat="45.2476974" lon="9.0323762"><ele>88.57142857142857</ele><time>2026-03-28T08:45:41.87Z</time></trkpt><trkpt lat="45.2477256" lon="9.0322951"><ele>88.42857142857142</ele><time>2026-03-28T08:45:43.856Z</time></trkpt><trkpt lat="45.2477672" lon="9.0322053"><ele>88.28571428571428</ele><time>2026-03-28T08:45:45.874Z</time></trkpt><trkpt lat="45.2478087" lon="9.0321173"><ele>88.14285714285714</ele><time>2026-03-28T08:45:47.869Z</time></trkpt><trkpt lat="45.2478464" lon="9.0320345"><ele>88.0</ele><time>2026-03-28T08:45:49.861Z</time></trkpt><trkpt lat="45.2478854" lon="9.0319493"><ele>88.0</ele><time>2026-03-28T08:45:51.956Z</time></trkpt><trkpt lat="45.2479213" lon="9.031869"><ele>88.0</ele><time>2026-03-28T08:45:53.865Z</time></trkpt><trkpt lat="45.2479541" lon="9.0317849"><ele>88.0</ele><time>2026-03-28T08:45:55.879Z</time></trkpt><trkpt lat="45.2479854" lon="9.0316981"><ele>88.0</ele><time>2026-03-28T08:45:57.866Z</time></trkpt><trkpt lat="45.2480194" lon="9.0316109"><ele>88.0</ele><time>2026-03-28T08:45:59.844Z</time></trkpt><trkpt lat="45.2480516" lon="9.031521"><ele>88.0</ele><time>2026-03-28T08:46:01.862Z</time></trkpt><trkpt lat="45.2480848" lon="9.0314327"><ele>88.0</ele><time>2026-03-28T08:46:03.865Z</time></trkpt><trkpt lat="45.2481135" lon="9.031334"><ele>88.14285714285714</ele><time>2026-03-28T08:46:05.857Z</time></trkpt><trkpt lat="45.2481437" lon="9.0312416"><ele>88.28571428571428</ele><time>2026-03-28T08:46:07.846Z</time></trkpt><trkpt lat="45.2481744" lon="9.0311478"><ele>88.42857142857142</ele><time>2026-03-28T08:46:09.851Z</time></trkpt><trkpt lat="45.2482028" lon="9.0310501"><ele>88.57142857142857</ele><time>2026-03-28T08:46:11.852Z</time></trkpt><trkpt lat="45.2482368" lon="9.0309705"><ele>88.71428571428571</ele><time>2026-03-28T08:46:13.866Z</time></trkpt><trkpt lat="45.2482779" lon="9.0308872"><ele>88.85714285714285</ele><time>2026-03-28T08:46:15.924Z</time></trkpt><trkpt lat="45.2483213" lon="9.0308081"><ele>89.0</ele><time>2026-03-28T08:46:17.863Z</time></trkpt><trkpt lat="45.2483633" lon="9.0307269"><ele>89.14285714285714</ele><time>2026-03-28T08:46:19.857Z</time></trkpt><trkpt lat="45.2484087" lon="9.0306475"><ele>89.28571428571428</ele><time>2026-03-28T08:46:21.847Z</time></trkpt><trkpt lat="45.2484529" lon="9.0305631"><ele>89.42857142857142</ele><time>2026-03-28T08:46:23.846Z</time></trkpt><trkpt lat="45.2484948" lon="9.0304777"><ele>89.57142857142857</ele><time>2026-03-28T08:46:25.846Z</time></trkpt><trkpt lat="45.2485281" lon="9.0303905"><ele>89.71428571428572</ele><time>2026-03-28T08:46:27.846Z</time></trkpt><trkpt lat="45.2485646" lon="9.0303095"><ele>89.85714285714285</ele><time>2026-03-28T08:46:29.85Z</time></trkpt><trkpt lat="45.2485997" lon="9.0302231"><ele>90.0</ele><time>2026-03-28T08:46:31.843Z</time></trkpt><trkpt lat="45.2486285" lon="9.0301316"><ele>90.0</ele><time>2026-03-28T08:46:33.849Z</time></trkpt><trkpt lat="45.2486595" lon="9.030036"><ele>90.0</ele><time>2026-03-28T08:46:35.87Z</time></trkpt><trkpt lat="45.2486953" lon="9.0299442"><ele>90.0</ele><time>2026-03-28T08:46:37.86Z</time></trkpt><trkpt lat="45.2487256" lon="9.0298576"><ele>90.0</ele><time>2026-03-28T08:46:39.866Z</time></trkpt><trkpt lat="45.2487583" lon="9.0297701"><ele>90.0</ele><time>2026-03-28T08:46:41.845Z</time></trkpt><trkpt lat="45.2487993" lon="9.0296464"><ele>90.0</ele><time>2026-03-28T08:46:44.858Z</time></trkpt><trkpt lat="45.2488346" lon="9.0295591"><ele>90.0</ele><time>2026-03-28T08:46:46.872Z</time></trkpt><trkpt lat="45.2488693" lon="9.029467"><ele>90.0</ele><time>2026-03-28T08:46:48.864Z</time></trkpt><trkpt lat="45.2489006" lon="9.0293764"><ele>90.0</ele><time>2026-03-28T08:46:50.868Z</time></trkpt><trkpt lat="45.2489285" lon="9.0292883"><ele>90.0</ele><time>2026-03-28T08:46:52.861Z</time></trkpt><trkpt lat="45.2489583" lon="9.0291936"><ele>90.0</ele><time>2026-03-28T08:46:54.862Z</time></trkpt><trkpt lat="45.2489868" lon="9.0290944"><ele>90.0</ele><time>2026-03-28T08:46:56.861Z</time></trkpt><trkpt lat="45.2490145" lon="9.0290039"><ele>90.0</ele><time>2026-03-28T08:46:58.849Z</time></trkpt><trkpt lat="45.2490394" lon="9.0289078"><ele>90.0</ele><time>2026-03-28T08:47:00.874Z</time></trkpt><trkpt lat="45.249072" lon="9.0288138"><ele>90.0</ele><time>2026-03-28T08:47:02.873Z</time></trkpt><trkpt lat="45.2491044" lon="9.0287273"><ele>90.0</ele><time>2026-03-28T08:47:04.845Z</time></trkpt><trkpt lat="45.2491398" lon="9.0286327"><ele>90.0</ele><time>2026-03-28T08:47:06.838Z</time></trkpt><trkpt lat="45.2491783" lon="9.0285476"><ele>90.0</ele><time>2026-03-28T08:47:08.914Z</time></trkpt><trkpt lat="45.2492127" lon="9.0284675"><ele>90.0</ele><time>2026-03-28T08:47:10.854Z</time></trkpt><trkpt lat="45.2492496" lon="9.0283857"><ele>90.0</ele><time>2026-03-28T08:47:12.848Z</time></trkpt><trkpt lat="45.2492892" lon="9.0283055"><ele>89.71428571428571</ele><time>2026-03-28T08:47:14.847Z</time></trkpt><trkpt lat="45.2493243" lon="9.028225"><ele>89.42857142857143</ele><time>2026-03-28T08:47:16.837Z</time></trkpt><trkpt lat="45.2493651" lon="9.0281121"><ele>89.14285714285714</ele><time>2026-03-28T08:47:19.843Z</time></trkpt><trkpt lat="45.2493935" lon="9.028029"><ele>88.85714285714286</ele><time>2026-03-28T08:47:21.847Z</time></trkpt><trkpt lat="45.2494262" lon="9.0279492"><ele>88.57142857142857</ele><time>2026-03-28T08:47:23.848Z</time></trkpt><trkpt lat="45.2494582" lon="9.0278586"><ele>88.28571428571429</ele><time>2026-03-28T08:47:25.847Z</time></trkpt><trkpt lat="45.2494973" lon="9.0277803"><ele>88.0</ele><time>2026-03-28T08:47:27.855Z</time></trkpt><trkpt lat="45.2495596" lon="9.0276924"><ele>88.0</ele><time>2026-03-28T08:47:29.839Z</time></trkpt><trkpt lat="45.2496123" lon="9.0276254"><ele>88.0</ele><time>2026-03-28T08:47:31.848Z</time></trkpt><trkpt lat="45.2496751" lon="9.0275891"><ele>88.0</ele><time>2026-03-28T08:47:33.85Z</time></trkpt><trkpt lat="45.2497414" lon="9.0275577"><ele>88.0</ele><time>2026-03-28T08:47:35.85Z</time></trkpt><trkpt lat="45.2498138" lon="9.0275196"><ele>88.0</ele><time>2026-03-28T08:47:37.839Z</time></trkpt><trkpt lat="45.2498841" lon="9.0274727"><ele>88.0</ele><time>2026-03-28T08:47:39.845Z</time></trkpt><trkpt lat="45.2499463" lon="9.0274163"><ele>88.0</ele><time>2026-03-28T08:47:41.85Z</time></trkpt><trkpt lat="45.2500079" lon="9.0273585"><ele>88.0</ele><time>2026-03-28T08:47:43.854Z</time></trkpt><trkpt lat="45.2500628" lon="9.0273"><ele>88.0</ele><time>2026-03-28T08:47:45.851Z</time></trkpt><trkpt lat="45.2501176" lon="9.0272483"><ele>88.0</ele><time>2026-03-28T08:47:47.848Z</time></trkpt><trkpt lat="45.2501735" lon="9.0271905"><ele>88.0</ele><time>2026-03-28T08:47:49.848Z</time></trkpt><trkpt lat="45.2502322" lon="9.0271332"><ele>88.0</ele><time>2026-03-28T08:47:51.843Z</time></trkpt><trkpt lat="45.2502867" lon="9.0270706"><ele>88.0</ele><time>2026-03-28T08:47:53.843Z</time></trkpt><trkpt lat="45.2503392" lon="9.027014"><ele>88.0</ele><time>2026-03-28T08:47:55.845Z</time></trkpt><trkpt lat="45.2503942" lon="9.0269547"><ele>88.0</ele><time>2026-03-28T08:47:57.846Z</time></trkpt><trkpt lat="45.2504541" lon="9.0268897"><ele>88.0</ele><time>2026-03-28T08:47:59.853Z</time></trkpt><trkpt lat="45.2505063" lon="9.0268313"><ele>88.0</ele><time>2026-03-28T08:48:01.85Z</time></trkpt><trkpt lat="45.2505584" lon="9.0267738"><ele>88.0</ele><time>2026-03-28T08:48:03.834Z</time></trkpt><trkpt lat="45.2506185" lon="9.0267137"><ele>88.0</ele><time>2026-03-28T08:48:05.842Z</time></trkpt><trkpt lat="45.2506795" lon="9.0266636"><ele>88.0</ele><time>2026-03-28T08:48:07.844Z</time></trkpt><trkpt lat="45.2507384" lon="9.0266006"><ele>88.0</ele><time>2026-03-28T08:48:09.846Z</time></trkpt><trkpt lat="45.2507914" lon="9.0265465"><ele>88.0</ele><time>2026-03-28T08:48:11.849Z</time></trkpt><trkpt lat="45.2508423" lon="9.0264881"><ele>88.0</ele><time>2026-03-28T08:48:13.846Z</time></trkpt><trkpt lat="45.2509006" lon="9.0264312"><ele>88.0</ele><time>2026-03-28T08:48:15.849Z</time></trkpt><trkpt lat="45.2509541" lon="9.0263719"><ele>88.0</ele><time>2026-03-28T08:48:17.845Z</time></trkpt><trkpt lat="45.251007" lon="9.0263125"><ele>88.0</ele><time>2026-03-28T08:48:19.847Z</time></trkpt><trkpt lat="45.2510555" lon="9.0262503"><ele>88.0</ele><time>2026-03-28T08:48:21.843Z</time></trkpt><trkpt lat="45.2511234" lon="9.0261983"><ele>88.0</ele><time>2026-03-28T08:48:23.839Z</time></trkpt><trkpt lat="45.251174" lon="9.0261393"><ele>88.0</ele><time>2026-03-28T08:48:25.845Z</time></trkpt><trkpt lat="45.2512225" lon="9.0260818"><ele>88.0</ele><time>2026-03-28T08:48:27.849Z</time></trkpt><trkpt lat="45.2512673" lon="9.0260181"><ele>88.0</ele><time>2026-03-28T08:48:29.848Z</time></trkpt><trkpt lat="45.2513229" lon="9.025952"><ele>88.0</ele><time>2026-03-28T08:48:31.847Z</time></trkpt><trkpt lat="45.2513783" lon="9.0258758"><ele>88.0</ele><time>2026-03-28T08:48:33.851Z</time></trkpt><trkpt lat="45.2514363" lon="9.0258138"><ele>88.0</ele><time>2026-03-28T08:48:35.843Z</time></trkpt><trkpt lat="45.2514914" lon="9.0257491"><ele>88.0</ele><time>2026-03-28T08:48:37.846Z</time></trkpt><trkpt lat="45.2515459" lon="9.0256872"><ele>88.0</ele><time>2026-03-28T08:48:39.847Z</time></trkpt><trkpt lat="45.2516044" lon="9.0256272"><ele>88.0</ele><time>2026-03-28T08:48:41.907Z</time></trkpt><trkpt lat="45.2516598" lon="9.0255636"><ele>88.0</ele><time>2026-03-28T08:48:43.851Z</time></trkpt><trkpt lat="45.2517147" lon="9.0255027"><ele>88.0</ele><time>2026-03-28T08:48:45.849Z</time></trkpt><trkpt lat="45.2517735" lon="9.0254309"><ele>88.0</ele><time>2026-03-28T08:48:47.844Z</time></trkpt><trkpt lat="45.2518386" lon="9.0253658"><ele>88.0</ele><time>2026-03-28T08:48:49.845Z</time></trkpt><trkpt lat="45.2519006" lon="9.0253125"><ele>88.0</ele><time>2026-03-28T08:48:51.845Z</time></trkpt><trkpt lat="45.2519637" lon="9.0252735"><ele>88.0</ele><time>2026-03-28T08:48:53.852Z</time></trkpt><trkpt lat="45.2520257" lon="9.0252286"><ele>88.0</ele><time>2026-03-28T08:48:55.845Z</time></trkpt><trkpt lat="45.252087" lon="9.0251833"><ele>88.0</ele><time>2026-03-28T08:48:57.845Z</time></trkpt><trkpt lat="45.2521532" lon="9.0251371"><ele>88.0</ele><time>2026-03-28T08:48:59.842Z</time></trkpt><trkpt lat="45.252211" lon="9.0250846"><ele>88.0</ele><time>2026-03-28T08:49:01.851Z</time></trkpt><trkpt lat="45.2522708" lon="9.0250334"><ele>88.0</ele><time>2026-03-28T08:49:03.834Z</time></trkpt><trkpt lat="45.252332" lon="9.0249766"><ele>88.0</ele><time>2026-03-28T08:49:05.846Z</time></trkpt><trkpt lat="45.2523941" lon="9.0249091"><ele>88.42857142857143</ele><time>2026-03-28T08:49:07.908Z</time></trkpt><trkpt lat="45.2524407" lon="9.0248465"><ele>88.85714285714286</ele><time>2026-03-28T08:49:09.843Z</time></trkpt><trkpt lat="45.2524835" lon="9.0247705"><ele>89.28571428571428</ele><time>2026-03-28T08:49:11.839Z</time></trkpt><trkpt lat="45.2525275" lon="9.0246908"><ele>89.71428571428572</ele><time>2026-03-28T08:49:13.848Z</time></trkpt><trkpt lat="45.2525611" lon="9.0246141"><ele>90.14285714285714</ele><time>2026-03-28T08:49:15.842Z</time></trkpt><trkpt lat="45.2526008" lon="9.0245286"><ele>90.57142857142857</ele><time>2026-03-28T08:49:17.843Z</time></trkpt><trkpt lat="45.2526348" lon="9.0244444"><ele>91.0</ele><time>2026-03-28T08:49:19.86Z</time></trkpt><trkpt lat="45.2526769" lon="9.0243597"><ele>91.0</ele><time>2026-03-28T08:49:21.856Z</time></trkpt><trkpt lat="45.2527221" lon="9.0242701"><ele>91.0</ele><time>2026-03-28T08:49:23.845Z</time></trkpt><trkpt lat="45.252757" lon="9.0241859"><ele>91.0</ele><time>2026-03-28T08:49:25.841Z</time></trkpt><trkpt lat="45.2527936" lon="9.0241032"><ele>91.0</ele><time>2026-03-28T08:49:27.843Z</time></trkpt><trkpt lat="45.2528361" lon="9.0240194"><ele>91.0</ele><time>2026-03-28T08:49:29.86Z</time></trkpt><trkpt lat="45.2528876" lon="9.0239368"><ele>91.0</ele><time>2026-03-28T08:49:31.844Z</time></trkpt><trkpt lat="45.2529387" lon="9.0238731"><ele>91.0</ele><time>2026-03-28T08:49:33.842Z</time></trkpt><trkpt lat="45.2530028" lon="9.0237808"><ele>91.0</ele><time>2026-03-28T08:49:36.843Z</time></trkpt><trkpt lat="45.2530555" lon="9.0237181"><ele>91.0</ele><time>2026-03-28T08:49:38.846Z</time></trkpt><trkpt lat="45.2531119" lon="9.0236583"><ele>91.0</ele><time>2026-03-28T08:49:40.844Z</time></trkpt><trkpt lat="45.2531561" lon="9.0235764"><ele>91.0</ele><time>2026-03-28T08:49:42.84Z</time></trkpt><trkpt lat="45.2532214" lon="9.0234918"><ele>91.0</ele><time>2026-03-28T08:49:45.841Z</time></trkpt><trkpt lat="45.2532919" lon="9.0234247"><ele>91.0</ele><time>2026-03-28T08:49:48.848Z</time></trkpt><trkpt lat="45.2533579" lon="9.0233347"><ele>90.71428571428571</ele><time>2026-03-28T08:49:51.843Z</time></trkpt><trkpt lat="45.2534048" lon="9.0232502"><ele>90.42857142857143</ele><time>2026-03-28T08:49:53.848Z</time></trkpt><trkpt lat="45.2534572" lon="9.0231696"><ele>90.14285714285714</ele><time>2026-03-28T08:49:55.839Z</time></trkpt><trkpt lat="45.2534973" lon="9.0230965"><ele>89.85714285714286</ele><time>2026-03-28T08:49:57.845Z</time></trkpt><trkpt lat="45.2535431" lon="9.0230155"><ele>89.57142857142857</ele><time>2026-03-28T08:49:59.84Z</time></trkpt><trkpt lat="45.2535889" lon="9.0229411"><ele>89.28571428571428</ele><time>2026-03-28T08:50:01.854Z</time></trkpt><trkpt lat="45.2536354" lon="9.0228674"><ele>89.0</ele><time>2026-03-28T08:50:03.846Z</time></trkpt><trkpt lat="45.2536855" lon="9.0227733"><ele>88.99999999999999</ele><time>2026-03-28T08:50:05.844Z</time></trkpt><trkpt lat="45.2537278" lon="9.0227014"><ele>89.0</ele><time>2026-03-28T08:50:07.837Z</time></trkpt><trkpt lat="45.2537683" lon="9.0226249"><ele>89.0</ele><time>2026-03-28T08:50:09.841Z</time></trkpt><trkpt lat="45.2538091" lon="9.0225471"><ele>89.0</ele><time>2026-03-28T08:50:11.856Z</time></trkpt><trkpt lat="45.2538422" lon="9.0224698"><ele>89.0</ele><time>2026-03-28T08:50:13.848Z</time></trkpt><trkpt lat="45.2538811" lon="9.0223941"><ele>88.99999999999999</ele><time>2026-03-28T08:50:15.848Z</time></trkpt><trkpt lat="45.2539225" lon="9.0223114"><ele>89.0</ele><time>2026-03-28T08:50:17.846Z</time></trkpt><trkpt lat="45.2539554" lon="9.0222218"><ele>88.99999999999999</ele><time>2026-03-28T08:50:19.85Z</time></trkpt><trkpt lat="45.2539941" lon="9.0221291"><ele>89.0</ele><time>2026-03-28T08:50:21.854Z</time></trkpt><trkpt lat="45.2540331" lon="9.0220464"><ele>89.0</ele><time>2026-03-28T08:50:23.846Z</time></trkpt><trkpt lat="45.254078" lon="9.0219637"><ele>89.0</ele><time>2026-03-28T08:50:25.842Z</time></trkpt><trkpt lat="45.2541213" lon="9.0218744"><ele>89.0</ele><time>2026-03-28T08:50:27.846Z</time></trkpt><trkpt lat="45.2541604" lon="9.0217887"><ele>88.99999999999999</ele><time>2026-03-28T08:50:29.85Z</time></trkpt><trkpt lat="45.2541973" lon="9.0217049"><ele>89.0</ele><time>2026-03-28T08:50:31.855Z</time></trkpt><trkpt lat="45.2542382" lon="9.0216178"><ele>89.14285714285714</ele><time>2026-03-28T08:50:33.848Z</time></trkpt><trkpt lat="45.2542852" lon="9.0215229"><ele>89.28571428571428</ele><time>2026-03-28T08:50:35.85Z</time></trkpt><trkpt lat="45.2543247" lon="9.0214348"><ele>89.42857142857142</ele><time>2026-03-28T08:50:37.849Z</time></trkpt><trkpt lat="45.2543564" lon="9.0213382"><ele>89.57142857142857</ele><time>2026-03-28T08:50:39.842Z</time></trkpt><trkpt lat="45.2543525" lon="9.0212355"><ele>89.71428571428572</ele><time>2026-03-28T08:50:41.843Z</time></trkpt><trkpt lat="45.2543013" lon="9.0211534"><ele>89.85714285714285</ele><time>2026-03-28T08:50:43.848Z</time></trkpt><trkpt lat="45.2542416" lon="9.021107"><ele>90.0</ele><time>2026-03-28T08:50:45.843Z</time></trkpt><trkpt lat="45.2541833" lon="9.0210572"><ele>90.0</ele><time>2026-03-28T08:50:47.859Z</time></trkpt><trkpt lat="45.2541176" lon="9.0210085"><ele>90.0</ele><time>2026-03-28T08:50:49.841Z</time></trkpt><trkpt lat="45.2540535" lon="9.0209698"><ele>90.0</ele><time>2026-03-28T08:50:51.846Z</time></trkpt><trkpt lat="45.2539863" lon="9.0209301"><ele>90.0</ele><time>2026-03-28T08:50:53.925Z</time></trkpt><trkpt lat="45.2539188" lon="9.020874"><ele>90.0</ele><time>2026-03-28T08:50:55.847Z</time></trkpt><trkpt lat="45.2538516" lon="9.0208243"><ele>90.0</ele><time>2026-03-28T08:50:57.843Z</time></trkpt><trkpt lat="45.2537861" lon="9.0207614"><ele>89.85714285714285</ele><time>2026-03-28T08:50:59.843Z</time></trkpt><trkpt lat="45.2537182" lon="9.0207122"><ele>89.71428571428572</ele><time>2026-03-28T08:51:01.849Z</time></trkpt><trkpt lat="45.2536556" lon="9.0206697"><ele>89.57142857142857</ele><time>2026-03-28T08:51:03.851Z</time></trkpt><trkpt lat="45.2535887" lon="9.0206275"><ele>89.42857142857142</ele><time>2026-03-28T08:51:05.853Z</time></trkpt><trkpt lat="45.2535241" lon="9.0205779"><ele>89.28571428571428</ele><time>2026-03-28T08:51:07.842Z</time></trkpt><trkpt lat="45.2534581" lon="9.0205356"><ele>89.14285714285714</ele><time>2026-03-28T08:51:09.851Z</time></trkpt><trkpt lat="45.253399" lon="9.020493"><ele>89.0</ele><time>2026-03-28T08:51:11.845Z</time></trkpt><trkpt lat="45.2533384" lon="9.0204565"><ele>88.99999999999999</ele><time>2026-03-28T08:51:13.847Z</time></trkpt><trkpt lat="45.2532544" lon="9.0203855"><ele>89.0</ele><time>2026-03-28T08:51:16.845Z</time></trkpt><trkpt lat="45.2531966" lon="9.0203339"><ele>89.0</ele><time>2026-03-28T08:51:18.851Z</time></trkpt><trkpt lat="45.2531385" lon="9.0202809"><ele>89.0</ele><time>2026-03-28T08:51:20.843Z</time></trkpt><trkpt lat="45.2530801" lon="9.0202206"><ele>89.0</ele><time>2026-03-28T08:51:22.839Z</time></trkpt><trkpt lat="45.2530214" lon="9.0201608"><ele>88.99999999999999</ele><time>2026-03-28T08:51:24.846Z</time></trkpt><trkpt lat="45.2529662" lon="9.0201031"><ele>89.0</ele><time>2026-03-28T08:51:26.849Z</time></trkpt><trkpt lat="45.2529086" lon="9.0200362"><ele>88.99999999999999</ele><time>2026-03-28T08:51:28.838Z</time></trkpt><trkpt lat="45.2528501" lon="9.0199649"><ele>89.0</ele><time>2026-03-28T08:51:30.922Z</time></trkpt><trkpt lat="45.2528025" lon="9.0198884"><ele>89.0</ele><time>2026-03-28T08:51:32.855Z</time></trkpt><trkpt lat="45.2527617" lon="9.0198045"><ele>89.0</ele><time>2026-03-28T08:51:34.852Z</time></trkpt><trkpt lat="45.2527101" lon="9.0197234"><ele>89.0</ele><time>2026-03-28T08:51:36.863Z</time></trkpt><trkpt lat="45.2526644" lon="9.019643"><ele>88.99999999999999</ele><time>2026-03-28T08:51:38.854Z</time></trkpt><trkpt lat="45.2526252" lon="9.0195653"><ele>89.0</ele><time>2026-03-28T08:51:40.854Z</time></trkpt><trkpt lat="45.2525849" lon="9.0194879"><ele>88.99999999999999</ele><time>2026-03-28T08:51:42.848Z</time></trkpt><trkpt lat="45.2525423" lon="9.0194063"><ele>89.0</ele><time>2026-03-28T08:51:44.849Z</time></trkpt><trkpt lat="45.2524915" lon="9.0193256"><ele>89.0</ele><time>2026-03-28T08:51:46.844Z</time></trkpt><trkpt lat="45.2524487" lon="9.0192442"><ele>89.0</ele><time>2026-03-28T08:51:48.845Z</time></trkpt><trkpt lat="45.2524058" lon="9.0191574"><ele>89.0</ele><time>2026-03-28T08:51:50.849Z</time></trkpt><trkpt lat="45.2523642" lon="9.0190846"><ele>88.99999999999999</ele><time>2026-03-28T08:51:52.843Z</time></trkpt><trkpt lat="45.2523084" lon="9.0189872"><ele>89.0</ele><time>2026-03-28T08:51:55.841Z</time></trkpt><trkpt lat="45.2522631" lon="9.0189017"><ele>88.99999999999999</ele><time>2026-03-28T08:51:57.847Z</time></trkpt><trkpt lat="45.2522136" lon="9.018815"><ele>89.0</ele><time>2026-03-28T08:51:59.849Z</time></trkpt><trkpt lat="45.2521678" lon="9.0187365"><ele>89.0</ele><time>2026-03-28T08:52:01.842Z</time></trkpt><trkpt lat="45.2521225" lon="9.0186575"><ele>89.0</ele><time>2026-03-28T08:52:03.849Z</time></trkpt><trkpt lat="45.2520782" lon="9.0185794"><ele>89.0</ele><time>2026-03-28T08:52:05.839Z</time></trkpt><trkpt lat="45.252033" lon="9.0185101"><ele>88.99999999999999</ele><time>2026-03-28T08:52:07.837Z</time></trkpt><trkpt lat="45.2519848" lon="9.0184373"><ele>89.0</ele><time>2026-03-28T08:52:09.846Z</time></trkpt><trkpt lat="45.2519354" lon="9.0183626"><ele>89.0</ele><time>2026-03-28T08:52:11.845Z</time></trkpt><trkpt lat="45.2518899" lon="9.0182775"><ele>89.0</ele><time>2026-03-28T08:52:13.842Z</time></trkpt><trkpt lat="45.251844" lon="9.0181956"><ele>89.0</ele><time>2026-03-28T08:52:15.85Z</time></trkpt><trkpt lat="45.2517869" lon="9.0181149"><ele>89.0</ele><time>2026-03-28T08:52:17.85Z</time></trkpt><trkpt lat="45.2517396" lon="9.0180299"><ele>89.0</ele><time>2026-03-28T08:52:19.841Z</time></trkpt><trkpt lat="45.2516945" lon="9.0179248"><ele>89.0</ele><time>2026-03-28T08:52:21.913Z</time></trkpt><trkpt lat="45.2516552" lon="9.0178289"><ele>89.0</ele><time>2026-03-28T08:52:23.849Z</time></trkpt><trkpt lat="45.2516149" lon="9.0177348"><ele>89.0</ele><time>2026-03-28T08:52:25.847Z</time></trkpt><trkpt lat="45.2515797" lon="9.0176458"><ele>89.0</ele><time>2026-03-28T08:52:27.849Z</time></trkpt><trkpt lat="45.2515446" lon="9.0175433"><ele>89.0</ele><time>2026-03-28T08:52:29.843Z</time></trkpt><trkpt lat="45.2514993" lon="9.0174521"><ele>89.0</ele><time>2026-03-28T08:52:31.843Z</time></trkpt><trkpt lat="45.2514688" lon="9.0173581"><ele>89.0</ele><time>2026-03-28T08:52:33.851Z</time></trkpt><trkpt lat="45.2514261" lon="9.0172385"><ele>88.57142857142857</ele><time>2026-03-28T08:52:36.848Z</time></trkpt><trkpt lat="45.2514015" lon="9.0171445"><ele>88.14285714285714</ele><time>2026-03-28T08:52:38.847Z</time></trkpt><trkpt lat="45.2513709" lon="9.017058"><ele>87.71428571428572</ele><time>2026-03-28T08:52:40.843Z</time></trkpt><trkpt lat="45.2513441" lon="9.0169588"><ele>87.28571428571428</ele><time>2026-03-28T08:52:42.853Z</time></trkpt><trkpt lat="45.2513156" lon="9.0168604"><ele>86.85714285714286</ele><time>2026-03-28T08:52:44.846Z</time></trkpt><trkpt lat="45.2512748" lon="9.01677"><ele>86.42857142857143</ele><time>2026-03-28T08:52:46.844Z</time></trkpt><trkpt lat="45.2512439" lon="9.0166723"><ele>86.0</ele><time>2026-03-28T08:52:48.845Z</time></trkpt><trkpt lat="45.2511926" lon="9.0166059"><ele>86.0</ele><time>2026-03-28T08:52:50.851Z</time></trkpt><trkpt lat="45.2511641" lon="9.016508"><ele>86.0</ele><time>2026-03-28T08:52:52.857Z</time></trkpt><trkpt lat="45.2511322" lon="9.0164059"><ele>86.0</ele><time>2026-03-28T08:52:54.853Z</time></trkpt><trkpt lat="45.2510945" lon="9.0163073"><ele>86.0</ele><time>2026-03-28T08:52:56.841Z</time></trkpt><trkpt lat="45.2510619" lon="9.0162117"><ele>86.0</ele><time>2026-03-28T08:52:58.851Z</time></trkpt><trkpt lat="45.251032" lon="9.0161196"><ele>86.0</ele><time>2026-03-28T08:53:00.922Z</time></trkpt><trkpt lat="45.2509856" lon="9.0160003"><ele>86.0</ele><time>2026-03-28T08:53:03.844Z</time></trkpt><trkpt lat="45.2509427" lon="9.0159119"><ele>86.0</ele><time>2026-03-28T08:53:05.859Z</time></trkpt><trkpt lat="45.2509019" lon="9.0158154"><ele>86.0</ele><time>2026-03-28T08:53:07.843Z</time></trkpt><trkpt lat="45.2508671" lon="9.0157185"><ele>86.0</ele><time>2026-03-28T08:53:09.838Z</time></trkpt><trkpt lat="45.2508358" lon="9.0156214"><ele>86.0</ele><time>2026-03-28T08:53:11.848Z</time></trkpt><trkpt lat="45.2507908" lon="9.0154992"><ele>86.0</ele><time>2026-03-28T08:53:14.844Z</time></trkpt><trkpt lat="45.2507492" lon="9.0154009"><ele>86.00000000000001</ele><time>2026-03-28T08:53:16.849Z</time></trkpt><trkpt lat="45.2507082" lon="9.0153213"><ele>86.0</ele><time>2026-03-28T08:53:18.842Z</time></trkpt><trkpt lat="45.2506747" lon="9.0152384"><ele>86.0</ele><time>2026-03-28T08:53:20.842Z</time></trkpt><trkpt lat="45.2506469" lon="9.0151538"><ele>86.0</ele><time>2026-03-28T08:53:22.844Z</time></trkpt><trkpt lat="45.2506157" lon="9.0150591"><ele>86.0</ele><time>2026-03-28T08:53:24.844Z</time></trkpt><trkpt lat="45.2505813" lon="9.0149625"><ele>86.00000000000001</ele><time>2026-03-28T08:53:26.842Z</time></trkpt><trkpt lat="45.2505539" lon="9.0148739"><ele>86.0</ele><time>2026-03-28T08:53:28.847Z</time></trkpt><trkpt lat="45.2505242" lon="9.0147949"><ele>86.00000000000001</ele><time>2026-03-28T08:53:30.847Z</time></trkpt><trkpt lat="45.2504964" lon="9.0146965"><ele>86.0</ele><time>2026-03-28T08:53:32.85Z</time></trkpt><trkpt lat="45.2504644" lon="9.0146152"><ele>86.0</ele><time>2026-03-28T08:53:34.845Z</time></trkpt><trkpt lat="45.2504311" lon="9.0145318"><ele>86.0</ele><time>2026-03-28T08:53:36.847Z</time></trkpt><trkpt lat="45.2504006" lon="9.0144469"><ele>86.0</ele><time>2026-03-28T08:53:38.85Z</time></trkpt><trkpt lat="45.2503752" lon="9.0143496"><ele>86.00000000000001</ele><time>2026-03-28T08:53:40.84Z</time></trkpt><trkpt lat="45.2503437" lon="9.0142457"><ele>86.0</ele><time>2026-03-28T08:53:42.849Z</time></trkpt><trkpt lat="45.2503112" lon="9.0141501"><ele>86.16666666666667</ele><time>2026-03-28T08:53:44.862Z</time></trkpt><trkpt lat="45.250277" lon="9.0140164"><ele>86.33333333333334</ele><time>2026-03-28T08:53:47.841Z</time></trkpt><trkpt lat="45.2502463" lon="9.0139359"><ele>86.5</ele><time>2026-03-28T08:53:49.859Z</time></trkpt><trkpt lat="45.2502056" lon="9.0138527"><ele>86.66666666666667</ele><time>2026-03-28T08:53:51.845Z</time></trkpt><trkpt lat="45.250149" lon="9.0137771"><ele>86.83333333333333</ele><time>2026-03-28T08:53:53.846Z</time></trkpt><trkpt lat="45.2500843" lon="9.0136908"><ele>87.0</ele><time>2026-03-28T08:53:55.843Z</time></trkpt><trkpt lat="45.2500081" lon="9.0136278"><ele>87.0</ele><time>2026-03-28T08:53:57.847Z</time></trkpt><trkpt lat="45.2499352" lon="9.0135716"><ele>87.0</ele><time>2026-03-28T08:53:59.848Z</time></trkpt><trkpt lat="45.249887" lon="9.0135086"><ele>87.0</ele><time>2026-03-28T08:54:01.842Z</time></trkpt><trkpt lat="45.2498568" lon="9.0133988"><ele>87.0</ele><time>2026-03-28T08:54:04.849Z</time></trkpt><trkpt lat="45.2498826" lon="9.0132971"><ele>87.0</ele><time>2026-03-28T08:54:06.839Z</time></trkpt><trkpt lat="45.2499295" lon="9.01321"><ele>87.0</ele><time>2026-03-28T08:54:08.847Z</time></trkpt><trkpt lat="45.2499857" lon="9.0131256"><ele>86.66666666666667</ele><time>2026-03-28T08:54:10.844Z</time></trkpt><trkpt lat="45.2500554" lon="9.0130581"><ele>86.33333333333333</ele><time>2026-03-28T08:54:12.837Z</time></trkpt><trkpt lat="45.2501114" lon="9.0129879"><ele>86.0</ele><time>2026-03-28T08:54:14.853Z</time></trkpt><trkpt lat="45.2501664" lon="9.0129057"><ele>85.66666666666666</ele><time>2026-03-28T08:54:16.851Z</time></trkpt><trkpt lat="45.2502379" lon="9.0128445"><ele>85.33333333333333</ele><time>2026-03-28T08:54:18.849Z</time></trkpt><trkpt lat="45.2503184" lon="9.0127911"><ele>85.0</ele><time>2026-03-28T08:54:20.849Z</time></trkpt><trkpt lat="45.2504171" lon="9.0127379"><ele>85.0</ele><time>2026-03-28T08:54:22.921Z</time></trkpt><trkpt lat="45.2505088" lon="9.0127148"><ele>85.0</ele><time>2026-03-28T08:54:24.846Z</time></trkpt><trkpt lat="45.2505891" lon="9.0127021"><ele>85.0</ele><time>2026-03-28T08:54:26.848Z</time></trkpt><trkpt lat="45.2506661" lon="9.0126995"><ele>85.0</ele><time>2026-03-28T08:54:28.855Z</time></trkpt><trkpt lat="45.2507456" lon="9.0127053"><ele>85.0</ele><time>2026-03-28T08:54:30.864Z</time></trkpt><trkpt lat="45.250834" lon="9.0127172"><ele>85.0</ele><time>2026-03-28T08:54:32.844Z</time></trkpt><trkpt lat="45.2509325" lon="9.0127474"><ele>85.8</ele><time>2026-03-28T08:54:34.854Z</time></trkpt><trkpt lat="45.2510591" lon="9.0128181"><ele>86.6</ele><time>2026-03-28T08:54:37.839Z</time></trkpt><trkpt lat="45.2511393" lon="9.0128955"><ele>87.4</ele><time>2026-03-28T08:54:39.842Z</time></trkpt><trkpt lat="45.2512007" lon="9.0129828"><ele>88.2</ele><time>2026-03-28T08:54:41.849Z</time></trkpt><trkpt lat="45.251258" lon="9.0130529"><ele>89.0</ele><time>2026-03-28T08:54:43.849Z</time></trkpt><trkpt lat="45.2513203" lon="9.0131105"><ele>89.0</ele><time>2026-03-28T08:54:45.848Z</time></trkpt><trkpt lat="45.2513802" lon="9.0131825"><ele>89.0</ele><time>2026-03-28T08:54:47.857Z</time></trkpt><trkpt lat="45.2514717" lon="9.0132347"><ele>89.0</ele><time>2026-03-28T08:54:49.852Z</time></trkpt><trkpt lat="45.251543" lon="9.0132866"><ele>89.0</ele><time>2026-03-28T08:54:51.843Z</time></trkpt><trkpt lat="45.2516298" lon="9.0133279"><ele>89.0</ele><time>2026-03-28T08:54:53.845Z</time></trkpt><trkpt lat="45.2517193" lon="9.0133828"><ele>89.0</ele><time>2026-03-28T08:54:55.845Z</time></trkpt><trkpt lat="45.2518126" lon="9.0134254"><ele>89.16666666666667</ele><time>2026-03-28T08:54:57.857Z</time></trkpt><trkpt lat="45.2518985" lon="9.0134628"><ele>89.33333333333334</ele><time>2026-03-28T08:54:59.844Z</time></trkpt><trkpt lat="45.2519707" lon="9.0134869"><ele>89.5</ele><time>2026-03-28T08:55:01.843Z</time></trkpt><trkpt lat="45.2520438" lon="9.0135091"><ele>89.66666666666667</ele><time>2026-03-28T08:55:03.846Z</time></trkpt><trkpt lat="45.2521336" lon="9.0135325"><ele>89.83333333333333</ele><time>2026-03-28T08:55:05.843Z</time></trkpt><trkpt lat="45.2522091" lon="9.0135509"><ele>90.0</ele><time>2026-03-28T08:55:07.846Z</time></trkpt><trkpt lat="45.2522965" lon="9.0135648"><ele>90.5</ele><time>2026-03-28T08:55:09.842Z</time></trkpt><trkpt lat="45.2523843" lon="9.0135653"><ele>91.0</ele><time>2026-03-28T08:55:11.846Z</time></trkpt><trkpt lat="45.2524828" lon="9.013539"><ele>91.5</ele><time>2026-03-28T08:55:13.85Z</time></trkpt><trkpt lat="45.2525734" lon="9.0135113"><ele>92.0</ele><time>2026-03-28T08:55:15.852Z</time></trkpt><trkpt lat="45.2526508" lon="9.0134621"><ele>92.5</ele><time>2026-03-28T08:55:17.842Z</time></trkpt><trkpt lat="45.2527187" lon="9.0134123"><ele>93.0</ele><time>2026-03-28T08:55:19.843Z</time></trkpt><trkpt lat="45.2527909" lon="9.0133611"><ele>93.0</ele><time>2026-03-28T08:55:21.838Z</time></trkpt><trkpt lat="45.2528576" lon="9.0133137"><ele>93.0</ele><time>2026-03-28T08:55:23.848Z</time></trkpt><trkpt lat="45.2529183" lon="9.0132437"><ele>93.0</ele><time>2026-03-28T08:55:25.855Z</time></trkpt><trkpt lat="45.2530189" lon="9.0131766"><ele>93.0</ele><time>2026-03-28T08:55:27.839Z</time></trkpt><trkpt lat="45.2531016" lon="9.0131523"><ele>93.0</ele><time>2026-03-28T08:55:29.846Z</time></trkpt><trkpt lat="45.2531714" lon="9.0131544"><ele>93.0</ele><time>2026-03-28T08:55:31.846Z</time></trkpt><trkpt lat="45.2532424" lon="9.0131902"><ele>92.83333333333333</ele><time>2026-03-28T08:55:33.861Z</time></trkpt><trkpt lat="45.2533204" lon="9.0132435"><ele>92.66666666666667</ele><time>2026-03-28T08:55:35.845Z</time></trkpt><trkpt lat="45.2533918" lon="9.013293"><ele>92.5</ele><time>2026-03-28T08:55:37.852Z</time></trkpt><trkpt lat="45.2534589" lon="9.0133485"><ele>92.33333333333334</ele><time>2026-03-28T08:55:39.842Z</time></trkpt><trkpt lat="45.2535262" lon="9.0134022"><ele>92.16666666666667</ele><time>2026-03-28T08:55:41.841Z</time></trkpt><trkpt lat="45.2535962" lon="9.0134388"><ele>92.0</ele><time>2026-03-28T08:55:43.845Z</time></trkpt><trkpt lat="45.2536701" lon="9.0134884"><ele>92.5</ele><time>2026-03-28T08:55:45.847Z</time></trkpt><trkpt lat="45.2537467" lon="9.0135409"><ele>93.0</ele><time>2026-03-28T08:55:47.847Z</time></trkpt><trkpt lat="45.2538354" lon="9.013603"><ele>93.5</ele><time>2026-03-28T08:55:49.843Z</time></trkpt><trkpt lat="45.2539147" lon="9.0136552"><ele>94.0</ele><time>2026-03-28T08:55:51.842Z</time></trkpt><trkpt lat="45.2539814" lon="9.0137054"><ele>94.5</ele><time>2026-03-28T08:55:53.841Z</time></trkpt><trkpt lat="45.2540669" lon="9.0137568"><ele>95.0</ele><time>2026-03-28T08:55:55.853Z</time></trkpt><trkpt lat="45.2541489" lon="9.0137933"><ele>93.66666666666667</ele><time>2026-03-28T08:55:57.85Z</time></trkpt><trkpt lat="45.254215" lon="9.0138399"><ele>92.33333333333334</ele><time>2026-03-28T08:55:59.854Z</time></trkpt><trkpt lat="45.2542779" lon="9.0138815"><ele>91.0</ele><time>2026-03-28T08:56:01.842Z</time></trkpt><trkpt lat="45.2543485" lon="9.013921"><ele>89.66666666666667</ele><time>2026-03-28T08:56:03.849Z</time></trkpt><trkpt lat="45.2544363" lon="9.0139772"><ele>88.33333333333333</ele><time>2026-03-28T08:56:05.835Z</time></trkpt><trkpt lat="45.2545155" lon="9.0140169"><ele>87.0</ele><time>2026-03-28T08:56:07.848Z</time></trkpt><trkpt lat="45.2546033" lon="9.0140274"><ele>87.0</ele><time>2026-03-28T08:56:09.851Z</time></trkpt><trkpt lat="45.2546992" lon="9.0140183"><ele>87.0</ele><time>2026-03-28T08:56:11.849Z</time></trkpt><trkpt lat="45.2547918" lon="9.0139764"><ele>87.0</ele><time>2026-03-28T08:56:13.856Z</time></trkpt><trkpt lat="45.2548689" lon="9.0139268"><ele>87.0</ele><time>2026-03-28T08:56:15.843Z</time></trkpt><trkpt lat="45.2549432" lon="9.0138716"><ele>87.0</ele><time>2026-03-28T08:56:17.84Z</time></trkpt><trkpt lat="45.2550194" lon="9.0138163"><ele>87.0</ele><time>2026-03-28T08:56:19.847Z</time></trkpt><trkpt lat="45.2550966" lon="9.013767"><ele>87.0</ele><time>2026-03-28T08:56:21.853Z</time></trkpt><trkpt lat="45.2551595" lon="9.0137218"><ele>87.0</ele><time>2026-03-28T08:56:23.839Z</time></trkpt><trkpt lat="45.2552303" lon="9.013668"><ele>87.0</ele><time>2026-03-28T08:56:25.848Z</time></trkpt><trkpt lat="45.2553102" lon="9.0136236"><ele>87.0</ele><time>2026-03-28T08:56:27.845Z</time></trkpt><trkpt lat="45.2553831" lon="9.0135912"><ele>87.0</ele><time>2026-03-28T08:56:29.848Z</time></trkpt><trkpt lat="45.2554595" lon="9.0135719"><ele>87.0</ele><time>2026-03-28T08:56:31.839Z</time></trkpt><trkpt lat="45.2555353" lon="9.0135531"><ele>87.0</ele><time>2026-03-28T08:56:33.842Z</time></trkpt><trkpt lat="45.2556092" lon="9.0135178"><ele>87.0</ele><time>2026-03-28T08:56:35.851Z</time></trkpt><trkpt lat="45.2556844" lon="9.0134828"><ele>87.0</ele><time>2026-03-28T08:56:37.85Z</time></trkpt><trkpt lat="45.2557663" lon="9.0134302"><ele>87.0</ele><time>2026-03-28T08:56:39.853Z</time></trkpt><trkpt lat="45.255839" lon="9.0133795"><ele>87.0</ele><time>2026-03-28T08:56:41.837Z</time></trkpt><trkpt lat="45.2559107" lon="9.0133247"><ele>87.0</ele><time>2026-03-28T08:56:43.849Z</time></trkpt><trkpt lat="45.2559788" lon="9.0132658"><ele>87.16666666666667</ele><time>2026-03-28T08:56:45.844Z</time></trkpt><trkpt lat="45.2560459" lon="9.0132064"><ele>87.33333333333333</ele><time>2026-03-28T08:56:47.847Z</time></trkpt><trkpt lat="45.2561024" lon="9.0131481"><ele>87.5</ele><time>2026-03-28T08:56:49.849Z</time></trkpt><trkpt lat="45.2561658" lon="9.0130781"><ele>87.66666666666666</ele><time>2026-03-28T08:56:51.847Z</time></trkpt><trkpt lat="45.2562252" lon="9.0130145"><ele>87.83333333333333</ele><time>2026-03-28T08:56:53.836Z</time></trkpt><trkpt lat="45.2562787" lon="9.0128949"><ele>88.0</ele><time>2026-03-28T08:56:55.853Z</time></trkpt><trkpt lat="45.2563263" lon="9.0127925"><ele>88.0</ele><time>2026-03-28T08:56:57.843Z</time></trkpt><trkpt lat="45.2563795" lon="9.0126994"><ele>88.0</ele><time>2026-03-28T08:56:59.844Z</time></trkpt><trkpt lat="45.2564237" lon="9.0126049"><ele>88.0</ele><time>2026-03-28T08:57:01.847Z</time></trkpt><trkpt lat="45.2564722" lon="9.0125292"><ele>88.0</ele><time>2026-03-28T08:57:03.851Z</time></trkpt><trkpt lat="45.2565313" lon="9.0124615"><ele>88.0</ele><time>2026-03-28T08:57:05.917Z</time></trkpt><trkpt lat="45.2565886" lon="9.0123815"><ele>88.0</ele><time>2026-03-28T08:57:07.853Z</time></trkpt><trkpt lat="45.2566386" lon="9.0123046"><ele>88.0</ele><time>2026-03-28T08:57:09.843Z</time></trkpt><trkpt lat="45.2566958" lon="9.0122191"><ele>88.0</ele><time>2026-03-28T08:57:11.847Z</time></trkpt><trkpt lat="45.2567597" lon="9.0121267"><ele>88.0</ele><time>2026-03-28T08:57:13.85Z</time></trkpt><trkpt lat="45.2568169" lon="9.0120386"><ele>88.0</ele><time>2026-03-28T08:57:15.852Z</time></trkpt><trkpt lat="45.2568656" lon="9.0119479"><ele>88.0</ele><time>2026-03-28T08:57:17.847Z</time></trkpt><trkpt lat="45.2569081" lon="9.0118533"><ele>88.0</ele><time>2026-03-28T08:57:19.849Z</time></trkpt><trkpt lat="45.2569481" lon="9.0117476"><ele>87.83333333333333</ele><time>2026-03-28T08:57:21.85Z</time></trkpt><trkpt lat="45.2570011" lon="9.0116513"><ele>87.66666666666666</ele><time>2026-03-28T08:57:23.866Z</time></trkpt><trkpt lat="45.2570569" lon="9.0115587"><ele>87.5</ele><time>2026-03-28T08:57:25.833Z</time></trkpt><trkpt lat="45.2571276" lon="9.011493"><ele>87.33333333333333</ele><time>2026-03-28T08:57:27.847Z</time></trkpt><trkpt lat="45.2571976" lon="9.0114282"><ele>87.16666666666667</ele><time>2026-03-28T08:57:29.854Z</time></trkpt><trkpt lat="45.25727" lon="9.0113563"><ele>87.0</ele><time>2026-03-28T08:57:31.916Z</time></trkpt><trkpt lat="45.2573334" lon="9.0112909"><ele>87.5</ele><time>2026-03-28T08:57:33.844Z</time></trkpt><trkpt lat="45.2574007" lon="9.0112276"><ele>88.0</ele><time>2026-03-28T08:57:35.845Z</time></trkpt><trkpt lat="45.2574624" lon="9.0111574"><ele>88.5</ele><time>2026-03-28T08:57:37.862Z</time></trkpt><trkpt lat="45.257531" lon="9.0111009"><ele>89.0</ele><time>2026-03-28T08:57:39.84Z</time></trkpt><trkpt lat="45.2575996" lon="9.0110469"><ele>89.5</ele><time>2026-03-28T08:57:41.841Z</time></trkpt><trkpt lat="45.2576637" lon="9.0109873"><ele>90.0</ele><time>2026-03-28T08:57:43.849Z</time></trkpt><trkpt lat="45.2577304" lon="9.0109192"><ele>90.0</ele><time>2026-03-28T08:57:45.851Z</time></trkpt><trkpt lat="45.2577983" lon="9.0108596"><ele>90.0</ele><time>2026-03-28T08:57:47.844Z</time></trkpt><trkpt lat="45.2578574" lon="9.0107866"><ele>90.0</ele><time>2026-03-28T08:57:49.849Z</time></trkpt><trkpt lat="45.2579223" lon="9.0107153"><ele>90.0</ele><time>2026-03-28T08:57:51.849Z</time></trkpt><trkpt lat="45.2579868" lon="9.0106403"><ele>90.0</ele><time>2026-03-28T08:57:53.855Z</time></trkpt><trkpt lat="45.2580472" lon="9.010571"><ele>90.0</ele><time>2026-03-28T08:57:55.842Z</time></trkpt><trkpt lat="45.2581088" lon="9.0105056"><ele>90.16666666666667</ele><time>2026-03-28T08:57:57.842Z</time></trkpt><trkpt lat="45.2581646" lon="9.0104458"><ele>90.33333333333333</ele><time>2026-03-28T08:57:59.846Z</time></trkpt><trkpt lat="45.258235" lon="9.0103792"><ele>90.5</ele><time>2026-03-28T08:58:01.846Z</time></trkpt><trkpt lat="45.2583078" lon="9.010314"><ele>90.66666666666666</ele><time>2026-03-28T08:58:03.849Z</time></trkpt><trkpt lat="45.2583686" lon="9.010239"><ele>90.83333333333333</ele><time>2026-03-28T08:58:05.845Z</time></trkpt><trkpt lat="45.2584309" lon="9.0101621"><ele>91.0</ele><time>2026-03-28T08:58:07.842Z</time></trkpt><trkpt lat="45.258493" lon="9.0100799"><ele>91.0</ele><time>2026-03-28T08:58:09.841Z</time></trkpt><trkpt lat="45.2585603" lon="9.0099965"><ele>91.0</ele><time>2026-03-28T08:58:11.848Z</time></trkpt><trkpt lat="45.2586192" lon="9.0099377"><ele>91.0</ele><time>2026-03-28T08:58:13.918Z</time></trkpt><trkpt lat="45.25869" lon="9.0098752"><ele>91.0</ele><time>2026-03-28T08:58:15.844Z</time></trkpt><trkpt lat="45.2587484" lon="9.0098233"><ele>91.0</ele><time>2026-03-28T08:58:17.841Z</time></trkpt><trkpt lat="45.2588094" lon="9.0097706"><ele>91.0</ele><time>2026-03-28T08:58:19.838Z</time></trkpt><trkpt lat="45.258868" lon="9.0097084"><ele>91.0</ele><time>2026-03-28T08:58:21.845Z</time></trkpt><trkpt lat="45.2589259" lon="9.009643"><ele>91.0</ele><time>2026-03-28T08:58:23.852Z</time></trkpt><trkpt lat="45.2589949" lon="9.0095669"><ele>91.0</ele><time>2026-03-28T08:58:25.842Z</time></trkpt><trkpt lat="45.2590824" lon="9.0094856"><ele>91.0</ele><time>2026-03-28T08:58:27.845Z</time></trkpt><trkpt lat="45.2591652" lon="9.0094262"><ele>91.0</ele><time>2026-03-28T08:58:29.846Z</time></trkpt><trkpt lat="45.2592329" lon="9.0093814"><ele>91.0</ele><time>2026-03-28T08:58:31.849Z</time></trkpt><trkpt lat="45.2593043" lon="9.0093574"><ele>91.0</ele><time>2026-03-28T08:58:33.85Z</time></trkpt><trkpt lat="45.2593773" lon="9.0093218"><ele>91.0</ele><time>2026-03-28T08:58:35.851Z</time></trkpt><trkpt lat="45.2594394" lon="9.0092987"><ele>91.0</ele><time>2026-03-28T08:58:37.847Z</time></trkpt><trkpt lat="45.2595185" lon="9.0092245"><ele>91.0</ele><time>2026-03-28T08:58:40.851Z</time></trkpt><trkpt lat="45.2595669" lon="9.0091367"><ele>91.0</ele><time>2026-03-28T08:58:42.849Z</time></trkpt><trkpt lat="45.259603" lon="9.0090518"><ele>91.0</ele><time>2026-03-28T08:58:44.846Z</time></trkpt><trkpt lat="45.2596385" lon="9.0089709"><ele>90.85714285714286</ele><time>2026-03-28T08:58:46.848Z</time></trkpt><trkpt lat="45.2596779" lon="9.0088886"><ele>90.71428571428572</ele><time>2026-03-28T08:58:48.848Z</time></trkpt><trkpt lat="45.2597233" lon="9.0087901"><ele>90.57142857142857</ele><time>2026-03-28T08:58:50.849Z</time></trkpt><trkpt lat="45.2597692" lon="9.0087102"><ele>90.42857142857143</ele><time>2026-03-28T08:58:52.928Z</time></trkpt><trkpt lat="45.2598116" lon="9.0086368"><ele>90.28571428571429</ele><time>2026-03-28T08:58:54.843Z</time></trkpt><trkpt lat="45.2598517" lon="9.0085599"><ele>90.14285714285714</ele><time>2026-03-28T08:58:56.843Z</time></trkpt><trkpt lat="45.2598988" lon="9.0084769"><ele>90.0</ele><time>2026-03-28T08:58:58.854Z</time></trkpt><trkpt lat="45.2599429" lon="9.0083889"><ele>89.71428571428571</ele><time>2026-03-28T08:59:01.837Z</time></trkpt><trkpt lat="45.2599853" lon="9.0083048"><ele>89.42857142857143</ele><time>2026-03-28T08:59:03.844Z</time></trkpt><trkpt lat="45.2600188" lon="9.0082115"><ele>89.14285714285714</ele><time>2026-03-28T08:59:05.846Z</time></trkpt><trkpt lat="45.260056" lon="9.0081348"><ele>88.85714285714286</ele><time>2026-03-28T08:59:07.916Z</time></trkpt><trkpt lat="45.2600926" lon="9.0080476"><ele>88.57142857142857</ele><time>2026-03-28T08:59:09.844Z</time></trkpt><trkpt lat="45.2601317" lon="9.0079538"><ele>88.28571428571429</ele><time>2026-03-28T08:59:11.845Z</time></trkpt><trkpt lat="45.2601693" lon="9.007852"><ele>88.0</ele><time>2026-03-28T08:59:13.843Z</time></trkpt><trkpt lat="45.2602049" lon="9.0077558"><ele>88.0</ele><time>2026-03-28T08:59:15.843Z</time></trkpt><trkpt lat="45.2602451" lon="9.0076583"><ele>88.0</ele><time>2026-03-28T08:59:17.845Z</time></trkpt><trkpt lat="45.2602861" lon="9.00757"><ele>88.0</ele><time>2026-03-28T08:59:19.843Z</time></trkpt><trkpt lat="45.260334" lon="9.0074675"><ele>88.0</ele><time>2026-03-28T08:59:21.846Z</time></trkpt><trkpt lat="45.260382" lon="9.007376"><ele>88.0</ele><time>2026-03-28T08:59:23.864Z</time></trkpt><trkpt lat="45.2604226" lon="9.0072734"><ele>88.0</ele><time>2026-03-28T08:59:25.85Z</time></trkpt><trkpt lat="45.2604713" lon="9.0071654"><ele>88.5</ele><time>2026-03-28T08:59:27.84Z</time></trkpt><trkpt lat="45.2605094" lon="9.0070515"><ele>89.0</ele><time>2026-03-28T08:59:29.857Z</time></trkpt><trkpt lat="45.260553" lon="9.0069517"><ele>89.5</ele><time>2026-03-28T08:59:31.844Z</time></trkpt><trkpt lat="45.260606" lon="9.0068611"><ele>90.0</ele><time>2026-03-28T08:59:33.847Z</time></trkpt><trkpt lat="45.2606607" lon="9.0067919"><ele>90.5</ele><time>2026-03-28T08:59:35.926Z</time></trkpt><trkpt lat="45.2607067" lon="9.0067281"><ele>91.0</ele><time>2026-03-28T08:59:37.859Z</time></trkpt><trkpt lat="45.2607529" lon="9.0066662"><ele>90.16666666666666</ele><time>2026-03-28T08:59:39.843Z</time></trkpt><trkpt lat="45.2608034" lon="9.0065875"><ele>89.33333333333333</ele><time>2026-03-28T08:59:41.843Z</time></trkpt><trkpt lat="45.2608598" lon="9.0064975"><ele>88.5</ele><time>2026-03-28T08:59:43.845Z</time></trkpt><trkpt lat="45.2609102" lon="9.0063777"><ele>87.66666666666667</ele><time>2026-03-28T08:59:46.851Z</time></trkpt><trkpt lat="45.2609657" lon="9.0063073"><ele>86.83333333333334</ele><time>2026-03-28T08:59:48.915Z</time></trkpt><trkpt lat="45.2610164" lon="9.006227"><ele>86.0</ele><time>2026-03-28T08:59:50.838Z</time></trkpt><trkpt lat="45.2610554" lon="9.0061534"><ele>86.0</ele><time>2026-03-28T08:59:52.848Z</time></trkpt><trkpt lat="45.2611022" lon="9.0060801"><ele>86.0</ele><time>2026-03-28T08:59:54.846Z</time></trkpt><trkpt lat="45.2611569" lon="9.0059991"><ele>86.0</ele><time>2026-03-28T08:59:56.857Z</time></trkpt><trkpt lat="45.2612283" lon="9.0059117"><ele>86.0</ele><time>2026-03-28T08:59:58.849Z</time></trkpt><trkpt lat="45.2612725" lon="9.0058361"><ele>86.0</ele><time>2026-03-28T09:00:00.846Z</time></trkpt><trkpt lat="45.2613195" lon="9.0057726"><ele>86.0</ele><time>2026-03-28T09:00:02.912Z</time></trkpt><trkpt lat="45.2613869" lon="9.0056865"><ele>86.5</ele><time>2026-03-28T09:00:05.852Z</time></trkpt><trkpt lat="45.2614627" lon="9.0056013"><ele>87.0</ele><time>2026-03-28T09:00:08.844Z</time></trkpt><trkpt lat="45.261544" lon="9.005525"><ele>87.5</ele><time>2026-03-28T09:00:10.851Z</time></trkpt><trkpt lat="45.2616132" lon="9.0054577"><ele>88.0</ele><time>2026-03-28T09:00:12.845Z</time></trkpt><trkpt lat="45.2616846" lon="9.0053889"><ele>88.5</ele><time>2026-03-28T09:00:14.842Z</time></trkpt><trkpt lat="45.2617477" lon="9.00533"><ele>89.0</ele><time>2026-03-28T09:00:16.84Z</time></trkpt><trkpt lat="45.2618191" lon="9.0052616"><ele>89.0</ele><time>2026-03-28T09:00:18.853Z</time></trkpt><trkpt lat="45.2618844" lon="9.0051971"><ele>89.0</ele><time>2026-03-28T09:00:20.847Z</time></trkpt><trkpt lat="45.2619492" lon="9.0051327"><ele>89.0</ele><time>2026-03-28T09:00:22.855Z</time></trkpt><trkpt lat="45.2620037" lon="9.005047"><ele>89.0</ele><time>2026-03-28T09:00:24.857Z</time></trkpt><trkpt lat="45.2620605" lon="9.0049678"><ele>89.0</ele><time>2026-03-28T09:00:26.925Z</time></trkpt><trkpt lat="45.2621074" lon="9.0048785"><ele>89.0</ele><time>2026-03-28T09:00:28.846Z</time></trkpt><trkpt lat="45.2621572" lon="9.0048006"><ele>88.66666666666667</ele><time>2026-03-28T09:00:30.847Z</time></trkpt><trkpt lat="45.2622067" lon="9.0047204"><ele>88.33333333333334</ele><time>2026-03-28T09:00:32.844Z</time></trkpt><trkpt lat="45.262263" lon="9.0046412"><ele>88.0</ele><time>2026-03-28T09:00:34.846Z</time></trkpt><trkpt lat="45.2623041" lon="9.0045676"><ele>87.66666666666667</ele><time>2026-03-28T09:00:36.854Z</time></trkpt><trkpt lat="45.2623607" lon="9.004459"><ele>87.33333333333333</ele><time>2026-03-28T09:00:39.843Z</time></trkpt><trkpt lat="45.2624096" lon="9.0043707"><ele>87.0</ele><time>2026-03-28T09:00:41.842Z</time></trkpt><trkpt lat="45.2624557" lon="9.0042861"><ele>87.66666666666667</ele><time>2026-03-28T09:00:43.853Z</time></trkpt><trkpt lat="45.2625013" lon="9.0042089"><ele>88.33333333333333</ele><time>2026-03-28T09:00:45.846Z</time></trkpt><trkpt lat="45.2625484" lon="9.00414"><ele>89.0</ele><time>2026-03-28T09:00:47.848Z</time></trkpt><trkpt lat="45.2625865" lon="9.00404"><ele>89.66666666666666</ele><time>2026-03-28T09:00:49.852Z</time></trkpt><trkpt lat="45.262635" lon="9.0039607"><ele>90.33333333333333</ele><time>2026-03-28T09:00:51.85Z</time></trkpt><trkpt lat="45.2626875" lon="9.003895"><ele>91.0</ele><time>2026-03-28T09:00:53.845Z</time></trkpt><trkpt lat="45.2627539" lon="9.0038054"><ele>91.0</ele><time>2026-03-28T09:00:56.925Z</time></trkpt><trkpt lat="45.2628057" lon="9.0037481"><ele>91.0</ele><time>2026-03-28T09:00:58.848Z</time></trkpt><trkpt lat="45.2628619" lon="9.0036647"><ele>91.0</ele><time>2026-03-28T09:01:00.846Z</time></trkpt><trkpt lat="45.2629098" lon="9.0035958"><ele>91.0</ele><time>2026-03-28T09:01:02.856Z</time></trkpt><trkpt lat="45.2629646" lon="9.0035242"><ele>91.0</ele><time>2026-03-28T09:01:04.844Z</time></trkpt><trkpt lat="45.2630075" lon="9.0034365"><ele>91.0</ele><time>2026-03-28T09:01:06.854Z</time></trkpt><trkpt lat="45.2630568" lon="9.0033469"><ele>91.0</ele><time>2026-03-28T09:01:08.857Z</time></trkpt><trkpt lat="45.263105" lon="9.0032442"><ele>91.66666666666666</ele><time>2026-03-28T09:01:10.845Z</time></trkpt><trkpt lat="45.2631545" lon="9.0031431"><ele>92.33333333333333</ele><time>2026-03-28T09:01:12.853Z</time></trkpt><trkpt lat="45.2632011" lon="9.0030501"><ele>93.0</ele><time>2026-03-28T09:01:14.841Z</time></trkpt><trkpt lat="45.2632447" lon="9.0029736"><ele>93.66666666666667</ele><time>2026-03-28T09:01:16.845Z</time></trkpt><trkpt lat="45.2632989" lon="9.0028884"><ele>94.33333333333334</ele><time>2026-03-28T09:01:18.847Z</time></trkpt><trkpt lat="45.2633644" lon="9.0028277"><ele>95.0</ele><time>2026-03-28T09:01:20.85Z</time></trkpt><trkpt lat="45.2634429" lon="9.002752"><ele>95.0</ele><time>2026-03-28T09:01:23.838Z</time></trkpt><trkpt lat="45.2635059" lon="9.0027071"><ele>95.0</ele><time>2026-03-28T09:01:25.852Z</time></trkpt><trkpt lat="45.2635652" lon="9.0026441"><ele>95.0</ele><time>2026-03-28T09:01:27.842Z</time></trkpt><trkpt lat="45.2636109" lon="9.0025806"><ele>95.0</ele><time>2026-03-28T09:01:29.843Z</time></trkpt><trkpt lat="45.2636734" lon="9.0025191"><ele>95.0</ele><time>2026-03-28T09:01:31.85Z</time></trkpt><trkpt lat="45.2637251" lon="9.0024311"><ele>95.0</ele><time>2026-03-28T09:01:33.848Z</time></trkpt><trkpt lat="45.2637673" lon="9.0023477"><ele>95.0</ele><time>2026-03-28T09:01:35.851Z</time></trkpt><trkpt lat="45.2638052" lon="9.0022636"><ele>94.66666666666667</ele><time>2026-03-28T09:01:37.858Z</time></trkpt><trkpt lat="45.2638455" lon="9.0021643"><ele>94.33333333333334</ele><time>2026-03-28T09:01:39.846Z</time></trkpt><trkpt lat="45.2638701" lon="9.002046"><ele>94.0</ele><time>2026-03-28T09:01:41.852Z</time></trkpt><trkpt lat="45.263911" lon="9.0019675"><ele>93.66666666666667</ele><time>2026-03-28T09:01:43.851Z</time></trkpt><trkpt lat="45.2639544" lon="9.0018856"><ele>93.33333333333333</ele><time>2026-03-28T09:01:45.845Z</time></trkpt><trkpt lat="45.2640047" lon="9.001803"><ele>93.0</ele><time>2026-03-28T09:01:47.843Z</time></trkpt><trkpt lat="45.2640577" lon="9.001714"><ele>93.66666666666667</ele><time>2026-03-28T09:01:49.842Z</time></trkpt><trkpt lat="45.2641022" lon="9.0016165"><ele>94.33333333333334</ele><time>2026-03-28T09:01:51.846Z</time></trkpt><trkpt lat="45.2641609" lon="9.0015159"><ele>95.0</ele><time>2026-03-28T09:01:53.849Z</time></trkpt><trkpt lat="45.264212" lon="9.0014309"><ele>95.66666666666667</ele><time>2026-03-28T09:01:55.849Z</time></trkpt><trkpt lat="45.2642648" lon="9.0013656"><ele>96.33333333333334</ele><time>2026-03-28T09:01:57.848Z</time></trkpt><trkpt lat="45.2643191" lon="9.0012835"><ele>97.0</ele><time>2026-03-28T09:01:59.847Z</time></trkpt><trkpt lat="45.2643664" lon="9.0012015"><ele>97.00000000000001</ele><time>2026-03-28T09:02:01.846Z</time></trkpt><trkpt lat="45.2644058" lon="9.0011233"><ele>97.0</ele><time>2026-03-28T09:02:03.848Z</time></trkpt><trkpt lat="45.2644652" lon="9.0010171"><ele>97.0</ele><time>2026-03-28T09:02:06.844Z</time></trkpt><trkpt lat="45.2645056" lon="9.0009324"><ele>97.0</ele><time>2026-03-28T09:02:08.846Z</time></trkpt><trkpt lat="45.2645473" lon="9.0008307"><ele>97.00000000000001</ele><time>2026-03-28T09:02:10.852Z</time></trkpt><trkpt lat="45.2645953" lon="9.0007182"><ele>97.0</ele><time>2026-03-28T09:02:12.836Z</time></trkpt><trkpt lat="45.2646557" lon="9.0006175"><ele>96.66666666666667</ele><time>2026-03-28T09:02:15.913Z</time></trkpt><trkpt lat="45.2647126" lon="9.0005123"><ele>96.33333333333334</ele><time>2026-03-28T09:02:18.843Z</time></trkpt><trkpt lat="45.2647505" lon="9.0004218"><ele>96.0</ele><time>2026-03-28T09:02:20.858Z</time></trkpt><trkpt lat="45.2647959" lon="9.0003334"><ele>95.66666666666667</ele><time>2026-03-28T09:02:22.861Z</time></trkpt><trkpt lat="45.264859" lon="9.0002326"><ele>95.33333333333334</ele><time>2026-03-28T09:02:24.842Z</time></trkpt><trkpt lat="45.2649078" lon="9.0001363"><ele>95.0</ele><time>2026-03-28T09:02:26.844Z</time></trkpt><trkpt lat="45.2649506" lon="9.0000559"><ele>95.0</ele><time>2026-03-28T09:02:28.842Z</time></trkpt><trkpt lat="45.2649939" lon="8.9999733"><ele>95.0</ele><time>2026-03-28T09:02:30.855Z</time></trkpt><trkpt lat="45.2650344" lon="8.9998808"><ele>95.0</ele><time>2026-03-28T09:02:32.844Z</time></trkpt><trkpt lat="45.26508" lon="8.9998077"><ele>95.0</ele><time>2026-03-28T09:02:34.842Z</time></trkpt><trkpt lat="45.2651233" lon="8.9997116"><ele>95.0</ele><time>2026-03-28T09:02:36.844Z</time></trkpt><trkpt lat="45.2651768" lon="8.9996154"><ele>95.0</ele><time>2026-03-28T09:02:38.853Z</time></trkpt><trkpt lat="45.2652287" lon="8.9995304"><ele>95.0</ele><time>2026-03-28T09:02:40.846Z</time></trkpt><trkpt lat="45.2652736" lon="8.9994515"><ele>95.0</ele><time>2026-03-28T09:02:42.851Z</time></trkpt><trkpt lat="45.2653128" lon="8.9993776"><ele>95.0</ele><time>2026-03-28T09:02:44.859Z</time></trkpt><trkpt lat="45.2653487" lon="8.9992989"><ele>95.0</ele><time>2026-03-28T09:02:46.842Z</time></trkpt><trkpt lat="45.2653849" lon="8.9992169"><ele>95.0</ele><time>2026-03-28T09:02:48.844Z</time></trkpt><trkpt lat="45.2654216" lon="8.99912"><ele>95.0</ele><time>2026-03-28T09:02:50.847Z</time></trkpt><trkpt lat="45.265458" lon="8.9990449"><ele>95.0</ele><time>2026-03-28T09:02:52.851Z</time></trkpt><trkpt lat="45.2655031" lon="8.9989702"><ele>95.0</ele><time>2026-03-28T09:02:54.844Z</time></trkpt><trkpt lat="45.2655489" lon="8.9988947"><ele>95.0</ele><time>2026-03-28T09:02:56.924Z</time></trkpt><trkpt lat="45.2655991" lon="8.9987869"><ele>95.0</ele><time>2026-03-28T09:02:58.925Z</time></trkpt><trkpt lat="45.2656379" lon="8.9987017"><ele>95.0</ele><time>2026-03-28T09:03:00.845Z</time></trkpt><trkpt lat="45.2656774" lon="8.9986232"><ele>95.0</ele><time>2026-03-28T09:03:02.851Z</time></trkpt><trkpt lat="45.2657238" lon="8.9985389"><ele>95.0</ele><time>2026-03-28T09:03:04.837Z</time></trkpt><trkpt lat="45.2657663" lon="8.9984605"><ele>95.0</ele><time>2026-03-28T09:03:06.848Z</time></trkpt><trkpt lat="45.2658152" lon="8.9983657"><ele>95.0</ele><time>2026-03-28T09:03:08.847Z</time></trkpt><trkpt lat="45.2658535" lon="8.9982676"><ele>95.0</ele><time>2026-03-28T09:03:10.843Z</time></trkpt><trkpt lat="45.2658913" lon="8.9981825"><ele>95.0</ele><time>2026-03-28T09:03:12.845Z</time></trkpt><trkpt lat="45.2659352" lon="8.9981031"><ele>95.0</ele><time>2026-03-28T09:03:14.848Z</time></trkpt><trkpt lat="45.2659797" lon="8.9980041"><ele>95.0</ele><time>2026-03-28T09:03:16.853Z</time></trkpt><trkpt lat="45.2660283" lon="8.9979068"><ele>95.0</ele><time>2026-03-28T09:03:18.853Z</time></trkpt><trkpt lat="45.2660777" lon="8.9978243"><ele>95.0</ele><time>2026-03-28T09:03:20.843Z</time></trkpt><trkpt lat="45.2661231" lon="8.9977265"><ele>95.0</ele><time>2026-03-28T09:03:22.839Z</time></trkpt><trkpt lat="45.2661675" lon="8.9976407"><ele>95.0</ele><time>2026-03-28T09:03:24.847Z</time></trkpt><trkpt lat="45.2662185" lon="8.9975488"><ele>95.0</ele><time>2026-03-28T09:03:26.849Z</time></trkpt><trkpt lat="45.2662698" lon="8.9974556"><ele>95.0</ele><time>2026-03-28T09:03:28.852Z</time></trkpt><trkpt lat="45.2663114" lon="8.9973854"><ele>95.0</ele><time>2026-03-28T09:03:30.849Z</time></trkpt><trkpt lat="45.2663535" lon="8.9973166"><ele>94.83333333333334</ele><time>2026-03-28T09:03:32.841Z</time></trkpt><trkpt lat="45.2663935" lon="8.997238"><ele>94.66666666666667</ele><time>2026-03-28T09:03:34.847Z</time></trkpt><trkpt lat="45.2664362" lon="8.9971531"><ele>94.5</ele><time>2026-03-28T09:03:36.843Z</time></trkpt><trkpt lat="45.2664787" lon="8.997053"><ele>94.33333333333333</ele><time>2026-03-28T09:03:38.842Z</time></trkpt><trkpt lat="45.26652" lon="8.9969736"><ele>94.16666666666666</ele><time>2026-03-28T09:03:40.848Z</time></trkpt><trkpt lat="45.2665578" lon="8.9968716"><ele>94.0</ele><time>2026-03-28T09:03:42.842Z</time></trkpt><trkpt lat="45.2666065" lon="8.9967853"><ele>94.0</ele><time>2026-03-28T09:03:44.853Z</time></trkpt><trkpt lat="45.2666464" lon="8.996691"><ele>94.0</ele><time>2026-03-28T09:03:46.845Z</time></trkpt><trkpt lat="45.2666861" lon="8.9966162"><ele>94.0</ele><time>2026-03-28T09:03:48.841Z</time></trkpt><trkpt lat="45.266765" lon="8.9965995"><ele>94.0</ele><time>2026-03-28T09:03:51.843Z</time></trkpt><trkpt lat="45.2668251" lon="8.9966523"><ele>94.0</ele><time>2026-03-28T09:03:53.85Z</time></trkpt><trkpt lat="45.2668864" lon="8.9967131"><ele>94.0</ele><time>2026-03-28T09:03:55.845Z</time></trkpt><trkpt lat="45.2669515" lon="8.9967692"><ele>94.0</ele><time>2026-03-28T09:03:57.848Z</time></trkpt><trkpt lat="45.2670162" lon="8.9968277"><ele>94.0</ele><time>2026-03-28T09:03:59.847Z</time></trkpt><trkpt lat="45.2670832" lon="8.9968772"><ele>94.0</ele><time>2026-03-28T09:04:01.838Z</time></trkpt><trkpt lat="45.2671524" lon="8.9969428"><ele>94.0</ele><time>2026-03-28T09:04:03.847Z</time></trkpt><trkpt lat="45.267218" lon="8.9969966"><ele>94.0</ele><time>2026-03-28T09:04:05.926Z</time></trkpt><trkpt lat="45.2672796" lon="8.9970527"><ele>94.0</ele><time>2026-03-28T09:04:07.845Z</time></trkpt><trkpt lat="45.2673602" lon="8.9971108"><ele>94.0</ele><time>2026-03-28T09:04:09.841Z</time></trkpt><trkpt lat="45.2674193" lon="8.9971715"><ele>94.5</ele><time>2026-03-28T09:04:11.845Z</time></trkpt><trkpt lat="45.2674805" lon="8.9972283"><ele>95.0</ele><time>2026-03-28T09:04:13.849Z</time></trkpt><trkpt lat="45.267551" lon="8.9972878"><ele>95.5</ele><time>2026-03-28T09:04:15.842Z</time></trkpt><trkpt lat="45.2676203" lon="8.9973419"><ele>96.0</ele><time>2026-03-28T09:04:17.841Z</time></trkpt><trkpt lat="45.2676904" lon="8.9973907"><ele>96.50000000000001</ele><time>2026-03-28T09:04:19.85Z</time></trkpt><trkpt lat="45.2677641" lon="8.9974395"><ele>97.0</ele><time>2026-03-28T09:04:21.843Z</time></trkpt><trkpt lat="45.2678337" lon="8.9974961"><ele>97.00000000000001</ele><time>2026-03-28T09:04:23.84Z</time></trkpt><trkpt lat="45.2678979" lon="8.9975512"><ele>97.0</ele><time>2026-03-28T09:04:25.844Z</time></trkpt><trkpt lat="45.2679518" lon="8.9975992"><ele>97.0</ele><time>2026-03-28T09:04:27.839Z</time></trkpt><trkpt lat="45.2680359" lon="8.9976492"><ele>97.0</ele><time>2026-03-28T09:04:30.837Z</time></trkpt><trkpt lat="45.2681095" lon="8.9976084"><ele>97.00000000000001</ele><time>2026-03-28T09:04:33.835Z</time></trkpt><trkpt lat="45.2681608" lon="8.9975037"><ele>97.0</ele><time>2026-03-28T09:04:36.835Z</time></trkpt><trkpt lat="45.2681855" lon="8.9974007"><ele>97.0</ele><time>2026-03-28T09:04:38.843Z</time></trkpt><trkpt lat="45.2682203" lon="8.9972933"><ele>97.0</ele><time>2026-03-28T09:04:40.84Z</time></trkpt><trkpt lat="45.2682472" lon="8.9972084"><ele>97.0</ele><time>2026-03-28T09:04:42.837Z</time></trkpt><trkpt lat="45.2682788" lon="8.9971256"><ele>97.0</ele><time>2026-03-28T09:04:44.839Z</time></trkpt><trkpt lat="45.2683137" lon="8.9970425"><ele>97.0</ele><time>2026-03-28T09:04:46.84Z</time></trkpt><trkpt lat="45.268344" lon="8.9969531"><ele>97.0</ele><time>2026-03-28T09:04:48.841Z</time></trkpt><trkpt lat="45.2683764" lon="8.9968586"><ele>97.0</ele><time>2026-03-28T09:04:50.848Z</time></trkpt><trkpt lat="45.2684084" lon="8.996762"><ele>97.0</ele><time>2026-03-28T09:04:52.836Z</time></trkpt><trkpt lat="45.2684395" lon="8.9966668"><ele>97.0</ele><time>2026-03-28T09:04:54.84Z</time></trkpt><trkpt lat="45.2684757" lon="8.9965722"><ele>97.0</ele><time>2026-03-28T09:04:56.841Z</time></trkpt><trkpt lat="45.2685124" lon="8.9964802"><ele>97.0</ele><time>2026-03-28T09:04:58.834Z</time></trkpt><trkpt lat="45.2685667" lon="8.9964048"><ele>97.0</ele><time>2026-03-28T09:05:00.841Z</time></trkpt><trkpt lat="45.2686333" lon="8.9963531"><ele>97.0</ele><time>2026-03-28T09:05:02.835Z</time></trkpt><trkpt lat="45.2687013" lon="8.9963352"><ele>97.0</ele><time>2026-03-28T09:05:04.846Z</time></trkpt><trkpt lat="45.2687648" lon="8.9962945"><ele>97.00000000000001</ele><time>2026-03-28T09:05:06.842Z</time></trkpt><trkpt lat="45.2688183" lon="8.9962264"><ele>97.0</ele><time>2026-03-28T09:05:08.841Z</time></trkpt><trkpt lat="45.2688796" lon="8.996142"><ele>97.0</ele><time>2026-03-28T09:05:10.842Z</time></trkpt><trkpt lat="45.2689449" lon="8.9960544"><ele>97.0</ele><time>2026-03-28T09:05:12.892Z</time></trkpt><trkpt lat="45.2690047" lon="8.9959869"><ele>97.00000000000001</ele><time>2026-03-28T09:05:14.853Z</time></trkpt><trkpt lat="45.2690656" lon="8.9959212"><ele>97.0</ele><time>2026-03-28T09:05:16.846Z</time></trkpt><trkpt lat="45.2691276" lon="8.9958571"><ele>97.0</ele><time>2026-03-28T09:05:18.849Z</time></trkpt><trkpt lat="45.2691818" lon="8.9957768"><ele>97.0</ele><time>2026-03-28T09:05:20.846Z</time></trkpt><trkpt lat="45.2692389" lon="8.995707"><ele>97.0</ele><time>2026-03-28T09:05:22.845Z</time></trkpt><trkpt lat="45.2692944" lon="8.9956371"><ele>97.0</ele><time>2026-03-28T09:05:24.845Z</time></trkpt><trkpt lat="45.2693384" lon="8.9955713"><ele>97.0</ele><time>2026-03-28T09:05:26.845Z</time></trkpt><trkpt lat="45.269385" lon="8.9955023"><ele>97.0</ele><time>2026-03-28T09:05:28.849Z</time></trkpt><trkpt lat="45.2694316" lon="8.9954376"><ele>97.0</ele><time>2026-03-28T09:05:30.842Z</time></trkpt><trkpt lat="45.2695187" lon="8.9954374"><ele>97.0</ele><time>2026-03-28T09:05:33.834Z</time></trkpt><trkpt lat="45.2695773" lon="8.9954807"><ele>97.0</ele><time>2026-03-28T09:05:35.837Z</time></trkpt><trkpt lat="45.2696338" lon="8.9955285"><ele>97.0</ele><time>2026-03-28T09:05:37.846Z</time></trkpt><trkpt lat="45.2696919" lon="8.9955747"><ele>97.0</ele><time>2026-03-28T09:05:39.844Z</time></trkpt><trkpt lat="45.2697509" lon="8.9956296"><ele>97.0</ele><time>2026-03-28T09:05:41.834Z</time></trkpt><trkpt lat="45.2698188" lon="8.995688"><ele>97.0</ele><time>2026-03-28T09:05:43.834Z</time></trkpt><trkpt lat="45.269892" lon="8.9957342"><ele>97.0</ele><time>2026-03-28T09:05:45.836Z</time></trkpt><trkpt lat="45.2699521" lon="8.9957791"><ele>96.85714285714285</ele><time>2026-03-28T09:05:47.842Z</time></trkpt><trkpt lat="45.2700268" lon="8.9958373"><ele>96.71428571428572</ele><time>2026-03-28T09:05:50.836Z</time></trkpt><trkpt lat="45.2700869" lon="8.9958777"><ele>96.57142857142857</ele><time>2026-03-28T09:05:52.841Z</time></trkpt><trkpt lat="45.2701576" lon="8.9958788"><ele>96.42857142857142</ele><time>2026-03-28T09:05:55.836Z</time></trkpt><trkpt lat="45.27024" lon="8.9958232"><ele>96.28571428571428</ele><time>2026-03-28T09:05:58.843Z</time></trkpt><trkpt lat="45.2702858" lon="8.9957495"><ele>96.14285714285714</ele><time>2026-03-28T09:06:00.835Z</time></trkpt><trkpt lat="45.2703178" lon="8.9956699"><ele>96.0</ele><time>2026-03-28T09:06:02.843Z</time></trkpt><trkpt lat="45.2703557" lon="8.9955948"><ele>95.99999999999999</ele><time>2026-03-28T09:06:04.844Z</time></trkpt><trkpt lat="45.2704046" lon="8.9955288"><ele>96.0</ele><time>2026-03-28T09:06:06.831Z</time></trkpt><trkpt lat="45.2704529" lon="8.9954577"><ele>96.0</ele><time>2026-03-28T09:06:08.843Z</time></trkpt><trkpt lat="45.270504" lon="8.9953855"><ele>96.0</ele><time>2026-03-28T09:06:10.835Z</time></trkpt><trkpt lat="45.2705523" lon="8.9953113"><ele>96.0</ele><time>2026-03-28T09:06:12.845Z</time></trkpt><trkpt lat="45.2705975" lon="8.9952319"><ele>95.99999999999999</ele><time>2026-03-28T09:06:14.885Z</time></trkpt><trkpt lat="45.270655" lon="8.995167"><ele>96.0</ele><time>2026-03-28T09:06:16.839Z</time></trkpt><trkpt lat="45.2707202" lon="8.9951177"><ele>96.0</ele><time>2026-03-28T09:06:18.838Z</time></trkpt><trkpt lat="45.2708016" lon="8.9951016"><ele>96.0</ele><time>2026-03-28T09:06:20.842Z</time></trkpt><trkpt lat="45.2708655" lon="8.9950888"><ele>96.0</ele><time>2026-03-28T09:06:22.84Z</time></trkpt><trkpt lat="45.27095" lon="8.9951114"><ele>96.0</ele><time>2026-03-28T09:06:25.841Z</time></trkpt><trkpt lat="45.2710042" lon="8.9951675"><ele>96.0</ele><time>2026-03-28T09:06:28.839Z</time></trkpt><trkpt lat="45.2710608" lon="8.9950768"><ele>96.0</ele><time>2026-03-28T09:06:33.843Z</time></trkpt><trkpt lat="45.2710455" lon="8.9949716"><ele>95.33333333333333</ele><time>2026-03-28T09:06:35.835Z</time></trkpt><trkpt lat="45.2709853" lon="8.9949095"><ele>94.66666666666667</ele><time>2026-03-28T09:06:37.839Z</time></trkpt><trkpt lat="45.2708981" lon="8.9948712"><ele>94.0</ele><time>2026-03-28T09:06:39.882Z</time></trkpt><trkpt lat="45.2707848" lon="8.9948712"><ele>93.33333333333334</ele><time>2026-03-28T09:06:41.841Z</time></trkpt><trkpt lat="45.2707205" lon="8.9948715"><ele>92.66666666666667</ele><time>2026-03-28T09:06:42.847Z</time></trkpt><trkpt lat="45.2706542" lon="8.9948728"><ele>92.0</ele><time>2026-03-28T09:06:43.837Z</time></trkpt><trkpt lat="45.2705821" lon="8.9948798"><ele>91.66666666666667</ele><time>2026-03-28T09:06:44.839Z</time></trkpt><trkpt lat="45.2705186" lon="8.9948841"><ele>91.33333333333334</ele><time>2026-03-28T09:06:45.834Z</time></trkpt><trkpt lat="45.2704034" lon="8.9949282"><ele>91.0</ele><time>2026-03-28T09:06:47.843Z</time></trkpt><trkpt lat="45.2703422" lon="8.994962"><ele>90.66666666666667</ele><time>2026-03-28T09:06:48.843Z</time></trkpt><trkpt lat="45.2702263" lon="8.9949739"><ele>90.33333333333333</ele><time>2026-03-28T09:06:50.836Z</time></trkpt><trkpt lat="45.2701627" lon="8.9949437"><ele>90.0</ele><time>2026-03-28T09:06:51.83Z</time></trkpt><trkpt lat="45.270104" lon="8.994905"><ele>90.0</ele><time>2026-03-28T09:06:52.878Z</time></trkpt><trkpt lat="45.2699953" lon="8.9948363"><ele>90.0</ele><time>2026-03-28T09:06:54.845Z</time></trkpt><trkpt lat="45.2698831" lon="8.9947622"><ele>90.0</ele><time>2026-03-28T09:06:56.837Z</time></trkpt><trkpt lat="45.2698209" lon="8.9947149"><ele>90.0</ele><time>2026-03-28T09:06:57.844Z</time></trkpt><trkpt lat="45.2697493" lon="8.9946617"><ele>90.0</ele><time>2026-03-28T09:06:58.851Z</time></trkpt><trkpt lat="45.2696697" lon="8.9946008"><ele>90.4</ele><time>2026-03-28T09:06:59.845Z</time></trkpt><trkpt lat="45.2695846" lon="8.9945323"><ele>90.8</ele><time>2026-03-28T09:07:00.843Z</time></trkpt><trkpt lat="45.2695105" lon="8.9944439"><ele>91.19999999999999</ele><time>2026-03-28T09:07:01.842Z</time></trkpt><trkpt lat="45.2694463" lon="8.9943532"><ele>91.6</ele><time>2026-03-28T09:07:02.837Z</time></trkpt><trkpt lat="45.2693839" lon="8.9942573"><ele>92.0</ele><time>2026-03-28T09:07:03.843Z</time></trkpt><trkpt lat="45.2693243" lon="8.9941724"><ele>90.0</ele><time>2026-03-28T09:07:04.84Z</time></trkpt><trkpt lat="45.2692724" lon="8.9940919"><ele>88.0</ele><time>2026-03-28T09:07:05.837Z</time></trkpt><trkpt lat="45.269229" lon="8.9940125"><ele>86.0</ele><time>2026-03-28T09:07:06.829Z</time></trkpt><trkpt lat="45.2691965" lon="8.9939282"><ele>84.0</ele><time>2026-03-28T09:07:07.842Z</time></trkpt><trkpt lat="45.2691555" lon="8.9937712"><ele>82.0</ele><time>2026-03-28T09:07:09.846Z</time></trkpt><trkpt lat="45.2691491" lon="8.993608"><ele>80.0</ele><time>2026-03-28T09:07:11.847Z</time></trkpt><trkpt lat="45.2691347" lon="8.9934678"><ele>80.0</ele><time>2026-03-28T09:07:13.839Z</time></trkpt><trkpt lat="45.2690987" lon="8.9933541"><ele>80.0</ele><time>2026-03-28T09:07:15.837Z</time></trkpt><trkpt lat="45.2690514" lon="8.9932731"><ele>80.0</ele><time>2026-03-28T09:07:17.833Z</time></trkpt><trkpt lat="45.2690001" lon="8.9931832"><ele>80.0</ele><time>2026-03-28T09:07:20.889Z</time></trkpt><trkpt lat="45.2689497" lon="8.9930806"><ele>80.0</ele><time>2026-03-28T09:07:23.835Z</time></trkpt><trkpt lat="45.2689034" lon="8.992998"><ele>80.0</ele><time>2026-03-28T09:07:25.843Z</time></trkpt><trkpt lat="45.2688547" lon="8.9928905"><ele>79.66666666666667</ele><time>2026-03-28T09:07:27.839Z</time></trkpt><trkpt lat="45.2688083" lon="8.992809"><ele>79.33333333333334</ele><time>2026-03-28T09:07:29.839Z</time></trkpt><trkpt lat="45.268759" lon="8.9927198"><ele>79.0</ele><time>2026-03-28T09:07:31.841Z</time></trkpt><trkpt lat="45.2687165" lon="8.9926304"><ele>78.66666666666667</ele><time>2026-03-28T09:07:33.884Z</time></trkpt><trkpt lat="45.2686734" lon="8.9925414"><ele>78.33333333333333</ele><time>2026-03-28T09:07:35.849Z</time></trkpt><trkpt lat="45.2686274" lon="8.9924614"><ele>78.0</ele><time>2026-03-28T09:07:37.847Z</time></trkpt><trkpt lat="45.2685766" lon="8.992368"><ele>77.42857142857143</ele><time>2026-03-28T09:07:39.84Z</time></trkpt><trkpt lat="45.2685319" lon="8.9922819"><ele>76.85714285714285</ele><time>2026-03-28T09:07:41.837Z</time></trkpt><trkpt lat="45.268487" lon="8.9921947"><ele>76.28571428571428</ele><time>2026-03-28T09:07:43.844Z</time></trkpt><trkpt lat="45.2684563" lon="8.9920972"><ele>75.71428571428572</ele><time>2026-03-28T09:07:45.887Z</time></trkpt><trkpt lat="45.2684475" lon="8.9919904"><ele>75.14285714285714</ele><time>2026-03-28T09:07:47.843Z</time></trkpt><trkpt lat="45.2684504" lon="8.9918925"><ele>74.57142857142857</ele><time>2026-03-28T09:07:49.841Z</time></trkpt><trkpt lat="45.2684582" lon="8.9917897"><ele>74.0</ele><time>2026-03-28T09:07:51.84Z</time></trkpt><trkpt lat="45.2684544" lon="8.9916689"><ele>73.83333333333334</ele><time>2026-03-28T09:07:53.85Z</time></trkpt><trkpt lat="45.2684456" lon="8.9915361"><ele>73.66666666666667</ele><time>2026-03-28T09:07:55.835Z</time></trkpt><trkpt lat="45.2684362" lon="8.9914276"><ele>73.5</ele><time>2026-03-28T09:07:57.88Z</time></trkpt><trkpt lat="45.2684224" lon="8.991323"><ele>73.33333333333333</ele><time>2026-03-28T09:07:59.839Z</time></trkpt><trkpt lat="45.2684432" lon="8.9912336"><ele>73.16666666666666</ele><time>2026-03-28T09:08:01.84Z</time></trkpt><trkpt lat="45.2684818" lon="8.9911495"><ele>73.0</ele><time>2026-03-28T09:08:03.848Z</time></trkpt><trkpt lat="45.2685421" lon="8.9910639"><ele>73.0</ele><time>2026-03-28T09:08:05.833Z</time></trkpt><trkpt lat="45.268607" lon="8.9910177"><ele>73.0</ele><time>2026-03-28T09:08:07.839Z</time></trkpt><trkpt lat="45.2686715" lon="8.9909767"><ele>73.0</ele><time>2026-03-28T09:08:09.837Z</time></trkpt><trkpt lat="45.2687405" lon="8.9909166"><ele>73.0</ele><time>2026-03-28T09:08:11.838Z</time></trkpt><trkpt lat="45.2688037" lon="8.9908462"><ele>73.0</ele><time>2026-03-28T09:08:13.846Z</time></trkpt><trkpt lat="45.2688621" lon="8.9908033"><ele>73.0</ele><time>2026-03-28T09:08:15.843Z</time></trkpt><trkpt lat="45.2689299" lon="8.9907479"><ele>73.0</ele><time>2026-03-28T09:08:17.836Z</time></trkpt><trkpt lat="45.2689902" lon="8.9906868"><ele>72.85714285714286</ele><time>2026-03-28T09:08:19.843Z</time></trkpt><trkpt lat="45.2690574" lon="8.9906391"><ele>72.71428571428572</ele><time>2026-03-28T09:08:21.836Z</time></trkpt><trkpt lat="45.2691275" lon="8.9906045"><ele>72.57142857142858</ele><time>2026-03-28T09:08:23.832Z</time></trkpt><trkpt lat="45.2691877" lon="8.9905499"><ele>72.42857142857143</ele><time>2026-03-28T09:08:25.843Z</time></trkpt><trkpt lat="45.2692475" lon="8.9904695"><ele>72.28571428571429</ele><time>2026-03-28T09:08:27.829Z</time></trkpt><trkpt lat="45.2693071" lon="8.9904071"><ele>72.14285714285715</ele><time>2026-03-28T09:08:29.838Z</time></trkpt><trkpt lat="45.2693675" lon="8.9903551"><ele>72.0</ele><time>2026-03-28T09:08:31.84Z</time></trkpt><trkpt lat="45.2694268" lon="8.9902998"><ele>72.0</ele><time>2026-03-28T09:08:33.838Z</time></trkpt><trkpt lat="45.2694986" lon="8.9902569"><ele>72.0</ele><time>2026-03-28T09:08:35.833Z</time></trkpt><trkpt lat="45.269574" lon="8.9902133"><ele>72.0</ele><time>2026-03-28T09:08:37.835Z</time></trkpt><trkpt lat="45.2696356" lon="8.9901656"><ele>72.0</ele><time>2026-03-28T09:08:39.836Z</time></trkpt><trkpt lat="45.2697046" lon="8.990091"><ele>72.0</ele><time>2026-03-28T09:08:42.839Z</time></trkpt><trkpt lat="45.2697307" lon="8.9899962"><ele>72.0</ele><time>2026-03-28T09:08:45.841Z</time></trkpt><trkpt lat="45.2697271" lon="8.9898758"><ele>71.85714285714286</ele><time>2026-03-28T09:08:49.833Z</time></trkpt><trkpt lat="45.2696904" lon="8.9897952"><ele>71.71428571428572</ele><time>2026-03-28T09:08:52.841Z</time></trkpt><trkpt lat="45.2696247" lon="8.9897139"><ele>71.57142857142857</ele><time>2026-03-28T09:08:55.843Z</time></trkpt><trkpt lat="45.2695836" lon="8.9896442"><ele>71.42857142857143</ele><time>2026-03-28T09:08:57.837Z</time></trkpt><trkpt lat="45.269545" lon="8.9895602"><ele>71.28571428571428</ele><time>2026-03-28T09:08:59.838Z</time></trkpt><trkpt lat="45.2695106" lon="8.9894637"><ele>71.14285714285714</ele><time>2026-03-28T09:09:01.847Z</time></trkpt><trkpt lat="45.2694778" lon="8.9893575"><ele>71.0</ele><time>2026-03-28T09:09:03.844Z</time></trkpt><trkpt lat="45.2694396" lon="8.9892462"><ele>71.33333333333334</ele><time>2026-03-28T09:09:05.834Z</time></trkpt><trkpt lat="45.2694007" lon="8.989141"><ele>71.66666666666667</ele><time>2026-03-28T09:09:07.839Z</time></trkpt><trkpt lat="45.269362" lon="8.9890512"><ele>72.0</ele><time>2026-03-28T09:09:09.836Z</time></trkpt><trkpt lat="45.2693221" lon="8.9889699"><ele>72.33333333333333</ele><time>2026-03-28T09:09:11.845Z</time></trkpt><trkpt lat="45.2692914" lon="8.9888813"><ele>72.66666666666666</ele><time>2026-03-28T09:09:13.85Z</time></trkpt><trkpt lat="45.269244" lon="8.9887578"><ele>73.0</ele><time>2026-03-28T09:09:16.846Z</time></trkpt><trkpt lat="45.2692098" lon="8.9886536"><ele>73.0</ele><time>2026-03-28T09:09:18.844Z</time></trkpt><trkpt lat="45.2691789" lon="8.9885745"><ele>73.0</ele><time>2026-03-28T09:09:20.861Z</time></trkpt><trkpt lat="45.2691286" lon="8.9884742"><ele>73.0</ele><time>2026-03-28T09:09:23.85Z</time></trkpt><trkpt lat="45.2690922" lon="8.9883935"><ele>73.0</ele><time>2026-03-28T09:09:25.846Z</time></trkpt><trkpt lat="45.2690565" lon="8.9883189"><ele>73.0</ele><time>2026-03-28T09:09:27.853Z</time></trkpt><trkpt lat="45.2690098" lon="8.9882497"><ele>73.0</ele><time>2026-03-28T09:09:29.851Z</time></trkpt><trkpt lat="45.2689604" lon="8.9881769"><ele>73.0</ele><time>2026-03-28T09:09:31.838Z</time></trkpt><trkpt lat="45.2689095" lon="8.9880762"><ele>72.71428571428571</ele><time>2026-03-28T09:09:34.845Z</time></trkpt><trkpt lat="45.2688513" lon="8.9880304"><ele>72.42857142857143</ele><time>2026-03-28T09:09:36.849Z</time></trkpt><trkpt lat="45.2687919" lon="8.9879833"><ele>72.14285714285714</ele><time>2026-03-28T09:09:38.853Z</time></trkpt><trkpt lat="45.2687339" lon="8.9879262"><ele>71.85714285714286</ele><time>2026-03-28T09:09:40.843Z</time></trkpt><trkpt lat="45.2686836" lon="8.987866"><ele>71.57142857142857</ele><time>2026-03-28T09:09:42.85Z</time></trkpt><trkpt lat="45.26863" lon="8.9877802"><ele>71.28571428571428</ele><time>2026-03-28T09:09:45.847Z</time></trkpt><trkpt lat="45.2685522" lon="8.9877437"><ele>71.0</ele><time>2026-03-28T09:09:48.847Z</time></trkpt><trkpt lat="45.2684739" lon="8.9877829"><ele>71.0</ele><time>2026-03-28T09:09:51.844Z</time></trkpt><trkpt lat="45.2684097" lon="8.9877996"><ele>71.0</ele><time>2026-03-28T09:09:53.847Z</time></trkpt><trkpt lat="45.2683463" lon="8.9878252"><ele>71.0</ele><time>2026-03-28T09:09:55.846Z</time></trkpt><trkpt lat="45.2682862" lon="8.9878537"><ele>71.0</ele><time>2026-03-28T09:09:57.847Z</time></trkpt><trkpt lat="45.2682242" lon="8.9878955"><ele>71.0</ele><time>2026-03-28T09:09:59.844Z</time></trkpt><trkpt lat="45.2681522" lon="8.9879232"><ele>71.0</ele><time>2026-03-28T09:10:01.846Z</time></trkpt><trkpt lat="45.2680829" lon="8.9879275"><ele>71.0</ele><time>2026-03-28T09:10:03.84Z</time></trkpt><trkpt lat="45.2679923" lon="8.9879306"><ele>71.33333333333334</ele><time>2026-03-28T09:10:06.848Z</time></trkpt><trkpt lat="45.267902" lon="8.9879266"><ele>71.66666666666667</ele><time>2026-03-28T09:10:09.845Z</time></trkpt><trkpt lat="45.2678185" lon="8.9879364"><ele>72.0</ele><time>2026-03-28T09:10:12.844Z</time></trkpt><trkpt lat="45.267759" lon="8.9879704"><ele>72.33333333333333</ele><time>2026-03-28T09:10:14.847Z</time></trkpt><trkpt lat="45.2676783" lon="8.9880096"><ele>72.66666666666666</ele><time>2026-03-28T09:10:17.849Z</time></trkpt><trkpt lat="45.2675974" lon="8.9880574"><ele>73.0</ele><time>2026-03-28T09:10:20.841Z</time></trkpt><trkpt lat="45.2675084" lon="8.988084"><ele>73.0</ele><time>2026-03-28T09:10:23.849Z</time></trkpt><trkpt lat="45.2674443" lon="8.9880823"><ele>73.0</ele><time>2026-03-28T09:10:25.844Z</time></trkpt><trkpt lat="45.267376" lon="8.9880814"><ele>73.0</ele><time>2026-03-28T09:10:28.845Z</time></trkpt><trkpt lat="45.2673001" lon="8.9880962"><ele>73.0</ele><time>2026-03-28T09:10:31.841Z</time></trkpt><trkpt lat="45.2672251" lon="8.9881267"><ele>73.0</ele><time>2026-03-28T09:10:34.856Z</time></trkpt><trkpt lat="45.2671592" lon="8.9881745"><ele>73.0</ele><time>2026-03-28T09:10:37.841Z</time></trkpt><trkpt lat="45.2671009" lon="8.9882582"><ele>73.0</ele><time>2026-03-28T09:10:40.839Z</time></trkpt><trkpt lat="45.2670429" lon="8.9883305"><ele>73.0</ele><time>2026-03-28T09:10:43.85Z</time></trkpt><trkpt lat="45.2669886" lon="8.9883852"><ele>73.0</ele><time>2026-03-28T09:10:45.856Z</time></trkpt><trkpt lat="45.2669275" lon="8.9884431"><ele>73.0</ele><time>2026-03-28T09:10:47.845Z</time></trkpt><trkpt lat="45.2668764" lon="8.9885064"><ele>73.0</ele><time>2026-03-28T09:10:49.91Z</time></trkpt><trkpt lat="45.2668093" lon="8.9885691"><ele>73.0</ele><time>2026-03-28T09:10:51.844Z</time></trkpt><trkpt lat="45.2667462" lon="8.9886308"><ele>73.0</ele><time>2026-03-28T09:10:53.846Z</time></trkpt><trkpt lat="45.26669" lon="8.9886851"><ele>73.0</ele><time>2026-03-28T09:10:55.854Z</time></trkpt><trkpt lat="45.2666219" lon="8.9886956"><ele>73.0</ele><time>2026-03-28T09:10:57.841Z</time></trkpt><trkpt lat="45.2665464" lon="8.9886739"><ele>73.0</ele><time>2026-03-28T09:10:59.846Z</time></trkpt><trkpt lat="45.2664734" lon="8.9886628"><ele>73.0</ele><time>2026-03-28T09:11:01.839Z</time></trkpt><trkpt lat="45.2663967" lon="8.988641"><ele>73.0</ele><time>2026-03-28T09:11:04.846Z</time></trkpt><trkpt lat="45.266333" lon="8.988637"><ele>73.0</ele><time>2026-03-28T09:11:06.845Z</time></trkpt><trkpt lat="45.266258" lon="8.9886637"><ele>73.0</ele><time>2026-03-28T09:11:08.843Z</time></trkpt><trkpt lat="45.266201" lon="8.9887064"><ele>73.0</ele><time>2026-03-28T09:11:10.847Z</time></trkpt><trkpt lat="45.2661362" lon="8.9886993"><ele>73.33333333333333</ele><time>2026-03-28T09:11:12.844Z</time></trkpt><trkpt lat="45.2660736" lon="8.9887105"><ele>73.66666666666666</ele><time>2026-03-28T09:11:14.844Z</time></trkpt><trkpt lat="45.2659779" lon="8.9887225"><ele>74.0</ele><time>2026-03-28T09:11:17.846Z</time></trkpt><trkpt lat="45.2659071" lon="8.9887219"><ele>74.33333333333333</ele><time>2026-03-28T09:11:19.926Z</time></trkpt><trkpt lat="45.2658438" lon="8.9887154"><ele>74.66666666666667</ele><time>2026-03-28T09:11:21.843Z</time></trkpt><trkpt lat="45.2657619" lon="8.9886867"><ele>75.0</ele><time>2026-03-28T09:11:24.85Z</time></trkpt><trkpt lat="45.2656796" lon="8.9886558"><ele>74.66666666666667</ele><time>2026-03-28T09:11:27.846Z</time></trkpt><trkpt lat="45.2656114" lon="8.9886121"><ele>74.33333333333333</ele><time>2026-03-28T09:11:30.84Z</time></trkpt><trkpt lat="45.265537" lon="8.9885667"><ele>74.0</ele><time>2026-03-28T09:11:33.925Z</time></trkpt><trkpt lat="45.2654623" lon="8.9885158"><ele>73.66666666666666</ele><time>2026-03-28T09:11:36.849Z</time></trkpt><trkpt lat="45.2653906" lon="8.988494"><ele>73.33333333333333</ele><time>2026-03-28T09:11:38.85Z</time></trkpt><trkpt lat="45.2652978" lon="8.9884883"><ele>73.0</ele><time>2026-03-28T09:11:41.842Z</time></trkpt><trkpt lat="45.2652118" lon="8.9884842"><ele>73.0</ele><time>2026-03-28T09:11:44.844Z</time></trkpt><trkpt lat="45.2651448" lon="8.988495"><ele>73.0</ele><time>2026-03-28T09:11:46.923Z</time></trkpt><trkpt lat="45.2650527" lon="8.9885088"><ele>73.0</ele><time>2026-03-28T09:11:49.841Z</time></trkpt><trkpt lat="45.2649626" lon="8.9885217"><ele>73.0</ele><time>2026-03-28T09:11:52.849Z</time></trkpt><trkpt lat="45.2648744" lon="8.9885488"><ele>73.0</ele><time>2026-03-28T09:11:55.845Z</time></trkpt><trkpt lat="45.264787" lon="8.988576"><ele>73.0</ele><time>2026-03-28T09:11:58.848Z</time></trkpt><trkpt lat="45.2647066" lon="8.9886005"><ele>72.33333333333333</ele><time>2026-03-28T09:12:01.85Z</time></trkpt><trkpt lat="45.2646303" lon="8.9886179"><ele>71.66666666666666</ele><time>2026-03-28T09:12:04.847Z</time></trkpt><trkpt lat="45.264551" lon="8.9886708"><ele>71.0</ele><time>2026-03-28T09:12:07.85Z</time></trkpt><trkpt lat="45.2644773" lon="8.9886825"><ele>70.33333333333333</ele><time>2026-03-28T09:12:09.846Z</time></trkpt><trkpt lat="45.2644077" lon="8.9886807"><ele>69.66666666666667</ele><time>2026-03-28T09:12:11.845Z</time></trkpt><trkpt lat="45.2643419" lon="8.9886903"><ele>69.0</ele><time>2026-03-28T09:12:13.93Z</time></trkpt><trkpt lat="45.264277" lon="8.9887831"><ele>69.0</ele><time>2026-03-28T09:12:16.842Z</time></trkpt><trkpt lat="45.2642114" lon="8.9888053"><ele>69.0</ele><time>2026-03-28T09:12:18.849Z</time></trkpt><trkpt lat="45.2641481" lon="8.9888073"><ele>69.0</ele><time>2026-03-28T09:12:29.86Z</time></trkpt><trkpt lat="45.2642135" lon="8.9888238"><ele>69.0</ele><time>2026-03-28T09:12:50.858Z</time></trkpt><trkpt lat="45.2642908" lon="8.9887937"><ele>69.0</ele><time>2026-03-28T09:12:55.874Z</time></trkpt><trkpt lat="45.2643682" lon="8.9887819"><ele>69.0</ele><time>2026-03-28T09:12:59.846Z</time></trkpt><trkpt lat="45.2644385" lon="8.9887556"><ele>69.0</ele><time>2026-03-28T09:13:02.846Z</time></trkpt><trkpt lat="45.2645196" lon="8.9887101"><ele>69.0</ele><time>2026-03-28T09:13:05.839Z</time></trkpt><trkpt lat="45.2645933" lon="8.9886655"><ele>69.0</ele><time>2026-03-28T09:13:08.835Z</time></trkpt><trkpt lat="45.2646773" lon="8.9886121"><ele>69.0</ele><time>2026-03-28T09:13:11.85Z</time></trkpt><trkpt lat="45.2647579" lon="8.9885819"><ele>69.0</ele><time>2026-03-28T09:13:14.858Z</time></trkpt><trkpt lat="45.2648443" lon="8.9885692"><ele>69.0</ele><time>2026-03-28T09:13:17.918Z</time></trkpt><trkpt lat="45.2649362" lon="8.9885552"><ele>69.0</ele><time>2026-03-28T09:13:20.845Z</time></trkpt><trkpt lat="45.2650256" lon="8.9885395"><ele>69.57142857142857</ele><time>2026-03-28T09:13:23.845Z</time></trkpt><trkpt lat="45.265109" lon="8.9885151"><ele>70.14285714285715</ele><time>2026-03-28T09:13:26.846Z</time></trkpt><trkpt lat="45.2651782" lon="8.9884891"><ele>70.71428571428572</ele><time>2026-03-28T09:13:28.846Z</time></trkpt><trkpt lat="45.265247" lon="8.9884747"><ele>71.28571428571429</ele><time>2026-03-28T09:13:30.851Z</time></trkpt><trkpt lat="45.2653164" lon="8.9884694"><ele>71.85714285714286</ele><time>2026-03-28T09:13:32.847Z</time></trkpt><trkpt lat="45.2653825" lon="8.98849"><ele>72.42857142857143</ele><time>2026-03-28T09:13:34.842Z</time></trkpt><trkpt lat="45.2654403" lon="8.9885582"><ele>73.0</ele><time>2026-03-28T09:13:36.845Z</time></trkpt><trkpt lat="45.2655076" lon="8.9886305"><ele>73.0</ele><time>2026-03-28T09:13:39.849Z</time></trkpt><trkpt lat="45.2655834" lon="8.9886769"><ele>73.0</ele><time>2026-03-28T09:13:42.847Z</time></trkpt><trkpt lat="45.2656433" lon="8.9887054"><ele>73.0</ele><time>2026-03-28T09:13:45.852Z</time></trkpt><trkpt lat="45.2657331" lon="8.9887396"><ele>73.0</ele><time>2026-03-28T09:13:48.847Z</time></trkpt><trkpt lat="45.2657943" lon="8.9887618"><ele>73.0</ele><time>2026-03-28T09:13:50.839Z</time></trkpt><trkpt lat="45.2658608" lon="8.9887746"><ele>73.0</ele><time>2026-03-28T09:13:52.842Z</time></trkpt><trkpt lat="45.2659375" lon="8.9887781"><ele>73.0</ele><time>2026-03-28T09:13:55.841Z</time></trkpt><trkpt lat="45.2660198" lon="8.9887587"><ele>73.0</ele><time>2026-03-28T09:13:58.923Z</time></trkpt><trkpt lat="45.2661035" lon="8.9887404"><ele>73.0</ele><time>2026-03-28T09:14:01.842Z</time></trkpt><trkpt lat="45.2661704" lon="8.9886929"><ele>73.0</ele><time>2026-03-28T09:14:04.844Z</time></trkpt><trkpt lat="45.2662537" lon="8.988659"><ele>73.0</ele><time>2026-03-28T09:14:07.843Z</time></trkpt><trkpt lat="45.266319" lon="8.9886475"><ele>73.0</ele><time>2026-03-28T09:14:09.837Z</time></trkpt><trkpt lat="45.2663862" lon="8.9886543"><ele>73.0</ele><time>2026-03-28T09:14:11.837Z</time></trkpt><trkpt lat="45.2664707" lon="8.9887035"><ele>73.0</ele><time>2026-03-28T09:14:14.846Z</time></trkpt><trkpt lat="45.2665565" lon="8.9887198"><ele>73.0</ele><time>2026-03-28T09:14:17.851Z</time></trkpt><trkpt lat="45.2666323" lon="8.9886935"><ele>73.0</ele><time>2026-03-28T09:14:20.845Z</time></trkpt><trkpt lat="45.2667106" lon="8.9886169"><ele>73.0</ele><time>2026-03-28T09:14:23.848Z</time></trkpt><trkpt lat="45.2667906" lon="8.9885423"><ele>73.0</ele><time>2026-03-28T09:14:26.844Z</time></trkpt><trkpt lat="45.2668467" lon="8.9884936"><ele>73.0</ele><time>2026-03-28T09:14:28.851Z</time></trkpt><trkpt lat="45.2669233" lon="8.9884687"><ele>73.0</ele><time>2026-03-28T09:14:31.837Z</time></trkpt><trkpt lat="45.2669916" lon="8.9883914"><ele>73.0</ele><time>2026-03-28T09:14:34.841Z</time></trkpt><trkpt lat="45.2670459" lon="8.9882979"><ele>73.0</ele><time>2026-03-28T09:14:37.844Z</time></trkpt><trkpt lat="45.2671118" lon="8.9882029"><ele>73.0</ele><time>2026-03-28T09:14:40.845Z</time></trkpt><trkpt lat="45.2671953" lon="8.9881639"><ele>73.0</ele><time>2026-03-28T09:14:43.845Z</time></trkpt><trkpt lat="45.2672651" lon="8.9881475"><ele>73.0</ele><time>2026-03-28T09:14:45.849Z</time></trkpt><trkpt lat="45.2673535" lon="8.9881145"><ele>73.0</ele><time>2026-03-28T09:14:48.847Z</time></trkpt><trkpt lat="45.2674417" lon="8.9880791"><ele>73.0</ele><time>2026-03-28T09:14:51.844Z</time></trkpt><trkpt lat="45.2675335" lon="8.9880428"><ele>73.0</ele><time>2026-03-28T09:14:54.843Z</time></trkpt><trkpt lat="45.2676096" lon="8.9880092"><ele>73.0</ele><time>2026-03-28T09:14:56.848Z</time></trkpt><trkpt lat="45.2676795" lon="8.9879839"><ele>73.0</ele><time>2026-03-28T09:14:58.844Z</time></trkpt><trkpt lat="45.2677604" lon="8.9879574"><ele>73.0</ele><time>2026-03-28T09:15:01.845Z</time></trkpt><trkpt lat="45.2678365" lon="8.9879253"><ele>73.0</ele><time>2026-03-28T09:15:04.837Z</time></trkpt><trkpt lat="45.2679163" lon="8.9879205"><ele>73.0</ele><time>2026-03-28T09:15:07.845Z</time></trkpt><trkpt lat="45.2680031" lon="8.9879163"><ele>73.0</ele><time>2026-03-28T09:15:10.837Z</time></trkpt><trkpt lat="45.2680941" lon="8.9879249"><ele>73.0</ele><time>2026-03-28T09:15:13.848Z</time></trkpt><trkpt lat="45.2681846" lon="8.9879057"><ele>73.0</ele><time>2026-03-28T09:15:15.847Z</time></trkpt><trkpt lat="45.2682648" lon="8.9878537"><ele>73.0</ele><time>2026-03-28T09:15:17.842Z</time></trkpt><trkpt lat="45.2683308" lon="8.9878102"><ele>72.66666666666666</ele><time>2026-03-28T09:15:19.845Z</time></trkpt><trkpt lat="45.2683951" lon="8.9877823"><ele>72.33333333333333</ele><time>2026-03-28T09:15:21.853Z</time></trkpt><trkpt lat="45.2684808" lon="8.9877436"><ele>72.0</ele><time>2026-03-28T09:15:24.848Z</time></trkpt><trkpt lat="45.2685717" lon="8.9877228"><ele>71.66666666666667</ele><time>2026-03-28T09:15:27.842Z</time></trkpt><trkpt lat="45.2686392" lon="8.987745"><ele>71.33333333333334</ele><time>2026-03-28T09:15:29.845Z</time></trkpt><trkpt lat="45.2687242" lon="8.9878182"><ele>71.0</ele><time>2026-03-28T09:15:32.92Z</time></trkpt><trkpt lat="45.2687974" lon="8.9878689"><ele>71.0</ele><time>2026-03-28T09:15:34.846Z</time></trkpt><trkpt lat="45.2688703" lon="8.9879158"><ele>71.0</ele><time>2026-03-28T09:15:37.839Z</time></trkpt><trkpt lat="45.268939" lon="8.9879932"><ele>71.0</ele><time>2026-03-28T09:15:40.847Z</time></trkpt><trkpt lat="45.2689858" lon="8.9880646"><ele>71.0</ele><time>2026-03-28T09:15:42.845Z</time></trkpt><trkpt lat="45.2690244" lon="8.9881369"><ele>71.0</ele><time>2026-03-28T09:15:44.847Z</time></trkpt><trkpt lat="45.2690614" lon="8.9882278"><ele>71.0</ele><time>2026-03-28T09:15:46.843Z</time></trkpt><trkpt lat="45.2691046" lon="8.988308"><ele>71.0</ele><time>2026-03-28T09:15:48.841Z</time></trkpt><trkpt lat="45.2691495" lon="8.9884184"><ele>71.33333333333334</ele><time>2026-03-28T09:15:51.842Z</time></trkpt><trkpt lat="45.2691785" lon="8.9884997"><ele>71.66666666666667</ele><time>2026-03-28T09:15:53.85Z</time></trkpt><trkpt lat="45.2692309" lon="8.9886126"><ele>72.0</ele><time>2026-03-28T09:15:56.836Z</time></trkpt><trkpt lat="45.2692649" lon="8.9887147"><ele>72.33333333333333</ele><time>2026-03-28T09:15:59.839Z</time></trkpt><trkpt lat="45.2693448" lon="8.9887259"><ele>72.66666666666666</ele><time>2026-03-28T09:16:05.838Z</time></trkpt><trkpt lat="45.2694233" lon="8.9886974"><ele>73.0</ele><time>2026-03-28T09:16:10.846Z</time></trkpt><trkpt lat="45.2694851" lon="8.9886052"><ele>73.0</ele><time>2026-03-28T09:16:13.838Z</time></trkpt><trkpt lat="45.2695555" lon="8.9885607"><ele>73.0</ele><time>2026-03-28T09:16:15.834Z</time></trkpt><trkpt lat="45.2696307" lon="8.9885458"><ele>73.0</ele><time>2026-03-28T09:16:18.835Z</time></trkpt><trkpt lat="45.2696949" lon="8.9884809"><ele>73.0</ele><time>2026-03-28T09:16:21.838Z</time></trkpt><trkpt lat="45.2697736" lon="8.9884286"><ele>73.0</ele><time>2026-03-28T09:16:24.843Z</time></trkpt><trkpt lat="45.2698336" lon="8.9883876"><ele>73.0</ele><time>2026-03-28T09:16:26.856Z</time></trkpt><trkpt lat="45.2698951" lon="8.9883064"><ele>73.42857142857143</ele><time>2026-03-28T09:16:30.848Z</time></trkpt><trkpt lat="45.2699653" lon="8.9882501"><ele>73.85714285714286</ele><time>2026-03-28T09:16:33.845Z</time></trkpt><trkpt lat="45.2700316" lon="8.988209"><ele>74.28571428571428</ele><time>2026-03-28T09:16:36.842Z</time></trkpt><trkpt lat="45.2701065" lon="8.9881987"><ele>74.71428571428572</ele><time>2026-03-28T09:16:38.838Z</time></trkpt><trkpt lat="45.270171" lon="8.9881362"><ele>75.14285714285715</ele><time>2026-03-28T09:16:41.836Z</time></trkpt><trkpt lat="45.2702373" lon="8.9881731"><ele>75.57142857142857</ele><time>2026-03-28T09:16:43.837Z</time></trkpt><trkpt lat="45.2702984" lon="8.9881276"><ele>76.0</ele><time>2026-03-28T09:16:45.847Z</time></trkpt><trkpt lat="45.2703722" lon="8.988088"><ele>76.0</ele><time>2026-03-28T09:16:48.843Z</time></trkpt><trkpt lat="45.270445" lon="8.9880544"><ele>76.0</ele><time>2026-03-28T09:16:51.834Z</time></trkpt><trkpt lat="45.2705157" lon="8.9880366"><ele>76.0</ele><time>2026-03-28T09:16:58.848Z</time></trkpt><trkpt lat="45.2705848" lon="8.9880231"><ele>76.0</ele><time>2026-03-28T09:17:02.847Z</time></trkpt><trkpt lat="45.2705858" lon="8.9879319"><ele>76.0</ele><time>2026-03-28T09:17:05.84Z</time></trkpt><trkpt lat="45.2706368" lon="8.9878605"><ele>76.0</ele><time>2026-03-28T09:17:08.839Z</time></trkpt><trkpt lat="45.270714" lon="8.9878548"><ele>76.0</ele><time>2026-03-28T09:17:10.845Z</time></trkpt><trkpt lat="45.2707924" lon="8.9878987"><ele>76.0</ele><time>2026-03-28T09:17:13.838Z</time></trkpt><trkpt lat="45.2708604" lon="8.9879056"><ele>76.0</ele><time>2026-03-28T09:17:15.843Z</time></trkpt><trkpt lat="45.2709428" lon="8.9879273"><ele>76.0</ele><time>2026-03-28T09:17:18.853Z</time></trkpt><trkpt lat="45.2710106" lon="8.9878978"><ele>76.0</ele><time>2026-03-28T09:17:21.836Z</time></trkpt><trkpt lat="45.2710417" lon="8.9878038"><ele>76.0</ele><time>2026-03-28T09:17:24.836Z</time></trkpt><trkpt lat="45.2711192" lon="8.9877368"><ele>76.0</ele><time>2026-03-28T09:17:27.862Z</time></trkpt><trkpt lat="45.2711865" lon="8.9877347"><ele>76.0</ele><time>2026-03-28T09:17:29.849Z</time></trkpt><trkpt lat="45.271258" lon="8.9876909"><ele>76.0</ele><time>2026-03-28T09:17:32.933Z</time></trkpt><trkpt lat="45.2713209" lon="8.9876599"><ele>76.0</ele><time>2026-03-28T09:17:35.926Z</time></trkpt><trkpt lat="45.2713913" lon="8.9876492"><ele>76.0</ele><time>2026-03-28T09:17:38.842Z</time></trkpt><trkpt lat="45.27148" lon="8.9876414"><ele>76.0</ele><time>2026-03-28T09:17:41.838Z</time></trkpt><trkpt lat="45.2715259" lon="8.9875711"><ele>76.0</ele><time>2026-03-28T09:17:44.842Z</time></trkpt><trkpt lat="45.2714934" lon="8.9874762"><ele>76.0</ele><time>2026-03-28T09:17:48.863Z</time></trkpt><trkpt lat="45.2714998" lon="8.9873817"><ele>75.71428571428571</ele><time>2026-03-28T09:17:51.842Z</time></trkpt><trkpt lat="45.2715473" lon="8.9873005"><ele>75.42857142857143</ele><time>2026-03-28T09:17:54.834Z</time></trkpt><trkpt lat="45.2716224" lon="8.9872576"><ele>75.14285714285714</ele><time>2026-03-28T09:17:58.844Z</time></trkpt><trkpt lat="45.2716776" lon="8.9873173"><ele>74.85714285714286</ele><time>2026-03-28T09:18:01.84Z</time></trkpt><trkpt lat="45.271696" lon="8.9874112"><ele>74.57142857142857</ele><time>2026-03-28T09:18:04.849Z</time></trkpt><trkpt lat="45.2717175" lon="8.9875065"><ele>74.28571428571429</ele><time>2026-03-28T09:18:08.851Z</time></trkpt><trkpt lat="45.2717846" lon="8.987524"><ele>74.0</ele><time>2026-03-28T09:18:11.845Z</time></trkpt><trkpt lat="45.2718529" lon="8.9875169"><ele>74.0</ele><time>2026-03-28T09:18:15.845Z</time></trkpt><trkpt lat="45.2719274" lon="8.9874835"><ele>74.0</ele><time>2026-03-28T09:18:18.842Z</time></trkpt><trkpt lat="45.2719831" lon="8.9874378"><ele>74.0</ele><time>2026-03-28T09:18:20.846Z</time></trkpt><trkpt lat="45.2720639" lon="8.9873808"><ele>74.0</ele><time>2026-03-28T09:18:23.84Z</time></trkpt><trkpt lat="45.2721138" lon="8.9873262"><ele>74.0</ele><time>2026-03-28T09:18:25.844Z</time></trkpt><trkpt lat="45.2721733" lon="8.9872443"><ele>74.0</ele><time>2026-03-28T09:18:28.849Z</time></trkpt><trkpt lat="45.2722254" lon="8.9871891"><ele>74.0</ele><time>2026-03-28T09:18:30.843Z</time></trkpt><trkpt lat="45.2722755" lon="8.9871328"><ele>73.83333333333334</ele><time>2026-03-28T09:18:32.843Z</time></trkpt><trkpt lat="45.2723491" lon="8.9870807"><ele>73.66666666666667</ele><time>2026-03-28T09:18:35.851Z</time></trkpt><trkpt lat="45.2724321" lon="8.9870394"><ele>73.5</ele><time>2026-03-28T09:18:38.918Z</time></trkpt><trkpt lat="45.2725085" lon="8.9870011"><ele>73.33333333333333</ele><time>2026-03-28T09:18:41.843Z</time></trkpt><trkpt lat="45.2725751" lon="8.986927"><ele>73.16666666666666</ele><time>2026-03-28T09:18:44.851Z</time></trkpt><trkpt lat="45.2726356" lon="8.9868669"><ele>73.0</ele><time>2026-03-28T09:18:46.857Z</time></trkpt><trkpt lat="45.2726819" lon="8.9868016"><ele>73.0</ele><time>2026-03-28T09:18:48.844Z</time></trkpt><trkpt lat="45.2727206" lon="8.9867152"><ele>73.0</ele><time>2026-03-28T09:18:50.839Z</time></trkpt><trkpt lat="45.2727557" lon="8.9866251"><ele>73.0</ele><time>2026-03-28T09:18:52.848Z</time></trkpt><trkpt lat="45.2727916" lon="8.9865167"><ele>73.0</ele><time>2026-03-28T09:18:54.917Z</time></trkpt><trkpt lat="45.2728184" lon="8.9864277"><ele>73.0</ele><time>2026-03-28T09:18:56.851Z</time></trkpt><trkpt lat="45.2728561" lon="8.986336"><ele>73.0</ele><time>2026-03-28T09:18:58.84Z</time></trkpt><trkpt lat="45.2728887" lon="8.9862098"><ele>73.0</ele><time>2026-03-28T09:19:01.842Z</time></trkpt><trkpt lat="45.2729326" lon="8.9861012"><ele>73.0</ele><time>2026-03-28T09:19:04.843Z</time></trkpt><trkpt lat="45.2729764" lon="8.9860077"><ele>73.0</ele><time>2026-03-28T09:19:06.846Z</time></trkpt><trkpt lat="45.2730155" lon="8.9859184"><ele>73.0</ele><time>2026-03-28T09:19:08.83Z</time></trkpt><trkpt lat="45.2730562" lon="8.9858026"><ele>73.0</ele><time>2026-03-28T09:19:10.844Z</time></trkpt><trkpt lat="45.2730764" lon="8.9857087"><ele>73.0</ele><time>2026-03-28T09:19:12.859Z</time></trkpt><trkpt lat="45.2730954" lon="8.985602"><ele>73.0</ele><time>2026-03-28T09:19:14.841Z</time></trkpt><trkpt lat="45.2731309" lon="8.9855142"><ele>73.0</ele><time>2026-03-28T09:19:16.843Z</time></trkpt><trkpt lat="45.273171" lon="8.9854302"><ele>73.0</ele><time>2026-03-28T09:19:18.849Z</time></trkpt><trkpt lat="45.2732086" lon="8.985342"><ele>73.0</ele><time>2026-03-28T09:19:20.846Z</time></trkpt><trkpt lat="45.2732328" lon="8.985257"><ele>73.0</ele><time>2026-03-28T09:19:22.843Z</time></trkpt><trkpt lat="45.2732664" lon="8.9851469"><ele>73.0</ele><time>2026-03-28T09:19:25.85Z</time></trkpt><trkpt lat="45.2733091" lon="8.9850796"><ele>73.0</ele><time>2026-03-28T09:19:27.848Z</time></trkpt><trkpt lat="45.2733604" lon="8.98501"><ele>72.83333333333333</ele><time>2026-03-28T09:19:29.839Z</time></trkpt><trkpt lat="45.2734153" lon="8.9849446"><ele>72.66666666666666</ele><time>2026-03-28T09:19:31.845Z</time></trkpt><trkpt lat="45.2734959" lon="8.9848644"><ele>72.5</ele><time>2026-03-28T09:19:34.85Z</time></trkpt><trkpt lat="45.2735507" lon="8.9848102"><ele>72.33333333333333</ele><time>2026-03-28T09:19:36.846Z</time></trkpt><trkpt lat="45.2736068" lon="8.9847472"><ele>72.16666666666667</ele><time>2026-03-28T09:19:38.846Z</time></trkpt><trkpt lat="45.2736619" lon="8.9846839"><ele>72.0</ele><time>2026-03-28T09:19:40.846Z</time></trkpt><trkpt lat="45.2737131" lon="8.9846123"><ele>72.0</ele><time>2026-03-28T09:19:42.848Z</time></trkpt><trkpt lat="45.2737666" lon="8.9845379"><ele>72.0</ele><time>2026-03-28T09:19:44.846Z</time></trkpt><trkpt lat="45.2738166" lon="8.9844515"><ele>72.0</ele><time>2026-03-28T09:19:46.846Z</time></trkpt><trkpt lat="45.2738681" lon="8.984368"><ele>72.0</ele><time>2026-03-28T09:19:48.841Z</time></trkpt><trkpt lat="45.2739131" lon="8.9842673"><ele>72.0</ele><time>2026-03-28T09:19:50.854Z</time></trkpt><trkpt lat="45.2739498" lon="8.9841891"><ele>72.0</ele><time>2026-03-28T09:19:52.84Z</time></trkpt><trkpt lat="45.2740107" lon="8.9840922"><ele>72.14285714285715</ele><time>2026-03-28T09:19:55.833Z</time></trkpt><trkpt lat="45.2740478" lon="8.9840047"><ele>72.28571428571429</ele><time>2026-03-28T09:19:57.839Z</time></trkpt><trkpt lat="45.274083" lon="8.9839218"><ele>72.42857142857143</ele><time>2026-03-28T09:19:59.84Z</time></trkpt><trkpt lat="45.2741354" lon="8.9838282"><ele>72.57142857142858</ele><time>2026-03-28T09:20:01.84Z</time></trkpt><trkpt lat="45.274182" lon="8.9837557"><ele>72.71428571428572</ele><time>2026-03-28T09:20:03.843Z</time></trkpt><trkpt lat="45.2742405" lon="8.9836878"><ele>72.85714285714286</ele><time>2026-03-28T09:20:05.842Z</time></trkpt><trkpt lat="45.2743091" lon="8.9836452"><ele>73.0</ele><time>2026-03-28T09:20:07.846Z</time></trkpt><trkpt lat="45.274371" lon="8.983611"><ele>73.0</ele><time>2026-03-28T09:20:09.845Z</time></trkpt><trkpt lat="45.2744613" lon="8.983576"><ele>73.0</ele><time>2026-03-28T09:20:12.841Z</time></trkpt><trkpt lat="45.2745278" lon="8.9835568"><ele>73.0</ele><time>2026-03-28T09:20:14.926Z</time></trkpt><trkpt lat="45.2746178" lon="8.9835506"><ele>73.0</ele><time>2026-03-28T09:20:17.842Z</time></trkpt><trkpt lat="45.2747053" lon="8.9835232"><ele>73.0</ele><time>2026-03-28T09:20:20.841Z</time></trkpt><trkpt lat="45.2747915" lon="8.9834794"><ele>73.0</ele><time>2026-03-28T09:20:23.85Z</time></trkpt><trkpt lat="45.2748636" lon="8.9834445"><ele>73.14285714285714</ele><time>2026-03-28T09:20:26.842Z</time></trkpt><trkpt lat="45.2749345" lon="8.9834001"><ele>73.28571428571429</ele><time>2026-03-28T09:20:29.846Z</time></trkpt><trkpt lat="45.2750019" lon="8.9833545"><ele>73.42857142857143</ele><time>2026-03-28T09:20:32.838Z</time></trkpt><trkpt lat="45.2750642" lon="8.9833181"><ele>73.57142857142857</ele><time>2026-03-28T09:20:34.842Z</time></trkpt><trkpt lat="45.2751289" lon="8.9832881"><ele>73.71428571428571</ele><time>2026-03-28T09:20:36.847Z</time></trkpt><trkpt lat="45.2751806" lon="8.9832336"><ele>73.85714285714286</ele><time>2026-03-28T09:20:38.835Z</time></trkpt><trkpt lat="45.2752247" lon="8.9831623"><ele>74.0</ele><time>2026-03-28T09:20:40.835Z</time></trkpt><trkpt lat="45.2752433" lon="8.9830683"><ele>74.0</ele><time>2026-03-28T09:20:42.84Z</time></trkpt><trkpt lat="45.2752432" lon="8.9829632"><ele>74.0</ele><time>2026-03-28T09:20:45.843Z</time></trkpt><trkpt lat="45.2752308" lon="8.9828666"><ele>74.0</ele><time>2026-03-28T09:20:47.841Z</time></trkpt><trkpt lat="45.2752239" lon="8.9827717"><ele>74.0</ele><time>2026-03-28T09:20:49.848Z</time></trkpt><trkpt lat="45.275219" lon="8.9826448"><ele>74.0</ele><time>2026-03-28T09:20:52.849Z</time></trkpt><trkpt lat="45.2752229" lon="8.9825482"><ele>74.0</ele><time>2026-03-28T09:20:54.84Z</time></trkpt><trkpt lat="45.2752717" lon="8.9824702"><ele>74.0</ele><time>2026-03-28T09:20:56.838Z</time></trkpt><trkpt lat="45.2753343" lon="8.9823961"><ele>73.71428571428572</ele><time>2026-03-28T09:20:58.844Z</time></trkpt><trkpt lat="45.2753905" lon="8.9823262"><ele>73.42857142857143</ele><time>2026-03-28T09:21:00.843Z</time></trkpt><trkpt lat="45.2754394" lon="8.9822644"><ele>73.14285714285714</ele><time>2026-03-28T09:21:02.844Z</time></trkpt><trkpt lat="45.2754925" lon="8.9822105"><ele>72.85714285714286</ele><time>2026-03-28T09:21:04.839Z</time></trkpt><trkpt lat="45.2755456" lon="8.9821543"><ele>72.57142857142857</ele><time>2026-03-28T09:21:06.843Z</time></trkpt><trkpt lat="45.2756082" lon="8.9820997"><ele>72.28571428571429</ele><time>2026-03-28T09:21:08.831Z</time></trkpt><trkpt lat="45.275671" lon="8.9820589"><ele>72.0</ele><time>2026-03-28T09:21:10.907Z</time></trkpt><trkpt lat="45.2757345" lon="8.982007"><ele>72.66666666666667</ele><time>2026-03-28T09:21:12.855Z</time></trkpt><trkpt lat="45.2757898" lon="8.981963"><ele>73.33333333333333</ele><time>2026-03-28T09:21:14.841Z</time></trkpt><trkpt lat="45.2758744" lon="8.9819216"><ele>74.0</ele><time>2026-03-28T09:21:17.84Z</time></trkpt><trkpt lat="45.2759658" lon="8.9818754"><ele>74.66666666666666</ele><time>2026-03-28T09:21:20.843Z</time></trkpt><trkpt lat="45.2760292" lon="8.9818534"><ele>75.33333333333333</ele><time>2026-03-28T09:21:22.846Z</time></trkpt><trkpt lat="45.2761041" lon="8.9818172"><ele>76.0</ele><time>2026-03-28T09:21:25.844Z</time></trkpt><trkpt lat="45.2761793" lon="8.9817757"><ele>76.0</ele><time>2026-03-28T09:21:28.843Z</time></trkpt><trkpt lat="45.2762638" lon="8.98174"><ele>76.0</ele><time>2026-03-28T09:21:31.844Z</time></trkpt><trkpt lat="45.27635" lon="8.9817303"><ele>76.0</ele><time>2026-03-28T09:21:34.847Z</time></trkpt><trkpt lat="45.2764227" lon="8.9817366"><ele>76.0</ele><time>2026-03-28T09:21:36.851Z</time></trkpt><trkpt lat="45.2764853" lon="8.9817476"><ele>76.0</ele><time>2026-03-28T09:21:38.832Z</time></trkpt><trkpt lat="45.2765606" lon="8.9817625"><ele>76.0</ele><time>2026-03-28T09:21:41.841Z</time></trkpt><trkpt lat="45.2766507" lon="8.9817867"><ele>75.42857142857143</ele><time>2026-03-28T09:21:44.845Z</time></trkpt><trkpt lat="45.2767144" lon="8.9818152"><ele>74.85714285714286</ele><time>2026-03-28T09:21:46.843Z</time></trkpt><trkpt lat="45.2767805" lon="8.981831"><ele>74.28571428571429</ele><time>2026-03-28T09:21:48.838Z</time></trkpt><trkpt lat="45.276849" lon="8.9818432"><ele>73.71428571428572</ele><time>2026-03-28T09:21:50.839Z</time></trkpt><trkpt lat="45.2769116" lon="8.9818335"><ele>73.14285714285714</ele><time>2026-03-28T09:21:52.839Z</time></trkpt><trkpt lat="45.2769766" lon="8.9818134"><ele>72.57142857142858</ele><time>2026-03-28T09:21:54.841Z</time></trkpt><trkpt lat="45.2770418" lon="8.9817827"><ele>72.0</ele><time>2026-03-28T09:21:56.844Z</time></trkpt><trkpt lat="45.2771129" lon="8.9817487"><ele>72.00000000000001</ele><time>2026-03-28T09:21:58.849Z</time></trkpt><trkpt lat="45.2771762" lon="8.981726"><ele>72.0</ele><time>2026-03-28T09:22:00.847Z</time></trkpt><trkpt lat="45.2772462" lon="8.9816976"><ele>72.0</ele><time>2026-03-28T09:22:02.843Z</time></trkpt><trkpt lat="45.2773229" lon="8.9816564"><ele>72.0</ele><time>2026-03-28T09:22:04.842Z</time></trkpt><trkpt lat="45.2773899" lon="8.9816198"><ele>72.0</ele><time>2026-03-28T09:22:06.848Z</time></trkpt><trkpt lat="45.2774452" lon="8.9815592"><ele>72.00000000000001</ele><time>2026-03-28T09:22:08.84Z</time></trkpt><trkpt lat="45.2774997" lon="8.981505"><ele>72.0</ele><time>2026-03-28T09:22:10.843Z</time></trkpt><trkpt lat="45.2775673" lon="8.9814128"><ele>71.5</ele><time>2026-03-28T09:22:13.841Z</time></trkpt><trkpt lat="45.2776276" lon="8.9812963"><ele>71.0</ele><time>2026-03-28T09:22:16.842Z</time></trkpt><trkpt lat="45.2776676" lon="8.9812101"><ele>70.5</ele><time>2026-03-28T09:22:18.844Z</time></trkpt><trkpt lat="45.2776982" lon="8.9811295"><ele>70.0</ele><time>2026-03-28T09:22:20.845Z</time></trkpt><trkpt lat="45.2777396" lon="8.9810431"><ele>69.5</ele><time>2026-03-28T09:22:22.845Z</time></trkpt><trkpt lat="45.2777841" lon="8.9809565"><ele>69.0</ele><time>2026-03-28T09:22:24.848Z</time></trkpt><trkpt lat="45.27782" lon="8.980872"><ele>69.0</ele><time>2026-03-28T09:22:26.847Z</time></trkpt><trkpt lat="45.277852" lon="8.9807935"><ele>69.0</ele><time>2026-03-28T09:22:28.846Z</time></trkpt><trkpt lat="45.2778772" lon="8.9806775"><ele>69.0</ele><time>2026-03-28T09:22:31.856Z</time></trkpt><trkpt lat="45.2778964" lon="8.9805782"><ele>69.0</ele><time>2026-03-28T09:22:33.85Z</time></trkpt><trkpt lat="45.2779186" lon="8.9804937"><ele>69.0</ele><time>2026-03-28T09:22:35.846Z</time></trkpt><trkpt lat="45.2779372" lon="8.9803941"><ele>69.0</ele><time>2026-03-28T09:22:37.85Z</time></trkpt><trkpt lat="45.2779606" lon="8.9803015"><ele>69.0</ele><time>2026-03-28T09:22:39.859Z</time></trkpt><trkpt lat="45.2779814" lon="8.9802036"><ele>69.0</ele><time>2026-03-28T09:22:41.834Z</time></trkpt><trkpt lat="45.2780005" lon="8.9801064"><ele>69.0</ele><time>2026-03-28T09:22:43.839Z</time></trkpt><trkpt lat="45.2780283" lon="8.9800198"><ele>69.0</ele><time>2026-03-28T09:22:45.846Z</time></trkpt><trkpt lat="45.2780528" lon="8.9798938"><ele>69.0</ele><time>2026-03-28T09:22:48.848Z</time></trkpt><trkpt lat="45.2780687" lon="8.9798"><ele>69.0</ele><time>2026-03-28T09:22:50.84Z</time></trkpt><trkpt lat="45.2780941" lon="8.979706"><ele>69.0</ele><time>2026-03-28T09:22:52.842Z</time></trkpt><trkpt lat="45.2781101" lon="8.9796044"><ele>69.0</ele><time>2026-03-28T09:22:54.853Z</time></trkpt><trkpt lat="45.2781255" lon="8.9795003"><ele>69.71428571428572</ele><time>2026-03-28T09:22:56.845Z</time></trkpt><trkpt lat="45.2781356" lon="8.9794059"><ele>70.42857142857143</ele><time>2026-03-28T09:22:58.847Z</time></trkpt><trkpt lat="45.2781556" lon="8.9793113"><ele>71.14285714285714</ele><time>2026-03-28T09:23:00.905Z</time></trkpt><trkpt lat="45.2781881" lon="8.9792071"><ele>71.85714285714286</ele><time>2026-03-28T09:23:02.856Z</time></trkpt><trkpt lat="45.2782435" lon="8.9791435"><ele>72.57142857142857</ele><time>2026-03-28T09:23:04.834Z</time></trkpt><trkpt lat="45.2783075" lon="8.9791097"><ele>73.28571428571429</ele><time>2026-03-28T09:23:06.844Z</time></trkpt><trkpt lat="45.2783775" lon="8.9790847"><ele>74.0</ele><time>2026-03-28T09:23:08.839Z</time></trkpt><trkpt lat="45.2784419" lon="8.9790384"><ele>74.0</ele><time>2026-03-28T09:23:10.844Z</time></trkpt><trkpt lat="45.2785071" lon="8.9789932"><ele>74.0</ele><time>2026-03-28T09:23:12.909Z</time></trkpt><trkpt lat="45.2785632" lon="8.9789429"><ele>74.0</ele><time>2026-03-28T09:23:14.844Z</time></trkpt><trkpt lat="45.2786244" lon="8.9789048"><ele>74.0</ele><time>2026-03-28T09:23:16.848Z</time></trkpt><trkpt lat="45.2786885" lon="8.9788666"><ele>74.0</ele><time>2026-03-28T09:23:18.846Z</time></trkpt><trkpt lat="45.2787451" lon="8.9788202"><ele>74.0</ele><time>2026-03-28T09:23:20.846Z</time></trkpt><trkpt lat="45.278831" lon="8.9788029"><ele>74.0</ele><time>2026-03-28T09:23:23.846Z</time></trkpt><trkpt lat="45.2788963" lon="8.9787796"><ele>74.33333333333334</ele><time>2026-03-28T09:23:25.845Z</time></trkpt><trkpt lat="45.2789682" lon="8.9787172"><ele>74.66666666666667</ele><time>2026-03-28T09:23:27.842Z</time></trkpt><trkpt lat="45.279039" lon="8.9786644"><ele>75.0</ele><time>2026-03-28T09:23:29.839Z</time></trkpt><trkpt lat="45.2791076" lon="8.9786181"><ele>75.33333333333333</ele><time>2026-03-28T09:23:31.839Z</time></trkpt><trkpt lat="45.2791723" lon="8.9785563"><ele>75.66666666666666</ele><time>2026-03-28T09:23:33.842Z</time></trkpt><trkpt lat="45.279235" lon="8.9784876"><ele>76.0</ele><time>2026-03-28T09:23:35.839Z</time></trkpt><trkpt lat="45.2792753" lon="8.9784119"><ele>75.66666666666666</ele><time>2026-03-28T09:23:37.846Z</time></trkpt><trkpt lat="45.2793027" lon="8.9783146"><ele>75.33333333333333</ele><time>2026-03-28T09:23:39.843Z</time></trkpt><trkpt lat="45.2793249" lon="8.9782043"><ele>75.0</ele><time>2026-03-28T09:23:41.842Z</time></trkpt><trkpt lat="45.2793336" lon="8.9780851"><ele>74.66666666666667</ele><time>2026-03-28T09:23:43.84Z</time></trkpt><trkpt lat="45.2793374" lon="8.9779599"><ele>74.33333333333334</ele><time>2026-03-28T09:23:45.845Z</time></trkpt><trkpt lat="45.2793617" lon="8.977851"><ele>74.0</ele><time>2026-03-28T09:23:47.846Z</time></trkpt><trkpt lat="45.2793952" lon="8.9777526"><ele>74.0</ele><time>2026-03-28T09:23:49.847Z</time></trkpt><trkpt lat="45.2794467" lon="8.97766"><ele>74.0</ele><time>2026-03-28T09:23:51.84Z</time></trkpt><trkpt lat="45.2795102" lon="8.9775987"><ele>74.0</ele><time>2026-03-28T09:23:53.84Z</time></trkpt><trkpt lat="45.2795855" lon="8.9775348"><ele>74.0</ele><time>2026-03-28T09:23:56.835Z</time></trkpt><trkpt lat="45.2796407" lon="8.9774822"><ele>74.0</ele><time>2026-03-28T09:23:58.842Z</time></trkpt><trkpt lat="45.2797" lon="8.9774166"><ele>74.0</ele><time>2026-03-28T09:24:00.842Z</time></trkpt><trkpt lat="45.2797666" lon="8.9773578"><ele>75.0</ele><time>2026-03-28T09:24:02.855Z</time></trkpt><trkpt lat="45.2798238" lon="8.9772891"><ele>76.0</ele><time>2026-03-28T09:24:04.845Z</time></trkpt><trkpt lat="45.2798883" lon="8.977233"><ele>77.0</ele><time>2026-03-28T09:24:06.841Z</time></trkpt><trkpt lat="45.2799555" lon="8.9771962"><ele>78.0</ele><time>2026-03-28T09:24:08.847Z</time></trkpt><trkpt lat="45.2800357" lon="8.9771591"><ele>79.0</ele><time>2026-03-28T09:24:11.847Z</time></trkpt><trkpt lat="45.2800931" lon="8.9771087"><ele>80.0</ele><time>2026-03-28T09:24:13.838Z</time></trkpt><trkpt lat="45.2801216" lon="8.9770026"><ele>80.0</ele><time>2026-03-28T09:24:16.841Z</time></trkpt><trkpt lat="45.2801337" lon="8.9768875"><ele>80.0</ele><time>2026-03-28T09:24:19.923Z</time></trkpt><trkpt lat="45.2801347" lon="8.9767896"><ele>80.0</ele><time>2026-03-28T09:24:21.838Z</time></trkpt><trkpt lat="45.2801164" lon="8.976689"><ele>80.0</ele><time>2026-03-28T09:24:23.837Z</time></trkpt><trkpt lat="45.2800896" lon="8.9765893"><ele>80.0</ele><time>2026-03-28T09:24:25.843Z</time></trkpt><trkpt lat="45.2800609" lon="8.9764979"><ele>80.0</ele><time>2026-03-28T09:24:27.845Z</time></trkpt><trkpt lat="45.2800036" lon="8.9764316"><ele>80.0</ele><time>2026-03-28T09:24:29.844Z</time></trkpt><trkpt lat="45.2799368" lon="8.9764038"><ele>80.16666666666667</ele><time>2026-03-28T09:24:31.841Z</time></trkpt><trkpt lat="45.2798764" lon="8.9763681"><ele>80.33333333333334</ele><time>2026-03-28T09:24:33.854Z</time></trkpt><trkpt lat="45.2798109" lon="8.9763159"><ele>80.5</ele><time>2026-03-28T09:24:35.842Z</time></trkpt><trkpt lat="45.279758" lon="8.9762065"><ele>80.66666666666667</ele><time>2026-03-28T09:24:38.845Z</time></trkpt><trkpt lat="45.2797277" lon="8.9761103"><ele>80.83333333333333</ele><time>2026-03-28T09:24:40.845Z</time></trkpt><trkpt lat="45.2796928" lon="8.9760029"><ele>81.0</ele><time>2026-03-28T09:24:42.863Z</time></trkpt><trkpt lat="45.2796762" lon="8.9759135"><ele>80.33333333333333</ele><time>2026-03-28T09:24:44.838Z</time></trkpt><trkpt lat="45.2796739" lon="8.9757922"><ele>79.66666666666667</ele><time>2026-03-28T09:24:47.917Z</time></trkpt><trkpt lat="45.2796998" lon="8.9756707"><ele>79.0</ele><time>2026-03-28T09:24:50.844Z</time></trkpt><trkpt lat="45.2797359" lon="8.9755852"><ele>78.33333333333334</ele><time>2026-03-28T09:24:52.839Z</time></trkpt><trkpt lat="45.2797764" lon="8.9754701"><ele>77.66666666666667</ele><time>2026-03-28T09:24:54.834Z</time></trkpt><trkpt lat="45.2797867" lon="8.9753637"><ele>77.0</ele><time>2026-03-28T09:24:56.842Z</time></trkpt><trkpt lat="45.2798136" lon="8.9752804"><ele>77.0</ele><time>2026-03-28T09:24:58.847Z</time></trkpt><trkpt lat="45.2798592" lon="8.9751641"><ele>77.0</ele><time>2026-03-28T09:25:01.838Z</time></trkpt><trkpt lat="45.279871" lon="8.9750371"><ele>77.0</ele><time>2026-03-28T09:25:04.848Z</time></trkpt><trkpt lat="45.279887" lon="8.974939"><ele>77.0</ele><time>2026-03-28T09:25:06.842Z</time></trkpt><trkpt lat="45.2798976" lon="8.9748381"><ele>77.0</ele><time>2026-03-28T09:25:08.833Z</time></trkpt><trkpt lat="45.2799078" lon="8.974733"><ele>77.0</ele><time>2026-03-28T09:25:10.836Z</time></trkpt><trkpt lat="45.2799263" lon="8.9746408"><ele>76.5</ele><time>2026-03-28T09:25:12.909Z</time></trkpt><trkpt lat="45.2799846" lon="8.974586"><ele>76.0</ele><time>2026-03-28T09:25:15.848Z</time></trkpt><trkpt lat="45.2800257" lon="8.9744927"><ele>75.5</ele><time>2026-03-28T09:25:20.838Z</time></trkpt><trkpt lat="45.2800602" lon="8.974387"><ele>75.0</ele><time>2026-03-28T09:25:23.837Z</time></trkpt><trkpt lat="45.2801016" lon="8.9742977"><ele>74.5</ele><time>2026-03-28T09:25:25.836Z</time></trkpt><trkpt lat="45.2801327" lon="8.9741693"><ele>74.0</ele><time>2026-03-28T09:25:28.853Z</time></trkpt><trkpt lat="45.2801583" lon="8.9740774"><ele>73.66666666666667</ele><time>2026-03-28T09:25:30.841Z</time></trkpt><trkpt lat="45.280195" lon="8.9739482"><ele>73.33333333333334</ele><time>2026-03-28T09:25:33.862Z</time></trkpt><trkpt lat="45.2802088" lon="8.973856"><ele>73.0</ele><time>2026-03-28T09:25:35.835Z</time></trkpt><trkpt lat="45.2802032" lon="8.9737268"><ele>72.66666666666667</ele><time>2026-03-28T09:25:38.844Z</time></trkpt><trkpt lat="45.2802128" lon="8.9736342"><ele>72.33333333333333</ele><time>2026-03-28T09:25:40.842Z</time></trkpt><trkpt lat="45.2802435" lon="8.9735438"><ele>72.0</ele><time>2026-03-28T09:25:42.849Z</time></trkpt><trkpt lat="45.2802749" lon="8.9734508"><ele>72.0</ele><time>2026-03-28T09:25:44.838Z</time></trkpt><trkpt lat="45.2803019" lon="8.9733644"><ele>72.0</ele><time>2026-03-28T09:25:46.845Z</time></trkpt><trkpt lat="45.2803291" lon="8.9732464"><ele>72.0</ele><time>2026-03-28T09:25:49.838Z</time></trkpt><trkpt lat="45.2803038" lon="8.9731214"><ele>72.0</ele><time>2026-03-28T09:25:53.831Z</time></trkpt><trkpt lat="45.2802731" lon="8.973031"><ele>72.0</ele><time>2026-03-28T09:25:55.842Z</time></trkpt><trkpt lat="45.2802599" lon="8.9729071"><ele>72.0</ele><time>2026-03-28T09:25:58.841Z</time></trkpt><trkpt lat="45.2802512" lon="8.9727937"><ele>71.83333333333333</ele><time>2026-03-28T09:26:00.844Z</time></trkpt><trkpt lat="45.2802399" lon="8.9727056"><ele>71.66666666666667</ele><time>2026-03-28T09:26:02.833Z</time></trkpt><trkpt lat="45.2802296" lon="8.9725775"><ele>71.5</ele><time>2026-03-28T09:26:05.843Z</time></trkpt><trkpt lat="45.2802242" lon="8.9724703"><ele>71.33333333333334</ele><time>2026-03-28T09:26:07.841Z</time></trkpt><trkpt lat="45.2801966" lon="8.9723571"><ele>71.16666666666667</ele><time>2026-03-28T09:26:10.837Z</time></trkpt><trkpt lat="45.2801701" lon="8.9722477"><ele>71.0</ele><time>2026-03-28T09:26:13.839Z</time></trkpt><trkpt lat="45.2801496" lon="8.9721327"><ele>71.0</ele><time>2026-03-28T09:26:16.854Z</time></trkpt><trkpt lat="45.2801687" lon="8.9720002"><ele>71.0</ele><time>2026-03-28T09:26:19.852Z</time></trkpt><trkpt lat="45.2801779" lon="8.9718906"><ele>71.0</ele><time>2026-03-28T09:26:22.84Z</time></trkpt><trkpt lat="45.2801999" lon="8.9717629"><ele>71.0</ele><time>2026-03-28T09:26:25.841Z</time></trkpt><trkpt lat="45.2802088" lon="8.9716513"><ele>71.0</ele><time>2026-03-28T09:26:28.841Z</time></trkpt><trkpt lat="45.2802224" lon="8.9715446"><ele>71.0</ele><time>2026-03-28T09:26:31.839Z</time></trkpt><trkpt lat="45.2802361" lon="8.971399"><ele>71.33333333333334</ele><time>2026-03-28T09:26:36.903Z</time></trkpt><trkpt lat="45.2802064" lon="8.9712892"><ele>71.66666666666667</ele><time>2026-03-28T09:26:39.836Z</time></trkpt><trkpt lat="45.2801701" lon="8.9712126"><ele>72.0</ele><time>2026-03-28T09:26:41.831Z</time></trkpt><trkpt lat="45.2801256" lon="8.9711266"><ele>72.33333333333333</ele><time>2026-03-28T09:26:43.838Z</time></trkpt><trkpt lat="45.2801121" lon="8.9710281"><ele>72.66666666666666</ele><time>2026-03-28T09:26:46.837Z</time></trkpt><trkpt lat="45.2801042" lon="8.9708963"><ele>73.0</ele><time>2026-03-28T09:26:49.838Z</time></trkpt><trkpt lat="45.2800888" lon="8.9707838"><ele>73.33333333333333</ele><time>2026-03-28T09:26:52.846Z</time></trkpt><trkpt lat="45.2800731" lon="8.9706545"><ele>73.66666666666666</ele><time>2026-03-28T09:26:55.835Z</time></trkpt><trkpt lat="45.2800564" lon="8.9705652"><ele>74.0</ele><time>2026-03-28T09:26:57.838Z</time></trkpt><trkpt lat="45.2800322" lon="8.9704471"><ele>74.33333333333333</ele><time>2026-03-28T09:27:00.844Z</time></trkpt><trkpt lat="45.2800015" lon="8.9703583"><ele>74.66666666666667</ele><time>2026-03-28T09:27:03.917Z</time></trkpt><trkpt lat="45.2799676" lon="8.9702587"><ele>75.0</ele><time>2026-03-28T09:27:06.838Z</time></trkpt><trkpt lat="45.2799301" lon="8.9701608"><ele>75.0</ele><time>2026-03-28T09:27:09.838Z</time></trkpt><trkpt lat="45.2799022" lon="8.9700415"><ele>75.0</ele><time>2026-03-28T09:27:12.844Z</time></trkpt><trkpt lat="45.2799613" lon="8.9699684"><ele>75.0</ele><time>2026-03-28T09:27:16.841Z</time></trkpt><trkpt lat="45.2800088" lon="8.969847"><ele>75.0</ele><time>2026-03-28T09:27:20.837Z</time></trkpt><trkpt lat="45.2800825" lon="8.9697979"><ele>75.0</ele><time>2026-03-28T09:27:23.837Z</time></trkpt><trkpt lat="45.2801527" lon="8.969742"><ele>75.0</ele><time>2026-03-28T09:27:26.843Z</time></trkpt><trkpt lat="45.2802036" lon="8.9696889"><ele>74.83333333333333</ele><time>2026-03-28T09:27:28.836Z</time></trkpt><trkpt lat="45.2802714" lon="8.9696036"><ele>74.66666666666667</ele><time>2026-03-28T09:27:31.839Z</time></trkpt><trkpt lat="45.2803277" lon="8.9695353"><ele>74.5</ele><time>2026-03-28T09:27:35.839Z</time></trkpt><trkpt lat="45.2803981" lon="8.9695155"><ele>74.33333333333334</ele><time>2026-03-28T09:27:38.847Z</time></trkpt><trkpt lat="45.2804742" lon="8.9694628"><ele>74.16666666666667</ele><time>2026-03-28T09:27:41.849Z</time></trkpt><trkpt lat="45.2805406" lon="8.9694451"><ele>74.0</ele><time>2026-03-28T09:27:44.922Z</time></trkpt><trkpt lat="45.2806164" lon="8.9694474"><ele>73.83333333333334</ele><time>2026-03-28T09:27:48.847Z</time></trkpt><trkpt lat="45.2806856" lon="8.9694581"><ele>73.66666666666667</ele><time>2026-03-28T09:27:51.839Z</time></trkpt><trkpt lat="45.2807585" lon="8.9694654"><ele>73.5</ele><time>2026-03-28T09:27:54.845Z</time></trkpt><trkpt lat="45.2808428" lon="8.9694474"><ele>73.33333333333333</ele><time>2026-03-28T09:27:57.839Z</time></trkpt><trkpt lat="45.2809231" lon="8.969468"><ele>73.16666666666666</ele><time>2026-03-28T09:28:00.841Z</time></trkpt><trkpt lat="45.2810044" lon="8.9694729"><ele>73.0</ele><time>2026-03-28T09:28:03.843Z</time></trkpt><trkpt lat="45.2810743" lon="8.9695111"><ele>73.0</ele><time>2026-03-28T09:28:06.853Z</time></trkpt><trkpt lat="45.2811415" lon="8.969478"><ele>73.0</ele><time>2026-03-28T09:28:08.843Z</time></trkpt><trkpt lat="45.2812045" lon="8.9694527"><ele>73.0</ele><time>2026-03-28T09:28:10.844Z</time></trkpt><trkpt lat="45.2812886" lon="8.9694548"><ele>73.0</ele><time>2026-03-28T09:28:12.849Z</time></trkpt><trkpt lat="45.2813535" lon="8.9694411"><ele>73.0</ele><time>2026-03-28T09:28:14.845Z</time></trkpt><trkpt lat="45.2814271" lon="8.9694514"><ele>73.0</ele><time>2026-03-28T09:28:18.843Z</time></trkpt><trkpt lat="45.2814939" lon="8.9694069"><ele>73.0</ele><time>2026-03-28T09:28:20.844Z</time></trkpt><trkpt lat="45.281593" lon="8.9694401"><ele>73.0</ele><time>2026-03-28T09:28:22.848Z</time></trkpt><trkpt lat="45.2816673" lon="8.9694001"><ele>73.0</ele><time>2026-03-28T09:28:25.839Z</time></trkpt><trkpt lat="45.2817326" lon="8.9693642"><ele>73.0</ele><time>2026-03-28T09:28:28.839Z</time></trkpt><trkpt lat="45.2818033" lon="8.9693969"><ele>73.0</ele><time>2026-03-28T09:28:31.84Z</time></trkpt><trkpt lat="45.2818694" lon="8.9694159"><ele>73.0</ele><time>2026-03-28T09:28:34.842Z</time></trkpt><trkpt lat="45.2819379" lon="8.9694066"><ele>73.0</ele><time>2026-03-28T09:28:37.911Z</time></trkpt><trkpt lat="45.2819576" lon="8.9692934"><ele>73.0</ele><time>2026-03-28T09:28:40.839Z</time></trkpt><trkpt lat="45.2819994" lon="8.9691823"><ele>73.0</ele><time>2026-03-28T09:28:43.838Z</time></trkpt><trkpt lat="45.2820544" lon="8.969105"><ele>73.0</ele><time>2026-03-28T09:28:47.833Z</time></trkpt><trkpt lat="45.2821225" lon="8.9690754"><ele>73.0</ele><time>2026-03-28T09:28:51.836Z</time></trkpt><trkpt lat="45.2821834" lon="8.9690172"><ele>73.0</ele><time>2026-03-28T09:28:54.838Z</time></trkpt><trkpt lat="45.2822584" lon="8.9689857"><ele>73.0</ele><time>2026-03-28T09:28:57.84Z</time></trkpt><trkpt lat="45.2823146" lon="8.9689392"><ele>73.0</ele><time>2026-03-28T09:28:59.835Z</time></trkpt><trkpt lat="45.2823601" lon="8.9688435"><ele>73.0</ele><time>2026-03-28T09:29:03.841Z</time></trkpt><trkpt lat="45.2824266" lon="8.968793"><ele>73.0</ele><time>2026-03-28T09:29:08.84Z</time></trkpt><trkpt lat="45.282491" lon="8.968743"><ele>73.0</ele><time>2026-03-28T09:29:11.838Z</time></trkpt><trkpt lat="45.2825417" lon="8.9686732"><ele>73.0</ele><time>2026-03-28T09:29:14.843Z</time></trkpt><trkpt lat="45.2825779" lon="8.9685739"><ele>73.0</ele><time>2026-03-28T09:29:17.824Z</time></trkpt><trkpt lat="45.2826428" lon="8.9685088"><ele>73.0</ele><time>2026-03-28T09:29:20.839Z</time></trkpt><trkpt lat="45.2826789" lon="8.9684244"><ele>73.0</ele><time>2026-03-28T09:29:23.838Z</time></trkpt><trkpt lat="45.282743" lon="8.9683595"><ele>73.0</ele><time>2026-03-28T09:29:26.843Z</time></trkpt><trkpt lat="45.2827923" lon="8.9682929"><ele>73.0</ele><time>2026-03-28T09:29:29.839Z</time></trkpt><trkpt lat="45.2828266" lon="8.9682053"><ele>73.0</ele><time>2026-03-28T09:29:32.842Z</time></trkpt><trkpt lat="45.282826" lon="8.9681139"><ele>73.0</ele><time>2026-03-28T09:29:34.842Z</time></trkpt><trkpt lat="45.2828623" lon="8.9680196"><ele>73.0</ele><time>2026-03-28T09:29:37.838Z</time></trkpt><trkpt lat="45.2829181" lon="8.9679479"><ele>73.0</ele><time>2026-03-28T09:29:39.831Z</time></trkpt><trkpt lat="45.2829775" lon="8.9679057"><ele>73.0</ele><time>2026-03-28T09:29:41.84Z</time></trkpt><trkpt lat="45.2830274" lon="8.967841"><ele>73.0</ele><time>2026-03-28T09:29:44.841Z</time></trkpt><trkpt lat="45.2830488" lon="8.9677275"><ele>73.0</ele><time>2026-03-28T09:29:48.829Z</time></trkpt><trkpt lat="45.2830761" lon="8.9676349"><ele>73.0</ele><time>2026-03-28T09:29:51.839Z</time></trkpt><trkpt lat="45.2830966" lon="8.9675467"><ele>73.0</ele><time>2026-03-28T09:29:54.841Z</time></trkpt><trkpt lat="45.2831328" lon="8.9674499"><ele>73.0</ele><time>2026-03-28T09:29:57.835Z</time></trkpt><trkpt lat="45.2831723" lon="8.9673627"><ele>73.0</ele><time>2026-03-28T09:29:59.854Z</time></trkpt><trkpt lat="45.283223" lon="8.9672379"><ele>73.0</ele><time>2026-03-28T09:30:02.842Z</time></trkpt><trkpt lat="45.28326" lon="8.9671431"><ele>73.0</ele><time>2026-03-28T09:30:04.855Z</time></trkpt><trkpt lat="45.2833113" lon="8.9670616"><ele>73.0</ele><time>2026-03-28T09:30:08.837Z</time></trkpt><trkpt lat="45.2833564" lon="8.966947"><ele>73.0</ele><time>2026-03-28T09:30:11.846Z</time></trkpt><trkpt lat="45.2833667" lon="8.9668215"><ele>73.0</ele><time>2026-03-28T09:30:15.84Z</time></trkpt><trkpt lat="45.2834013" lon="8.9667311"><ele>73.0</ele><time>2026-03-28T09:30:18.832Z</time></trkpt><trkpt lat="45.2834381" lon="8.9666555"><ele>73.0</ele><time>2026-03-28T09:30:21.841Z</time></trkpt><trkpt lat="45.2834444" lon="8.9665505"><ele>73.0</ele><time>2026-03-28T09:30:30.849Z</time></trkpt><trkpt lat="45.2834641" lon="8.9664387"><ele>73.0</ele><time>2026-03-28T09:30:34.841Z</time></trkpt><trkpt lat="45.2835531" lon="8.9663957"><ele>73.0</ele><time>2026-03-28T09:30:37.854Z</time></trkpt><trkpt lat="45.2836308" lon="8.9663253"><ele>73.0</ele><time>2026-03-28T09:30:40.843Z</time></trkpt><trkpt lat="45.2836745" lon="8.9662362"><ele>73.0</ele><time>2026-03-28T09:30:44.845Z</time></trkpt><trkpt lat="45.2837362" lon="8.9661268"><ele>73.0</ele><time>2026-03-28T09:30:47.839Z</time></trkpt><trkpt lat="45.2838117" lon="8.966073"><ele>73.0</ele><time>2026-03-28T09:30:50.84Z</time></trkpt><trkpt lat="45.2838822" lon="8.9660049"><ele>73.0</ele><time>2026-03-28T09:30:53.843Z</time></trkpt><trkpt lat="45.2839658" lon="8.9659252"><ele>73.0</ele><time>2026-03-28T09:30:56.843Z</time></trkpt><trkpt lat="45.2839853" lon="8.9658382"><ele>73.0</ele><time>2026-03-28T09:30:58.844Z</time></trkpt><trkpt lat="45.2840088" lon="8.965725"><ele>73.0</ele><time>2026-03-28T09:31:01.844Z</time></trkpt><trkpt lat="45.2840438" lon="8.9656133"><ele>73.16666666666666</ele><time>2026-03-28T09:31:04.843Z</time></trkpt><trkpt lat="45.2840754" lon="8.9655343"><ele>73.33333333333333</ele><time>2026-03-28T09:31:06.843Z</time></trkpt><trkpt lat="45.2841114" lon="8.9654157"><ele>73.5</ele><time>2026-03-28T09:31:09.846Z</time></trkpt><trkpt lat="45.2841515" lon="8.9652941"><ele>73.66666666666667</ele><time>2026-03-28T09:31:12.844Z</time></trkpt><trkpt lat="45.284201" lon="8.965207"><ele>73.83333333333334</ele><time>2026-03-28T09:31:14.846Z</time></trkpt><trkpt lat="45.2842557" lon="8.9651259"><ele>74.0</ele><time>2026-03-28T09:31:16.918Z</time></trkpt><trkpt lat="45.2843127" lon="8.9650499"><ele>73.66666666666667</ele><time>2026-03-28T09:31:18.844Z</time></trkpt><trkpt lat="45.2843799" lon="8.964966"><ele>73.33333333333334</ele><time>2026-03-28T09:31:21.834Z</time></trkpt><trkpt lat="45.2844524" lon="8.9648722"><ele>73.0</ele><time>2026-03-28T09:31:24.844Z</time></trkpt><trkpt lat="45.2845167" lon="8.9648108"><ele>72.66666666666667</ele><time>2026-03-28T09:31:26.843Z</time></trkpt><trkpt lat="45.2845791" lon="8.9647557"><ele>72.33333333333333</ele><time>2026-03-28T09:31:28.84Z</time></trkpt><trkpt lat="45.2846329" lon="8.9647034"><ele>72.0</ele><time>2026-03-28T09:31:30.842Z</time></trkpt><trkpt lat="45.2846952" lon="8.9646086"><ele>72.66666666666667</ele><time>2026-03-28T09:31:33.835Z</time></trkpt><trkpt lat="45.2847717" lon="8.9645414"><ele>73.33333333333333</ele><time>2026-03-28T09:31:36.843Z</time></trkpt><trkpt lat="45.284836" lon="8.9644384"><ele>74.0</ele><time>2026-03-28T09:31:39.837Z</time></trkpt><trkpt lat="45.2848959" lon="8.9643987"><ele>74.66666666666666</ele><time>2026-03-28T09:31:41.845Z</time></trkpt><trkpt lat="45.284964" lon="8.9643278"><ele>75.33333333333333</ele><time>2026-03-28T09:31:44.839Z</time></trkpt><trkpt lat="45.2850093" lon="8.9642652"><ele>76.0</ele><time>2026-03-28T09:31:46.845Z</time></trkpt><trkpt lat="45.2850827" lon="8.9641846"><ele>76.0</ele><time>2026-03-28T09:31:49.839Z</time></trkpt><trkpt lat="45.2851409" lon="8.9641461"><ele>76.0</ele><time>2026-03-28T09:31:51.832Z</time></trkpt><trkpt lat="45.2852284" lon="8.9641067"><ele>76.0</ele><time>2026-03-28T09:31:54.846Z</time></trkpt><trkpt lat="45.2852904" lon="8.9640888"><ele>76.0</ele><time>2026-03-28T09:31:56.917Z</time></trkpt><trkpt lat="45.2853573" lon="8.964102"><ele>76.0</ele><time>2026-03-28T09:31:58.845Z</time></trkpt><trkpt lat="45.2854205" lon="8.9641413"><ele>76.0</ele><time>2026-03-28T09:32:00.837Z</time></trkpt><trkpt lat="45.2854806" lon="8.9641971"><ele>76.0</ele><time>2026-03-28T09:32:02.839Z</time></trkpt><trkpt lat="45.285562" lon="8.9642657"><ele>75.5</ele><time>2026-03-28T09:32:05.845Z</time></trkpt><trkpt lat="45.2856316" lon="8.9643407"><ele>75.0</ele><time>2026-03-28T09:32:08.844Z</time></trkpt><trkpt lat="45.2857058" lon="8.9644213"><ele>74.5</ele><time>2026-03-28T09:32:11.843Z</time></trkpt><trkpt lat="45.2857644" lon="8.964463"><ele>74.0</ele><time>2026-03-28T09:32:13.836Z</time></trkpt><trkpt lat="45.2858436" lon="8.9645163"><ele>73.5</ele><time>2026-03-28T09:32:16.831Z</time></trkpt><trkpt lat="45.2859167" lon="8.9645802"><ele>73.0</ele><time>2026-03-28T09:32:19.834Z</time></trkpt><trkpt lat="45.2859905" lon="8.9646536"><ele>73.0</ele><time>2026-03-28T09:32:22.842Z</time></trkpt><trkpt lat="45.2860502" lon="8.9646931"><ele>73.0</ele><time>2026-03-28T09:32:24.849Z</time></trkpt><trkpt lat="45.2861121" lon="8.9647366"><ele>73.0</ele><time>2026-03-28T09:32:26.836Z</time></trkpt><trkpt lat="45.2861739" lon="8.9647764"><ele>73.0</ele><time>2026-03-28T09:32:28.842Z</time></trkpt><trkpt lat="45.2862432" lon="8.9648125"><ele>73.0</ele><time>2026-03-28T09:32:30.841Z</time></trkpt><trkpt lat="45.2863051" lon="8.9648442"><ele>73.0</ele><time>2026-03-28T09:32:32.842Z</time></trkpt><trkpt lat="45.2863689" lon="8.9648813"><ele>73.0</ele><time>2026-03-28T09:32:34.834Z</time></trkpt><trkpt lat="45.2864468" lon="8.9649033"><ele>73.5</ele><time>2026-03-28T09:32:37.921Z</time></trkpt><trkpt lat="45.2865282" lon="8.9649495"><ele>74.0</ele><time>2026-03-28T09:32:40.842Z</time></trkpt><trkpt lat="45.2866262" lon="8.9649733"><ele>74.5</ele><time>2026-03-28T09:32:43.843Z</time></trkpt><trkpt lat="45.2866944" lon="8.9650019"><ele>75.0</ele><time>2026-03-28T09:32:45.841Z</time></trkpt><trkpt lat="45.2867788" lon="8.9650131"><ele>75.5</ele><time>2026-03-28T09:32:48.842Z</time></trkpt><trkpt lat="45.2868453" lon="8.9650107"><ele>76.0</ele><time>2026-03-28T09:32:50.846Z</time></trkpt><trkpt lat="45.2869091" lon="8.9650121"><ele>76.0</ele><time>2026-03-28T09:32:52.932Z</time></trkpt><trkpt lat="45.2869913" lon="8.9649937"><ele>76.0</ele><time>2026-03-28T09:32:55.847Z</time></trkpt><trkpt lat="45.2870635" lon="8.964993"><ele>76.0</ele><time>2026-03-28T09:32:58.837Z</time></trkpt><trkpt lat="45.2871493" lon="8.9649844"><ele>76.0</ele><time>2026-03-28T09:33:01.839Z</time></trkpt><trkpt lat="45.2872295" lon="8.964992"><ele>76.0</ele><time>2026-03-28T09:33:04.844Z</time></trkpt><trkpt lat="45.2873172" lon="8.9649945"><ele>76.0</ele><time>2026-03-28T09:33:07.849Z</time></trkpt><trkpt lat="45.2874013" lon="8.9649915"><ele>76.66666666666666</ele><time>2026-03-28T09:33:10.839Z</time></trkpt><trkpt lat="45.2874702" lon="8.9649958"><ele>77.33333333333333</ele><time>2026-03-28T09:33:13.838Z</time></trkpt><trkpt lat="45.2875452" lon="8.9649789"><ele>78.0</ele><time>2026-03-28T09:33:16.837Z</time></trkpt><trkpt lat="45.2876103" lon="8.9649762"><ele>78.66666666666667</ele><time>2026-03-28T09:33:18.908Z</time></trkpt><trkpt lat="45.287675" lon="8.9649809"><ele>79.33333333333334</ele><time>2026-03-28T09:33:20.848Z</time></trkpt><trkpt lat="45.2877615" lon="8.9649706"><ele>80.0</ele><time>2026-03-28T09:33:23.84Z</time></trkpt><trkpt lat="45.2878477" lon="8.9649423"><ele>80.0</ele><time>2026-03-28T09:33:26.855Z</time></trkpt><trkpt lat="45.2879324" lon="8.9648965"><ele>80.0</ele><time>2026-03-28T09:33:29.841Z</time></trkpt><trkpt lat="45.2880218" lon="8.9648389"><ele>80.0</ele><time>2026-03-28T09:33:32.917Z</time></trkpt><trkpt lat="45.2880789" lon="8.9647991"><ele>80.0</ele><time>2026-03-28T09:33:34.838Z</time></trkpt><trkpt lat="45.2881364" lon="8.9647538"><ele>80.0</ele><time>2026-03-28T09:33:36.851Z</time></trkpt><trkpt lat="45.2881951" lon="8.9647067"><ele>80.0</ele><time>2026-03-28T09:33:38.836Z</time></trkpt><trkpt lat="45.2882611" lon="8.9646523"><ele>80.14285714285714</ele><time>2026-03-28T09:33:40.844Z</time></trkpt><trkpt lat="45.2883193" lon="8.964607"><ele>80.28571428571429</ele><time>2026-03-28T09:33:42.842Z</time></trkpt><trkpt lat="45.2883765" lon="8.9645632"><ele>80.42857142857143</ele><time>2026-03-28T09:33:44.841Z</time></trkpt><trkpt lat="45.2884371" lon="8.9645292"><ele>80.57142857142857</ele><time>2026-03-28T09:33:46.836Z</time></trkpt><trkpt lat="45.2884976" lon="8.96449"><ele>80.71428571428571</ele><time>2026-03-28T09:33:48.846Z</time></trkpt><trkpt lat="45.2885621" lon="8.964462"><ele>80.85714285714286</ele><time>2026-03-28T09:33:50.842Z</time></trkpt><trkpt lat="45.2886305" lon="8.9644227"><ele>81.0</ele><time>2026-03-28T09:33:52.845Z</time></trkpt><trkpt lat="45.2886944" lon="8.9643875"><ele>81.0</ele><time>2026-03-28T09:33:54.84Z</time></trkpt><trkpt lat="45.2887627" lon="8.9643559"><ele>81.0</ele><time>2026-03-28T09:33:56.846Z</time></trkpt><trkpt lat="45.2888341" lon="8.9643155"><ele>81.0</ele><time>2026-03-28T09:33:58.839Z</time></trkpt><trkpt lat="45.2889232" lon="8.9642711"><ele>81.0</ele><time>2026-03-28T09:34:01.833Z</time></trkpt><trkpt lat="45.2889789" lon="8.9642283"><ele>81.0</ele><time>2026-03-28T09:34:03.839Z</time></trkpt><trkpt lat="45.2890461" lon="8.9641873"><ele>81.0</ele><time>2026-03-28T09:34:05.825Z</time></trkpt><trkpt lat="45.2891143" lon="8.9641263"><ele>81.0</ele><time>2026-03-28T09:34:08.837Z</time></trkpt><trkpt lat="45.2891884" lon="8.9640559"><ele>81.0</ele><time>2026-03-28T09:34:11.837Z</time></trkpt><trkpt lat="45.2892547" lon="8.9639859"><ele>81.0</ele><time>2026-03-28T09:34:14.832Z</time></trkpt><trkpt lat="45.289319" lon="8.9639557"><ele>81.0</ele><time>2026-03-28T09:34:17.842Z</time></trkpt><trkpt lat="45.2893502" lon="8.9640578"><ele>81.0</ele><time>2026-03-28T09:34:23.842Z</time></trkpt><trkpt lat="45.2893715" lon="8.96416"><ele>81.0</ele><time>2026-03-28T09:34:26.843Z</time></trkpt><trkpt lat="45.2893929" lon="8.9642673"><ele>81.33333333333333</ele><time>2026-03-28T09:34:29.841Z</time></trkpt><trkpt lat="45.2894263" lon="8.964363"><ele>81.66666666666667</ele><time>2026-03-28T09:34:32.834Z</time></trkpt><trkpt lat="45.289471" lon="8.9644574"><ele>82.0</ele><time>2026-03-28T09:34:35.84Z</time></trkpt><trkpt lat="45.2895085" lon="8.9645507"><ele>82.33333333333334</ele><time>2026-03-28T09:34:38.838Z</time></trkpt><trkpt lat="45.2895391" lon="8.9646332"><ele>82.66666666666667</ele><time>2026-03-28T09:34:41.847Z</time></trkpt><trkpt lat="45.2895621" lon="8.9647336"><ele>83.0</ele><time>2026-03-28T09:34:44.843Z</time></trkpt><trkpt lat="45.2895832" lon="8.9648577"><ele>83.0</ele><time>2026-03-28T09:34:47.836Z</time></trkpt><trkpt lat="45.2895942" lon="8.9649696"><ele>83.0</ele><time>2026-03-28T09:34:50.839Z</time></trkpt><trkpt lat="45.2896042" lon="8.9650718"><ele>83.0</ele><time>2026-03-28T09:34:54.84Z</time></trkpt><trkpt lat="45.2896821" lon="8.9651696"><ele>83.0</ele><time>2026-03-28T09:35:50.857Z</time></trkpt><trkpt lat="45.2896879" lon="8.9652631"><ele>83.0</ele><time>2026-03-28T09:35:56.842Z</time></trkpt><trkpt lat="45.2896954" lon="8.9653621"><ele>83.0</ele><time>2026-03-28T09:36:00.84Z</time></trkpt><trkpt lat="45.2897102" lon="8.9654495"><ele>83.5</ele><time>2026-03-28T09:36:03.849Z</time></trkpt><trkpt lat="45.2897254" lon="8.9655402"><ele>84.0</ele><time>2026-03-28T09:36:06.84Z</time></trkpt><trkpt lat="45.2897172" lon="8.9656498"><ele>84.5</ele><time>2026-03-28T09:36:09.851Z</time></trkpt><trkpt lat="45.2897279" lon="8.9657565"><ele>85.0</ele><time>2026-03-28T09:36:12.881Z</time></trkpt><trkpt lat="45.2897256" lon="8.9658712"><ele>85.5</ele><time>2026-03-28T09:36:15.836Z</time></trkpt><trkpt lat="45.2897362" lon="8.9659826"><ele>86.0</ele><time>2026-03-28T09:36:18.84Z</time></trkpt><trkpt lat="45.289744" lon="8.9661088"><ele>87.42857142857143</ele><time>2026-03-28T09:36:21.837Z</time></trkpt><trkpt lat="45.2897471" lon="8.9662033"><ele>88.85714285714286</ele><time>2026-03-28T09:36:24.849Z</time></trkpt><trkpt lat="45.2897541" lon="8.966314"><ele>90.28571428571428</ele><time>2026-03-28T09:36:28.854Z</time></trkpt><trkpt lat="45.2897804" lon="8.9664084"><ele>91.71428571428572</ele><time>2026-03-28T09:36:32.861Z</time></trkpt><trkpt lat="45.2897981" lon="8.9665014"><ele>93.14285714285714</ele><time>2026-03-28T09:37:07.835Z</time></trkpt><trkpt lat="45.2898172" lon="8.9666024"><ele>94.57142857142857</ele><time>2026-03-28T09:37:11.865Z</time></trkpt><trkpt lat="45.2898259" lon="8.9667116"><ele>96.0</ele><time>2026-03-28T09:37:15.859Z</time></trkpt><trkpt lat="45.2898238" lon="8.9668089"><ele>96.83333333333333</ele><time>2026-03-28T09:37:18.861Z</time></trkpt><trkpt lat="45.2898345" lon="8.9669217"><ele>97.66666666666666</ele><time>2026-03-28T09:37:21.848Z</time></trkpt><trkpt lat="45.2898515" lon="8.9670277"><ele>98.5</ele><time>2026-03-28T09:37:24.862Z</time></trkpt><trkpt lat="45.2898632" lon="8.9671297"><ele>99.33333333333333</ele><time>2026-03-28T09:37:27.868Z</time></trkpt><trkpt lat="45.2898867" lon="8.9672371"><ele>100.16666666666666</ele><time>2026-03-28T09:37:30.912Z</time></trkpt><trkpt lat="45.289902" lon="8.9673327"><ele>101.0</ele><time>2026-03-28T09:37:33.857Z</time></trkpt><trkpt lat="45.2899158" lon="8.9674512"><ele>100.66666666666666</ele><time>2026-03-28T09:37:36.837Z</time></trkpt><trkpt lat="45.2899228" lon="8.9675654"><ele>100.33333333333333</ele><time>2026-03-28T09:37:39.863Z</time></trkpt><trkpt lat="45.2899431" lon="8.9676612"><ele>100.0</ele><time>2026-03-28T09:37:42.861Z</time></trkpt><trkpt lat="45.2899572" lon="8.9677693"><ele>99.66666666666666</ele><time>2026-03-28T09:37:45.843Z</time></trkpt><trkpt lat="45.2899675" lon="8.9678773"><ele>99.33333333333333</ele><time>2026-03-28T09:37:48.835Z</time></trkpt><trkpt lat="45.2899659" lon="8.9679834"><ele>99.0</ele><time>2026-03-28T09:37:51.872Z</time></trkpt><trkpt lat="45.289968" lon="8.9680912"><ele>99.0</ele><time>2026-03-28T09:37:54.873Z</time></trkpt><trkpt lat="45.2899678" lon="8.9682014"><ele>99.0</ele><time>2026-03-28T09:37:57.91Z</time></trkpt><trkpt lat="45.2899726" lon="8.9683134"><ele>99.0</ele><time>2026-03-28T09:38:00.833Z</time></trkpt><trkpt lat="45.2899755" lon="8.9684169"><ele>99.0</ele><time>2026-03-28T09:38:03.855Z</time></trkpt><trkpt lat="45.2899854" lon="8.9685279"><ele>99.0</ele><time>2026-03-28T09:38:06.854Z</time></trkpt><trkpt lat="45.2899951" lon="8.9686228"><ele>99.0</ele><time>2026-03-28T09:38:09.853Z</time></trkpt><trkpt lat="45.2900056" lon="8.9687299"><ele>99.0</ele><time>2026-03-28T09:38:12.833Z</time></trkpt><trkpt lat="45.2899201" lon="8.9687236"><ele>99.0</ele><time>2026-03-28T09:38:16.834Z</time></trkpt><trkpt lat="45.28983" lon="8.9687057"><ele>99.0</ele><time>2026-03-28T09:38:19.841Z</time></trkpt><trkpt lat="45.2897572" lon="8.9687069"><ele>99.0</ele><time>2026-03-28T09:38:22.911Z</time></trkpt><trkpt lat="45.289693" lon="8.9687134"><ele>99.0</ele><time>2026-03-28T09:38:25.842Z</time></trkpt><trkpt lat="45.2896124" lon="8.9687389"><ele>99.0</ele><time>2026-03-28T09:38:28.84Z</time></trkpt><trkpt lat="45.2895156" lon="8.9687438"><ele>99.0</ele><time>2026-03-28T09:38:31.844Z</time></trkpt><trkpt lat="45.2894417" lon="8.9687739"><ele>99.0</ele><time>2026-03-28T09:38:34.847Z</time></trkpt><trkpt lat="45.2893569" lon="8.9687946"><ele>99.0</ele><time>2026-03-28T09:38:37.833Z</time></trkpt><trkpt lat="45.2892935" lon="8.9688103"><ele>99.0</ele><time>2026-03-28T09:38:39.83Z</time></trkpt><trkpt lat="45.2892204" lon="8.9688506"><ele>99.0</ele><time>2026-03-28T09:38:42.849Z</time></trkpt><trkpt lat="45.2891395" lon="8.9688881"><ele>99.0</ele><time>2026-03-28T09:38:45.847Z</time></trkpt><trkpt lat="45.2890702" lon="8.9689068"><ele>99.0</ele><time>2026-03-28T09:38:47.857Z</time></trkpt><trkpt lat="45.288991" lon="8.9689275"><ele>99.0</ele><time>2026-03-28T09:38:50.841Z</time></trkpt><trkpt lat="45.2889193" lon="8.9689508"><ele>99.0</ele><time>2026-03-28T09:38:53.834Z</time></trkpt><trkpt lat="45.2888422" lon="8.9689704"><ele>99.0</ele><time>2026-03-28T09:38:56.84Z</time></trkpt><trkpt lat="45.2887638" lon="8.9690143"><ele>99.0</ele><time>2026-03-28T09:38:59.839Z</time></trkpt><trkpt lat="45.2887015" lon="8.9690359"><ele>99.0</ele><time>2026-03-28T09:39:01.847Z</time></trkpt><trkpt lat="45.2886124" lon="8.9690673"><ele>99.0</ele><time>2026-03-28T09:39:04.847Z</time></trkpt><trkpt lat="45.2885502" lon="8.9690919"><ele>99.0</ele><time>2026-03-28T09:39:06.837Z</time></trkpt><trkpt lat="45.2884741" lon="8.9691254"><ele>99.0</ele><time>2026-03-28T09:39:09.864Z</time></trkpt><trkpt lat="45.2883914" lon="8.969141"><ele>99.0</ele><time>2026-03-28T09:39:12.857Z</time></trkpt><trkpt lat="45.288308" lon="8.9691665"><ele>99.0</ele><time>2026-03-28T09:39:15.866Z</time></trkpt><trkpt lat="45.2882424" lon="8.9691943"><ele>99.0</ele><time>2026-03-28T09:39:18.867Z</time></trkpt><trkpt lat="45.2881628" lon="8.9692346"><ele>98.71428571428572</ele><time>2026-03-28T09:39:22.838Z</time></trkpt><trkpt lat="45.2880791" lon="8.9692613"><ele>98.42857142857142</ele><time>2026-03-28T09:39:25.833Z</time></trkpt><trkpt lat="45.2880194" lon="8.9692899"><ele>98.14285714285714</ele><time>2026-03-28T09:39:27.871Z</time></trkpt><trkpt lat="45.2879499" lon="8.9693211"><ele>97.85714285714286</ele><time>2026-03-28T09:39:29.852Z</time></trkpt><trkpt lat="45.2878904" lon="8.9693537"><ele>97.57142857142858</ele><time>2026-03-28T09:39:31.835Z</time></trkpt><trkpt lat="45.2878104" lon="8.9693808"><ele>97.28571428571428</ele><time>2026-03-28T09:39:34.87Z</time></trkpt><trkpt lat="45.2877364" lon="8.9694039"><ele>97.0</ele><time>2026-03-28T09:39:37.851Z</time></trkpt><trkpt lat="45.287644" lon="8.969423"><ele>97.00000000000001</ele><time>2026-03-28T09:39:40.866Z</time></trkpt><trkpt lat="45.2875694" lon="8.9694973"><ele>97.0</ele><time>2026-03-28T09:39:43.865Z</time></trkpt><trkpt lat="45.2875228" lon="8.9695592"><ele>97.0</ele><time>2026-03-28T09:39:45.855Z</time></trkpt><trkpt lat="45.2874746" lon="8.9696425"><ele>97.0</ele><time>2026-03-28T09:39:48.856Z</time></trkpt><trkpt lat="45.2874163" lon="8.9697421"><ele>97.00000000000001</ele><time>2026-03-28T09:39:51.931Z</time></trkpt><trkpt lat="45.2873691" lon="8.9698198"><ele>97.0</ele><time>2026-03-28T09:39:53.861Z</time></trkpt><trkpt lat="45.2873301" lon="8.9699323"><ele>97.0</ele><time>2026-03-28T09:39:56.859Z</time></trkpt><trkpt lat="45.287288" lon="8.9700179"><ele>97.0</ele><time>2026-03-28T09:39:58.861Z</time></trkpt><trkpt lat="45.2872459" lon="8.9700964"><ele>97.0</ele><time>2026-03-28T09:40:00.857Z</time></trkpt><trkpt lat="45.2872022" lon="8.970169"><ele>97.0</ele><time>2026-03-28T09:40:02.856Z</time></trkpt><trkpt lat="45.2871757" lon="8.970253"><ele>97.0</ele><time>2026-03-28T09:40:04.842Z</time></trkpt><trkpt lat="45.2871244" lon="8.9703535"><ele>97.0</ele><time>2026-03-28T09:40:07.837Z</time></trkpt><trkpt lat="45.2870811" lon="8.9704574"><ele>97.0</ele><time>2026-03-28T09:40:10.836Z</time></trkpt><trkpt lat="45.2870304" lon="8.9705663"><ele>97.16666666666667</ele><time>2026-03-28T09:40:13.827Z</time></trkpt><trkpt lat="45.2869947" lon="8.9706775"><ele>97.33333333333334</ele><time>2026-03-28T09:40:16.844Z</time></trkpt><trkpt lat="45.2869763" lon="8.9707687"><ele>97.5</ele><time>2026-03-28T09:40:18.841Z</time></trkpt><trkpt lat="45.2869687" lon="8.9708581"><ele>97.66666666666666</ele><time>2026-03-28T09:40:20.835Z</time></trkpt><trkpt lat="45.2869703" lon="8.9709769"><ele>97.83333333333333</ele><time>2026-03-28T09:40:23.838Z</time></trkpt><trkpt lat="45.286985" lon="8.9710668"><ele>98.0</ele><time>2026-03-28T09:40:25.844Z</time></trkpt><trkpt lat="45.2870064" lon="8.9711971"><ele>98.0</ele><time>2026-03-28T09:40:28.837Z</time></trkpt><trkpt lat="45.2870245" lon="8.9712838"><ele>98.0</ele><time>2026-03-28T09:40:30.842Z</time></trkpt><trkpt lat="45.2870408" lon="8.9713761"><ele>98.0</ele><time>2026-03-28T09:40:32.912Z</time></trkpt><trkpt lat="45.2870632" lon="8.9714681"><ele>98.0</ele><time>2026-03-28T09:40:34.841Z</time></trkpt><trkpt lat="45.2870662" lon="8.9715623"><ele>98.0</ele><time>2026-03-28T09:40:36.84Z</time></trkpt><trkpt lat="45.2870765" lon="8.9716855"><ele>98.0</ele><time>2026-03-28T09:40:39.854Z</time></trkpt><trkpt lat="45.2870896" lon="8.971796"><ele>98.0</ele><time>2026-03-28T09:40:42.841Z</time></trkpt><trkpt lat="45.2871159" lon="8.9719066"><ele>98.28571428571429</ele><time>2026-03-28T09:40:45.833Z</time></trkpt><trkpt lat="45.2871335" lon="8.9719944"><ele>98.57142857142857</ele><time>2026-03-28T09:40:47.838Z</time></trkpt><trkpt lat="45.2871436" lon="8.972085"><ele>98.85714285714286</ele><time>2026-03-28T09:40:49.855Z</time></trkpt><trkpt lat="45.2871622" lon="8.9721726"><ele>99.14285714285714</ele><time>2026-03-28T09:40:51.842Z</time></trkpt><trkpt lat="45.2871728" lon="8.9722656"><ele>99.42857142857143</ele><time>2026-03-28T09:40:53.839Z</time></trkpt><trkpt lat="45.2871798" lon="8.9723578"><ele>99.71428571428572</ele><time>2026-03-28T09:40:55.846Z</time></trkpt><trkpt lat="45.2871858" lon="8.9724501"><ele>100.0</ele><time>2026-03-28T09:40:57.826Z</time></trkpt><trkpt lat="45.2871913" lon="8.9725457"><ele>100.16666666666667</ele><time>2026-03-28T09:40:59.835Z</time></trkpt><trkpt lat="45.2872044" lon="8.9726392"><ele>100.33333333333334</ele><time>2026-03-28T09:41:01.833Z</time></trkpt><trkpt lat="45.2872143" lon="8.9727307"><ele>100.5</ele><time>2026-03-28T09:41:03.833Z</time></trkpt><trkpt lat="45.2872246" lon="8.9728595"><ele>100.66666666666666</ele><time>2026-03-28T09:41:06.838Z</time></trkpt><trkpt lat="45.2872344" lon="8.9729855"><ele>100.83333333333333</ele><time>2026-03-28T09:41:09.84Z</time></trkpt><trkpt lat="45.2872401" lon="8.9731114"><ele>101.0</ele><time>2026-03-28T09:41:12.853Z</time></trkpt><trkpt lat="45.287243" lon="8.9732012"><ele>100.99999999999999</ele><time>2026-03-28T09:41:14.842Z</time></trkpt><trkpt lat="45.2872294" lon="8.9733122"><ele>101.0</ele><time>2026-03-28T09:41:17.843Z</time></trkpt><trkpt lat="45.2871767" lon="8.9733613"><ele>101.0</ele><time>2026-03-28T09:41:19.836Z</time></trkpt><trkpt lat="45.287092" lon="8.9734154"><ele>101.0</ele><time>2026-03-28T09:41:22.841Z</time></trkpt><trkpt lat="45.2870308" lon="8.9734464"><ele>100.99999999999999</ele><time>2026-03-28T09:41:24.841Z</time></trkpt><trkpt lat="45.2869539" lon="8.9734834"><ele>101.0</ele><time>2026-03-28T09:41:27.902Z</time></trkpt><trkpt lat="45.2868688" lon="8.9735254"><ele>101.16666666666666</ele><time>2026-03-28T09:41:30.834Z</time></trkpt><trkpt lat="45.2867885" lon="8.973569"><ele>101.33333333333333</ele><time>2026-03-28T09:41:33.854Z</time></trkpt><trkpt lat="45.2867028" lon="8.9736056"><ele>101.5</ele><time>2026-03-28T09:41:36.836Z</time></trkpt><trkpt lat="45.286617" lon="8.9736536"><ele>101.66666666666666</ele><time>2026-03-28T09:41:39.842Z</time></trkpt><trkpt lat="45.2865397" lon="8.973683"><ele>101.83333333333333</ele><time>2026-03-28T09:41:42.844Z</time></trkpt><trkpt lat="45.286453" lon="8.973711"><ele>102.0</ele><time>2026-03-28T09:41:45.834Z</time></trkpt><trkpt lat="45.2863607" lon="8.9737419"><ele>102.0</ele><time>2026-03-28T09:41:48.839Z</time></trkpt><trkpt lat="45.2862757" lon="8.9737825"><ele>102.0</ele><time>2026-03-28T09:41:51.838Z</time></trkpt><trkpt lat="45.2862124" lon="8.9738076"><ele>102.0</ele><time>2026-03-28T09:41:53.907Z</time></trkpt><trkpt lat="45.2861355" lon="8.9738443"><ele>102.0</ele><time>2026-03-28T09:41:56.845Z</time></trkpt><trkpt lat="45.2860493" lon="8.973882"><ele>102.0</ele><time>2026-03-28T09:41:59.838Z</time></trkpt><trkpt lat="45.2859603" lon="8.9739089"><ele>102.0</ele><time>2026-03-28T09:42:02.836Z</time></trkpt><trkpt lat="45.2858711" lon="8.973949"><ele>102.0</ele><time>2026-03-28T09:42:05.837Z</time></trkpt><trkpt lat="45.2858055" lon="8.9739763"><ele>102.0</ele><time>2026-03-28T09:42:07.842Z</time></trkpt><trkpt lat="45.2857366" lon="8.974005"><ele>102.0</ele><time>2026-03-28T09:42:09.835Z</time></trkpt><trkpt lat="45.2856502" lon="8.9740476"><ele>102.0</ele><time>2026-03-28T09:42:12.838Z</time></trkpt><trkpt lat="45.2855849" lon="8.9740634"><ele>102.0</ele><time>2026-03-28T09:42:14.834Z</time></trkpt><trkpt lat="45.2855205" lon="8.9740913"><ele>102.0</ele><time>2026-03-28T09:42:16.842Z</time></trkpt><trkpt lat="45.2854556" lon="8.9741331"><ele>102.0</ele><time>2026-03-28T09:42:18.842Z</time></trkpt><trkpt lat="45.2853697" lon="8.9741734"><ele>102.16666666666667</ele><time>2026-03-28T09:42:21.846Z</time></trkpt><trkpt lat="45.2852909" lon="8.9742444"><ele>102.33333333333334</ele><time>2026-03-28T09:42:24.832Z</time></trkpt><trkpt lat="45.2852246" lon="8.9743357"><ele>102.5</ele><time>2026-03-28T09:42:27.836Z</time></trkpt><trkpt lat="45.285176" lon="8.9744049"><ele>102.66666666666667</ele><time>2026-03-28T09:42:29.833Z</time></trkpt><trkpt lat="45.2851167" lon="8.9744386"><ele>102.83333333333334</ele><time>2026-03-28T09:42:31.847Z</time></trkpt><trkpt lat="45.2850499" lon="8.9744757"><ele>103.0</ele><time>2026-03-28T09:42:33.824Z</time></trkpt><trkpt lat="45.2849861" lon="8.9745111"><ele>102.99999999999999</ele><time>2026-03-28T09:42:35.834Z</time></trkpt><trkpt lat="45.2849189" lon="8.9745455"><ele>103.0</ele><time>2026-03-28T09:42:37.841Z</time></trkpt><trkpt lat="45.2848587" lon="8.974575"><ele>103.0</ele><time>2026-03-28T09:42:39.839Z</time></trkpt><trkpt lat="45.2847928" lon="8.9746064"><ele>103.0</ele><time>2026-03-28T09:42:41.851Z</time></trkpt><trkpt lat="45.2847283" lon="8.9746337"><ele>103.0</ele><time>2026-03-28T09:42:43.841Z</time></trkpt><trkpt lat="45.2846644" lon="8.974669"><ele>102.99999999999999</ele><time>2026-03-28T09:42:45.838Z</time></trkpt><trkpt lat="45.2845997" lon="8.9746968"><ele>103.0</ele><time>2026-03-28T09:42:47.834Z</time></trkpt><trkpt lat="45.2845357" lon="8.974731"><ele>102.99999999999999</ele><time>2026-03-28T09:42:49.835Z</time></trkpt><trkpt lat="45.2844762" lon="8.9747797"><ele>103.0</ele><time>2026-03-28T09:42:51.841Z</time></trkpt><trkpt lat="45.2844158" lon="8.9748149"><ele>103.0</ele><time>2026-03-28T09:42:53.841Z</time></trkpt><trkpt lat="45.2843587" lon="8.9748551"><ele>103.0</ele><time>2026-03-28T09:42:55.844Z</time></trkpt><trkpt lat="45.2842962" lon="8.9749118"><ele>103.0</ele><time>2026-03-28T09:42:57.836Z</time></trkpt><trkpt lat="45.2842352" lon="8.9749576"><ele>102.99999999999999</ele><time>2026-03-28T09:42:59.911Z</time></trkpt><trkpt lat="45.2841638" lon="8.9750038"><ele>103.0</ele><time>2026-03-28T09:43:01.829Z</time></trkpt><trkpt lat="45.284098" lon="8.9750586"><ele>102.66666666666667</ele><time>2026-03-28T09:43:03.842Z</time></trkpt><trkpt lat="45.2840358" lon="8.975105"><ele>102.33333333333334</ele><time>2026-03-28T09:43:05.845Z</time></trkpt><trkpt lat="45.2839757" lon="8.9751353"><ele>102.0</ele><time>2026-03-28T09:43:07.842Z</time></trkpt><trkpt lat="45.2839177" lon="8.9751759"><ele>101.66666666666666</ele><time>2026-03-28T09:43:09.84Z</time></trkpt><trkpt lat="45.2838443" lon="8.9752373"><ele>101.33333333333333</ele><time>2026-03-28T09:43:12.842Z</time></trkpt><trkpt lat="45.2837711" lon="8.9752874"><ele>101.0</ele><time>2026-03-28T09:43:15.838Z</time></trkpt><trkpt lat="45.2836841" lon="8.975344"><ele>100.99999999999999</ele><time>2026-03-28T09:43:18.837Z</time></trkpt><trkpt lat="45.2836235" lon="8.9753793"><ele>101.0</ele><time>2026-03-28T09:43:20.828Z</time></trkpt><trkpt lat="45.2835372" lon="8.9754303"><ele>101.0</ele><time>2026-03-28T09:43:23.843Z</time></trkpt><trkpt lat="45.2834693" lon="8.9754543"><ele>101.0</ele><time>2026-03-28T09:43:25.838Z</time></trkpt><trkpt lat="45.2834023" lon="8.9754791"><ele>100.99999999999999</ele><time>2026-03-28T09:43:27.836Z</time></trkpt><trkpt lat="45.2833175" lon="8.9755057"><ele>101.0</ele><time>2026-03-28T09:43:30.834Z</time></trkpt><trkpt lat="45.2832367" lon="8.9755355"><ele>100.99999999999999</ele><time>2026-03-28T09:43:33.836Z</time></trkpt><trkpt lat="45.283172" lon="8.9755515"><ele>101.0</ele><time>2026-03-28T09:43:35.839Z</time></trkpt><trkpt lat="45.2830864" lon="8.975571"><ele>101.0</ele><time>2026-03-28T09:43:38.84Z</time></trkpt><trkpt lat="45.2830042" lon="8.9755847"><ele>101.0</ele><time>2026-03-28T09:43:41.842Z</time></trkpt><trkpt lat="45.2829113" lon="8.9756104"><ele>100.99999999999999</ele><time>2026-03-28T09:43:44.836Z</time></trkpt><trkpt lat="45.2828367" lon="8.9756222"><ele>101.0</ele><time>2026-03-28T09:43:46.837Z</time></trkpt><trkpt lat="45.2827598" lon="8.9756303"><ele>100.57142857142857</ele><time>2026-03-28T09:43:48.839Z</time></trkpt><trkpt lat="45.2826942" lon="8.975625"><ele>100.14285714285714</ele><time>2026-03-28T09:43:50.848Z</time></trkpt><trkpt lat="45.2826232" lon="8.9756467"><ele>99.71428571428572</ele><time>2026-03-28T09:43:52.838Z</time></trkpt><trkpt lat="45.2825633" lon="8.9756787"><ele>99.28571428571428</ele><time>2026-03-28T09:43:54.834Z</time></trkpt><trkpt lat="45.2824702" lon="8.9756889"><ele>98.85714285714286</ele><time>2026-03-28T09:43:57.83Z</time></trkpt><trkpt lat="45.2824017" lon="8.9756957"><ele>98.42857142857143</ele><time>2026-03-28T09:43:59.843Z</time></trkpt><trkpt lat="45.2823324" lon="8.9756919"><ele>98.0</ele><time>2026-03-28T09:44:01.83Z</time></trkpt><trkpt lat="45.2822644" lon="8.9756933"><ele>97.99999999999999</ele><time>2026-03-28T09:44:03.838Z</time></trkpt><trkpt lat="45.2821989" lon="8.9757021"><ele>98.0</ele><time>2026-03-28T09:44:05.837Z</time></trkpt><trkpt lat="45.2821148" lon="8.9757234"><ele>98.0</ele><time>2026-03-28T09:44:08.837Z</time></trkpt><trkpt lat="45.2820207" lon="8.9757412"><ele>98.0</ele><time>2026-03-28T09:44:11.837Z</time></trkpt><trkpt lat="45.2819559" lon="8.9757378"><ele>97.99999999999999</ele><time>2026-03-28T09:44:13.838Z</time></trkpt><trkpt lat="45.2818631" lon="8.975759"><ele>98.0</ele><time>2026-03-28T09:44:16.843Z</time></trkpt><trkpt lat="45.2817993" lon="8.9757828"><ele>98.0</ele><time>2026-03-28T09:44:18.904Z</time></trkpt><trkpt lat="45.281737" lon="8.975809"><ele>98.0</ele><time>2026-03-28T09:44:20.844Z</time></trkpt><trkpt lat="45.2816702" lon="8.9758319"><ele>98.0</ele><time>2026-03-28T09:44:22.829Z</time></trkpt><trkpt lat="45.2816019" lon="8.9758334"><ele>98.0</ele><time>2026-03-28T09:44:24.838Z</time></trkpt><trkpt lat="45.2815369" lon="8.9757477"><ele>98.0</ele><time>2026-03-28T09:44:27.845Z</time></trkpt><trkpt lat="45.2815418" lon="8.9756523"><ele>98.0</ele><time>2026-03-28T09:44:30.835Z</time></trkpt><trkpt lat="45.2815621" lon="8.9755489"><ele>98.0</ele><time>2026-03-28T09:44:33.904Z</time></trkpt><trkpt lat="45.2815879" lon="8.9754319"><ele>98.0</ele><time>2026-03-28T09:44:36.835Z</time></trkpt><trkpt lat="45.2816112" lon="8.9753447"><ele>98.0</ele><time>2026-03-28T09:44:38.833Z</time></trkpt><trkpt lat="45.2816112" lon="8.9752291"><ele>98.0</ele><time>2026-03-28T09:44:41.838Z</time></trkpt><trkpt lat="45.2815882" lon="8.9751453"><ele>98.0</ele><time>2026-03-28T09:44:44.84Z</time></trkpt><trkpt lat="45.2815558" lon="8.9750633"><ele>98.0</ele><time>2026-03-28T09:44:47.831Z</time></trkpt><trkpt lat="45.2815041" lon="8.975003"><ele>98.0</ele><time>2026-03-28T09:44:49.846Z</time></trkpt><trkpt lat="45.2814258" lon="8.9749694"><ele>98.0</ele><time>2026-03-28T09:44:52.831Z</time></trkpt><trkpt lat="45.2813566" lon="8.9750248"><ele>97.33333333333333</ele><time>2026-03-28T09:44:55.844Z</time></trkpt><trkpt lat="45.2812747" lon="8.9750487"><ele>96.66666666666666</ele><time>2026-03-28T09:44:58.843Z</time></trkpt><trkpt lat="45.2812039" lon="8.9750715"><ele>96.0</ele><time>2026-03-28T09:45:01.828Z</time></trkpt><trkpt lat="45.2811225" lon="8.9750761"><ele>95.33333333333333</ele><time>2026-03-28T09:45:04.833Z</time></trkpt><trkpt lat="45.2810383" lon="8.9750975"><ele>94.66666666666666</ele><time>2026-03-28T09:45:07.833Z</time></trkpt><trkpt lat="45.2809618" lon="8.9751332"><ele>94.0</ele><time>2026-03-28T09:45:10.833Z</time></trkpt><trkpt lat="45.2808782" lon="8.9751325"><ele>94.0</ele><time>2026-03-28T09:45:13.827Z</time></trkpt><trkpt lat="45.2808252" lon="8.9750654"><ele>94.0</ele><time>2026-03-28T09:45:16.847Z</time></trkpt><trkpt lat="45.2807691" lon="8.9750072"><ele>94.0</ele><time>2026-03-28T09:45:20.829Z</time></trkpt><trkpt lat="45.2807635" lon="8.9749172"><ele>94.0</ele><time>2026-03-28T09:45:23.832Z</time></trkpt><trkpt lat="45.2807785" lon="8.9747969"><ele>94.0</ele><time>2026-03-28T09:45:26.898Z</time></trkpt><trkpt lat="45.2808026" lon="8.9746857"><ele>94.0</ele><time>2026-03-28T09:45:29.832Z</time></trkpt><trkpt lat="45.2808561" lon="8.974612"><ele>94.0</ele><time>2026-03-28T09:45:32.841Z</time></trkpt><trkpt lat="45.2809279" lon="8.9746426"><ele>93.33333333333333</ele><time>2026-03-28T09:45:35.839Z</time></trkpt><trkpt lat="45.2809893" lon="8.9746797"><ele>92.66666666666666</ele><time>2026-03-28T09:45:38.831Z</time></trkpt><trkpt lat="45.2810573" lon="8.9747159"><ele>92.0</ele><time>2026-03-28T09:45:41.837Z</time></trkpt><trkpt lat="45.2811304" lon="8.9747109"><ele>91.33333333333333</ele><time>2026-03-28T09:45:44.841Z</time></trkpt><trkpt lat="45.2812136" lon="8.9746782"><ele>90.66666666666667</ele><time>2026-03-28T09:45:47.828Z</time></trkpt><trkpt lat="45.2812892" lon="8.974609"><ele>90.0</ele><time>2026-03-28T09:45:50.837Z</time></trkpt><trkpt lat="45.2813317" lon="8.9745404"><ele>90.0</ele><time>2026-03-28T09:45:52.836Z</time></trkpt><trkpt lat="45.2813789" lon="8.9744336"><ele>90.0</ele><time>2026-03-28T09:45:55.824Z</time></trkpt><trkpt lat="45.2814194" lon="8.9743229"><ele>90.0</ele><time>2026-03-28T09:45:58.836Z</time></trkpt><trkpt lat="45.281448" lon="8.9742177"><ele>90.0</ele><time>2026-03-28T09:46:01.826Z</time></trkpt><trkpt lat="45.2814906" lon="8.9741244"><ele>90.0</ele><time>2026-03-28T09:46:04.832Z</time></trkpt><trkpt lat="45.2815263" lon="8.9740103"><ele>90.0</ele><time>2026-03-28T09:46:07.837Z</time></trkpt><trkpt lat="45.281558" lon="8.9738995"><ele>90.0</ele><time>2026-03-28T09:46:10.898Z</time></trkpt><trkpt lat="45.2815899" lon="8.9737674"><ele>90.0</ele><time>2026-03-28T09:46:13.831Z</time></trkpt><trkpt lat="45.281603" lon="8.9736527"><ele>90.0</ele><time>2026-03-28T09:46:15.844Z</time></trkpt><trkpt lat="45.2816057" lon="8.9735076"><ele>90.0</ele><time>2026-03-28T09:46:17.836Z</time></trkpt><trkpt lat="45.2816378" lon="8.973353"><ele>90.0</ele><time>2026-03-28T09:46:19.825Z</time></trkpt><trkpt lat="45.2816829" lon="8.9732418"><ele>89.16666666666667</ele><time>2026-03-28T09:46:21.838Z</time></trkpt><trkpt lat="45.2817145" lon="8.9731449"><ele>88.33333333333333</ele><time>2026-03-28T09:46:23.83Z</time></trkpt><trkpt lat="45.281761" lon="8.9730284"><ele>87.5</ele><time>2026-03-28T09:46:26.833Z</time></trkpt><trkpt lat="45.2817938" lon="8.9729306"><ele>86.66666666666666</ele><time>2026-03-28T09:46:29.832Z</time></trkpt><trkpt lat="45.2818277" lon="8.9728268"><ele>85.83333333333333</ele><time>2026-03-28T09:46:32.84Z</time></trkpt><trkpt lat="45.2818717" lon="8.9727282"><ele>85.0</ele><time>2026-03-28T09:46:35.837Z</time></trkpt><trkpt lat="45.2819071" lon="8.972631"><ele>85.0</ele><time>2026-03-28T09:46:38.834Z</time></trkpt><trkpt lat="45.2819409" lon="8.9725381"><ele>85.0</ele><time>2026-03-28T09:46:41.838Z</time></trkpt><trkpt lat="45.2819864" lon="8.9724439"><ele>85.0</ele><time>2026-03-28T09:46:44.833Z</time></trkpt><trkpt lat="45.2819921" lon="8.97233"><ele>85.0</ele><time>2026-03-28T09:46:46.831Z</time></trkpt><trkpt lat="45.2819881" lon="8.9722155"><ele>85.0</ele><time>2026-03-28T09:46:47.843Z</time></trkpt><trkpt lat="45.281973" lon="8.9720684"><ele>85.0</ele><time>2026-03-28T09:46:49.839Z</time></trkpt><trkpt lat="45.2819212" lon="8.9719554"><ele>84.33333333333333</ele><time>2026-03-28T09:46:51.838Z</time></trkpt><trkpt lat="45.281852" lon="8.9719193"><ele>83.66666666666666</ele><time>2026-03-28T09:46:53.832Z</time></trkpt><trkpt lat="45.281774" lon="8.9719376"><ele>83.0</ele><time>2026-03-28T09:46:55.834Z</time></trkpt><trkpt lat="45.2817066" lon="8.9719844"><ele>82.33333333333333</ele><time>2026-03-28T09:46:57.83Z</time></trkpt><trkpt lat="45.2816267" lon="8.9720822"><ele>81.66666666666667</ele><time>2026-03-28T09:46:59.829Z</time></trkpt><trkpt lat="45.2815577" lon="8.972144"><ele>81.0</ele><time>2026-03-28T09:47:01.836Z</time></trkpt><trkpt lat="45.2815092" lon="8.972242"><ele>81.0</ele><time>2026-03-28T09:47:03.844Z</time></trkpt><trkpt lat="45.2814708" lon="8.9723342"><ele>81.0</ele><time>2026-03-28T09:47:05.833Z</time></trkpt><trkpt lat="45.281417" lon="8.9724581"><ele>81.0</ele><time>2026-03-28T09:47:07.836Z</time></trkpt><trkpt lat="45.2813557" lon="8.9725776"><ele>81.0</ele><time>2026-03-28T09:47:09.831Z</time></trkpt><trkpt lat="45.2812784" lon="8.972674"><ele>81.0</ele><time>2026-03-28T09:47:11.836Z</time></trkpt><trkpt lat="45.2811866" lon="8.9727631"><ele>79.6</ele><time>2026-03-28T09:47:13.831Z</time></trkpt><trkpt lat="45.2810958" lon="8.9728575"><ele>78.19999999999999</ele><time>2026-03-28T09:47:15.836Z</time></trkpt><trkpt lat="45.2810102" lon="8.9729226"><ele>76.80000000000001</ele><time>2026-03-28T09:47:17.83Z</time></trkpt><trkpt lat="45.2809388" lon="8.9730017"><ele>75.4</ele><time>2026-03-28T09:47:19.836Z</time></trkpt><trkpt lat="45.2808782" lon="8.9730993"><ele>74.0</ele><time>2026-03-28T09:47:21.84Z</time></trkpt><trkpt lat="45.2808354" lon="8.9731759"><ele>74.0</ele><time>2026-03-28T09:47:23.838Z</time></trkpt><trkpt lat="45.2807928" lon="8.9732796"><ele>74.0</ele><time>2026-03-28T09:47:25.828Z</time></trkpt><trkpt lat="45.2807575" lon="8.9733619"><ele>74.0</ele><time>2026-03-28T09:47:27.831Z</time></trkpt><trkpt lat="45.2807252" lon="8.9734593"><ele>74.0</ele><time>2026-03-28T09:47:29.833Z</time></trkpt><trkpt lat="45.2806827" lon="8.9735385"><ele>74.0</ele><time>2026-03-28T09:47:31.838Z</time></trkpt><trkpt lat="45.2806381" lon="8.9736161"><ele>74.0</ele><time>2026-03-28T09:47:33.833Z</time></trkpt><trkpt lat="45.2805774" lon="8.9736886"><ele>74.0</ele><time>2026-03-28T09:47:35.835Z</time></trkpt><trkpt lat="45.2805212" lon="8.9737551"><ele>74.0</ele><time>2026-03-28T09:47:37.837Z</time></trkpt><trkpt lat="45.2804666" lon="8.9738285"><ele>74.0</ele><time>2026-03-28T09:47:39.84Z</time></trkpt><trkpt lat="45.280426" lon="8.9739075"><ele>74.0</ele><time>2026-03-28T09:47:41.834Z</time></trkpt><trkpt lat="45.2803643" lon="8.9739834"><ele>74.0</ele><time>2026-03-28T09:47:43.832Z</time></trkpt><trkpt lat="45.2803031" lon="8.9740583"><ele>74.0</ele><time>2026-03-28T09:47:45.827Z</time></trkpt><trkpt lat="45.2802375" lon="8.9741355"><ele>74.0</ele><time>2026-03-28T09:47:47.837Z</time></trkpt><trkpt lat="45.2801969" lon="8.9742051"><ele>74.0</ele><time>2026-03-28T09:47:49.845Z</time></trkpt><trkpt lat="45.2801909" lon="8.9743261"><ele>74.0</ele><time>2026-03-28T09:47:52.834Z</time></trkpt><trkpt lat="45.280183" lon="8.9744171"><ele>74.0</ele><time>2026-03-28T09:47:54.833Z</time></trkpt><trkpt lat="45.2801675" lon="8.9745117"><ele>74.0</ele><time>2026-03-28T09:47:56.834Z</time></trkpt><trkpt lat="45.280119" lon="8.9745923"><ele>74.0</ele><time>2026-03-28T09:47:58.833Z</time></trkpt><trkpt lat="45.2800644" lon="8.9746546"><ele>74.0</ele><time>2026-03-28T09:48:00.837Z</time></trkpt><trkpt lat="45.2800015" lon="8.9746808"><ele>74.0</ele><time>2026-03-28T09:48:02.836Z</time></trkpt><trkpt lat="45.2799381" lon="8.9747217"><ele>74.0</ele><time>2026-03-28T09:48:05.849Z</time></trkpt><trkpt lat="45.2799293" lon="8.9748108"><ele>74.0</ele><time>2026-03-28T09:48:07.835Z</time></trkpt><trkpt lat="45.2799221" lon="8.9749143"><ele>74.0</ele><time>2026-03-28T09:48:09.834Z</time></trkpt><trkpt lat="45.2799067" lon="8.9750068"><ele>74.0</ele><time>2026-03-28T09:48:11.833Z</time></trkpt><trkpt lat="45.2798848" lon="8.9750943"><ele>74.0</ele><time>2026-03-28T09:48:13.835Z</time></trkpt><trkpt lat="45.2798675" lon="8.9751913"><ele>74.0</ele><time>2026-03-28T09:48:15.841Z</time></trkpt><trkpt lat="45.2798491" lon="8.9752771"><ele>74.0</ele><time>2026-03-28T09:48:17.835Z</time></trkpt><trkpt lat="45.2798166" lon="8.9753995"><ele>73.66666666666667</ele><time>2026-03-28T09:48:20.841Z</time></trkpt><trkpt lat="45.2797887" lon="8.9755223"><ele>73.33333333333334</ele><time>2026-03-28T09:48:23.841Z</time></trkpt><trkpt lat="45.2797566" lon="8.9756067"><ele>73.0</ele><time>2026-03-28T09:48:25.834Z</time></trkpt><trkpt lat="45.2797261" lon="8.9757106"><ele>72.66666666666667</ele><time>2026-03-28T09:48:27.832Z</time></trkpt><trkpt lat="45.2796897" lon="8.9758252"><ele>72.33333333333333</ele><time>2026-03-28T09:48:30.827Z</time></trkpt><trkpt lat="45.2796746" lon="8.9759348"><ele>72.0</ele><time>2026-03-28T09:48:33.833Z</time></trkpt><trkpt lat="45.2797163" lon="8.9760503"><ele>72.0</ele><time>2026-03-28T09:48:36.849Z</time></trkpt><trkpt lat="45.2797542" lon="8.9761229"><ele>72.0</ele><time>2026-03-28T09:48:38.848Z</time></trkpt><trkpt lat="45.2798057" lon="8.9762064"><ele>72.0</ele><time>2026-03-28T09:48:40.837Z</time></trkpt><trkpt lat="45.2798526" lon="8.9762695"><ele>72.0</ele><time>2026-03-28T09:48:42.837Z</time></trkpt><trkpt lat="45.2799193" lon="8.9763253"><ele>72.0</ele><time>2026-03-28T09:48:44.834Z</time></trkpt><trkpt lat="45.2800024" lon="8.9763788"><ele>72.0</ele><time>2026-03-28T09:48:47.827Z</time></trkpt><trkpt lat="45.280092" lon="8.9764296"><ele>73.33333333333333</ele><time>2026-03-28T09:48:50.84Z</time></trkpt><trkpt lat="45.2801326" lon="8.9765088"><ele>74.66666666666667</ele><time>2026-03-28T09:48:52.837Z</time></trkpt><trkpt lat="45.2801521" lon="8.9766065"><ele>76.0</ele><time>2026-03-28T09:48:54.827Z</time></trkpt><trkpt lat="45.2801803" lon="8.9767208"><ele>77.33333333333334</ele><time>2026-03-28T09:48:56.831Z</time></trkpt><trkpt lat="45.2801902" lon="8.9768246"><ele>78.66666666666667</ele><time>2026-03-28T09:48:58.834Z</time></trkpt><trkpt lat="45.2801924" lon="8.9769441"><ele>80.0</ele><time>2026-03-28T09:49:00.836Z</time></trkpt><trkpt lat="45.2801859" lon="8.9770592"><ele>80.0</ele><time>2026-03-28T09:49:02.836Z</time></trkpt><trkpt lat="45.2801623" lon="8.9771558"><ele>80.0</ele><time>2026-03-28T09:49:04.908Z</time></trkpt><trkpt lat="45.2801131" lon="8.9772449"><ele>80.0</ele><time>2026-03-28T09:49:06.845Z</time></trkpt><trkpt lat="45.280052" lon="8.9772799"><ele>80.0</ele><time>2026-03-28T09:49:08.838Z</time></trkpt><trkpt lat="45.279987" lon="8.9772936"><ele>80.0</ele><time>2026-03-28T09:49:10.837Z</time></trkpt><trkpt lat="45.2799218" lon="8.9773226"><ele>80.0</ele><time>2026-03-28T09:49:12.834Z</time></trkpt><trkpt lat="45.2798535" lon="8.9773688"><ele>80.0</ele><time>2026-03-28T09:49:14.837Z</time></trkpt><trkpt lat="45.2798028" lon="8.9774222"><ele>79.0</ele><time>2026-03-28T09:49:16.835Z</time></trkpt><trkpt lat="45.2797452" lon="8.9774754"><ele>78.0</ele><time>2026-03-28T09:49:18.837Z</time></trkpt><trkpt lat="45.2796873" lon="8.977548"><ele>77.0</ele><time>2026-03-28T09:49:20.835Z</time></trkpt><trkpt lat="45.279621" lon="8.9776131"><ele>76.0</ele><time>2026-03-28T09:49:22.837Z</time></trkpt><trkpt lat="45.2795272" lon="8.9776566"><ele>75.0</ele><time>2026-03-28T09:49:24.833Z</time></trkpt><trkpt lat="45.2794551" lon="8.9776974"><ele>74.0</ele><time>2026-03-28T09:49:26.833Z</time></trkpt><trkpt lat="45.2794059" lon="8.9777608"><ele>74.0</ele><time>2026-03-28T09:49:28.835Z</time></trkpt><trkpt lat="45.2793845" lon="8.9778602"><ele>74.0</ele><time>2026-03-28T09:49:30.833Z</time></trkpt><trkpt lat="45.2793854" lon="8.9779811"><ele>74.0</ele><time>2026-03-28T09:49:32.832Z</time></trkpt><trkpt lat="45.2793749" lon="8.9780905"><ele>74.0</ele><time>2026-03-28T09:49:34.834Z</time></trkpt><trkpt lat="45.2793791" lon="8.9781913"><ele>74.0</ele><time>2026-03-28T09:49:36.838Z</time></trkpt><trkpt lat="45.2793617" lon="8.9782946"><ele>74.0</ele><time>2026-03-28T09:49:38.843Z</time></trkpt><trkpt lat="45.2793145" lon="8.9783955"><ele>74.28571428571429</ele><time>2026-03-28T09:49:40.836Z</time></trkpt><trkpt lat="45.2792998" lon="8.9784842"><ele>74.57142857142857</ele><time>2026-03-28T09:49:42.837Z</time></trkpt><trkpt lat="45.2793079" lon="8.978583"><ele>74.85714285714286</ele><time>2026-03-28T09:49:44.832Z</time></trkpt><trkpt lat="45.2793217" lon="8.9786868"><ele>75.14285714285714</ele><time>2026-03-28T09:49:46.833Z</time></trkpt><trkpt lat="45.2793416" lon="8.9787932"><ele>75.42857142857143</ele><time>2026-03-28T09:49:48.843Z</time></trkpt><trkpt lat="45.2793558" lon="8.9789073"><ele>75.71428571428571</ele><time>2026-03-28T09:49:50.837Z</time></trkpt><trkpt lat="45.2793388" lon="8.9790109"><ele>76.0</ele><time>2026-03-28T09:49:52.83Z</time></trkpt><trkpt lat="45.2793035" lon="8.9790988"><ele>76.0</ele><time>2026-03-28T09:49:54.836Z</time></trkpt><trkpt lat="45.2792375" lon="8.9791564"><ele>76.0</ele><time>2026-03-28T09:49:56.845Z</time></trkpt><trkpt lat="45.2791714" lon="8.9791889"><ele>76.0</ele><time>2026-03-28T09:49:58.835Z</time></trkpt><trkpt lat="45.2791063" lon="8.9792333"><ele>76.0</ele><time>2026-03-28T09:50:00.832Z</time></trkpt><trkpt lat="45.2790453" lon="8.9792911"><ele>76.0</ele><time>2026-03-28T09:50:02.84Z</time></trkpt><trkpt lat="45.2789986" lon="8.9793581"><ele>76.0</ele><time>2026-03-28T09:50:05.844Z</time></trkpt><trkpt lat="45.2789758" lon="8.9794743"><ele>76.0</ele><time>2026-03-28T09:50:08.837Z</time></trkpt><trkpt lat="45.2789915" lon="8.9795731"><ele>76.0</ele><time>2026-03-28T09:50:10.887Z</time></trkpt><trkpt lat="45.2789994" lon="8.9796821"><ele>76.0</ele><time>2026-03-28T09:50:12.886Z</time></trkpt><trkpt lat="45.2790195" lon="8.979795"><ele>76.0</ele><time>2026-03-28T09:50:14.83Z</time></trkpt><trkpt lat="45.2790543" lon="8.979898"><ele>76.0</ele><time>2026-03-28T09:50:16.839Z</time></trkpt><trkpt lat="45.2790976" lon="8.9800129"><ele>76.0</ele><time>2026-03-28T09:50:18.842Z</time></trkpt><trkpt lat="45.2791366" lon="8.9801058"><ele>76.0</ele><time>2026-03-28T09:50:20.835Z</time></trkpt><trkpt lat="45.2791703" lon="8.9801927"><ele>76.0</ele><time>2026-03-28T09:50:22.837Z</time></trkpt><trkpt lat="45.2792073" lon="8.9802897"><ele>76.0</ele><time>2026-03-28T09:50:24.836Z</time></trkpt><trkpt lat="45.279236" lon="8.9804047"><ele>76.0</ele><time>2026-03-28T09:50:26.915Z</time></trkpt><trkpt lat="45.2792335" lon="8.9805394"><ele>76.0</ele><time>2026-03-28T09:50:28.831Z</time></trkpt><trkpt lat="45.2792075" lon="8.9806486"><ele>76.0</ele><time>2026-03-28T09:50:30.833Z</time></trkpt><trkpt lat="45.2791766" lon="8.9807358"><ele>76.0</ele><time>2026-03-28T09:50:32.829Z</time></trkpt><trkpt lat="45.279152" lon="8.9808679"><ele>76.16666666666666</ele><time>2026-03-28T09:50:35.836Z</time></trkpt><trkpt lat="45.2791312" lon="8.9809669"><ele>76.33333333333333</ele><time>2026-03-28T09:50:37.832Z</time></trkpt><trkpt lat="45.2790809" lon="8.9810564"><ele>76.5</ele><time>2026-03-28T09:50:39.837Z</time></trkpt><trkpt lat="45.2790208" lon="8.9811401"><ele>76.66666666666667</ele><time>2026-03-28T09:50:41.83Z</time></trkpt><trkpt lat="45.2789419" lon="8.9812068"><ele>76.83333333333334</ele><time>2026-03-28T09:50:43.833Z</time></trkpt><trkpt lat="45.2788637" lon="8.9812289"><ele>77.0</ele><time>2026-03-28T09:50:45.839Z</time></trkpt><trkpt lat="45.2787904" lon="8.9812473"><ele>76.66666666666667</ele><time>2026-03-28T09:50:47.843Z</time></trkpt><trkpt lat="45.2787178" lon="8.9812838"><ele>76.33333333333334</ele><time>2026-03-28T09:50:49.834Z</time></trkpt><trkpt lat="45.2786508" lon="8.9813313"><ele>76.0</ele><time>2026-03-28T09:50:51.829Z</time></trkpt><trkpt lat="45.2785842" lon="8.9813763"><ele>75.66666666666667</ele><time>2026-03-28T09:50:53.833Z</time></trkpt><trkpt lat="45.2785399" lon="8.981479"><ele>75.33333333333333</ele><time>2026-03-28T09:50:56.829Z</time></trkpt><trkpt lat="45.2785759" lon="8.9815828"><ele>75.0</ele><time>2026-03-28T09:50:59.84Z</time></trkpt><trkpt lat="45.2786465" lon="8.9816594"><ele>74.5</ele><time>2026-03-28T09:51:02.837Z</time></trkpt><trkpt lat="45.2786969" lon="8.9817319"><ele>74.0</ele><time>2026-03-28T09:51:04.832Z</time></trkpt><trkpt lat="45.2787473" lon="8.9818008"><ele>73.5</ele><time>2026-03-28T09:51:06.896Z</time></trkpt><trkpt lat="45.2788152" lon="8.9818828"><ele>73.0</ele><time>2026-03-28T09:51:09.834Z</time></trkpt><trkpt lat="45.2788809" lon="8.9819363"><ele>72.5</ele><time>2026-03-28T09:51:11.834Z</time></trkpt><trkpt lat="45.2789547" lon="8.9820023"><ele>72.0</ele><time>2026-03-28T09:51:13.833Z</time></trkpt><trkpt lat="45.279031" lon="8.9820617"><ele>72.0</ele><time>2026-03-28T09:51:15.837Z</time></trkpt><trkpt lat="45.2791017" lon="8.9821154"><ele>72.0</ele><time>2026-03-28T09:51:17.836Z</time></trkpt><trkpt lat="45.2791762" lon="8.9821686"><ele>72.0</ele><time>2026-03-28T09:51:19.835Z</time></trkpt><trkpt lat="45.2792423" lon="8.9822239"><ele>72.0</ele><time>2026-03-28T09:51:21.841Z</time></trkpt><trkpt lat="45.2793282" lon="8.9822735"><ele>72.0</ele><time>2026-03-28T09:51:24.83Z</time></trkpt><trkpt lat="45.2793948" lon="8.9823115"><ele>72.0</ele><time>2026-03-28T09:51:26.835Z</time></trkpt><trkpt lat="45.2794612" lon="8.9823571"><ele>72.0</ele><time>2026-03-28T09:51:28.836Z</time></trkpt><trkpt lat="45.279535" lon="8.9824184"><ele>72.0</ele><time>2026-03-28T09:51:30.834Z</time></trkpt><trkpt lat="45.2795926" lon="8.9824974"><ele>72.0</ele><time>2026-03-28T09:51:32.83Z</time></trkpt><trkpt lat="45.2796481" lon="8.982587"><ele>72.0</ele><time>2026-03-28T09:51:34.832Z</time></trkpt><trkpt lat="45.2796955" lon="8.9826732"><ele>72.0</ele><time>2026-03-28T09:51:36.826Z</time></trkpt><trkpt lat="45.2797429" lon="8.9827731"><ele>72.0</ele><time>2026-03-28T09:51:38.835Z</time></trkpt><trkpt lat="45.2797815" lon="8.982893"><ele>71.83333333333333</ele><time>2026-03-28T09:51:40.835Z</time></trkpt><trkpt lat="45.2798183" lon="8.9829964"><ele>71.66666666666667</ele><time>2026-03-28T09:51:42.832Z</time></trkpt><trkpt lat="45.2798512" lon="8.9831103"><ele>71.5</ele><time>2026-03-28T09:51:44.841Z</time></trkpt><trkpt lat="45.2798826" lon="8.9832086"><ele>71.33333333333334</ele><time>2026-03-28T09:51:46.841Z</time></trkpt><trkpt lat="45.2799231" lon="8.9832989"><ele>71.16666666666667</ele><time>2026-03-28T09:51:48.838Z</time></trkpt><trkpt lat="45.2799523" lon="8.9833869"><ele>71.0</ele><time>2026-03-28T09:51:50.844Z</time></trkpt><trkpt lat="45.2799795" lon="8.9834821"><ele>71.71428571428571</ele><time>2026-03-28T09:51:52.84Z</time></trkpt><trkpt lat="45.28001" lon="8.9835719"><ele>72.42857142857142</ele><time>2026-03-28T09:51:54.835Z</time></trkpt><trkpt lat="45.2800525" lon="8.9836651"><ele>73.14285714285714</ele><time>2026-03-28T09:51:56.833Z</time></trkpt><trkpt lat="45.2800945" lon="8.9837396"><ele>73.85714285714286</ele><time>2026-03-28T09:51:58.832Z</time></trkpt><trkpt lat="45.2801357" lon="8.9838243"><ele>74.57142857142858</ele><time>2026-03-28T09:52:00.905Z</time></trkpt><trkpt lat="45.2801667" lon="8.983912"><ele>75.28571428571428</ele><time>2026-03-28T09:52:02.849Z</time></trkpt><trkpt lat="45.2802089" lon="8.9839915"><ele>76.0</ele><time>2026-03-28T09:52:04.835Z</time></trkpt><trkpt lat="45.2802521" lon="8.9840833"><ele>76.66666666666666</ele><time>2026-03-28T09:52:06.835Z</time></trkpt><trkpt lat="45.2802893" lon="8.9841926"><ele>77.33333333333333</ele><time>2026-03-28T09:52:08.836Z</time></trkpt><trkpt lat="45.2802983" lon="8.9843057"><ele>78.0</ele><time>2026-03-28T09:52:10.84Z</time></trkpt><trkpt lat="45.2803167" lon="8.9844044"><ele>78.66666666666667</ele><time>2026-03-28T09:52:12.841Z</time></trkpt><trkpt lat="45.2803263" lon="8.9845074"><ele>79.33333333333334</ele><time>2026-03-28T09:52:14.832Z</time></trkpt><trkpt lat="45.2803484" lon="8.9846063"><ele>80.0</ele><time>2026-03-28T09:52:16.833Z</time></trkpt><trkpt lat="45.2803491" lon="8.9847102"><ele>80.0</ele><time>2026-03-28T09:52:18.835Z</time></trkpt><trkpt lat="45.28034" lon="8.9848198"><ele>80.0</ele><time>2026-03-28T09:52:20.835Z</time></trkpt><trkpt lat="45.2803172" lon="8.9849226"><ele>80.0</ele><time>2026-03-28T09:52:22.827Z</time></trkpt><trkpt lat="45.2802958" lon="8.9850363"><ele>80.0</ele><time>2026-03-28T09:52:24.834Z</time></trkpt><trkpt lat="45.2802518" lon="8.9851403"><ele>80.0</ele><time>2026-03-28T09:52:26.841Z</time></trkpt><trkpt lat="45.2802178" lon="8.9852391"><ele>80.0</ele><time>2026-03-28T09:52:28.825Z</time></trkpt><trkpt lat="45.2801943" lon="8.9853486"><ele>79.85714285714286</ele><time>2026-03-28T09:52:30.897Z</time></trkpt><trkpt lat="45.2801745" lon="8.985454"><ele>79.71428571428572</ele><time>2026-03-28T09:52:32.844Z</time></trkpt><trkpt lat="45.2801658" lon="8.9855699"><ele>79.57142857142858</ele><time>2026-03-28T09:52:34.841Z</time></trkpt><trkpt lat="45.2801743" lon="8.9856761"><ele>79.42857142857143</ele><time>2026-03-28T09:52:36.844Z</time></trkpt><trkpt lat="45.2801762" lon="8.9857844"><ele>79.28571428571429</ele><time>2026-03-28T09:52:38.826Z</time></trkpt><trkpt lat="45.2801823" lon="8.985879"><ele>79.14285714285715</ele><time>2026-03-28T09:52:40.828Z</time></trkpt><trkpt lat="45.2801906" lon="8.985974"><ele>79.0</ele><time>2026-03-28T09:52:42.902Z</time></trkpt><trkpt lat="45.2801993" lon="8.9860676"><ele>78.66666666666666</ele><time>2026-03-28T09:52:44.838Z</time></trkpt><trkpt lat="45.2802045" lon="8.9861721"><ele>78.33333333333333</ele><time>2026-03-28T09:52:46.837Z</time></trkpt><trkpt lat="45.2802118" lon="8.986278"><ele>78.0</ele><time>2026-03-28T09:52:48.838Z</time></trkpt><trkpt lat="45.2802121" lon="8.9863893"><ele>77.66666666666667</ele><time>2026-03-28T09:52:50.834Z</time></trkpt><trkpt lat="45.2802224" lon="8.9865023"><ele>77.33333333333334</ele><time>2026-03-28T09:52:52.839Z</time></trkpt><trkpt lat="45.2802313" lon="8.9866223"><ele>77.0</ele><time>2026-03-28T09:52:54.905Z</time></trkpt><trkpt lat="45.2802349" lon="8.9867422"><ele>76.5</ele><time>2026-03-28T09:52:56.833Z</time></trkpt><trkpt lat="45.2802346" lon="8.9868725"><ele>76.0</ele><time>2026-03-28T09:52:58.834Z</time></trkpt><trkpt lat="45.2802245" lon="8.9869939"><ele>75.5</ele><time>2026-03-28T09:53:00.834Z</time></trkpt><trkpt lat="45.2801954" lon="8.9871099"><ele>75.0</ele><time>2026-03-28T09:53:02.833Z</time></trkpt><trkpt lat="45.2801628" lon="8.9872275"><ele>74.5</ele><time>2026-03-28T09:53:04.839Z</time></trkpt><trkpt lat="45.2801366" lon="8.9873211"><ele>74.0</ele><time>2026-03-28T09:53:06.833Z</time></trkpt><trkpt lat="45.2801145" lon="8.9874252"><ele>73.5</ele><time>2026-03-28T09:53:08.834Z</time></trkpt><trkpt lat="45.2800976" lon="8.987544"><ele>73.0</ele><time>2026-03-28T09:53:10.839Z</time></trkpt><trkpt lat="45.2800757" lon="8.9876469"><ele>72.5</ele><time>2026-03-28T09:53:12.833Z</time></trkpt><trkpt lat="45.2800227" lon="8.9877515"><ele>72.0</ele><time>2026-03-28T09:53:15.827Z</time></trkpt><trkpt lat="45.2799942" lon="8.9878646"><ele>71.5</ele><time>2026-03-28T09:53:18.83Z</time></trkpt><trkpt lat="45.2799714" lon="8.9879887"><ele>71.0</ele><time>2026-03-28T09:53:21.836Z</time></trkpt><trkpt lat="45.2799584" lon="8.9880797"><ele>71.0</ele><time>2026-03-28T09:53:23.898Z</time></trkpt><trkpt lat="45.2799407" lon="8.9881829"><ele>71.0</ele><time>2026-03-28T09:53:25.834Z</time></trkpt><trkpt lat="45.279909" lon="8.9882692"><ele>71.0</ele><time>2026-03-28T09:53:27.833Z</time></trkpt><trkpt lat="45.2798771" lon="8.9883853"><ele>71.0</ele><time>2026-03-28T09:53:30.838Z</time></trkpt><trkpt lat="45.2798581" lon="8.9884995"><ele>71.0</ele><time>2026-03-28T09:53:33.835Z</time></trkpt><trkpt lat="45.2798056" lon="8.9885634"><ele>71.0</ele><time>2026-03-28T09:53:35.898Z</time></trkpt><trkpt lat="45.279741" lon="8.9885754"><ele>71.0</ele><time>2026-03-28T09:53:38.828Z</time></trkpt><trkpt lat="45.2796761" lon="8.9885218"><ele>71.5</ele><time>2026-03-28T09:53:41.836Z</time></trkpt><trkpt lat="45.2796252" lon="8.988422"><ele>72.0</ele><time>2026-03-28T09:53:43.833Z</time></trkpt><trkpt lat="45.2795823" lon="8.9883417"><ele>72.5</ele><time>2026-03-28T09:53:45.838Z</time></trkpt><trkpt lat="45.2795262" lon="8.9882855"><ele>73.0</ele><time>2026-03-28T09:53:47.825Z</time></trkpt><trkpt lat="45.2794661" lon="8.9882159"><ele>73.5</ele><time>2026-03-28T09:53:49.832Z</time></trkpt><trkpt lat="45.2794029" lon="8.9881468"><ele>74.0</ele><time>2026-03-28T09:53:51.841Z</time></trkpt><trkpt lat="45.2793123" lon="8.9880994"><ele>74.16666666666667</ele><time>2026-03-28T09:53:53.831Z</time></trkpt><trkpt lat="45.2792485" lon="8.988051"><ele>74.33333333333334</ele><time>2026-03-28T09:53:55.83Z</time></trkpt><trkpt lat="45.2791953" lon="8.9880002"><ele>74.5</ele><time>2026-03-28T09:53:57.829Z</time></trkpt><trkpt lat="45.2791442" lon="8.987946"><ele>74.66666666666667</ele><time>2026-03-28T09:53:59.831Z</time></trkpt><trkpt lat="45.2790851" lon="8.9878667"><ele>74.83333333333333</ele><time>2026-03-28T09:54:02.836Z</time></trkpt><trkpt lat="45.2790401" lon="8.9877683"><ele>75.0</ele><time>2026-03-28T09:54:05.831Z</time></trkpt><trkpt lat="45.2790001" lon="8.987649"><ele>75.0</ele><time>2026-03-28T09:54:08.834Z</time></trkpt><trkpt lat="45.2789669" lon="8.9875538"><ele>75.0</ele><time>2026-03-28T09:54:10.838Z</time></trkpt><trkpt lat="45.278939" lon="8.9874602"><ele>75.0</ele><time>2026-03-28T09:54:12.829Z</time></trkpt><trkpt lat="45.2788961" lon="8.987357"><ele>75.0</ele><time>2026-03-28T09:54:14.835Z</time></trkpt><trkpt lat="45.2788327" lon="8.9872645"><ele>75.0</ele><time>2026-03-28T09:54:16.898Z</time></trkpt><trkpt lat="45.2787841" lon="8.9871813"><ele>75.0</ele><time>2026-03-28T09:54:18.838Z</time></trkpt><trkpt lat="45.2787301" lon="8.9871025"><ele>75.33333333333333</ele><time>2026-03-28T09:54:20.835Z</time></trkpt><trkpt lat="45.2786881" lon="8.9870203"><ele>75.66666666666667</ele><time>2026-03-28T09:54:22.831Z</time></trkpt><trkpt lat="45.2786457" lon="8.9869421"><ele>76.0</ele><time>2026-03-28T09:54:24.839Z</time></trkpt><trkpt lat="45.2785839" lon="8.9868621"><ele>76.33333333333334</ele><time>2026-03-28T09:54:26.828Z</time></trkpt><trkpt lat="45.2785401" lon="8.9867941"><ele>76.66666666666667</ele><time>2026-03-28T09:54:28.828Z</time></trkpt><trkpt lat="45.2784796" lon="8.9867001"><ele>77.0</ele><time>2026-03-28T09:54:31.844Z</time></trkpt><trkpt lat="45.2784119" lon="8.9865989"><ele>77.16666666666667</ele><time>2026-03-28T09:54:34.838Z</time></trkpt><trkpt lat="45.2783552" lon="8.9865119"><ele>77.33333333333334</ele><time>2026-03-28T09:54:36.844Z</time></trkpt><trkpt lat="45.2782971" lon="8.9864331"><ele>77.5</ele><time>2026-03-28T09:54:38.836Z</time></trkpt><trkpt lat="45.278244" lon="8.9863658"><ele>77.66666666666667</ele><time>2026-03-28T09:54:40.835Z</time></trkpt><trkpt lat="45.2781992" lon="8.9862809"><ele>77.83333333333333</ele><time>2026-03-28T09:54:42.838Z</time></trkpt><trkpt lat="45.2781629" lon="8.9861925"><ele>78.0</ele><time>2026-03-28T09:54:44.836Z</time></trkpt><trkpt lat="45.27812" lon="8.9861017"><ele>77.85714285714286</ele><time>2026-03-28T09:54:46.832Z</time></trkpt><trkpt lat="45.2780756" lon="8.9860255"><ele>77.71428571428571</ele><time>2026-03-28T09:54:48.838Z</time></trkpt><trkpt lat="45.2780399" lon="8.9859479"><ele>77.57142857142857</ele><time>2026-03-28T09:54:50.834Z</time></trkpt><trkpt lat="45.2780043" lon="8.9858537"><ele>77.42857142857143</ele><time>2026-03-28T09:54:52.837Z</time></trkpt><trkpt lat="45.2779566" lon="8.9857607"><ele>77.28571428571428</ele><time>2026-03-28T09:54:54.833Z</time></trkpt><trkpt lat="45.2779209" lon="8.9856539"><ele>77.14285714285714</ele><time>2026-03-28T09:54:56.835Z</time></trkpt><trkpt lat="45.2778896" lon="8.9855578"><ele>77.0</ele><time>2026-03-28T09:54:58.842Z</time></trkpt><trkpt lat="45.2778558" lon="8.985473"><ele>76.66666666666667</ele><time>2026-03-28T09:55:00.829Z</time></trkpt><trkpt lat="45.2778125" lon="8.9853802"><ele>76.33333333333334</ele><time>2026-03-28T09:55:03.836Z</time></trkpt><trkpt lat="45.2777372" lon="8.9853975"><ele>76.0</ele><time>2026-03-28T09:55:08.833Z</time></trkpt><trkpt lat="45.2776842" lon="8.9854469"><ele>75.66666666666667</ele><time>2026-03-28T09:55:10.835Z</time></trkpt><trkpt lat="45.2775871" lon="8.985498"><ele>75.33333333333333</ele><time>2026-03-28T09:55:12.837Z</time></trkpt><trkpt lat="45.277521" lon="8.9855324"><ele>75.0</ele><time>2026-03-28T09:55:14.84Z</time></trkpt><trkpt lat="45.2774587" lon="8.9855636"><ele>75.0</ele><time>2026-03-28T09:55:16.84Z</time></trkpt><trkpt lat="45.2773895" lon="8.985596"><ele>75.0</ele><time>2026-03-28T09:55:18.833Z</time></trkpt><trkpt lat="45.2773244" lon="8.9856336"><ele>75.0</ele><time>2026-03-28T09:55:20.832Z</time></trkpt><trkpt lat="45.2772594" lon="8.985674"><ele>75.0</ele><time>2026-03-28T09:55:22.837Z</time></trkpt><trkpt lat="45.2771906" lon="8.9857268"><ele>75.0</ele><time>2026-03-28T09:55:24.833Z</time></trkpt><trkpt lat="45.2771076" lon="8.9858092"><ele>75.0</ele><time>2026-03-28T09:55:27.835Z</time></trkpt><trkpt lat="45.2770342" lon="8.9858619"><ele>75.0</ele><time>2026-03-28T09:55:29.831Z</time></trkpt><trkpt lat="45.276969" lon="8.9859336"><ele>75.0</ele><time>2026-03-28T09:55:31.828Z</time></trkpt><trkpt lat="45.2769" lon="8.9860092"><ele>75.0</ele><time>2026-03-28T09:55:33.832Z</time></trkpt><trkpt lat="45.2768324" lon="8.9860727"><ele>75.0</ele><time>2026-03-28T09:55:35.896Z</time></trkpt><trkpt lat="45.2767581" lon="8.9861569"><ele>75.0</ele><time>2026-03-28T09:55:37.899Z</time></trkpt><trkpt lat="45.2767061" lon="8.9862317"><ele>75.0</ele><time>2026-03-28T09:55:39.832Z</time></trkpt><trkpt lat="45.2766493" lon="8.986285"><ele>75.0</ele><time>2026-03-28T09:55:41.835Z</time></trkpt><trkpt lat="45.2765907" lon="8.9863364"><ele>75.0</ele><time>2026-03-28T09:55:43.836Z</time></trkpt><trkpt lat="45.2765348" lon="8.9863779"><ele>75.0</ele><time>2026-03-28T09:55:45.837Z</time></trkpt><trkpt lat="45.2764785" lon="8.9864317"><ele>75.0</ele><time>2026-03-28T09:55:47.833Z</time></trkpt><trkpt lat="45.2764106" lon="8.9865069"><ele>75.0</ele><time>2026-03-28T09:55:49.839Z</time></trkpt><trkpt lat="45.2763394" lon="8.9865616"><ele>75.0</ele><time>2026-03-28T09:55:51.837Z</time></trkpt><trkpt lat="45.2762749" lon="8.9866371"><ele>75.66666666666667</ele><time>2026-03-28T09:55:53.832Z</time></trkpt><trkpt lat="45.2762107" lon="8.9867001"><ele>76.33333333333333</ele><time>2026-03-28T09:55:55.834Z</time></trkpt><trkpt lat="45.2761495" lon="8.986768"><ele>77.0</ele><time>2026-03-28T09:55:57.831Z</time></trkpt><trkpt lat="45.2760913" lon="8.9868268"><ele>77.66666666666666</ele><time>2026-03-28T09:55:59.836Z</time></trkpt><trkpt lat="45.2760258" lon="8.9869008"><ele>78.33333333333333</ele><time>2026-03-28T09:56:01.834Z</time></trkpt><trkpt lat="45.2759501" lon="8.9869477"><ele>79.0</ele><time>2026-03-28T09:56:03.829Z</time></trkpt><trkpt lat="45.2758795" lon="8.9869219"><ele>79.0</ele><time>2026-03-28T09:56:05.824Z</time></trkpt><trkpt lat="45.2758164" lon="8.986843"><ele>79.0</ele><time>2026-03-28T09:56:07.834Z</time></trkpt><trkpt lat="45.275769" lon="8.9867582"><ele>79.0</ele><time>2026-03-28T09:56:09.843Z</time></trkpt><trkpt lat="45.2757161" lon="8.9866554"><ele>79.0</ele><time>2026-03-28T09:56:11.829Z</time></trkpt><trkpt lat="45.2756613" lon="8.9865569"><ele>79.0</ele><time>2026-03-28T09:56:13.833Z</time></trkpt><trkpt lat="45.2756081" lon="8.9864723"><ele>79.0</ele><time>2026-03-28T09:56:15.836Z</time></trkpt><trkpt lat="45.275553" lon="8.9863794"><ele>78.16666666666666</ele><time>2026-03-28T09:56:17.897Z</time></trkpt><trkpt lat="45.275494" lon="8.9862734"><ele>77.33333333333333</ele><time>2026-03-28T09:56:19.834Z</time></trkpt><trkpt lat="45.2754433" lon="8.9861632"><ele>76.5</ele><time>2026-03-28T09:56:21.835Z</time></trkpt><trkpt lat="45.2754005" lon="8.9860799"><ele>75.66666666666667</ele><time>2026-03-28T09:56:23.829Z</time></trkpt><trkpt lat="45.2753306" lon="8.9860024"><ele>74.83333333333334</ele><time>2026-03-28T09:56:26.84Z</time></trkpt><trkpt lat="45.2752495" lon="8.9860214"><ele>74.0</ele><time>2026-03-28T09:56:29.831Z</time></trkpt><trkpt lat="45.2751979" lon="8.9860985"><ele>74.0</ele><time>2026-03-28T09:56:31.893Z</time></trkpt><trkpt lat="45.2751599" lon="8.9861837"><ele>74.0</ele><time>2026-03-28T09:56:33.835Z</time></trkpt><trkpt lat="45.2751301" lon="8.9862823"><ele>74.0</ele><time>2026-03-28T09:56:35.839Z</time></trkpt><trkpt lat="45.275098" lon="8.986376"><ele>74.0</ele><time>2026-03-28T09:56:37.83Z</time></trkpt><trkpt lat="45.2750596" lon="8.9864691"><ele>74.0</ele><time>2026-03-28T09:56:39.835Z</time></trkpt><trkpt lat="45.2750307" lon="8.9865868"><ele>74.0</ele><time>2026-03-28T09:56:41.83Z</time></trkpt><trkpt lat="45.2749983" lon="8.9866862"><ele>74.66666666666667</ele><time>2026-03-28T09:56:43.828Z</time></trkpt><trkpt lat="45.2749646" lon="8.9867819"><ele>75.33333333333334</ele><time>2026-03-28T09:56:45.843Z</time></trkpt><trkpt lat="45.2749348" lon="8.9868753"><ele>76.0</ele><time>2026-03-28T09:56:47.831Z</time></trkpt><trkpt lat="45.2749124" lon="8.9869979"><ele>76.66666666666667</ele><time>2026-03-28T09:56:49.835Z</time></trkpt><trkpt lat="45.2748799" lon="8.9871119"><ele>77.33333333333333</ele><time>2026-03-28T09:56:51.837Z</time></trkpt><trkpt lat="45.2748469" lon="8.9872408"><ele>78.0</ele><time>2026-03-28T09:56:53.834Z</time></trkpt><trkpt lat="45.2748059" lon="8.987351"><ele>77.5</ele><time>2026-03-28T09:56:55.842Z</time></trkpt><trkpt lat="45.2747706" lon="8.9874808"><ele>77.0</ele><time>2026-03-28T09:56:57.836Z</time></trkpt><trkpt lat="45.274738" lon="8.9875902"><ele>76.5</ele><time>2026-03-28T09:56:59.839Z</time></trkpt><trkpt lat="45.2747125" lon="8.987712"><ele>76.0</ele><time>2026-03-28T09:57:01.833Z</time></trkpt><trkpt lat="45.2746853" lon="8.9878288"><ele>75.5</ele><time>2026-03-28T09:57:03.845Z</time></trkpt><trkpt lat="45.2746571" lon="8.9879376"><ele>75.0</ele><time>2026-03-28T09:57:05.838Z</time></trkpt><trkpt lat="45.2746252" lon="8.9880485"><ele>75.0</ele><time>2026-03-28T09:57:07.833Z</time></trkpt><trkpt lat="45.2745955" lon="8.9881494"><ele>75.0</ele><time>2026-03-28T09:57:09.834Z</time></trkpt><trkpt lat="45.2745526" lon="8.9882584"><ele>75.0</ele><time>2026-03-28T09:57:12.844Z</time></trkpt><trkpt lat="45.2745128" lon="8.9883749"><ele>75.0</ele><time>2026-03-28T09:57:15.838Z</time></trkpt><trkpt lat="45.2744748" lon="8.9884747"><ele>75.0</ele><time>2026-03-28T09:57:17.829Z</time></trkpt><trkpt lat="45.2744177" lon="8.9885716"><ele>75.0</ele><time>2026-03-28T09:57:19.842Z</time></trkpt><trkpt lat="45.2743518" lon="8.9886479"><ele>74.85714285714285</ele><time>2026-03-28T09:57:21.84Z</time></trkpt><trkpt lat="45.2743075" lon="8.9887294"><ele>74.71428571428571</ele><time>2026-03-28T09:57:23.895Z</time></trkpt><trkpt lat="45.2742603" lon="8.9887919"><ele>74.57142857142857</ele><time>2026-03-28T09:57:25.837Z</time></trkpt><trkpt lat="45.2742079" lon="8.9888578"><ele>74.42857142857142</ele><time>2026-03-28T09:57:27.83Z</time></trkpt><trkpt lat="45.2741442" lon="8.9889231"><ele>74.28571428571428</ele><time>2026-03-28T09:57:29.832Z</time></trkpt><trkpt lat="45.2740745" lon="8.9889784"><ele>74.14285714285714</ele><time>2026-03-28T09:57:31.835Z</time></trkpt><trkpt lat="45.2740074" lon="8.9890302"><ele>74.0</ele><time>2026-03-28T09:57:33.831Z</time></trkpt><trkpt lat="45.2739438" lon="8.9890736"><ele>73.66666666666667</ele><time>2026-03-28T09:57:35.835Z</time></trkpt><trkpt lat="45.2738679" lon="8.989115"><ele>73.33333333333334</ele><time>2026-03-28T09:57:37.836Z</time></trkpt><trkpt lat="45.2737948" lon="8.989169"><ele>73.0</ele><time>2026-03-28T09:57:39.829Z</time></trkpt><trkpt lat="45.2737296" lon="8.98922"><ele>72.66666666666667</ele><time>2026-03-28T09:57:41.834Z</time></trkpt><trkpt lat="45.2736609" lon="8.989287"><ele>72.33333333333333</ele><time>2026-03-28T09:57:43.835Z</time></trkpt><trkpt lat="45.2735937" lon="8.9893445"><ele>72.0</ele><time>2026-03-28T09:57:45.827Z</time></trkpt><trkpt lat="45.2735358" lon="8.9893931"><ele>72.00000000000001</ele><time>2026-03-28T09:57:47.834Z</time></trkpt><trkpt lat="45.2734775" lon="8.9894578"><ele>72.0</ele><time>2026-03-28T09:57:49.829Z</time></trkpt><trkpt lat="45.2734064" lon="8.9895188"><ele>72.0</ele><time>2026-03-28T09:57:51.837Z</time></trkpt><trkpt lat="45.273344" lon="8.9895595"><ele>72.0</ele><time>2026-03-28T09:57:53.841Z</time></trkpt><trkpt lat="45.273282" lon="8.9896024"><ele>72.0</ele><time>2026-03-28T09:57:55.847Z</time></trkpt><trkpt lat="45.2732085" lon="8.9896465"><ele>72.00000000000001</ele><time>2026-03-28T09:57:57.83Z</time></trkpt><trkpt lat="45.2731425" lon="8.9896753"><ele>72.0</ele><time>2026-03-28T09:57:59.841Z</time></trkpt><trkpt lat="45.2730778" lon="8.9897056"><ele>72.00000000000001</ele><time>2026-03-28T09:58:01.837Z</time></trkpt><trkpt lat="45.2730121" lon="8.9897467"><ele>72.0</ele><time>2026-03-28T09:58:03.84Z</time></trkpt><trkpt lat="45.2729438" lon="8.9897771"><ele>72.0</ele><time>2026-03-28T09:58:05.834Z</time></trkpt><trkpt lat="45.2728773" lon="8.9898171"><ele>72.0</ele><time>2026-03-28T09:58:07.842Z</time></trkpt><trkpt lat="45.2728083" lon="8.9898515"><ele>72.0</ele><time>2026-03-28T09:58:09.841Z</time></trkpt><trkpt lat="45.2727388" lon="8.9899"><ele>72.00000000000001</ele><time>2026-03-28T09:58:11.837Z</time></trkpt><trkpt lat="45.2726621" lon="8.9899418"><ele>72.0</ele><time>2026-03-28T09:58:13.841Z</time></trkpt><trkpt lat="45.2726028" lon="8.989991"><ele>72.0</ele><time>2026-03-28T09:58:15.838Z</time></trkpt><trkpt lat="45.2725414" lon="8.9900605"><ele>72.0</ele><time>2026-03-28T09:58:17.835Z</time></trkpt><trkpt lat="45.2724724" lon="8.9901202"><ele>72.0</ele><time>2026-03-28T09:58:19.885Z</time></trkpt><trkpt lat="45.2724108" lon="8.9901656"><ele>72.0</ele><time>2026-03-28T09:58:21.829Z</time></trkpt><trkpt lat="45.2734064" lon="8.9895188"><ele>72.00000000000001</ele><time>2026-03-28T09:57:51.837Z</time></trkpt><trkpt lat="45.273344" lon="8.9895595"><ele>72.0</ele><time>2026-03-28T09:57:53.841Z</time></trkpt><trkpt lat="45.273282" lon="8.9896024"><ele>72.0</ele><time>2026-03-28T09:57:55.847Z</time></trkpt><trkpt lat="45.2732085" lon="8.9896465"><ele>72.0</ele><time>2026-03-28T09:57:57.83Z</time></trkpt><trkpt lat="45.2731425" lon="8.9896753"><ele>72.0</ele><time>2026-03-28T09:57:59.841Z</time></trkpt><trkpt lat="45.2730778" lon="8.9897056"><ele>72.00000000000001</ele><time>2026-03-28T09:58:01.837Z</time></trkpt><trkpt lat="45.2730121" lon="8.9897467"><ele>72.0</ele><time>2026-03-28T09:58:03.84Z</time></trkpt><trkpt lat="45.2729438" lon="8.9897771"><ele>72.0</ele><time>2026-03-28T09:58:05.834Z</time></trkpt><trkpt lat="45.2728773" lon="8.9898171"><ele>72.0</ele><time>2026-03-28T09:58:07.842Z</time></trkpt><trkpt lat="45.2728083" lon="8.9898515"><ele>72.0</ele><time>2026-03-28T09:58:09.841Z</time></trkpt><trkpt lat="45.2727388" lon="8.9899"><ele>72.0</ele><time>2026-03-28T09:58:11.837Z</time></trkpt><trkpt lat="45.2726621" lon="8.9899418"><ele>72.0</ele><time>2026-03-28T09:58:13.841Z</time></trkpt><trkpt lat="45.2726028" lon="8.989991"><ele>72.0</ele><time>2026-03-28T09:58:15.838Z</time></trkpt><trkpt lat="45.2725414" lon="8.9900605"><ele>72.14285714285715</ele><time>2026-03-28T09:58:17.835Z</time></trkpt><trkpt lat="45.2724724" lon="8.9901202"><ele>72.28571428571429</ele><time>2026-03-28T09:58:19.885Z</time></trkpt><trkpt lat="45.2724108" lon="8.9901656"><ele>72.42857142857143</ele><time>2026-03-28T09:58:21.829Z</time></trkpt><trkpt lat="45.2723451" lon="8.9901898"><ele>72.57142857142858</ele><time>2026-03-28T09:58:23.837Z</time></trkpt><trkpt lat="45.2722768" lon="8.9902236"><ele>72.71428571428572</ele><time>2026-03-28T09:58:25.848Z</time></trkpt><trkpt lat="45.2722155" lon="8.9902783"><ele>72.85714285714286</ele><time>2026-03-28T09:58:27.843Z</time></trkpt><trkpt lat="45.2721609" lon="8.9903236"><ele>73.0</ele><time>2026-03-28T09:58:29.833Z</time></trkpt><trkpt lat="45.2720939" lon="8.9903345"><ele>73.0</ele><time>2026-03-28T09:58:31.833Z</time></trkpt><trkpt lat="45.272029" lon="8.9903337"><ele>73.0</ele><time>2026-03-28T09:58:33.837Z</time></trkpt><trkpt lat="45.2719516" lon="8.9902572"><ele>73.0</ele><time>2026-03-28T09:58:36.835Z</time></trkpt><trkpt lat="45.2718952" lon="8.9901878"><ele>73.0</ele><time>2026-03-28T09:58:38.835Z</time></trkpt><trkpt lat="45.2718487" lon="8.9900905"><ele>73.0</ele><time>2026-03-28T09:58:40.829Z</time></trkpt><trkpt lat="45.2717933" lon="8.9900245"><ele>73.0</ele><time>2026-03-28T09:58:42.842Z</time></trkpt><trkpt lat="45.2717308" lon="8.989962"><ele>72.71428571428571</ele><time>2026-03-28T09:58:44.828Z</time></trkpt><trkpt lat="45.2716635" lon="8.9899075"><ele>72.42857142857143</ele><time>2026-03-28T09:58:46.839Z</time></trkpt><trkpt lat="45.2716013" lon="8.9898678"><ele>72.14285714285714</ele><time>2026-03-28T09:58:48.838Z</time></trkpt><trkpt lat="45.2715443" lon="8.9898233"><ele>71.85714285714286</ele><time>2026-03-28T09:58:50.831Z</time></trkpt><trkpt lat="45.2714856" lon="8.9897688"><ele>71.57142857142857</ele><time>2026-03-28T09:58:52.834Z</time></trkpt><trkpt lat="45.2714255" lon="8.9897173"><ele>71.28571428571428</ele><time>2026-03-28T09:58:54.837Z</time></trkpt><trkpt lat="45.2713634" lon="8.9896738"><ele>71.0</ele><time>2026-03-28T09:58:56.901Z</time></trkpt><trkpt lat="45.2712855" lon="8.9896148"><ele>71.66666666666667</ele><time>2026-03-28T09:58:59.831Z</time></trkpt><trkpt lat="45.2712156" lon="8.9895545"><ele>72.33333333333334</ele><time>2026-03-28T09:59:02.829Z</time></trkpt><trkpt lat="45.2711627" lon="8.9894926"><ele>73.0</ele><time>2026-03-28T09:59:04.833Z</time></trkpt><trkpt lat="45.271111" lon="8.9894337"><ele>73.66666666666667</ele><time>2026-03-28T09:59:06.834Z</time></trkpt><trkpt lat="45.2710313" lon="8.9893869"><ele>74.33333333333333</ele><time>2026-03-28T09:59:09.836Z</time></trkpt><trkpt lat="45.2709505" lon="8.9894433"><ele>75.0</ele><time>2026-03-28T09:59:12.831Z</time></trkpt><trkpt lat="45.2708718" lon="8.9895143"><ele>75.0</ele><time>2026-03-28T09:59:15.831Z</time></trkpt><trkpt lat="45.2707907" lon="8.9895528"><ele>75.0</ele><time>2026-03-28T09:59:18.83Z</time></trkpt><trkpt lat="45.2707215" lon="8.9895939"><ele>75.0</ele><time>2026-03-28T09:59:20.829Z</time></trkpt><trkpt lat="45.2706406" lon="8.9896276"><ele>75.0</ele><time>2026-03-28T09:59:23.842Z</time></trkpt><trkpt lat="45.2705754" lon="8.9896459"><ele>75.0</ele><time>2026-03-28T09:59:25.842Z</time></trkpt><trkpt lat="45.2705095" lon="8.9896733"><ele>75.0</ele><time>2026-03-28T09:59:27.841Z</time></trkpt><trkpt lat="45.2704433" lon="8.9897191"><ele>74.85714285714285</ele><time>2026-03-28T09:59:29.833Z</time></trkpt><trkpt lat="45.2703797" lon="8.9897625"><ele>74.71428571428571</ele><time>2026-03-28T09:59:31.843Z</time></trkpt><trkpt lat="45.2703049" lon="8.9898084"><ele>74.57142857142857</ele><time>2026-03-28T09:59:33.828Z</time></trkpt><trkpt lat="45.2702369" lon="8.9898415"><ele>74.42857142857142</ele><time>2026-03-28T09:59:35.838Z</time></trkpt><trkpt lat="45.2701712" lon="8.9898808"><ele>74.28571428571428</ele><time>2026-03-28T09:59:37.837Z</time></trkpt><trkpt lat="45.2701083" lon="8.9899254"><ele>74.14285714285714</ele><time>2026-03-28T09:59:39.851Z</time></trkpt><trkpt lat="45.2700444" lon="8.9899858"><ele>74.0</ele><time>2026-03-28T09:59:41.837Z</time></trkpt><trkpt lat="45.2699848" lon="8.9900645"><ele>74.0</ele><time>2026-03-28T09:59:43.837Z</time></trkpt><trkpt lat="45.2699168" lon="8.990105"><ele>74.0</ele><time>2026-03-28T09:59:45.837Z</time></trkpt><trkpt lat="45.2698365" lon="8.990119"><ele>74.0</ele><time>2026-03-28T09:59:47.84Z</time></trkpt><trkpt lat="45.2697517" lon="8.9901353"><ele>74.0</ele><time>2026-03-28T09:59:50.838Z</time></trkpt><trkpt lat="45.2696872" lon="8.9901849"><ele>74.0</ele><time>2026-03-28T09:59:52.835Z</time></trkpt><trkpt lat="45.2696206" lon="8.9902336"><ele>74.0</ele><time>2026-03-28T09:59:54.836Z</time></trkpt><trkpt lat="45.2695627" lon="8.990272"><ele>73.66666666666667</ele><time>2026-03-28T09:59:56.835Z</time></trkpt><trkpt lat="45.2694983" lon="8.9903138"><ele>73.33333333333334</ele><time>2026-03-28T09:59:58.831Z</time></trkpt><trkpt lat="45.2694349" lon="8.9903693"><ele>73.0</ele><time>2026-03-28T10:00:00.836Z</time></trkpt><trkpt lat="45.2693678" lon="8.9904267"><ele>72.66666666666667</ele><time>2026-03-28T10:00:02.848Z</time></trkpt><trkpt lat="45.2693041" lon="8.9904909"><ele>72.33333333333333</ele><time>2026-03-28T10:00:04.845Z</time></trkpt><trkpt lat="45.269242" lon="8.990554"><ele>72.0</ele><time>2026-03-28T10:00:06.846Z</time></trkpt><trkpt lat="45.2691807" lon="8.9906099"><ele>72.0</ele><time>2026-03-28T10:00:08.829Z</time></trkpt><trkpt lat="45.2691124" lon="8.9906587"><ele>72.0</ele><time>2026-03-28T10:00:10.852Z</time></trkpt><trkpt lat="45.2690386" lon="8.990688"><ele>72.0</ele><time>2026-03-28T10:00:12.834Z</time></trkpt><trkpt lat="45.2689668" lon="8.9907546"><ele>72.0</ele><time>2026-03-28T10:00:14.836Z</time></trkpt><trkpt lat="45.268889" lon="8.9908251"><ele>72.0</ele><time>2026-03-28T10:00:16.842Z</time></trkpt><trkpt lat="45.2688192" lon="8.9908834"><ele>72.0</ele><time>2026-03-28T10:00:18.835Z</time></trkpt><trkpt lat="45.2687481" lon="8.9909406"><ele>72.16666666666667</ele><time>2026-03-28T10:00:20.84Z</time></trkpt><trkpt lat="45.2686788" lon="8.9910011"><ele>72.33333333333333</ele><time>2026-03-28T10:00:22.842Z</time></trkpt><trkpt lat="45.268614" lon="8.9910592"><ele>72.5</ele><time>2026-03-28T10:00:24.834Z</time></trkpt><trkpt lat="45.2685426" lon="8.9911139"><ele>72.66666666666666</ele><time>2026-03-28T10:00:26.838Z</time></trkpt><trkpt lat="45.2684902" lon="8.9911741"><ele>72.83333333333333</ele><time>2026-03-28T10:00:28.839Z</time></trkpt><trkpt lat="45.2684622" lon="8.9912545"><ele>73.0</ele><time>2026-03-28T10:00:30.835Z</time></trkpt><trkpt lat="45.2684671" lon="8.9913887"><ele>73.0</ele><time>2026-03-28T10:00:32.834Z</time></trkpt><trkpt lat="45.2684781" lon="8.9915134"><ele>73.0</ele><time>2026-03-28T10:00:34.83Z</time></trkpt><trkpt lat="45.2684918" lon="8.9916326"><ele>73.0</ele><time>2026-03-28T10:00:36.837Z</time></trkpt><trkpt lat="45.2684967" lon="8.9917368"><ele>73.0</ele><time>2026-03-28T10:00:38.837Z</time></trkpt><trkpt lat="45.2684977" lon="8.9918393"><ele>73.0</ele><time>2026-03-28T10:00:40.832Z</time></trkpt><trkpt lat="45.2685002" lon="8.9919459"><ele>73.0</ele><time>2026-03-28T10:00:42.829Z</time></trkpt><trkpt lat="45.2685012" lon="8.9920416"><ele>73.16666666666666</ele><time>2026-03-28T10:00:44.885Z</time></trkpt><trkpt lat="45.2685141" lon="8.992175"><ele>73.33333333333333</ele><time>2026-03-28T10:00:47.834Z</time></trkpt><trkpt lat="45.2685413" lon="8.9922629"><ele>73.5</ele><time>2026-03-28T10:00:49.835Z</time></trkpt><trkpt lat="45.2685898" lon="8.9923455"><ele>73.66666666666667</ele><time>2026-03-28T10:00:51.843Z</time></trkpt><trkpt lat="45.2686347" lon="8.9924245"><ele>73.83333333333334</ele><time>2026-03-28T10:00:53.834Z</time></trkpt><trkpt lat="45.2686851" lon="8.9925195"><ele>74.0</ele><time>2026-03-28T10:00:55.833Z</time></trkpt><trkpt lat="45.2687281" lon="8.9926118"><ele>74.0</ele><time>2026-03-28T10:00:57.842Z</time></trkpt><trkpt lat="45.2687722" lon="8.9926966"><ele>74.0</ele><time>2026-03-28T10:00:59.835Z</time></trkpt><trkpt lat="45.2688138" lon="8.9927839"><ele>74.0</ele><time>2026-03-28T10:01:01.838Z</time></trkpt><trkpt lat="45.2688547" lon="8.992866"><ele>74.0</ele><time>2026-03-28T10:01:03.836Z</time></trkpt><trkpt lat="45.2688917" lon="8.9929572"><ele>74.0</ele><time>2026-03-28T10:01:05.827Z</time></trkpt><trkpt lat="45.2689389" lon="8.9930401"><ele>74.0</ele><time>2026-03-28T10:01:07.91Z</time></trkpt><trkpt lat="45.268989" lon="8.9931263"><ele>74.0</ele><time>2026-03-28T10:01:09.906Z</time></trkpt><trkpt lat="45.2690284" lon="8.9932038"><ele>74.0</ele><time>2026-03-28T10:01:11.835Z</time></trkpt><trkpt lat="45.2690683" lon="8.9932823"><ele>74.0</ele><time>2026-03-28T10:01:13.833Z</time></trkpt><trkpt lat="45.2691067" lon="8.9933578"><ele>74.0</ele><time>2026-03-28T10:01:15.83Z</time></trkpt><trkpt lat="45.2691462" lon="8.9934801"><ele>74.0</ele><time>2026-03-28T10:01:18.837Z</time></trkpt><trkpt lat="45.2691632" lon="8.9935984"><ele>74.0</ele><time>2026-03-28T10:01:20.832Z</time></trkpt><trkpt lat="45.2691559" lon="8.9937098"><ele>74.0</ele><time>2026-03-28T10:01:22.837Z</time></trkpt><trkpt lat="45.2691642" lon="8.9938067"><ele>75.0</ele><time>2026-03-28T10:01:24.833Z</time></trkpt><trkpt lat="45.2691808" lon="8.9939038"><ele>76.0</ele><time>2026-03-28T10:01:26.841Z</time></trkpt><trkpt lat="45.26921" lon="8.9940103"><ele>77.0</ele><time>2026-03-28T10:01:28.844Z</time></trkpt><trkpt lat="45.2692469" lon="8.9941025"><ele>78.0</ele><time>2026-03-28T10:01:30.832Z</time></trkpt><trkpt lat="45.2693052" lon="8.9941958"><ele>79.0</ele><time>2026-03-28T10:01:32.833Z</time></trkpt><trkpt lat="45.2693659" lon="8.9942791"><ele>80.0</ele><time>2026-03-28T10:01:34.838Z</time></trkpt><trkpt lat="45.2694318" lon="8.9943661"><ele>81.66666666666667</ele><time>2026-03-28T10:01:36.832Z</time></trkpt><trkpt lat="45.2694955" lon="8.9944489"><ele>83.33333333333334</ele><time>2026-03-28T10:01:38.837Z</time></trkpt><trkpt lat="45.2695609" lon="8.9945353"><ele>85.0</ele><time>2026-03-28T10:01:40.848Z</time></trkpt><trkpt lat="45.2696324" lon="8.9946169"><ele>86.66666666666667</ele><time>2026-03-28T10:01:42.835Z</time></trkpt><trkpt lat="45.2697069" lon="8.9946904"><ele>88.33333333333333</ele><time>2026-03-28T10:01:44.836Z</time></trkpt><trkpt lat="45.2697864" lon="8.9947531"><ele>90.0</ele><time>2026-03-28T10:01:46.835Z</time></trkpt><trkpt lat="45.2698601" lon="8.9948152"><ele>90.0</ele><time>2026-03-28T10:01:48.834Z</time></trkpt><trkpt lat="45.2699415" lon="8.9948585"><ele>90.0</ele><time>2026-03-28T10:01:50.833Z</time></trkpt><trkpt lat="45.2700122" lon="8.9949213"><ele>90.0</ele><time>2026-03-28T10:01:52.84Z</time></trkpt><trkpt lat="45.2700844" lon="8.9949643"><ele>90.0</ele><time>2026-03-28T10:01:54.836Z</time></trkpt><trkpt lat="45.2701593" lon="8.9950122"><ele>90.0</ele><time>2026-03-28T10:01:56.836Z</time></trkpt><trkpt lat="45.2702421" lon="8.995033"><ele>90.0</ele><time>2026-03-28T10:01:58.838Z</time></trkpt><trkpt lat="45.2703188" lon="8.9950353"><ele>90.0</ele><time>2026-03-28T10:02:00.839Z</time></trkpt><trkpt lat="45.2703906" lon="8.9950116"><ele>90.0</ele><time>2026-03-28T10:02:02.842Z</time></trkpt><trkpt lat="45.270459" lon="8.994978"><ele>90.0</ele><time>2026-03-28T10:02:04.837Z</time></trkpt><trkpt lat="45.2705369" lon="8.9949437"><ele>90.0</ele><time>2026-03-28T10:02:06.831Z</time></trkpt><trkpt lat="45.2706037" lon="8.994928"><ele>90.0</ele><time>2026-03-28T10:02:08.831Z</time></trkpt><trkpt lat="45.2706978" lon="8.9949217"><ele>90.0</ele><time>2026-03-28T10:02:11.841Z</time></trkpt><trkpt lat="45.2707625" lon="8.994922"><ele>90.33333333333333</ele><time>2026-03-28T10:02:13.838Z</time></trkpt><trkpt lat="45.2708343" lon="8.9949087"><ele>90.66666666666667</ele><time>2026-03-28T10:02:15.828Z</time></trkpt><trkpt lat="45.2709126" lon="8.9949012"><ele>91.0</ele><time>2026-03-28T10:02:17.841Z</time></trkpt><trkpt lat="45.2709858" lon="8.9949095"><ele>91.33333333333334</ele><time>2026-03-28T10:02:19.832Z</time></trkpt><trkpt lat="45.2710426" lon="8.9949629"><ele>91.66666666666667</ele><time>2026-03-28T10:02:21.838Z</time></trkpt><trkpt lat="45.2710827" lon="8.9950534"><ele>92.0</ele><time>2026-03-28T10:02:23.83Z</time></trkpt><trkpt lat="45.2710591" lon="8.9951697"><ele>92.57142857142857</ele><time>2026-03-28T10:02:26.838Z</time></trkpt><trkpt lat="45.2709874" lon="8.9951598"><ele>93.14285714285714</ele><time>2026-03-28T10:02:29.832Z</time></trkpt><trkpt lat="45.2709272" lon="8.9951169"><ele>93.71428571428571</ele><time>2026-03-28T10:02:32.839Z</time></trkpt><trkpt lat="45.2708375" lon="8.9951184"><ele>94.28571428571428</ele><time>2026-03-28T10:02:35.839Z</time></trkpt><trkpt lat="45.2707737" lon="8.9951327"><ele>94.85714285714286</ele><time>2026-03-28T10:02:37.841Z</time></trkpt><trkpt lat="45.2706874" lon="8.9951775"><ele>95.42857142857142</ele><time>2026-03-28T10:02:40.843Z</time></trkpt><trkpt lat="45.2706343" lon="8.9952274"><ele>96.0</ele><time>2026-03-28T10:02:42.84Z</time></trkpt><trkpt lat="45.2705832" lon="8.9952815"><ele>96.0</ele><time>2026-03-28T10:02:44.842Z</time></trkpt><trkpt lat="45.2705381" lon="8.9953481"><ele>96.0</ele><time>2026-03-28T10:02:46.833Z</time></trkpt><trkpt lat="45.2704732" lon="8.9954424"><ele>96.0</ele><time>2026-03-28T10:02:49.848Z</time></trkpt><trkpt lat="45.270416" lon="8.9955472"><ele>96.0</ele><time>2026-03-28T10:02:52.83Z</time></trkpt><trkpt lat="45.2703622" lon="8.9956491"><ele>96.0</ele><time>2026-03-28T10:02:55.839Z</time></trkpt><trkpt lat="45.2703164" lon="8.995712"><ele>96.0</ele><time>2026-03-28T10:02:57.837Z</time></trkpt><trkpt lat="45.2702675" lon="8.995798"><ele>96.0</ele><time>2026-03-28T10:03:00.837Z</time></trkpt><trkpt lat="45.2701971" lon="8.9958689"><ele>96.0</ele><time>2026-03-28T10:03:03.85Z</time></trkpt><trkpt lat="45.2701103" lon="8.9959044"><ele>96.0</ele><time>2026-03-28T10:03:06.918Z</time></trkpt><trkpt lat="45.2700444" lon="8.9958772"><ele>96.0</ele><time>2026-03-28T10:03:08.849Z</time></trkpt><trkpt lat="45.2699683" lon="8.9957986"><ele>96.0</ele><time>2026-03-28T10:03:11.836Z</time></trkpt><trkpt lat="45.269915" lon="8.9957456"><ele>96.0</ele><time>2026-03-28T10:03:13.841Z</time></trkpt><trkpt lat="45.2698563" lon="8.9956948"><ele>95.99999999999999</ele><time>2026-03-28T10:03:15.839Z</time></trkpt><trkpt lat="45.2697983" lon="8.9956471"><ele>96.0</ele><time>2026-03-28T10:03:17.833Z</time></trkpt><trkpt lat="45.2697365" lon="8.9956055"><ele>96.0</ele><time>2026-03-28T10:03:19.835Z</time></trkpt><trkpt lat="45.2696775" lon="8.995555"><ele>96.0</ele><time>2026-03-28T10:03:21.835Z</time></trkpt><trkpt lat="45.2696178" lon="8.9955039"><ele>96.0</ele><time>2026-03-28T10:03:23.837Z</time></trkpt><trkpt lat="45.2695577" lon="8.9954487"><ele>95.99999999999999</ele><time>2026-03-28T10:03:25.843Z</time></trkpt><trkpt lat="45.2694876" lon="8.9954171"><ele>96.0</ele><time>2026-03-28T10:03:28.841Z</time></trkpt><trkpt lat="45.2694245" lon="8.9954349"><ele>96.16666666666667</ele><time>2026-03-28T10:03:30.83Z</time></trkpt><trkpt lat="45.2693804" lon="8.9955011"><ele>96.33333333333334</ele><time>2026-03-28T10:03:32.842Z</time></trkpt><trkpt lat="45.2693257" lon="8.9955765"><ele>96.5</ele><time>2026-03-28T10:03:34.837Z</time></trkpt><trkpt lat="45.2692592" lon="8.9956738"><ele>96.66666666666667</ele><time>2026-03-28T10:03:37.834Z</time></trkpt><trkpt lat="45.269195" lon="8.9957621"><ele>96.83333333333334</ele><time>2026-03-28T10:03:40.835Z</time></trkpt><trkpt lat="45.2691417" lon="8.9958233"><ele>97.0</ele><time>2026-03-28T10:03:42.834Z</time></trkpt><trkpt lat="45.2690909" lon="8.995896"><ele>97.0</ele><time>2026-03-28T10:03:44.839Z</time></trkpt><trkpt lat="45.2690362" lon="8.9959637"><ele>97.0</ele><time>2026-03-28T10:03:46.833Z</time></trkpt><trkpt lat="45.2689883" lon="8.9960376"><ele>97.0</ele><time>2026-03-28T10:03:48.917Z</time></trkpt><trkpt lat="45.268939" lon="8.9961036"><ele>97.0</ele><time>2026-03-28T10:03:50.846Z</time></trkpt><trkpt lat="45.2688674" lon="8.9961916"><ele>97.0</ele><time>2026-03-28T10:03:53.841Z</time></trkpt><trkpt lat="45.2688133" lon="8.9962578"><ele>97.0</ele><time>2026-03-28T10:03:55.826Z</time></trkpt><trkpt lat="45.2687539" lon="8.9963144"><ele>97.0</ele><time>2026-03-28T10:03:57.838Z</time></trkpt><trkpt lat="45.2686608" lon="8.9963455"><ele>97.00000000000001</ele><time>2026-03-28T10:04:00.835Z</time></trkpt><trkpt lat="45.2685974" lon="8.9963755"><ele>97.0</ele><time>2026-03-28T10:04:02.837Z</time></trkpt><trkpt lat="45.2685425" lon="8.9964294"><ele>97.0</ele><time>2026-03-28T10:04:04.835Z</time></trkpt><trkpt lat="45.2684969" lon="8.9965035"><ele>97.0</ele><time>2026-03-28T10:04:06.833Z</time></trkpt><trkpt lat="45.2684609" lon="8.9966185"><ele>97.00000000000001</ele><time>2026-03-28T10:04:08.835Z</time></trkpt><trkpt lat="45.268424" lon="8.9967254"><ele>97.0</ele><time>2026-03-28T10:04:10.834Z</time></trkpt><trkpt lat="45.2683769" lon="8.9968222"><ele>97.0</ele><time>2026-03-28T10:04:12.831Z</time></trkpt><trkpt lat="45.2683465" lon="8.9969132"><ele>97.0</ele><time>2026-03-28T10:04:14.832Z</time></trkpt><trkpt lat="45.268316" lon="8.9970037"><ele>97.0</ele><time>2026-03-28T10:04:16.832Z</time></trkpt><trkpt lat="45.2682859" lon="8.9970929"><ele>97.0</ele><time>2026-03-28T10:04:18.837Z</time></trkpt><trkpt lat="45.2682484" lon="8.9971795"><ele>97.0</ele><time>2026-03-28T10:04:20.839Z</time></trkpt><trkpt lat="45.2682172" lon="8.9972691"><ele>97.0</ele><time>2026-03-28T10:04:22.838Z</time></trkpt><trkpt lat="45.2681865" lon="8.9973727"><ele>97.0</ele><time>2026-03-28T10:04:24.84Z</time></trkpt><trkpt lat="45.268157" lon="8.9974654"><ele>97.0</ele><time>2026-03-28T10:04:26.832Z</time></trkpt><trkpt lat="45.2681265" lon="8.997553"><ele>97.0</ele><time>2026-03-28T10:04:28.837Z</time></trkpt><trkpt lat="45.2680703" lon="8.9976445"><ele>97.0</ele><time>2026-03-28T10:04:31.847Z</time></trkpt><trkpt lat="45.2680025" lon="8.9976608"><ele>97.0</ele><time>2026-03-28T10:04:33.842Z</time></trkpt><trkpt lat="45.2679386" lon="8.9976323"><ele>97.0</ele><time>2026-03-28T10:04:35.836Z</time></trkpt><trkpt lat="45.2678815" lon="8.9975763"><ele>97.0</ele><time>2026-03-28T10:04:37.847Z</time></trkpt><trkpt lat="45.2678194" lon="8.9975269"><ele>97.0</ele><time>2026-03-28T10:04:39.829Z</time></trkpt><trkpt lat="45.2677616" lon="8.9974817"><ele>97.00000000000001</ele><time>2026-03-28T10:04:41.829Z</time></trkpt><trkpt lat="45.2677" lon="8.9974338"><ele>97.0</ele><time>2026-03-28T10:04:43.846Z</time></trkpt><trkpt lat="45.2676419" lon="8.9973926"><ele>97.0</ele><time>2026-03-28T10:04:45.84Z</time></trkpt><trkpt lat="45.2675685" lon="8.9973338"><ele>97.0</ele><time>2026-03-28T10:04:48.843Z</time></trkpt><trkpt lat="45.2674914" lon="8.9972683"><ele>97.00000000000001</ele><time>2026-03-28T10:04:51.84Z</time></trkpt><trkpt lat="45.2674354" lon="8.9972179"><ele>97.0</ele><time>2026-03-28T10:04:53.845Z</time></trkpt><trkpt lat="45.2673575" lon="8.997155"><ele>97.0</ele><time>2026-03-28T10:04:56.92Z</time></trkpt><trkpt lat="45.2673003" lon="8.9971022"><ele>97.0</ele><time>2026-03-28T10:04:58.84Z</time></trkpt><trkpt lat="45.2672444" lon="8.9970479"><ele>97.0</ele><time>2026-03-28T10:05:00.84Z</time></trkpt><trkpt lat="45.267193" lon="8.9969944"><ele>97.0</ele><time>2026-03-28T10:05:02.842Z</time></trkpt><trkpt lat="45.2671366" lon="8.9969464"><ele>97.0</ele><time>2026-03-28T10:05:04.838Z</time></trkpt><trkpt lat="45.2670807" lon="8.9969001"><ele>97.0</ele><time>2026-03-28T10:05:06.838Z</time></trkpt><trkpt lat="45.2670243" lon="8.9968491"><ele>97.0</ele><time>2026-03-28T10:05:08.84Z</time></trkpt><trkpt lat="45.2669593" lon="8.9967936"><ele>96.66666666666667</ele><time>2026-03-28T10:05:10.837Z</time></trkpt><trkpt lat="45.2668889" lon="8.9967383"><ele>96.33333333333334</ele><time>2026-03-28T10:05:12.833Z</time></trkpt><trkpt lat="45.2668231" lon="8.9966837"><ele>96.0</ele><time>2026-03-28T10:05:14.827Z</time></trkpt><trkpt lat="45.2667488" lon="8.99662"><ele>95.66666666666667</ele><time>2026-03-28T10:05:17.836Z</time></trkpt><trkpt lat="45.2666816" lon="8.9966757"><ele>95.33333333333334</ele><time>2026-03-28T10:05:21.902Z</time></trkpt><trkpt lat="45.266649" lon="8.9967569"><ele>95.0</ele><time>2026-03-28T10:05:23.838Z</time></trkpt><trkpt lat="45.2666039" lon="8.9968335"><ele>94.85714285714286</ele><time>2026-03-28T10:05:25.836Z</time></trkpt><trkpt lat="45.2665716" lon="8.9969147"><ele>94.71428571428572</ele><time>2026-03-28T10:05:27.834Z</time></trkpt><trkpt lat="45.266533" lon="8.9969875"><ele>94.57142857142857</ele><time>2026-03-28T10:05:29.841Z</time></trkpt><trkpt lat="45.2664952" lon="8.997066"><ele>94.42857142857143</ele><time>2026-03-28T10:05:31.833Z</time></trkpt><trkpt lat="45.2664542" lon="8.9971435"><ele>94.28571428571428</ele><time>2026-03-28T10:05:33.833Z</time></trkpt><trkpt lat="45.2664087" lon="8.997231"><ele>94.14285714285714</ele><time>2026-03-28T10:05:35.83Z</time></trkpt><trkpt lat="45.266369" lon="8.9973137"><ele>94.0</ele><time>2026-03-28T10:05:37.835Z</time></trkpt><trkpt lat="45.2663253" lon="8.9973886"><ele>94.0</ele><time>2026-03-28T10:05:39.835Z</time></trkpt><trkpt lat="45.2662782" lon="8.9974754"><ele>94.0</ele><time>2026-03-28T10:05:41.832Z</time></trkpt><trkpt lat="45.266237" lon="8.9975844"><ele>94.0</ele><time>2026-03-28T10:05:43.83Z</time></trkpt><trkpt lat="45.266189" lon="8.9976663"><ele>94.0</ele><time>2026-03-28T10:05:45.835Z</time></trkpt><trkpt lat="45.2661359" lon="8.9977662"><ele>94.0</ele><time>2026-03-28T10:05:48.902Z</time></trkpt><trkpt lat="45.2660973" lon="8.9978384"><ele>94.0</ele><time>2026-03-28T10:05:50.841Z</time></trkpt><trkpt lat="45.2660564" lon="8.9979166"><ele>94.16666666666666</ele><time>2026-03-28T10:05:52.828Z</time></trkpt><trkpt lat="45.2660165" lon="8.997999"><ele>94.33333333333333</ele><time>2026-03-28T10:05:54.828Z</time></trkpt><trkpt lat="45.2659595" lon="8.9981029"><ele>94.5</ele><time>2026-03-28T10:05:57.837Z</time></trkpt><trkpt lat="45.2659137" lon="8.9981789"><ele>94.66666666666667</ele><time>2026-03-28T10:06:00.839Z</time></trkpt><trkpt lat="45.2658311" lon="8.9981693"><ele>94.83333333333334</ele><time>2026-03-28T10:06:03.904Z</time></trkpt><trkpt lat="45.265783" lon="8.9981072"><ele>95.0</ele><time>2026-03-28T10:06:05.838Z</time></trkpt><trkpt lat="45.2657287" lon="8.9980486"><ele>95.0</ele><time>2026-03-28T10:06:07.839Z</time></trkpt><trkpt lat="45.2656609" lon="8.9979926"><ele>95.0</ele><time>2026-03-28T10:06:09.835Z</time></trkpt><trkpt lat="45.2655883" lon="8.9979291"><ele>95.0</ele><time>2026-03-28T10:06:11.825Z</time></trkpt><trkpt lat="45.2655245" lon="8.9978665"><ele>95.0</ele><time>2026-03-28T10:06:13.835Z</time></trkpt><trkpt lat="45.2654544" lon="8.997802"><ele>95.0</ele><time>2026-03-28T10:06:15.906Z</time></trkpt><trkpt lat="45.2653853" lon="8.9977344"><ele>95.0</ele><time>2026-03-28T10:06:17.902Z</time></trkpt><trkpt lat="45.2653174" lon="8.9976711"><ele>95.0</ele><time>2026-03-28T10:06:19.834Z</time></trkpt><trkpt lat="45.2652587" lon="8.9976134"><ele>95.0</ele><time>2026-03-28T10:06:21.826Z</time></trkpt><trkpt lat="45.2652028" lon="8.9975577"><ele>95.0</ele><time>2026-03-28T10:06:23.829Z</time></trkpt><trkpt lat="45.2651306" lon="8.9974727"><ele>95.0</ele><time>2026-03-28T10:06:26.839Z</time></trkpt><trkpt lat="45.265077" lon="8.9974167"><ele>95.0</ele><time>2026-03-28T10:06:28.829Z</time></trkpt><trkpt lat="45.2650179" lon="8.9973525"><ele>95.0</ele><time>2026-03-28T10:06:30.829Z</time></trkpt><trkpt lat="45.2649673" lon="8.9972815"><ele>95.0</ele><time>2026-03-28T10:06:32.834Z</time></trkpt><trkpt lat="45.2649133" lon="8.9972204"><ele>94.85714285714286</ele><time>2026-03-28T10:06:34.834Z</time></trkpt><trkpt lat="45.2648474" lon="8.997165"><ele>94.71428571428572</ele><time>2026-03-28T10:06:36.828Z</time></trkpt><trkpt lat="45.2647827" lon="8.9971064"><ele>94.57142857142857</ele><time>2026-03-28T10:06:38.84Z</time></trkpt><trkpt lat="45.2647262" lon="8.9970536"><ele>94.42857142857143</ele><time>2026-03-28T10:06:40.831Z</time></trkpt><trkpt lat="45.2646541" lon="8.9969791"><ele>94.28571428571428</ele><time>2026-03-28T10:06:43.828Z</time></trkpt><trkpt lat="45.2646021" lon="8.9969224"><ele>94.14285714285714</ele><time>2026-03-28T10:06:45.827Z</time></trkpt><trkpt lat="45.2645543" lon="8.9968534"><ele>94.0</ele><time>2026-03-28T10:06:47.832Z</time></trkpt><trkpt lat="45.2644986" lon="8.9967788"><ele>93.5</ele><time>2026-03-28T10:06:49.838Z</time></trkpt><trkpt lat="45.2644403" lon="8.9966928"><ele>93.0</ele><time>2026-03-28T10:06:51.837Z</time></trkpt><trkpt lat="45.2644076" lon="8.9965851"><ele>92.5</ele><time>2026-03-28T10:06:53.911Z</time></trkpt><trkpt lat="45.2644001" lon="8.9964793"><ele>92.0</ele><time>2026-03-28T10:06:55.833Z</time></trkpt><trkpt lat="45.2644073" lon="8.9963693"><ele>91.5</ele><time>2026-03-28T10:06:57.903Z</time></trkpt><trkpt lat="45.2644214" lon="8.9962527"><ele>91.0</ele><time>2026-03-28T10:06:59.908Z</time></trkpt><trkpt lat="45.26444" lon="8.9961508"><ele>91.0</ele><time>2026-03-28T10:07:01.836Z</time></trkpt><trkpt lat="45.2644579" lon="8.9960624"><ele>91.0</ele><time>2026-03-28T10:07:03.833Z</time></trkpt><trkpt lat="45.2644959" lon="8.995948"><ele>91.0</ele><time>2026-03-28T10:07:06.833Z</time></trkpt><trkpt lat="45.264527" lon="8.9958488"><ele>91.0</ele><time>2026-03-28T10:07:08.834Z</time></trkpt><trkpt lat="45.2645558" lon="8.9957539"><ele>91.0</ele><time>2026-03-28T10:07:10.836Z</time></trkpt><trkpt lat="45.2645817" lon="8.9956674"><ele>91.0</ele><time>2026-03-28T10:07:12.838Z</time></trkpt><trkpt lat="45.2646175" lon="8.9955422"><ele>90.8</ele><time>2026-03-28T10:07:15.834Z</time></trkpt><trkpt lat="45.2646093" lon="8.9954288"><ele>90.6</ele><time>2026-03-28T10:07:18.839Z</time></trkpt><trkpt lat="45.2645655" lon="8.9953152"><ele>90.4</ele><time>2026-03-28T10:07:21.834Z</time></trkpt><trkpt lat="45.2645044" lon="8.9952457"><ele>90.2</ele><time>2026-03-28T10:07:23.832Z</time></trkpt><trkpt lat="45.2644201" lon="8.995166"><ele>90.0</ele><time>2026-03-28T10:07:25.915Z</time></trkpt><trkpt lat="45.2643295" lon="8.9950881"><ele>90.0</ele><time>2026-03-28T10:07:27.838Z</time></trkpt><trkpt lat="45.2642309" lon="8.9950173"><ele>90.0</ele><time>2026-03-28T10:07:29.834Z</time></trkpt><trkpt lat="45.2641244" lon="8.9949413"><ele>90.0</ele><time>2026-03-28T10:07:31.837Z</time></trkpt><trkpt lat="45.2640197" lon="8.9948473"><ele>90.0</ele><time>2026-03-28T10:07:33.834Z</time></trkpt><trkpt lat="45.2639638" lon="8.9947973"><ele>90.0</ele><time>2026-03-28T10:07:34.828Z</time></trkpt><trkpt lat="45.2638571" lon="8.9946999"><ele>89.5</ele><time>2026-03-28T10:07:36.839Z</time></trkpt><trkpt lat="45.2638043" lon="8.9946435"><ele>89.0</ele><time>2026-03-28T10:07:37.913Z</time></trkpt><trkpt lat="45.263751" lon="8.9945933"><ele>88.5</ele><time>2026-03-28T10:07:38.838Z</time></trkpt><trkpt lat="45.2637" lon="8.9945342"><ele>88.0</ele><time>2026-03-28T10:07:39.839Z</time></trkpt><trkpt lat="45.2635983" lon="8.9944263"><ele>87.5</ele><time>2026-03-28T10:07:41.84Z</time></trkpt><trkpt lat="45.2635416" lon="8.9943654"><ele>87.0</ele><time>2026-03-28T10:07:42.848Z</time></trkpt><trkpt lat="45.2634844" lon="8.9943069"><ele>87.0</ele><time>2026-03-28T10:07:43.839Z</time></trkpt><trkpt lat="45.2634189" lon="8.994247"><ele>87.0</ele><time>2026-03-28T10:07:44.837Z</time></trkpt><trkpt lat="45.2633492" lon="8.9941894"><ele>87.0</ele><time>2026-03-28T10:07:45.841Z</time></trkpt><trkpt lat="45.2632841" lon="8.994126"><ele>87.0</ele><time>2026-03-28T10:07:46.838Z</time></trkpt><trkpt lat="45.263218" lon="8.9940561"><ele>87.0</ele><time>2026-03-28T10:07:47.835Z</time></trkpt><trkpt lat="45.2631551" lon="8.9939782"><ele>87.0</ele><time>2026-03-28T10:07:48.839Z</time></trkpt><trkpt lat="45.2630847" lon="8.9939114"><ele>86.0</ele><time>2026-03-28T10:07:49.842Z</time></trkpt><trkpt lat="45.2630315" lon="8.9938494"><ele>85.0</ele><time>2026-03-28T10:07:50.835Z</time></trkpt><trkpt lat="45.2629625" lon="8.9937864"><ele>84.0</ele><time>2026-03-28T10:07:52.837Z</time></trkpt><trkpt lat="45.2628886" lon="8.9937604"><ele>83.0</ele><time>2026-03-28T10:07:54.836Z</time></trkpt><trkpt lat="45.2628163" lon="8.9937445"><ele>82.0</ele><time>2026-03-28T10:07:57.839Z</time></trkpt><trkpt lat="45.2627477" lon="8.9937345"><ele>81.0</ele><time>2026-03-28T10:07:59.849Z</time></trkpt><trkpt lat="45.2626564" lon="8.9937669"><ele>81.0</ele><time>2026-03-28T10:08:02.835Z</time></trkpt><trkpt lat="45.2625668" lon="8.9937688"><ele>81.0</ele><time>2026-03-28T10:08:04.898Z</time></trkpt><trkpt lat="45.2624698" lon="8.9937777"><ele>81.0</ele><time>2026-03-28T10:08:06.831Z</time></trkpt><trkpt lat="45.2623952" lon="8.9937953"><ele>81.0</ele><time>2026-03-28T10:08:08.839Z</time></trkpt><trkpt lat="45.2623332" lon="8.9938227"><ele>81.0</ele><time>2026-03-28T10:08:10.836Z</time></trkpt><trkpt lat="45.2622696" lon="8.9938502"><ele>81.0</ele><time>2026-03-28T10:08:13.827Z</time></trkpt><trkpt lat="45.2621941" lon="8.993909"><ele>80.57142857142857</ele><time>2026-03-28T10:08:18.837Z</time></trkpt><trkpt lat="45.262121" lon="8.9939263"><ele>80.14285714285714</ele><time>2026-03-28T10:08:21.845Z</time></trkpt><trkpt lat="45.2620515" lon="8.9939321"><ele>79.71428571428572</ele><time>2026-03-28T10:08:23.838Z</time></trkpt><trkpt lat="45.261984" lon="8.993895"><ele>79.28571428571428</ele><time>2026-03-28T10:08:25.835Z</time></trkpt><trkpt lat="45.2619021" lon="8.993857"><ele>78.85714285714285</ele><time>2026-03-28T10:08:28.837Z</time></trkpt><trkpt lat="45.2618215" lon="8.9938377"><ele>78.42857142857143</ele><time>2026-03-28T10:08:31.834Z</time></trkpt><trkpt lat="45.26176" lon="8.9938173"><ele>78.0</ele><time>2026-03-28T10:08:33.834Z</time></trkpt><trkpt lat="45.2616971" lon="8.9937819"><ele>78.0</ele><time>2026-03-28T10:08:35.836Z</time></trkpt><trkpt lat="45.2616281" lon="8.9937522"><ele>78.0</ele><time>2026-03-28T10:08:37.842Z</time></trkpt><trkpt lat="45.2615665" lon="8.9937264"><ele>78.0</ele><time>2026-03-28T10:08:39.837Z</time></trkpt><trkpt lat="45.2615026" lon="8.9936944"><ele>78.0</ele><time>2026-03-28T10:08:41.826Z</time></trkpt><trkpt lat="45.2614265" lon="8.9936381"><ele>78.0</ele><time>2026-03-28T10:08:44.831Z</time></trkpt><trkpt lat="45.2613387" lon="8.9935837"><ele>78.0</ele><time>2026-03-28T10:08:47.844Z</time></trkpt><trkpt lat="45.261281" lon="8.9935425"><ele>78.16666666666667</ele><time>2026-03-28T10:08:49.841Z</time></trkpt><trkpt lat="45.2612206" lon="8.9935126"><ele>78.33333333333333</ele><time>2026-03-28T10:08:51.83Z</time></trkpt><trkpt lat="45.261131" lon="8.9934744"><ele>78.5</ele><time>2026-03-28T10:08:54.845Z</time></trkpt><trkpt lat="45.2610421" lon="8.9934502"><ele>78.66666666666666</ele><time>2026-03-28T10:08:57.833Z</time></trkpt><trkpt lat="45.260955" lon="8.9934157"><ele>78.83333333333333</ele><time>2026-03-28T10:09:00.837Z</time></trkpt><trkpt lat="45.2608898" lon="8.9933882"><ele>79.0</ele><time>2026-03-28T10:09:02.841Z</time></trkpt><trkpt lat="45.2608263" lon="8.9933587"><ele>78.28571428571429</ele><time>2026-03-28T10:09:04.833Z</time></trkpt><trkpt lat="45.2607595" lon="8.9933233"><ele>77.57142857142857</ele><time>2026-03-28T10:09:06.841Z</time></trkpt><trkpt lat="45.260686" lon="8.9932891"><ele>76.85714285714286</ele><time>2026-03-28T10:09:08.844Z</time></trkpt><trkpt lat="45.2606212" lon="8.9932674"><ele>76.14285714285714</ele><time>2026-03-28T10:09:10.9Z</time></trkpt><trkpt lat="45.2605571" lon="8.9932467"><ele>75.42857142857143</ele><time>2026-03-28T10:09:12.84Z</time></trkpt><trkpt lat="45.2604831" lon="8.9932216"><ele>74.71428571428572</ele><time>2026-03-28T10:09:14.839Z</time></trkpt><trkpt lat="45.260422" lon="8.9931966"><ele>74.0</ele><time>2026-03-28T10:09:16.838Z</time></trkpt><trkpt lat="45.2603428" lon="8.9931754"><ele>74.0</ele><time>2026-03-28T10:09:18.838Z</time></trkpt><trkpt lat="45.2602646" lon="8.9931675"><ele>74.0</ele><time>2026-03-28T10:09:20.828Z</time></trkpt><trkpt lat="45.2601863" lon="8.9931636"><ele>74.0</ele><time>2026-03-28T10:09:22.839Z</time></trkpt><trkpt lat="45.2601084" lon="8.9931773"><ele>74.0</ele><time>2026-03-28T10:09:24.836Z</time></trkpt><trkpt lat="45.2600273" lon="8.9931826"><ele>74.0</ele><time>2026-03-28T10:09:26.842Z</time></trkpt><trkpt lat="45.2599522" lon="8.9931946"><ele>74.0</ele><time>2026-03-28T10:09:28.836Z</time></trkpt><trkpt lat="45.2598669" lon="8.9932246"><ele>74.0</ele><time>2026-03-28T10:09:31.837Z</time></trkpt><trkpt lat="45.2597832" lon="8.9932567"><ele>74.0</ele><time>2026-03-28T10:09:34.828Z</time></trkpt><trkpt lat="45.2597268" lon="8.9933265"><ele>74.0</ele><time>2026-03-28T10:09:37.9Z</time></trkpt><trkpt lat="45.2596777" lon="8.9934155"><ele>74.0</ele><time>2026-03-28T10:09:40.832Z</time></trkpt><trkpt lat="45.2596142" lon="8.993518"><ele>74.0</ele><time>2026-03-28T10:09:43.837Z</time></trkpt><trkpt lat="45.2595599" lon="8.9936078"><ele>74.0</ele><time>2026-03-28T10:09:46.839Z</time></trkpt><trkpt lat="45.2595032" lon="8.9936586"><ele>75.0</ele><time>2026-03-28T10:09:49.834Z</time></trkpt><trkpt lat="45.259451" lon="8.9937166"><ele>76.0</ele><time>2026-03-28T10:09:52.827Z</time></trkpt><trkpt lat="45.2593738" lon="8.9937585"><ele>77.0</ele><time>2026-03-28T10:09:55.837Z</time></trkpt><trkpt lat="45.2592948" lon="8.9937715"><ele>78.0</ele><time>2026-03-28T10:09:58.835Z</time></trkpt><trkpt lat="45.2592147" lon="8.9937694"><ele>79.0</ele><time>2026-03-28T10:10:01.832Z</time></trkpt><trkpt lat="45.2591282" lon="8.993756"><ele>80.0</ele><time>2026-03-28T10:10:04.84Z</time></trkpt><trkpt lat="45.2590644" lon="8.9937565"><ele>80.0</ele><time>2026-03-28T10:10:06.831Z</time></trkpt><trkpt lat="45.2589947" lon="8.9937821"><ele>80.0</ele><time>2026-03-28T10:10:08.835Z</time></trkpt><trkpt lat="45.2589258" lon="8.9937999"><ele>80.0</ele><time>2026-03-28T10:10:10.839Z</time></trkpt><trkpt lat="45.2588352" lon="8.9938213"><ele>80.0</ele><time>2026-03-28T10:10:13.833Z</time></trkpt><trkpt lat="45.2587663" lon="8.9938653"><ele>80.0</ele><time>2026-03-28T10:10:16.845Z</time></trkpt><trkpt lat="45.258709" lon="8.9940134"><ele>80.0</ele><time>2026-03-28T10:10:19.836Z</time></trkpt><trkpt lat="45.2586788" lon="8.9941434"><ele>79.66666666666667</ele><time>2026-03-28T10:10:21.834Z</time></trkpt><trkpt lat="45.2586437" lon="8.9942442"><ele>79.33333333333334</ele><time>2026-03-28T10:10:23.841Z</time></trkpt><trkpt lat="45.2586198" lon="8.9943721"><ele>79.0</ele><time>2026-03-28T10:10:26.834Z</time></trkpt><trkpt lat="45.2585973" lon="8.9944647"><ele>78.66666666666667</ele><time>2026-03-28T10:10:28.835Z</time></trkpt><trkpt lat="45.2585761" lon="8.9945651"><ele>78.33333333333333</ele><time>2026-03-28T10:10:30.844Z</time></trkpt><trkpt lat="45.2585662" lon="8.994666"><ele>78.0</ele><time>2026-03-28T10:10:32.831Z</time></trkpt><trkpt lat="45.2585476" lon="8.9947621"><ele>78.0</ele><time>2026-03-28T10:10:34.833Z</time></trkpt><trkpt lat="45.2585093" lon="8.9948428"><ele>78.0</ele><time>2026-03-28T10:10:36.827Z</time></trkpt><trkpt lat="45.2584476" lon="8.9949155"><ele>78.0</ele><time>2026-03-28T10:10:38.831Z</time></trkpt><trkpt lat="45.2583696" lon="8.9949574"><ele>78.0</ele><time>2026-03-28T10:10:40.835Z</time></trkpt><trkpt lat="45.2582892" lon="8.994968"><ele>78.0</ele><time>2026-03-28T10:10:42.835Z</time></trkpt><trkpt lat="45.2581976" lon="8.9949447"><ele>78.0</ele><time>2026-03-28T10:10:45.841Z</time></trkpt><trkpt lat="45.2581081" lon="8.9949165"><ele>77.57142857142857</ele><time>2026-03-28T10:10:48.831Z</time></trkpt><trkpt lat="45.2580371" lon="8.9949113"><ele>77.14285714285714</ele><time>2026-03-28T10:10:50.839Z</time></trkpt><trkpt lat="45.2579695" lon="8.9948976"><ele>76.71428571428571</ele><time>2026-03-28T10:10:52.834Z</time></trkpt><trkpt lat="45.2578949" lon="8.9948857"><ele>76.28571428571428</ele><time>2026-03-28T10:10:54.835Z</time></trkpt><trkpt lat="45.2578246" lon="8.9948741"><ele>75.85714285714286</ele><time>2026-03-28T10:10:56.842Z</time></trkpt><trkpt lat="45.2577604" lon="8.9948517"><ele>75.42857142857142</ele><time>2026-03-28T10:10:58.835Z</time></trkpt><trkpt lat="45.2576966" lon="8.9948257"><ele>75.0</ele><time>2026-03-28T10:11:00.838Z</time></trkpt><trkpt lat="45.2576316" lon="8.9947952"><ele>75.0</ele><time>2026-03-28T10:11:02.831Z</time></trkpt><trkpt lat="45.2575439" lon="8.9947618"><ele>75.0</ele><time>2026-03-28T10:11:05.836Z</time></trkpt><trkpt lat="45.2574568" lon="8.9947254"><ele>75.0</ele><time>2026-03-28T10:11:08.838Z</time></trkpt><trkpt lat="45.2573718" lon="8.9946987"><ele>75.0</ele><time>2026-03-28T10:11:11.834Z</time></trkpt><trkpt lat="45.2572862" lon="8.9946832"><ele>75.0</ele><time>2026-03-28T10:11:14.834Z</time></trkpt><trkpt lat="45.2572188" lon="8.9946598"><ele>75.0</ele><time>2026-03-28T10:11:17.838Z</time></trkpt><trkpt lat="45.2571103" lon="8.9946182"><ele>74.14285714285714</ele><time>2026-03-28T10:11:58.83Z</time></trkpt><trkpt lat="45.2570552" lon="8.9945734"><ele>73.28571428571428</ele><time>2026-03-28T10:12:05.826Z</time></trkpt><trkpt lat="45.2570075" lon="8.99451"><ele>72.42857142857143</ele><time>2026-03-28T10:12:34.848Z</time></trkpt><trkpt lat="45.2569457" lon="8.9944807"><ele>71.57142857142857</ele><time>2026-03-28T10:12:49.851Z</time></trkpt><trkpt lat="45.2568835" lon="8.9944198"><ele>70.71428571428572</ele><time>2026-03-28T10:12:53.864Z</time></trkpt><trkpt lat="45.2568172" lon="8.9943393"><ele>69.85714285714286</ele><time>2026-03-28T10:12:56.83Z</time></trkpt><trkpt lat="45.2567633" lon="8.9942636"><ele>69.0</ele><time>2026-03-28T10:12:59.86Z</time></trkpt><trkpt lat="45.2567114" lon="8.9942067"><ele>69.33333333333333</ele><time>2026-03-28T10:13:01.844Z</time></trkpt><trkpt lat="45.2566371" lon="8.9941355"><ele>69.66666666666667</ele><time>2026-03-28T10:13:04.859Z</time></trkpt><trkpt lat="45.256545" lon="8.9941091"><ele>70.0</ele><time>2026-03-28T10:13:07.858Z</time></trkpt><trkpt lat="45.2564708" lon="8.9940866"><ele>70.33333333333334</ele><time>2026-03-28T10:13:09.869Z</time></trkpt><trkpt lat="45.2563996" lon="8.9940549"><ele>70.66666666666667</ele><time>2026-03-28T10:13:11.855Z</time></trkpt><trkpt lat="45.2563371" lon="8.9940236"><ele>71.0</ele><time>2026-03-28T10:13:13.864Z</time></trkpt><trkpt lat="45.2562733" lon="8.9939884"><ele>71.5</ele><time>2026-03-28T10:13:15.853Z</time></trkpt><trkpt lat="45.2562081" lon="8.9939565"><ele>72.0</ele><time>2026-03-28T10:13:17.847Z</time></trkpt><trkpt lat="45.2561416" lon="8.9939226"><ele>72.5</ele><time>2026-03-28T10:13:19.855Z</time></trkpt><trkpt lat="45.2560703" lon="8.9939033"><ele>73.0</ele><time>2026-03-28T10:13:21.865Z</time></trkpt><trkpt lat="45.2560016" lon="8.993887"><ele>73.5</ele><time>2026-03-28T10:13:23.865Z</time></trkpt><trkpt lat="45.2559095" lon="8.9938482"><ele>74.0</ele><time>2026-03-28T10:13:26.845Z</time></trkpt><trkpt lat="45.2558364" lon="8.9938203"><ele>74.0</ele><time>2026-03-28T10:13:28.835Z</time></trkpt><trkpt lat="45.2557652" lon="8.9937847"><ele>74.0</ele><time>2026-03-28T10:13:30.844Z</time></trkpt><trkpt lat="45.2556965" lon="8.9937524"><ele>74.0</ele><time>2026-03-28T10:13:32.831Z</time></trkpt><trkpt lat="45.2556285" lon="8.9937234"><ele>74.0</ele><time>2026-03-28T10:13:34.833Z</time></trkpt><trkpt lat="45.2555639" lon="8.9936926"><ele>74.0</ele><time>2026-03-28T10:13:36.838Z</time></trkpt><trkpt lat="45.2554929" lon="8.993657"><ele>74.0</ele><time>2026-03-28T10:13:38.838Z</time></trkpt><trkpt lat="45.2554178" lon="8.9936143"><ele>74.0</ele><time>2026-03-28T10:13:40.836Z</time></trkpt><trkpt lat="45.2553204" lon="8.9935896"><ele>74.33333333333334</ele><time>2026-03-28T10:13:42.839Z</time></trkpt><trkpt lat="45.255252" lon="8.9935497"><ele>74.66666666666667</ele><time>2026-03-28T10:13:44.842Z</time></trkpt><trkpt lat="45.2551658" lon="8.993513"><ele>75.0</ele><time>2026-03-28T10:13:47.837Z</time></trkpt><trkpt lat="45.2551051" lon="8.993484"><ele>75.33333333333333</ele><time>2026-03-28T10:13:49.846Z</time></trkpt><trkpt lat="45.255041" lon="8.9934402"><ele>75.66666666666666</ele><time>2026-03-28T10:13:51.828Z</time></trkpt><trkpt lat="45.2549675" lon="8.9933941"><ele>76.0</ele><time>2026-03-28T10:13:53.833Z</time></trkpt><trkpt lat="45.2548928" lon="8.9933467"><ele>76.0</ele><time>2026-03-28T10:13:55.84Z</time></trkpt><trkpt lat="45.2548215" lon="8.9933192"><ele>76.0</ele><time>2026-03-28T10:13:57.828Z</time></trkpt><trkpt lat="45.2547498" lon="8.9932683"><ele>76.0</ele><time>2026-03-28T10:13:59.833Z</time></trkpt><trkpt lat="45.2546827" lon="8.9932232"><ele>76.0</ele><time>2026-03-28T10:14:01.842Z</time></trkpt><trkpt lat="45.2546125" lon="8.9931818"><ele>76.0</ele><time>2026-03-28T10:14:03.834Z</time></trkpt><trkpt lat="45.2545517" lon="8.993147"><ele>76.0</ele><time>2026-03-28T10:14:05.838Z</time></trkpt><trkpt lat="45.2544854" lon="8.9931179"><ele>76.0</ele><time>2026-03-28T10:14:07.83Z</time></trkpt><trkpt lat="45.254424" lon="8.9930796"><ele>76.0</ele><time>2026-03-28T10:14:09.843Z</time></trkpt><trkpt lat="45.2543577" lon="8.9930473"><ele>76.0</ele><time>2026-03-28T10:14:12.829Z</time></trkpt><trkpt lat="45.2542831" lon="8.9930218"><ele>76.0</ele><time>2026-03-28T10:14:15.908Z</time></trkpt><trkpt lat="45.2542108" lon="8.9929769"><ele>76.0</ele><time>2026-03-28T10:14:18.83Z</time></trkpt><trkpt lat="45.2541484" lon="8.9928845"><ele>76.0</ele><time>2026-03-28T10:14:21.859Z</time></trkpt><trkpt lat="45.2541056" lon="8.9927941"><ele>76.0</ele><time>2026-03-28T10:14:23.858Z</time></trkpt><trkpt lat="45.2540693" lon="8.9927046"><ele>76.0</ele><time>2026-03-28T10:14:25.856Z</time></trkpt><trkpt lat="45.2540472" lon="8.9926029"><ele>76.0</ele><time>2026-03-28T10:14:27.866Z</time></trkpt><trkpt lat="45.25402" lon="8.9925101"><ele>76.0</ele><time>2026-03-28T10:14:29.834Z</time></trkpt><trkpt lat="45.2539907" lon="8.992421"><ele>76.0</ele><time>2026-03-28T10:14:31.831Z</time></trkpt><trkpt lat="45.2539624" lon="8.9923382"><ele>76.0</ele><time>2026-03-28T10:14:33.837Z</time></trkpt><trkpt lat="45.2539446" lon="8.9922346"><ele>76.0</ele><time>2026-03-28T10:14:36.862Z</time></trkpt><trkpt lat="45.2539145" lon="8.9921147"><ele>76.0</ele><time>2026-03-28T10:14:39.859Z</time></trkpt><trkpt lat="45.2538808" lon="8.9920385"><ele>75.71428571428571</ele><time>2026-03-28T10:14:41.854Z</time></trkpt><trkpt lat="45.2538345" lon="8.9919709"><ele>75.42857142857143</ele><time>2026-03-28T10:14:43.859Z</time></trkpt><trkpt lat="45.2537893" lon="8.9919"><ele>75.14285714285714</ele><time>2026-03-28T10:14:45.86Z</time></trkpt><trkpt lat="45.2537441" lon="8.991816"><ele>74.85714285714286</ele><time>2026-03-28T10:14:47.864Z</time></trkpt><trkpt lat="45.2536858" lon="8.9917562"><ele>74.57142857142857</ele><time>2026-03-28T10:14:49.854Z</time></trkpt><trkpt lat="45.2536228" lon="8.991702"><ele>74.28571428571429</ele><time>2026-03-28T10:14:51.875Z</time></trkpt><trkpt lat="45.2535546" lon="8.9916456"><ele>74.0</ele><time>2026-03-28T10:14:53.857Z</time></trkpt><trkpt lat="45.25349" lon="8.9915878"><ele>73.85714285714286</ele><time>2026-03-28T10:14:55.861Z</time></trkpt><trkpt lat="45.253417" lon="8.9915429"><ele>73.71428571428571</ele><time>2026-03-28T10:14:57.853Z</time></trkpt><trkpt lat="45.2533501" lon="8.9915272"><ele>73.57142857142857</ele><time>2026-03-28T10:14:59.84Z</time></trkpt><trkpt lat="45.253287" lon="8.9915155"><ele>73.42857142857143</ele><time>2026-03-28T10:15:01.835Z</time></trkpt><trkpt lat="45.2532217" lon="8.9914992"><ele>73.28571428571429</ele><time>2026-03-28T10:15:03.841Z</time></trkpt><trkpt lat="45.2531508" lon="8.9915095"><ele>73.14285714285714</ele><time>2026-03-28T10:15:05.827Z</time></trkpt><trkpt lat="45.2530874" lon="8.9915266"><ele>73.0</ele><time>2026-03-28T10:15:07.838Z</time></trkpt><trkpt lat="45.2530187" lon="8.9915695"><ele>73.14285714285714</ele><time>2026-03-28T10:15:09.835Z</time></trkpt><trkpt lat="45.2529531" lon="8.9916145"><ele>73.28571428571429</ele><time>2026-03-28T10:15:12.836Z</time></trkpt><trkpt lat="45.2528718" lon="8.9916405"><ele>73.42857142857143</ele><time>2026-03-28T10:15:15.83Z</time></trkpt><trkpt lat="45.2528087" lon="8.9916421"><ele>73.57142857142857</ele><time>2026-03-28T10:15:17.833Z</time></trkpt><trkpt lat="45.2527461" lon="8.9916559"><ele>73.71428571428571</ele><time>2026-03-28T10:15:19.842Z</time></trkpt><trkpt lat="45.2526785" lon="8.9916745"><ele>73.85714285714286</ele><time>2026-03-28T10:15:21.839Z</time></trkpt><trkpt lat="45.2526047" lon="8.9917046"><ele>74.0</ele><time>2026-03-28T10:15:23.832Z</time></trkpt><trkpt lat="45.2525417" lon="8.9917364"><ele>74.0</ele><time>2026-03-28T10:15:25.831Z</time></trkpt><trkpt lat="45.2524737" lon="8.9917581"><ele>74.0</ele><time>2026-03-28T10:15:27.835Z</time></trkpt><trkpt lat="45.2524066" lon="8.9917708"><ele>74.0</ele><time>2026-03-28T10:15:30.837Z</time></trkpt><trkpt lat="45.252333" lon="8.9917875"><ele>74.0</ele><time>2026-03-28T10:15:33.856Z</time></trkpt><trkpt lat="45.2522621" lon="8.9918298"><ele>74.0</ele><time>2026-03-28T10:15:35.866Z</time></trkpt><trkpt lat="45.2521846" lon="8.9918676"><ele>74.0</ele><time>2026-03-28T10:15:37.921Z</time></trkpt><trkpt lat="45.2521209" lon="8.9918947"><ele>74.0</ele><time>2026-03-28T10:15:39.861Z</time></trkpt><trkpt lat="45.2520295" lon="8.9919352"><ele>74.0</ele><time>2026-03-28T10:15:42.857Z</time></trkpt><trkpt lat="45.2519689" lon="8.9919624"><ele>74.0</ele><time>2026-03-28T10:15:44.851Z</time></trkpt><trkpt lat="45.2519065" lon="8.9919766"><ele>74.0</ele><time>2026-03-28T10:15:46.841Z</time></trkpt><trkpt lat="45.2518357" lon="8.991989"><ele>74.0</ele><time>2026-03-28T10:15:48.838Z</time></trkpt><trkpt lat="45.2517672" lon="8.9920092"><ele>74.0</ele><time>2026-03-28T10:15:50.897Z</time></trkpt><trkpt lat="45.2517044" lon="8.9920325"><ele>74.0</ele><time>2026-03-28T10:15:52.833Z</time></trkpt><trkpt lat="45.251613" lon="8.9920491"><ele>74.0</ele><time>2026-03-28T10:15:55.847Z</time></trkpt><trkpt lat="45.2515472" lon="8.9920499"><ele>74.0</ele><time>2026-03-28T10:15:57.862Z</time></trkpt><trkpt lat="45.2514648" lon="8.9920468"><ele>74.0</ele><time>2026-03-28T10:16:00.87Z</time></trkpt><trkpt lat="45.2513877" lon="8.9920851"><ele>74.0</ele><time>2026-03-28T10:16:03.854Z</time></trkpt><trkpt lat="45.2513255" lon="8.9921149"><ele>74.0</ele><time>2026-03-28T10:16:05.861Z</time></trkpt><trkpt lat="45.251266" lon="8.9921501"><ele>74.0</ele><time>2026-03-28T10:16:07.85Z</time></trkpt><trkpt lat="45.2511898" lon="8.9921986"><ele>74.0</ele><time>2026-03-28T10:16:10.845Z</time></trkpt><trkpt lat="45.2511233" lon="8.9922305"><ele>74.0</ele><time>2026-03-28T10:16:12.869Z</time></trkpt><trkpt lat="45.2510544" lon="8.9922664"><ele>74.16666666666667</ele><time>2026-03-28T10:16:14.843Z</time></trkpt><trkpt lat="45.2509839" lon="8.9923029"><ele>74.33333333333334</ele><time>2026-03-28T10:16:16.918Z</time></trkpt><trkpt lat="45.250912" lon="8.9923308"><ele>74.5</ele><time>2026-03-28T10:16:18.861Z</time></trkpt><trkpt lat="45.250844" lon="8.9923526"><ele>74.66666666666667</ele><time>2026-03-28T10:16:20.858Z</time></trkpt><trkpt lat="45.2507609" lon="8.9923806"><ele>74.83333333333333</ele><time>2026-03-28T10:16:23.845Z</time></trkpt><trkpt lat="45.250689" lon="8.9923862"><ele>75.0</ele><time>2026-03-28T10:16:26.839Z</time></trkpt><trkpt lat="45.2505721" lon="8.9923969"><ele>74.66666666666667</ele><time>2026-03-28T10:16:50.841Z</time></trkpt><trkpt lat="45.2505089" lon="8.9923849"><ele>74.33333333333333</ele><time>2026-03-28T10:17:00.841Z</time></trkpt><trkpt lat="45.250451" lon="8.9924465"><ele>74.0</ele><time>2026-03-28T10:17:07.829Z</time></trkpt><trkpt lat="45.2504386" lon="8.9925928"><ele>73.66666666666666</ele><time>2026-03-28T10:17:10.857Z</time></trkpt><trkpt lat="45.2504137" lon="8.9927194"><ele>73.33333333333333</ele><time>2026-03-28T10:17:12.855Z</time></trkpt><trkpt lat="45.2503709" lon="8.9928026"><ele>73.0</ele><time>2026-03-28T10:17:15.865Z</time></trkpt><trkpt lat="45.2503553" lon="8.9928972"><ele>72.83333333333333</ele><time>2026-03-28T10:17:18.862Z</time></trkpt><trkpt lat="45.2503353" lon="8.9929903"><ele>72.66666666666666</ele><time>2026-03-28T10:17:20.91Z</time></trkpt><trkpt lat="45.2503151" lon="8.9930832"><ele>72.5</ele><time>2026-03-28T10:17:22.896Z</time></trkpt><trkpt lat="45.2502779" lon="8.9931886"><ele>72.33333333333333</ele><time>2026-03-28T10:17:24.838Z</time></trkpt><trkpt lat="45.2502107" lon="8.9932587"><ele>72.16666666666667</ele><time>2026-03-28T10:17:26.825Z</time></trkpt><trkpt lat="45.250145" lon="8.9932893"><ele>72.0</ele><time>2026-03-28T10:17:28.836Z</time></trkpt><trkpt lat="45.2500669" lon="8.9933435"><ele>72.0</ele><time>2026-03-28T10:17:31.841Z</time></trkpt><trkpt lat="45.2499871" lon="8.9934041"><ele>72.0</ele><time>2026-03-28T10:17:34.826Z</time></trkpt><trkpt lat="45.2499316" lon="8.9934543"><ele>72.0</ele><time>2026-03-28T10:17:36.83Z</time></trkpt><trkpt lat="45.2498417" lon="8.9935151"><ele>72.0</ele><time>2026-03-28T10:17:39.83Z</time></trkpt><trkpt lat="45.2497703" lon="8.9935693"><ele>72.0</ele><time>2026-03-28T10:17:41.833Z</time></trkpt><trkpt lat="45.2496971" lon="8.9936415"><ele>72.0</ele><time>2026-03-28T10:17:43.834Z</time></trkpt><trkpt lat="45.2496275" lon="8.9936873"><ele>72.33333333333333</ele><time>2026-03-28T10:17:45.833Z</time></trkpt><trkpt lat="45.2495667" lon="8.9937512"><ele>72.66666666666667</ele><time>2026-03-28T10:17:47.838Z</time></trkpt><trkpt lat="45.2494904" lon="8.9938264"><ele>73.0</ele><time>2026-03-28T10:17:50.839Z</time></trkpt><trkpt lat="45.2494361" lon="8.9938814"><ele>73.33333333333334</ele><time>2026-03-28T10:17:52.833Z</time></trkpt><trkpt lat="45.2493557" lon="8.9939457"><ele>73.66666666666667</ele><time>2026-03-28T10:17:55.841Z</time></trkpt><trkpt lat="45.2492976" lon="8.9940067"><ele>74.0</ele><time>2026-03-28T10:17:58.834Z</time></trkpt><trkpt lat="45.2492276" lon="8.9940601"><ele>73.5</ele><time>2026-03-28T10:18:03.84Z</time></trkpt><trkpt lat="45.2491628" lon="8.9942156"><ele>73.0</ele><time>2026-03-28T10:18:32.435Z</time></trkpt><trkpt lat="45.2490297" lon="8.9944189"><ele>72.5</ele><time>2026-03-28T10:18:50.378Z</time></trkpt><trkpt lat="45.2489517" lon="8.9943984"><ele>72.0</ele><time>2026-03-28T10:18:59.49Z</time></trkpt><trkpt lat="45.2486954" lon="8.9946226"><ele>73.0</ele><time>2026-03-28T10:19:21.96Z</time></trkpt><trkpt lat="45.2481382" lon="8.9951406"><ele>73.5</ele><time>2026-03-28T10:19:26.39Z</time></trkpt><trkpt lat="45.2479198" lon="8.9953069"><ele>74.0</ele><time>2026-03-28T10:19:39.281Z</time></trkpt><trkpt lat="45.2476185" lon="8.9955418"><ele>74.0</ele><time>2026-03-28T10:19:44.496Z</time></trkpt><trkpt lat="45.2473569" lon="8.9956922"><ele>74.0</ele><time>2026-03-28T10:19:53.382Z</time></trkpt><trkpt lat="45.2471247" lon="8.9959459"><ele>75.0</ele><time>2026-03-28T10:20:02.476Z</time></trkpt><trkpt lat="45.2467419" lon="8.9961176"><ele>76.0</ele><time>2026-03-28T10:20:11.384Z</time></trkpt><trkpt lat="45.2470815" lon="8.9959597"><ele>76.0</ele><time>2026-03-28T10:20:20.383Z</time></trkpt><trkpt lat="45.2469291" lon="8.9961324"><ele>76.0</ele><time>2026-03-28T10:20:29.374Z</time></trkpt><trkpt lat="45.2463101" lon="8.996652"><ele>75.83333333333333</ele><time>2026-03-28T10:20:30.83Z</time></trkpt><trkpt lat="45.2462492" lon="8.9966909"><ele>75.66666666666666</ele><time>2026-03-28T10:20:32.819Z</time></trkpt><trkpt lat="45.2461754" lon="8.9967295"><ele>75.5</ele><time>2026-03-28T10:20:35.821Z</time></trkpt><trkpt lat="45.2460894" lon="8.9966882"><ele>75.33333333333333</ele><time>2026-03-28T10:20:38.827Z</time></trkpt><trkpt lat="45.2460656" lon="8.9965641"><ele>75.16666666666667</ele><time>2026-03-28T10:20:41.832Z</time></trkpt><trkpt lat="45.2460473" lon="8.996448"><ele>75.0</ele><time>2026-03-28T10:21:12.916Z</time></trkpt><trkpt lat="45.2460086" lon="8.9963662"><ele>74.66666666666667</ele><time>2026-03-28T10:21:17.863Z</time></trkpt><trkpt lat="45.2459628" lon="8.9963026"><ele>74.33333333333333</ele><time>2026-03-28T10:21:20.845Z</time></trkpt><trkpt lat="45.2459063" lon="8.9962232"><ele>74.0</ele><time>2026-03-28T10:21:23.833Z</time></trkpt><trkpt lat="45.2458524" lon="8.9961698"><ele>73.66666666666666</ele><time>2026-03-28T10:21:25.837Z</time></trkpt><trkpt lat="45.2457955" lon="8.9960932"><ele>73.33333333333333</ele><time>2026-03-28T10:21:27.85Z</time></trkpt><trkpt lat="45.2457341" lon="8.9960052"><ele>73.0</ele><time>2026-03-28T10:21:29.864Z</time></trkpt><trkpt lat="45.2456791" lon="8.9959202"><ele>72.5</ele><time>2026-03-28T10:21:31.857Z</time></trkpt><trkpt lat="45.2455979" lon="8.9958881"><ele>72.0</ele><time>2026-03-28T10:21:34.863Z</time></trkpt><trkpt lat="45.2455455" lon="8.9959497"><ele>71.5</ele><time>2026-03-28T10:21:37.836Z</time></trkpt><trkpt lat="45.2455124" lon="8.9960462"><ele>71.0</ele><time>2026-03-28T10:21:39.846Z</time></trkpt><trkpt lat="45.2454874" lon="8.9961377"><ele>70.5</ele><time>2026-03-28T10:21:41.86Z</time></trkpt><trkpt lat="45.2454277" lon="8.9961997"><ele>70.0</ele><time>2026-03-28T10:21:44.86Z</time></trkpt><trkpt lat="45.2453757" lon="8.9962834"><ele>70.0</ele><time>2026-03-28T10:21:47.866Z</time></trkpt><trkpt lat="45.2453167" lon="8.9963775"><ele>70.0</ele><time>2026-03-28T10:21:50.845Z</time></trkpt><trkpt lat="45.2452679" lon="8.9964496"><ele>70.0</ele><time>2026-03-28T10:21:52.858Z</time></trkpt><trkpt lat="45.2452086" lon="8.9964998"><ele>70.0</ele><time>2026-03-28T10:21:56.842Z</time></trkpt><trkpt lat="45.2451202" lon="8.9965788"><ele>70.0</ele><time>2026-03-28T10:22:07.853Z</time></trkpt><trkpt lat="45.2450533" lon="8.9965848"><ele>70.0</ele><time>2026-03-28T10:22:10.861Z</time></trkpt><trkpt lat="45.2450053" lon="8.9966474"><ele>71.0</ele><time>2026-03-28T10:22:18.832Z</time></trkpt><trkpt lat="45.2449433" lon="8.9966729"><ele>72.0</ele><time>2026-03-28T10:22:25.853Z</time></trkpt><trkpt lat="45.2445565" lon="8.9970894"><ele>72.0</ele><time>2026-03-28T10:22:37.505Z</time></trkpt><trkpt lat="45.2444003" lon="8.9972029"><ele>72.0</ele><time>2026-03-28T10:22:46.479Z</time></trkpt><trkpt lat="45.2441498" lon="8.9975965"><ele>72.0</ele><time>2026-03-28T10:22:55.473Z</time></trkpt><trkpt lat="45.2440803" lon="8.9978799"><ele>72.0</ele><time>2026-03-28T10:23:04.49Z</time></trkpt><trkpt lat="45.2440235" lon="8.9983441"><ele>72.0</ele><time>2026-03-28T10:23:13.476Z</time></trkpt><trkpt lat="45.2439703" lon="8.998198"><ele>72.0</ele><time>2026-03-28T10:23:22.373Z</time></trkpt><trkpt lat="45.2436159" lon="8.9990818"><ele>72.0</ele><time>2026-03-28T10:23:31.403Z</time></trkpt><trkpt lat="45.243414" lon="8.9993599"><ele>72.0</ele><time>2026-03-28T10:23:40.483Z</time></trkpt><trkpt lat="45.2430902" lon="8.9995902"><ele>72.0</ele><time>2026-03-28T10:23:49.397Z</time></trkpt><trkpt lat="45.2432448" lon="8.9995889"><ele>72.0</ele><time>2026-03-28T10:23:58.4Z</time></trkpt><trkpt lat="45.2431878" lon="8.9996408"><ele>72.0</ele><time>2026-03-28T10:24:00.862Z</time></trkpt><trkpt lat="45.2431685" lon="8.9995496"><ele>72.0</ele><time>2026-03-28T10:24:04.849Z</time></trkpt><trkpt lat="45.243107" lon="8.9995292"><ele>72.0</ele><time>2026-03-28T10:24:16.846Z</time></trkpt><trkpt lat="45.2430367" lon="8.9995457"><ele>72.0</ele><time>2026-03-28T10:24:22.838Z</time></trkpt><trkpt lat="45.2429666" lon="8.9995679"><ele>72.16666666666667</ele><time>2026-03-28T10:24:25.847Z</time></trkpt><trkpt lat="45.2428802" lon="8.9996093"><ele>72.33333333333333</ele><time>2026-03-28T10:24:28.851Z</time></trkpt><trkpt lat="45.2428154" lon="8.9996247"><ele>72.5</ele><time>2026-03-28T10:24:30.847Z</time></trkpt><trkpt lat="45.2427414" lon="8.9996496"><ele>72.66666666666666</ele><time>2026-03-28T10:24:32.858Z</time></trkpt><trkpt lat="45.2426694" lon="8.9996682"><ele>72.83333333333333</ele><time>2026-03-28T10:24:34.86Z</time></trkpt><trkpt lat="45.2426011" lon="8.9996789"><ele>73.0</ele><time>2026-03-28T10:24:36.86Z</time></trkpt><trkpt lat="45.2425165" lon="8.9997066"><ele>73.0</ele><time>2026-03-28T10:24:39.851Z</time></trkpt><trkpt lat="45.2424283" lon="8.9997254"><ele>73.0</ele><time>2026-03-28T10:24:42.941Z</time></trkpt><trkpt lat="45.2423634" lon="8.9997581"><ele>73.0</ele><time>2026-03-28T10:24:44.844Z</time></trkpt><trkpt lat="45.2422977" lon="8.9997752"><ele>73.0</ele><time>2026-03-28T10:24:46.826Z</time></trkpt><trkpt lat="45.2422153" lon="8.9997944"><ele>73.0</ele><time>2026-03-28T10:24:49.832Z</time></trkpt><trkpt lat="45.2421373" lon="8.9998301"><ele>73.0</ele><time>2026-03-28T10:24:52.831Z</time></trkpt><trkpt lat="45.2420719" lon="8.9998808"><ele>72.66666666666666</ele><time>2026-03-28T10:24:55.831Z</time></trkpt><trkpt lat="45.2420002" lon="8.9999658"><ele>72.33333333333333</ele><time>2026-03-28T10:24:58.829Z</time></trkpt><trkpt lat="45.2419441" lon="9.0000602"><ele>72.0</ele><time>2026-03-28T10:25:01.831Z</time></trkpt><trkpt lat="45.2419109" lon="9.0001469"><ele>71.66666666666667</ele><time>2026-03-28T10:25:03.836Z</time></trkpt><trkpt lat="45.2418813" lon="9.0002368"><ele>71.33333333333334</ele><time>2026-03-28T10:25:05.839Z</time></trkpt><trkpt lat="45.2418483" lon="9.0003356"><ele>71.0</ele><time>2026-03-28T10:25:07.843Z</time></trkpt><trkpt lat="45.2418332" lon="9.0004304"><ele>71.0</ele><time>2026-03-28T10:25:09.838Z</time></trkpt><trkpt lat="45.2418341" lon="9.0005515"><ele>71.0</ele><time>2026-03-28T10:25:12.849Z</time></trkpt><trkpt lat="45.2418387" lon="9.0006472"><ele>71.0</ele><time>2026-03-28T10:25:14.837Z</time></trkpt><trkpt lat="45.2418093" lon="9.0007265"><ele>71.0</ele><time>2026-03-28T10:25:16.83Z</time></trkpt><trkpt lat="45.2417698" lon="9.0008207"><ele>71.0</ele><time>2026-03-28T10:25:19.839Z</time></trkpt><trkpt lat="45.2417236" lon="9.0009314"><ele>71.0</ele><time>2026-03-28T10:25:22.827Z</time></trkpt><trkpt lat="45.2416931" lon="9.0010109"><ele>71.0</ele><time>2026-03-28T10:25:24.826Z</time></trkpt><trkpt lat="45.241655" lon="9.0010912"><ele>71.16666666666667</ele><time>2026-03-28T10:25:26.835Z</time></trkpt><trkpt lat="45.2415955" lon="9.0011907"><ele>71.33333333333334</ele><time>2026-03-28T10:25:29.841Z</time></trkpt><trkpt lat="45.2415501" lon="9.0012669"><ele>71.5</ele><time>2026-03-28T10:25:31.909Z</time></trkpt><trkpt lat="45.2415031" lon="9.001334"><ele>71.66666666666667</ele><time>2026-03-28T10:25:33.885Z</time></trkpt><trkpt lat="45.2414374" lon="9.0013783"><ele>71.83333333333333</ele><time>2026-03-28T10:25:36.851Z</time></trkpt><trkpt lat="45.2413449" lon="9.0013897"><ele>72.0</ele><time>2026-03-28T10:25:39.855Z</time></trkpt><trkpt lat="45.2412797" lon="9.0013945"><ele>72.00000000000001</ele><time>2026-03-28T10:25:41.856Z</time></trkpt><trkpt lat="45.2412104" lon="9.0014183"><ele>72.0</ele><time>2026-03-28T10:25:43.827Z</time></trkpt><trkpt lat="45.2411396" lon="9.0014465"><ele>72.0</ele><time>2026-03-28T10:25:45.843Z</time></trkpt><trkpt lat="45.2410767" lon="9.0014816"><ele>72.0</ele><time>2026-03-28T10:25:47.892Z</time></trkpt><trkpt lat="45.2410175" lon="9.0015247"><ele>72.0</ele><time>2026-03-28T10:25:49.825Z</time></trkpt><trkpt lat="45.240935" lon="9.001565"><ele>72.00000000000001</ele><time>2026-03-28T10:25:52.855Z</time></trkpt><trkpt lat="45.2408661" lon="9.0016041"><ele>72.0</ele><time>2026-03-28T10:25:55.863Z</time></trkpt><trkpt lat="45.2408058" lon="9.0016585"><ele>72.33333333333333</ele><time>2026-03-28T10:25:57.855Z</time></trkpt><trkpt lat="45.2407641" lon="9.001739"><ele>72.66666666666667</ele><time>2026-03-28T10:26:00.853Z</time></trkpt><trkpt lat="45.2407265" lon="9.001833"><ele>73.0</ele><time>2026-03-28T10:26:03.862Z</time></trkpt><trkpt lat="45.2407031" lon="9.001963"><ele>73.33333333333334</ele><time>2026-03-28T10:26:06.848Z</time></trkpt><trkpt lat="45.2406828" lon="9.0020609"><ele>73.66666666666667</ele><time>2026-03-28T10:26:08.852Z</time></trkpt><trkpt lat="45.2406524" lon="9.0021843"><ele>74.0</ele><time>2026-03-28T10:26:11.857Z</time></trkpt><trkpt lat="45.2406072" lon="9.0023091"><ele>74.0</ele><time>2026-03-28T10:26:13.864Z</time></trkpt><trkpt lat="45.2405447" lon="9.0023542"><ele>74.0</ele><time>2026-03-28T10:26:17.849Z</time></trkpt><trkpt lat="45.2404658" lon="9.0023767"><ele>74.0</ele><time>2026-03-28T10:26:20.826Z</time></trkpt><trkpt lat="45.2403979" lon="9.0023798"><ele>74.0</ele><time>2026-03-28T10:26:22.851Z</time></trkpt><trkpt lat="45.2403037" lon="9.0023755"><ele>74.0</ele><time>2026-03-28T10:26:25.907Z</time></trkpt><trkpt lat="45.2402254" lon="9.0023929"><ele>74.0</ele><time>2026-03-28T10:26:28.837Z</time></trkpt><trkpt lat="45.2401919" lon="9.0024729"><ele>74.5</ele><time>2026-03-28T10:26:32.836Z</time></trkpt><trkpt lat="45.2401242" lon="9.0025231"><ele>75.0</ele><time>2026-03-28T10:26:36.826Z</time></trkpt><trkpt lat="45.2400584" lon="9.0025551"><ele>75.5</ele><time>2026-03-28T10:26:39.834Z</time></trkpt><trkpt lat="45.2399751" lon="9.0025844"><ele>76.0</ele><time>2026-03-28T10:26:42.862Z</time></trkpt><trkpt lat="45.2398924" lon="9.0025897"><ele>76.5</ele><time>2026-03-28T10:26:45.827Z</time></trkpt><trkpt lat="45.2398469" lon="9.0026848"><ele>77.0</ele><time>2026-03-28T10:26:48.878Z</time></trkpt><trkpt lat="45.2398012" lon="9.0027471"><ele>76.5</ele><time>2026-03-28T10:26:50.851Z</time></trkpt><trkpt lat="45.239739" lon="9.0027836"><ele>76.0</ele><time>2026-03-28T10:26:53.83Z</time></trkpt><trkpt lat="45.2396544" lon="9.0028066"><ele>75.5</ele><time>2026-03-28T10:26:57.832Z</time></trkpt><trkpt lat="45.2395709" lon="9.0028053"><ele>75.0</ele><time>2026-03-28T10:27:00.853Z</time></trkpt><trkpt lat="45.2394932" lon="9.0028132"><ele>74.5</ele><time>2026-03-28T10:27:03.847Z</time></trkpt><trkpt lat="45.2394132" lon="9.00285"><ele>74.0</ele><time>2026-03-28T10:27:06.832Z</time></trkpt><trkpt lat="45.2393438" lon="9.0028686"><ele>74.0</ele><time>2026-03-28T10:27:10.845Z</time></trkpt><trkpt lat="45.2392781" lon="9.0028934"><ele>74.0</ele><time>2026-03-28T10:27:13.855Z</time></trkpt><trkpt lat="45.2392269" lon="9.002948"><ele>74.0</ele><time>2026-03-28T10:27:16.905Z</time></trkpt><trkpt lat="45.239156" lon="9.0029838"><ele>74.0</ele><time>2026-03-28T10:27:20.836Z</time></trkpt><trkpt lat="45.2390971" lon="9.0029459"><ele>74.0</ele><time>2026-03-28T10:27:23.831Z</time></trkpt><trkpt lat="45.2390259" lon="9.0029539"><ele>74.0</ele><time>2026-03-28T10:27:27.826Z</time></trkpt><trkpt lat="45.238973" lon="9.0030293"><ele>74.0</ele><time>2026-03-28T10:27:30.864Z</time></trkpt><trkpt lat="45.2388963" lon="9.0030463"><ele>73.5</ele><time>2026-03-28T10:27:33.83Z</time></trkpt><trkpt lat="45.2388109" lon="9.0030038"><ele>73.0</ele><time>2026-03-28T10:27:36.857Z</time></trkpt><trkpt lat="45.238734" lon="9.0029514"><ele>72.5</ele><time>2026-03-28T10:27:39.834Z</time></trkpt><trkpt lat="45.2386688" lon="9.0029422"><ele>72.0</ele><time>2026-03-28T10:27:42.829Z</time></trkpt><trkpt lat="45.2385998" lon="9.002935"><ele>71.5</ele><time>2026-03-28T10:27:47.828Z</time></trkpt><trkpt lat="45.2385186" lon="9.002938"><ele>71.0</ele><time>2026-03-28T10:27:51.83Z</time></trkpt><trkpt lat="45.2384504" lon="9.0029481"><ele>71.0</ele><time>2026-03-28T10:27:54.826Z</time></trkpt><trkpt lat="45.2383767" lon="9.0029114"><ele>71.0</ele><time>2026-03-28T10:27:58.854Z</time></trkpt><trkpt lat="45.2383159" lon="9.0029612"><ele>71.0</ele><time>2026-03-28T10:28:01.837Z</time></trkpt><trkpt lat="45.2382532" lon="9.0030371"><ele>71.0</ele><time>2026-03-28T10:28:04.86Z</time></trkpt><trkpt lat="45.2381958" lon="9.0030966"><ele>71.0</ele><time>2026-03-28T10:28:06.855Z</time></trkpt><trkpt lat="45.2381447" lon="9.0031748"><ele>71.0</ele><time>2026-03-28T10:28:09.905Z</time></trkpt><trkpt lat="45.23808" lon="9.0032424"><ele>70.83333333333334</ele><time>2026-03-28T10:28:12.857Z</time></trkpt><trkpt lat="45.2380297" lon="9.0033004"><ele>70.66666666666667</ele><time>2026-03-28T10:28:14.841Z</time></trkpt><trkpt lat="45.2379684" lon="9.0033655"><ele>70.5</ele><time>2026-03-28T10:28:17.87Z</time></trkpt><trkpt lat="45.2378978" lon="9.0034331"><ele>70.33333333333333</ele><time>2026-03-28T10:28:21.829Z</time></trkpt><trkpt lat="45.2378294" lon="9.0035038"><ele>70.16666666666666</ele><time>2026-03-28T10:28:24.824Z</time></trkpt><trkpt lat="45.2377793" lon="9.0035623"><ele>70.0</ele><time>2026-03-28T10:28:26.838Z</time></trkpt><trkpt lat="45.2377114" lon="9.0036355"><ele>70.0</ele><time>2026-03-28T10:28:29.851Z</time></trkpt><trkpt lat="45.2376474" lon="9.0037126"><ele>70.0</ele><time>2026-03-28T10:28:32.855Z</time></trkpt><trkpt lat="45.2375752" lon="9.0037843"><ele>70.0</ele><time>2026-03-28T10:28:35.823Z</time></trkpt><trkpt lat="45.237516" lon="9.0038476"><ele>70.0</ele><time>2026-03-28T10:28:37.848Z</time></trkpt><trkpt lat="45.2374668" lon="9.0039045"><ele>70.0</ele><time>2026-03-28T10:28:39.855Z</time></trkpt><trkpt lat="45.2374173" lon="9.0039658"><ele>70.0</ele><time>2026-03-28T10:28:41.832Z</time></trkpt><trkpt lat="45.2373475" lon="9.0040315"><ele>69.16666666666666</ele><time>2026-03-28T10:28:44.851Z</time></trkpt><trkpt lat="45.2372799" lon="9.0041056"><ele>68.33333333333333</ele><time>2026-03-28T10:28:47.828Z</time></trkpt><trkpt lat="45.237204" lon="9.0041744"><ele>67.5</ele><time>2026-03-28T10:28:50.85Z</time></trkpt><trkpt lat="45.2371493" lon="9.0042353"><ele>66.66666666666667</ele><time>2026-03-28T10:28:52.857Z</time></trkpt><trkpt lat="45.2371083" lon="9.0043053"><ele>65.83333333333334</ele><time>2026-03-28T10:28:54.854Z</time></trkpt><trkpt lat="45.2370726" lon="9.0043878"><ele>65.0</ele><time>2026-03-28T10:28:56.851Z</time></trkpt><trkpt lat="45.2370201" lon="9.0044983"><ele>65.0</ele><time>2026-03-28T10:28:59.854Z</time></trkpt><trkpt lat="45.2369764" lon="9.0045938"><ele>65.0</ele><time>2026-03-28T10:29:01.893Z</time></trkpt><trkpt lat="45.2369325" lon="9.0046737"><ele>65.0</ele><time>2026-03-28T10:29:03.831Z</time></trkpt><trkpt lat="45.2368882" lon="9.0047789"><ele>65.0</ele><time>2026-03-28T10:29:05.839Z</time></trkpt><trkpt lat="45.2368391" lon="9.0048728"><ele>65.0</ele><time>2026-03-28T10:29:07.823Z</time></trkpt><trkpt lat="45.2367992" lon="9.0049929"><ele>65.0</ele><time>2026-03-28T10:29:10.827Z</time></trkpt><trkpt lat="45.2367708" lon="9.0050729"><ele>65.42857142857143</ele><time>2026-03-28T10:29:12.903Z</time></trkpt><trkpt lat="45.236743" lon="9.0051568"><ele>65.85714285714286</ele><time>2026-03-28T10:29:14.895Z</time></trkpt><trkpt lat="45.2367153" lon="9.005241"><ele>66.28571428571428</ele><time>2026-03-28T10:29:16.852Z</time></trkpt><trkpt lat="45.2366827" lon="9.0053617"><ele>66.71428571428572</ele><time>2026-03-28T10:29:19.861Z</time></trkpt><trkpt lat="45.2366598" lon="9.0054576"><ele>67.14285714285714</ele><time>2026-03-28T10:29:21.85Z</time></trkpt><trkpt lat="45.2366273" lon="9.0055573"><ele>67.57142857142857</ele><time>2026-03-28T10:29:23.846Z</time></trkpt><trkpt lat="45.2365997" lon="9.0056579"><ele>68.0</ele><time>2026-03-28T10:29:25.836Z</time></trkpt><trkpt lat="45.2365691" lon="9.005742"><ele>67.99999999999999</ele><time>2026-03-28T10:29:27.913Z</time></trkpt><trkpt lat="45.2365414" lon="9.005827"><ele>68.0</ele><time>2026-03-28T10:29:29.856Z</time></trkpt><trkpt lat="45.2365054" lon="9.0059223"><ele>68.0</ele><time>2026-03-28T10:29:31.848Z</time></trkpt><trkpt lat="45.2364677" lon="9.0060223"><ele>68.0</ele><time>2026-03-28T10:29:33.848Z</time></trkpt><trkpt lat="45.2364369" lon="9.0061025"><ele>68.0</ele><time>2026-03-28T10:29:35.844Z</time></trkpt><trkpt lat="45.2364082" lon="9.0062036"><ele>67.99999999999999</ele><time>2026-03-28T10:29:37.849Z</time></trkpt><trkpt lat="45.2363765" lon="9.0062916"><ele>68.0</ele><time>2026-03-28T10:29:39.845Z</time></trkpt><trkpt lat="45.236357" lon="9.0063819"><ele>67.33333333333334</ele><time>2026-03-28T10:29:41.85Z</time></trkpt><trkpt lat="45.2363406" lon="9.0064995"><ele>66.66666666666667</ele><time>2026-03-28T10:29:44.849Z</time></trkpt><trkpt lat="45.2363132" lon="9.0066236"><ele>66.0</ele><time>2026-03-28T10:29:47.863Z</time></trkpt><trkpt lat="45.2362941" lon="9.0067542"><ele>65.33333333333333</ele><time>2026-03-28T10:29:50.854Z</time></trkpt><trkpt lat="45.236276" lon="9.0068502"><ele>64.66666666666666</ele><time>2026-03-28T10:29:52.846Z</time></trkpt><trkpt lat="45.2362611" lon="9.0069438"><ele>64.0</ele><time>2026-03-28T10:29:54.85Z</time></trkpt><trkpt lat="45.2362542" lon="9.0070697"><ele>64.0</ele><time>2026-03-28T10:29:57.847Z</time></trkpt><trkpt lat="45.2362486" lon="9.0071606"><ele>63.99999999999999</ele><time>2026-03-28T10:29:59.853Z</time></trkpt><trkpt lat="45.23624" lon="9.0072522"><ele>64.0</ele><time>2026-03-28T10:30:01.851Z</time></trkpt><trkpt lat="45.2362351" lon="9.0073553"><ele>64.0</ele><time>2026-03-28T10:30:03.908Z</time></trkpt><trkpt lat="45.236227" lon="9.0074644"><ele>63.99999999999999</ele><time>2026-03-28T10:30:05.864Z</time></trkpt><trkpt lat="45.2362328" lon="9.0075749"><ele>64.0</ele><time>2026-03-28T10:30:07.845Z</time></trkpt><trkpt lat="45.2362351" lon="9.0076714"><ele>64.0</ele><time>2026-03-28T10:30:09.836Z</time></trkpt><trkpt lat="45.2362431" lon="9.0077654"><ele>64.33333333333333</ele><time>2026-03-28T10:30:11.828Z</time></trkpt><trkpt lat="45.2362513" lon="9.0078957"><ele>64.66666666666666</ele><time>2026-03-28T10:30:14.834Z</time></trkpt><trkpt lat="45.2362519" lon="9.008011"><ele>65.0</ele><time>2026-03-28T10:30:17.84Z</time></trkpt><trkpt lat="45.2362537" lon="9.0081193"><ele>65.33333333333333</ele><time>2026-03-28T10:30:20.837Z</time></trkpt><trkpt lat="45.2362517" lon="9.0082138"><ele>65.66666666666667</ele><time>2026-03-28T10:30:22.824Z</time></trkpt><trkpt lat="45.2362568" lon="9.0083168"><ele>66.0</ele><time>2026-03-28T10:30:24.836Z</time></trkpt><trkpt lat="45.2362566" lon="9.0084265"><ele>66.0</ele><time>2026-03-28T10:30:26.841Z</time></trkpt><trkpt lat="45.2362676" lon="9.0085622"><ele>66.0</ele><time>2026-03-28T10:30:28.832Z</time></trkpt><trkpt lat="45.2362741" lon="9.0086578"><ele>66.0</ele><time>2026-03-28T10:30:30.838Z</time></trkpt><trkpt lat="45.2362763" lon="9.0087472"><ele>66.0</ele><time>2026-03-28T10:30:32.836Z</time></trkpt><trkpt lat="45.2362799" lon="9.0088588"><ele>66.0</ele><time>2026-03-28T10:30:34.834Z</time></trkpt><trkpt lat="45.2362697" lon="9.008976"><ele>66.0</ele><time>2026-03-28T10:30:36.828Z</time></trkpt><trkpt lat="45.2362749" lon="9.0090983"><ele>66.16666666666667</ele><time>2026-03-28T10:30:38.828Z</time></trkpt><trkpt lat="45.2362699" lon="9.0091951"><ele>66.33333333333333</ele><time>2026-03-28T10:30:40.839Z</time></trkpt><trkpt lat="45.2362688" lon="9.0093218"><ele>66.5</ele><time>2026-03-28T10:30:43.888Z</time></trkpt><trkpt lat="45.2362624" lon="9.009414"><ele>66.66666666666666</ele><time>2026-03-28T10:30:48.834Z</time></trkpt><trkpt lat="45.2362203" lon="9.0095069"><ele>66.83333333333333</ele><time>2026-03-28T10:30:55.834Z</time></trkpt><trkpt lat="45.2362041" lon="9.0096263"><ele>67.0</ele><time>2026-03-28T10:30:58.833Z</time></trkpt><trkpt lat="45.2361924" lon="9.0097395"><ele>67.0</ele><time>2026-03-28T10:31:01.831Z</time></trkpt><trkpt lat="45.2361756" lon="9.0098264"><ele>67.0</ele><time>2026-03-28T10:31:03.835Z</time></trkpt><trkpt lat="45.2361618" lon="9.009926"><ele>67.0</ele><time>2026-03-28T10:31:05.831Z</time></trkpt><trkpt lat="45.2361548" lon="9.0100222"><ele>67.0</ele><time>2026-03-28T10:31:07.829Z</time></trkpt><trkpt lat="45.236137" lon="9.0101104"><ele>67.0</ele><time>2026-03-28T10:31:09.907Z</time></trkpt><trkpt lat="45.236127" lon="9.0102104"><ele>67.0</ele><time>2026-03-28T10:31:11.842Z</time></trkpt><trkpt lat="45.2360969" lon="9.0103038"><ele>67.0</ele><time>2026-03-28T10:31:13.831Z</time></trkpt><trkpt lat="45.2360894" lon="9.0104252"><ele>67.14285714285714</ele><time>2026-03-28T10:31:16.833Z</time></trkpt><trkpt lat="45.2360885" lon="9.0105242"><ele>67.28571428571428</ele><time>2026-03-28T10:31:18.841Z</time></trkpt><trkpt lat="45.2360837" lon="9.0106218"><ele>67.42857142857142</ele><time>2026-03-28T10:31:20.83Z</time></trkpt><trkpt lat="45.2360875" lon="9.0107182"><ele>67.57142857142857</ele><time>2026-03-28T10:31:22.835Z</time></trkpt><trkpt lat="45.2360961" lon="9.0108239"><ele>67.71428571428571</ele><time>2026-03-28T10:31:24.836Z</time></trkpt><trkpt lat="45.2361002" lon="9.0109208"><ele>67.85714285714285</ele><time>2026-03-28T10:31:26.835Z</time></trkpt><trkpt lat="45.2361004" lon="9.0110295"><ele>68.0</ele><time>2026-03-28T10:31:28.845Z</time></trkpt><trkpt lat="45.2361023" lon="9.0111518"><ele>68.0</ele><time>2026-03-28T10:31:30.833Z</time></trkpt><trkpt lat="45.2361033" lon="9.0112559"><ele>68.0</ele><time>2026-03-28T10:31:32.831Z</time></trkpt><trkpt lat="45.2361108" lon="9.0113655"><ele>68.0</ele><time>2026-03-28T10:31:34.831Z</time></trkpt><trkpt lat="45.2361162" lon="9.0114644"><ele>68.0</ele><time>2026-03-28T10:31:36.83Z</time></trkpt><trkpt lat="45.2361178" lon="9.0115835"><ele>68.0</ele><time>2026-03-28T10:31:38.829Z</time></trkpt><trkpt lat="45.2361198" lon="9.0117063"><ele>68.0</ele><time>2026-03-28T10:31:40.834Z</time></trkpt><trkpt lat="45.2361254" lon="9.0118121"><ele>68.0</ele><time>2026-03-28T10:31:42.828Z</time></trkpt><trkpt lat="45.2361241" lon="9.0119165"><ele>68.0</ele><time>2026-03-28T10:31:44.839Z</time></trkpt><trkpt lat="45.2361284" lon="9.0120207"><ele>68.0</ele><time>2026-03-28T10:31:46.831Z</time></trkpt><trkpt lat="45.2361409" lon="9.0121364"><ele>68.0</ele><time>2026-03-28T10:31:48.835Z</time></trkpt><trkpt lat="45.2361571" lon="9.0122384"><ele>68.0</ele><time>2026-03-28T10:31:50.83Z</time></trkpt><trkpt lat="45.2361793" lon="9.0123392"><ele>68.0</ele><time>2026-03-28T10:31:52.832Z</time></trkpt><trkpt lat="45.2362076" lon="9.0124368"><ele>68.2</ele><time>2026-03-28T10:31:54.828Z</time></trkpt><trkpt lat="45.2362493" lon="9.0125319"><ele>68.4</ele><time>2026-03-28T10:31:56.833Z</time></trkpt><trkpt lat="45.2362971" lon="9.0126278"><ele>68.60000000000001</ele><time>2026-03-28T10:31:58.839Z</time></trkpt><trkpt lat="45.2363567" lon="9.0127311"><ele>68.8</ele><time>2026-03-28T10:32:00.825Z</time></trkpt><trkpt lat="45.2364315" lon="9.0128297"><ele>69.0</ele><time>2026-03-28T10:32:02.837Z</time></trkpt><trkpt lat="45.236516" lon="9.0129363"><ele>69.0</ele><time>2026-03-28T10:32:04.852Z</time></trkpt><trkpt lat="45.2365891" lon="9.0130153"><ele>69.0</ele><time>2026-03-28T10:32:06.831Z</time></trkpt><trkpt lat="45.2366445" lon="9.0130963"><ele>69.0</ele><time>2026-03-28T10:32:08.831Z</time></trkpt><trkpt lat="45.2367139" lon="9.0131669"><ele>69.0</ele><time>2026-03-28T10:32:10.83Z</time></trkpt><trkpt lat="45.2367819" lon="9.0132388"><ele>69.0</ele><time>2026-03-28T10:32:12.828Z</time></trkpt><trkpt lat="45.236838" lon="9.013321"><ele>69.0</ele><time>2026-03-28T10:32:14.838Z</time></trkpt><trkpt lat="45.236907" lon="9.013388"><ele>69.0</ele><time>2026-03-28T10:32:16.834Z</time></trkpt><trkpt lat="45.236967" lon="9.0134752"><ele>69.0</ele><time>2026-03-28T10:32:18.832Z</time></trkpt><trkpt lat="45.2370129" lon="9.0135605"><ele>69.0</ele><time>2026-03-28T10:32:20.826Z</time></trkpt><trkpt lat="45.2370601" lon="9.0136466"><ele>69.0</ele><time>2026-03-28T10:32:22.831Z</time></trkpt><trkpt lat="45.2370912" lon="9.0137304"><ele>69.0</ele><time>2026-03-28T10:32:24.835Z</time></trkpt><trkpt lat="45.2371261" lon="9.0138173"><ele>69.0</ele><time>2026-03-28T10:32:26.83Z</time></trkpt><trkpt lat="45.2371656" lon="9.0139082"><ele>69.0</ele><time>2026-03-28T10:32:28.825Z</time></trkpt><trkpt lat="45.2372044" lon="9.0140023"><ele>69.0</ele><time>2026-03-28T10:32:30.834Z</time></trkpt><trkpt lat="45.2372341" lon="9.014103"><ele>69.0</ele><time>2026-03-28T10:32:32.827Z</time></trkpt><trkpt lat="45.2372595" lon="9.0141993"><ele>69.0</ele><time>2026-03-28T10:32:34.826Z</time></trkpt><trkpt lat="45.2372879" lon="9.014294"><ele>69.0</ele><time>2026-03-28T10:32:36.837Z</time></trkpt><trkpt lat="45.2373217" lon="9.0143951"><ele>69.0</ele><time>2026-03-28T10:32:38.908Z</time></trkpt><trkpt lat="45.2373617" lon="9.0144899"><ele>69.66666666666667</ele><time>2026-03-28T10:32:40.835Z</time></trkpt><trkpt lat="45.2374019" lon="9.014583"><ele>70.33333333333333</ele><time>2026-03-28T10:32:42.835Z</time></trkpt><trkpt lat="45.2374399" lon="9.0146899"><ele>71.0</ele><time>2026-03-28T10:32:44.825Z</time></trkpt><trkpt lat="45.2374772" lon="9.0147944"><ele>71.66666666666666</ele><time>2026-03-28T10:32:46.829Z</time></trkpt><trkpt lat="45.237516" lon="9.0149006"><ele>72.33333333333333</ele><time>2026-03-28T10:32:48.846Z</time></trkpt><trkpt lat="45.237548" lon="9.0150018"><ele>73.0</ele><time>2026-03-28T10:32:50.828Z</time></trkpt><trkpt lat="45.2375849" lon="9.0151027"><ele>73.8</ele><time>2026-03-28T10:32:52.828Z</time></trkpt><trkpt lat="45.237621" lon="9.0152086"><ele>74.6</ele><time>2026-03-28T10:32:54.837Z</time></trkpt><trkpt lat="45.2376969" lon="9.0153294"><ele>75.4</ele><time>2026-03-28T10:32:56.842Z</time></trkpt><trkpt lat="45.2377632" lon="9.0154274"><ele>76.2</ele><time>2026-03-28T10:32:58.823Z</time></trkpt><trkpt lat="45.2378309" lon="9.0155217"><ele>77.0</ele><time>2026-03-28T10:33:00.826Z</time></trkpt><trkpt lat="45.237882" lon="9.0155791"><ele>77.0</ele><time>2026-03-28T10:33:02.826Z</time></trkpt><trkpt lat="45.2379396" lon="9.0156431"><ele>77.0</ele><time>2026-03-28T10:33:04.834Z</time></trkpt><trkpt lat="45.2380059" lon="9.0157"><ele>77.0</ele><time>2026-03-28T10:33:06.831Z</time></trkpt><trkpt lat="45.238072" lon="9.0157629"><ele>77.0</ele><time>2026-03-28T10:33:08.834Z</time></trkpt><trkpt lat="45.2381595" lon="9.015848"><ele>77.0</ele><time>2026-03-28T10:33:10.83Z</time></trkpt><trkpt lat="45.2382419" lon="9.0159099"><ele>77.0</ele><time>2026-03-28T10:33:12.836Z</time></trkpt><trkpt lat="45.2383321" lon="9.015972"><ele>77.0</ele><time>2026-03-28T10:33:14.83Z</time></trkpt><trkpt lat="45.2384266" lon="9.0160532"><ele>77.0</ele><time>2026-03-28T10:33:16.825Z</time></trkpt><trkpt lat="45.2385022" lon="9.0161317"><ele>77.0</ele><time>2026-03-28T10:33:18.827Z</time></trkpt><trkpt lat="45.238588" lon="9.016202"><ele>77.0</ele><time>2026-03-28T10:33:20.828Z</time></trkpt><trkpt lat="45.2386942" lon="9.0162772"><ele>77.0</ele><time>2026-03-28T10:33:22.832Z</time></trkpt><trkpt lat="45.2387926" lon="9.0163475"><ele>77.0</ele><time>2026-03-28T10:33:24.834Z</time></trkpt><trkpt lat="45.2388919" lon="9.0164127"><ele>77.0</ele><time>2026-03-28T10:33:26.835Z</time></trkpt><trkpt lat="45.2389751" lon="9.0165101"><ele>77.0</ele><time>2026-03-28T10:33:28.831Z</time></trkpt><trkpt lat="45.2390501" lon="9.0165906"><ele>77.0</ele><time>2026-03-28T10:33:30.837Z</time></trkpt><trkpt lat="45.2391198" lon="9.0166706"><ele>77.0</ele><time>2026-03-28T10:33:32.821Z</time></trkpt><trkpt lat="45.239188" lon="9.0167479"><ele>76.6</ele><time>2026-03-28T10:33:34.826Z</time></trkpt><trkpt lat="45.2392729" lon="9.0168206"><ele>76.2</ele><time>2026-03-28T10:33:36.84Z</time></trkpt><trkpt lat="45.2393577" lon="9.0168993"><ele>75.8</ele><time>2026-03-28T10:33:38.829Z</time></trkpt><trkpt lat="45.2394539" lon="9.0169759"><ele>75.4</ele><time>2026-03-28T10:33:40.835Z</time></trkpt><trkpt lat="45.2395382" lon="9.0170664"><ele>75.0</ele><time>2026-03-28T10:33:42.823Z</time></trkpt><trkpt lat="45.2396171" lon="9.0171554"><ele>75.0</ele><time>2026-03-28T10:33:44.835Z</time></trkpt><trkpt lat="45.2396965" lon="9.0172633"><ele>75.0</ele><time>2026-03-28T10:33:46.827Z</time></trkpt><trkpt lat="45.2397764" lon="9.0173518"><ele>75.0</ele><time>2026-03-28T10:33:48.828Z</time></trkpt><trkpt lat="45.2398535" lon="9.0174172"><ele>75.0</ele><time>2026-03-28T10:33:50.832Z</time></trkpt><trkpt lat="45.2399089" lon="9.0174847"><ele>75.0</ele><time>2026-03-28T10:33:52.821Z</time></trkpt><trkpt lat="45.2399732" lon="9.0175507"><ele>73.6</ele><time>2026-03-28T10:33:54.827Z</time></trkpt><trkpt lat="45.2400665" lon="9.017607"><ele>72.2</ele><time>2026-03-28T10:33:56.831Z</time></trkpt><trkpt lat="45.2401579" lon="9.0176772"><ele>70.8</ele><time>2026-03-28T10:33:58.83Z</time></trkpt><trkpt lat="45.2402466" lon="9.0177682"><ele>69.4</ele><time>2026-03-28T10:34:00.838Z</time></trkpt><trkpt lat="45.240339" lon="9.0178384"><ele>68.0</ele><time>2026-03-28T10:34:02.83Z</time></trkpt><trkpt lat="45.2404346" lon="9.0179067"><ele>68.0</ele><time>2026-03-28T10:34:04.828Z</time></trkpt><trkpt lat="45.2405259" lon="9.0179509"><ele>68.0</ele><time>2026-03-28T10:34:06.83Z</time></trkpt><trkpt lat="45.2406205" lon="9.01799"><ele>68.0</ele><time>2026-03-28T10:34:08.829Z</time></trkpt><trkpt lat="45.2407261" lon="9.0180088"><ele>68.0</ele><time>2026-03-28T10:34:10.83Z</time></trkpt><trkpt lat="45.2408244" lon="9.0180356"><ele>68.0</ele><time>2026-03-28T10:34:12.827Z</time></trkpt><trkpt lat="45.2409241" lon="9.0180693"><ele>68.0</ele><time>2026-03-28T10:34:14.826Z</time></trkpt><trkpt lat="45.2410273" lon="9.018104"><ele>68.0</ele><time>2026-03-28T10:34:16.827Z</time></trkpt><trkpt lat="45.2411202" lon="9.0181516"><ele>68.0</ele><time>2026-03-28T10:34:18.831Z</time></trkpt><trkpt lat="45.2412197" lon="9.0181972"><ele>68.0</ele><time>2026-03-28T10:34:20.844Z</time></trkpt><trkpt lat="45.2413137" lon="9.0182466"><ele>68.0</ele><time>2026-03-28T10:34:22.824Z</time></trkpt><trkpt lat="45.2414065" lon="9.018329"><ele>69.0</ele><time>2026-03-28T10:34:24.835Z</time></trkpt><trkpt lat="45.2414824" lon="9.018449"><ele>70.0</ele><time>2026-03-28T10:34:26.825Z</time></trkpt><trkpt lat="45.2415587" lon="9.0185622"><ele>71.0</ele><time>2026-03-28T10:34:28.833Z</time></trkpt><trkpt lat="45.2416203" lon="9.0186888"><ele>72.0</ele><time>2026-03-28T10:34:30.83Z</time></trkpt><trkpt lat="45.2416908" lon="9.0188871"><ele>72.0</ele><time>2026-03-28T10:34:33.836Z</time></trkpt><trkpt lat="45.2417351" lon="9.0190231"><ele>72.0</ele><time>2026-03-28T10:34:35.825Z</time></trkpt><trkpt lat="45.2417766" lon="9.0191538"><ele>72.0</ele><time>2026-03-28T10:34:37.828Z</time></trkpt><trkpt lat="45.2418063" lon="9.0192851"><ele>72.0</ele><time>2026-03-28T10:34:39.832Z</time></trkpt><trkpt lat="45.2418266" lon="9.0194285"><ele>72.0</ele><time>2026-03-28T10:34:41.833Z</time></trkpt><trkpt lat="45.2418358" lon="9.0195793"><ele>71.8</ele><time>2026-03-28T10:34:43.829Z</time></trkpt><trkpt lat="45.2418328" lon="9.0197342"><ele>71.6</ele><time>2026-03-28T10:34:45.827Z</time></trkpt><trkpt lat="45.241827" lon="9.0198849"><ele>71.39999999999999</ele><time>2026-03-28T10:34:47.826Z</time></trkpt><trkpt lat="45.2418058" lon="9.0200267"><ele>71.2</ele><time>2026-03-28T10:34:49.834Z</time></trkpt><trkpt lat="45.241804" lon="9.0201778"><ele>71.0</ele><time>2026-03-28T10:34:51.84Z</time></trkpt><trkpt lat="45.2418159" lon="9.0203382"><ele>71.0</ele><time>2026-03-28T10:34:53.826Z</time></trkpt><trkpt lat="45.2418587" lon="9.0204682"><ele>71.0</ele><time>2026-03-28T10:34:55.826Z</time></trkpt><trkpt lat="45.2419225" lon="9.0205754"><ele>71.0</ele><time>2026-03-28T10:34:57.827Z</time></trkpt><trkpt lat="45.241998" lon="9.0206794"><ele>71.0</ele><time>2026-03-28T10:34:59.826Z</time></trkpt><trkpt lat="45.2420758" lon="9.020778"><ele>71.0</ele><time>2026-03-28T10:35:01.829Z</time></trkpt><trkpt lat="45.2421528" lon="9.0208808"><ele>70.8</ele><time>2026-03-28T10:35:03.826Z</time></trkpt><trkpt lat="45.2422181" lon="9.020992"><ele>70.6</ele><time>2026-03-28T10:35:05.825Z</time></trkpt><trkpt lat="45.2422843" lon="9.0211193"><ele>70.4</ele><time>2026-03-28T10:35:07.833Z</time></trkpt><trkpt lat="45.2423489" lon="9.0212428"><ele>70.2</ele><time>2026-03-28T10:35:09.831Z</time></trkpt><trkpt lat="45.2423997" lon="9.0213845"><ele>70.0</ele><time>2026-03-28T10:35:11.83Z</time></trkpt><trkpt lat="45.2424354" lon="9.0214882"><ele>71.2</ele><time>2026-03-28T10:35:13.833Z</time></trkpt><trkpt lat="45.2424785" lon="9.0216459"><ele>72.4</ele><time>2026-03-28T10:35:15.831Z</time></trkpt><trkpt lat="45.2425323" lon="9.0217865"><ele>73.6</ele><time>2026-03-28T10:35:17.83Z</time></trkpt><trkpt lat="45.242593" lon="9.0219134"><ele>74.8</ele><time>2026-03-28T10:35:19.847Z</time></trkpt><trkpt lat="45.2426576" lon="9.0220392"><ele>76.0</ele><time>2026-03-28T10:35:21.831Z</time></trkpt><trkpt lat="45.2427328" lon="9.0221684"><ele>76.0</ele><time>2026-03-28T10:35:23.832Z</time></trkpt><trkpt lat="45.2428032" lon="9.0222885"><ele>76.0</ele><time>2026-03-28T10:35:25.831Z</time></trkpt><trkpt lat="45.2428724" lon="9.0223962"><ele>76.0</ele><time>2026-03-28T10:35:27.836Z</time></trkpt><trkpt lat="45.2429677" lon="9.022505"><ele>76.0</ele><time>2026-03-28T10:35:29.827Z</time></trkpt><trkpt lat="45.2430686" lon="9.0225963"><ele>77.0</ele><time>2026-03-28T10:35:31.824Z</time></trkpt><trkpt lat="45.2431764" lon="9.0226448"><ele>78.0</ele><time>2026-03-28T10:35:33.828Z</time></trkpt><trkpt lat="45.243264" lon="9.0226695"><ele>79.0</ele><time>2026-03-28T10:35:35.824Z</time></trkpt><trkpt lat="45.2433526" lon="9.0226694"><ele>80.0</ele><time>2026-03-28T10:35:37.822Z</time></trkpt><trkpt lat="45.24344" lon="9.0226662"><ele>81.0</ele><time>2026-03-28T10:35:39.84Z</time></trkpt><trkpt lat="45.2435375" lon="9.0226639"><ele>81.0</ele><time>2026-03-28T10:35:41.826Z</time></trkpt><trkpt lat="45.2436311" lon="9.0226675"><ele>81.0</ele><time>2026-03-28T10:35:43.83Z</time></trkpt><trkpt lat="45.2437176" lon="9.0226748"><ele>81.0</ele><time>2026-03-28T10:35:45.829Z</time></trkpt><trkpt lat="45.2438026" lon="9.0226885"><ele>81.0</ele><time>2026-03-28T10:35:47.828Z</time></trkpt><trkpt lat="45.2438989" lon="9.0226904"><ele>81.0</ele><time>2026-03-28T10:35:49.837Z</time></trkpt><trkpt lat="45.2439905" lon="9.0227012"><ele>81.0</ele><time>2026-03-28T10:35:51.825Z</time></trkpt><trkpt lat="45.244086" lon="9.0227129"><ele>81.0</ele><time>2026-03-28T10:35:53.836Z</time></trkpt><trkpt lat="45.244177" lon="9.0227264"><ele>81.0</ele><time>2026-03-28T10:35:55.845Z</time></trkpt><trkpt lat="45.2442679" lon="9.0227262"><ele>81.0</ele><time>2026-03-28T10:35:57.829Z</time></trkpt><trkpt lat="45.2443505" lon="9.0227303"><ele>81.0</ele><time>2026-03-28T10:35:59.837Z</time></trkpt><trkpt lat="45.2444257" lon="9.0227319"><ele>81.0</ele><time>2026-03-28T10:36:01.837Z</time></trkpt><trkpt lat="45.2444922" lon="9.0227375"><ele>81.0</ele><time>2026-03-28T10:36:03.832Z</time></trkpt><trkpt lat="45.2445716" lon="9.0227818"><ele>81.0</ele><time>2026-03-28T10:36:06.835Z</time></trkpt><trkpt lat="45.2445656" lon="9.0228953"><ele>81.0</ele><time>2026-03-28T10:36:09.837Z</time></trkpt><trkpt lat="45.244517" lon="9.0230033"><ele>81.0</ele><time>2026-03-28T10:36:12.835Z</time></trkpt><trkpt lat="45.2444823" lon="9.0230825"><ele>81.0</ele><time>2026-03-28T10:36:14.832Z</time></trkpt><trkpt lat="45.2444449" lon="9.0231626"><ele>81.0</ele><time>2026-03-28T10:36:16.833Z</time></trkpt><trkpt lat="45.2444039" lon="9.0232443"><ele>81.14285714285714</ele><time>2026-03-28T10:36:18.832Z</time></trkpt><trkpt lat="45.244365" lon="9.0233342"><ele>81.28571428571428</ele><time>2026-03-28T10:36:20.824Z</time></trkpt><trkpt lat="45.2443223" lon="9.0234192"><ele>81.42857142857142</ele><time>2026-03-28T10:36:22.83Z</time></trkpt><trkpt lat="45.2442838" lon="9.0234963"><ele>81.57142857142857</ele><time>2026-03-28T10:36:24.83Z</time></trkpt><trkpt lat="45.2442428" lon="9.0235729"><ele>81.71428571428571</ele><time>2026-03-28T10:36:26.833Z</time></trkpt><trkpt lat="45.2442007" lon="9.0236568"><ele>81.85714285714285</ele><time>2026-03-28T10:36:28.823Z</time></trkpt><trkpt lat="45.2441627" lon="9.0237402"><ele>82.0</ele><time>2026-03-28T10:36:30.834Z</time></trkpt><trkpt lat="45.2441186" lon="9.023818"><ele>82.0</ele><time>2026-03-28T10:36:32.833Z</time></trkpt><trkpt lat="45.2440768" lon="9.0238999"><ele>82.0</ele><time>2026-03-28T10:36:34.828Z</time></trkpt><trkpt lat="45.2440423" lon="9.0239804"><ele>82.0</ele><time>2026-03-28T10:36:36.83Z</time></trkpt><trkpt lat="45.2439938" lon="9.0240843"><ele>82.0</ele><time>2026-03-28T10:36:38.819Z</time></trkpt><trkpt lat="45.2439406" lon="9.024159"><ele>82.0</ele><time>2026-03-28T10:36:40.829Z</time></trkpt><trkpt lat="45.2438776" lon="9.0242522"><ele>82.0</ele><time>2026-03-28T10:36:43.823Z</time></trkpt><trkpt lat="45.2438674" lon="9.0243621"><ele>82.0</ele><time>2026-03-28T10:36:46.828Z</time></trkpt><trkpt lat="45.2439252" lon="9.0244552"><ele>82.0</ele><time>2026-03-28T10:36:49.828Z</time></trkpt><trkpt lat="45.2439697" lon="9.0245716"><ele>82.0</ele><time>2026-03-28T10:36:52.829Z</time></trkpt><trkpt lat="45.2440047" lon="9.024658"><ele>82.0</ele><time>2026-03-28T10:36:54.826Z</time></trkpt><trkpt lat="45.2440363" lon="9.0247471"><ele>82.0</ele><time>2026-03-28T10:36:56.829Z</time></trkpt><trkpt lat="45.244075" lon="9.0248467"><ele>82.0</ele><time>2026-03-28T10:36:58.839Z</time></trkpt><trkpt lat="45.2441136" lon="9.0249308"><ele>81.83333333333333</ele><time>2026-03-28T10:37:00.824Z</time></trkpt><trkpt lat="45.2441489" lon="9.0250178"><ele>81.66666666666666</ele><time>2026-03-28T10:37:02.83Z</time></trkpt><trkpt lat="45.2441896" lon="9.0251123"><ele>81.5</ele><time>2026-03-28T10:37:04.848Z</time></trkpt><trkpt lat="45.2442339" lon="9.0252156"><ele>81.33333333333333</ele><time>2026-03-28T10:37:06.828Z</time></trkpt><trkpt lat="45.2442683" lon="9.0253067"><ele>81.16666666666667</ele><time>2026-03-28T10:37:08.827Z</time></trkpt><trkpt lat="45.24429" lon="9.0254054"><ele>81.0</ele><time>2026-03-28T10:37:10.832Z</time></trkpt><trkpt lat="45.2442893" lon="9.0255246"><ele>81.0</ele><time>2026-03-28T10:37:12.826Z</time></trkpt><trkpt lat="45.2442454" lon="9.0256366"><ele>81.0</ele><time>2026-03-28T10:37:14.835Z</time></trkpt><trkpt lat="45.2441952" lon="9.0257291"><ele>81.0</ele><time>2026-03-28T10:37:16.834Z</time></trkpt><trkpt lat="45.2441447" lon="9.0258083"><ele>81.0</ele><time>2026-03-28T10:37:18.826Z</time></trkpt><trkpt lat="45.2440914" lon="9.0258855"><ele>81.0</ele><time>2026-03-28T10:37:20.829Z</time></trkpt><trkpt lat="45.2440389" lon="9.0259745"><ele>81.0</ele><time>2026-03-28T10:37:22.82Z</time></trkpt><trkpt lat="45.2439955" lon="9.026068"><ele>81.16666666666667</ele><time>2026-03-28T10:37:24.831Z</time></trkpt><trkpt lat="45.2439467" lon="9.0261585"><ele>81.33333333333333</ele><time>2026-03-28T10:37:26.83Z</time></trkpt><trkpt lat="45.2439079" lon="9.0262444"><ele>81.5</ele><time>2026-03-28T10:37:28.829Z</time></trkpt><trkpt lat="45.2438629" lon="9.0263276"><ele>81.66666666666666</ele><time>2026-03-28T10:37:30.83Z</time></trkpt><trkpt lat="45.2438183" lon="9.026452"><ele>81.83333333333333</ele><time>2026-03-28T10:37:32.896Z</time></trkpt><trkpt lat="45.2437641" lon="9.0265652"><ele>82.0</ele><time>2026-03-28T10:37:34.833Z</time></trkpt><trkpt lat="45.2437138" lon="9.0266786"><ele>82.0</ele><time>2026-03-28T10:37:36.829Z</time></trkpt><trkpt lat="45.2436715" lon="9.0267739"><ele>82.0</ele><time>2026-03-28T10:37:38.823Z</time></trkpt><trkpt lat="45.243622" lon="9.0268613"><ele>82.0</ele><time>2026-03-28T10:37:40.83Z</time></trkpt><trkpt lat="45.2435672" lon="9.0269652"><ele>82.0</ele><time>2026-03-28T10:37:43.826Z</time></trkpt><trkpt lat="45.243525" lon="9.0270368"><ele>82.0</ele><time>2026-03-28T10:37:45.829Z</time></trkpt><trkpt lat="45.2434835" lon="9.0271126"><ele>82.0</ele><time>2026-03-28T10:37:47.83Z</time></trkpt><trkpt lat="45.2434494" lon="9.027197"><ele>82.0</ele><time>2026-03-28T10:37:49.836Z</time></trkpt><trkpt lat="45.2434334" lon="9.027291"><ele>82.0</ele><time>2026-03-28T10:37:51.829Z</time></trkpt><trkpt lat="45.2434843" lon="9.0273975"><ele>82.0</ele><time>2026-03-28T10:37:54.83Z</time></trkpt><trkpt lat="45.2435173" lon="9.0274839"><ele>82.0</ele><time>2026-03-28T10:37:56.829Z</time></trkpt><trkpt lat="45.2435029" lon="9.0275912"><ele>82.0</ele><time>2026-03-28T10:37:58.832Z</time></trkpt><trkpt lat="45.2434555" lon="9.027684"><ele>82.0</ele><time>2026-03-28T10:38:00.82Z</time></trkpt><trkpt lat="45.2433876" lon="9.0277583"><ele>81.66666666666666</ele><time>2026-03-28T10:38:02.828Z</time></trkpt><trkpt lat="45.2433335" lon="9.0278312"><ele>81.33333333333333</ele><time>2026-03-28T10:38:04.828Z</time></trkpt><trkpt lat="45.2432792" lon="9.0279225"><ele>81.0</ele><time>2026-03-28T10:38:06.832Z</time></trkpt><trkpt lat="45.2432271" lon="9.0279938"><ele>80.66666666666667</ele><time>2026-03-28T10:38:08.831Z</time></trkpt><trkpt lat="45.2431656" lon="9.0280803"><ele>80.33333333333334</ele><time>2026-03-28T10:38:10.833Z</time></trkpt><trkpt lat="45.2431065" lon="9.0281713"><ele>80.0</ele><time>2026-03-28T10:38:12.825Z</time></trkpt><trkpt lat="45.2430532" lon="9.0282491"><ele>79.5</ele><time>2026-03-28T10:38:14.82Z</time></trkpt><trkpt lat="45.2429985" lon="9.028345"><ele>79.0</ele><time>2026-03-28T10:38:16.825Z</time></trkpt><trkpt lat="45.2429552" lon="9.028443"><ele>78.5</ele><time>2026-03-28T10:38:18.827Z</time></trkpt><trkpt lat="45.2429244" lon="9.0285315"><ele>78.0</ele><time>2026-03-28T10:38:20.825Z</time></trkpt><trkpt lat="45.2429085" lon="9.0286254"><ele>77.5</ele><time>2026-03-28T10:38:22.826Z</time></trkpt><trkpt lat="45.2429069" lon="9.0287305"><ele>77.0</ele><time>2026-03-28T10:38:24.834Z</time></trkpt><trkpt lat="45.2429208" lon="9.0288335"><ele>77.0</ele><time>2026-03-28T10:38:26.827Z</time></trkpt><trkpt lat="45.2429323" lon="9.0289371"><ele>77.0</ele><time>2026-03-28T10:38:28.819Z</time></trkpt><trkpt lat="45.2429395" lon="9.029031"><ele>77.0</ele><time>2026-03-28T10:38:30.827Z</time></trkpt><trkpt lat="45.2429308" lon="9.0291394"><ele>77.0</ele><time>2026-03-28T10:38:32.84Z</time></trkpt><trkpt lat="45.2428976" lon="9.0292309"><ele>77.0</ele><time>2026-03-28T10:38:34.833Z</time></trkpt><trkpt lat="45.2428413" lon="9.0292821"><ele>77.0</ele><time>2026-03-28T10:38:36.89Z</time></trkpt><trkpt lat="45.2427835" lon="9.0293412"><ele>77.0</ele><time>2026-03-28T10:38:38.887Z</time></trkpt><trkpt lat="45.2427157" lon="9.0294054"><ele>77.0</ele><time>2026-03-28T10:38:40.833Z</time></trkpt><trkpt lat="45.2426469" lon="9.0294696"><ele>77.0</ele><time>2026-03-28T10:38:42.825Z</time></trkpt><trkpt lat="45.2425747" lon="9.0295267"><ele>77.0</ele><time>2026-03-28T10:38:44.827Z</time></trkpt><trkpt lat="45.2425059" lon="9.0295777"><ele>77.0</ele><time>2026-03-28T10:38:46.829Z</time></trkpt><trkpt lat="45.2424319" lon="9.029598"><ele>77.0</ele><time>2026-03-28T10:38:48.832Z</time></trkpt><trkpt lat="45.2423642" lon="9.0295341"><ele>77.0</ele><time>2026-03-28T10:38:50.832Z</time></trkpt><trkpt lat="45.242294" lon="9.0294264"><ele>76.16666666666667</ele><time>2026-03-28T10:38:52.835Z</time></trkpt><trkpt lat="45.2421929" lon="9.029317"><ele>75.33333333333334</ele><time>2026-03-28T10:38:54.832Z</time></trkpt><trkpt lat="45.242141" lon="9.0292488"><ele>74.5</ele><time>2026-03-28T10:38:55.835Z</time></trkpt><trkpt lat="45.2420858" lon="9.0291794"><ele>73.66666666666667</ele><time>2026-03-28T10:38:56.827Z</time></trkpt><trkpt lat="45.2420257" lon="9.0291131"><ele>72.83333333333333</ele><time>2026-03-28T10:38:57.829Z</time></trkpt><trkpt lat="45.2419629" lon="9.0290412"><ele>72.0</ele><time>2026-03-28T10:38:58.833Z</time></trkpt><trkpt lat="45.2418994" lon="9.0289575"><ele>71.66666666666667</ele><time>2026-03-28T10:38:59.828Z</time></trkpt><trkpt lat="45.2418371" lon="9.0288725"><ele>71.33333333333333</ele><time>2026-03-28T10:39:00.829Z</time></trkpt><trkpt lat="45.2417749" lon="9.0287837"><ele>71.0</ele><time>2026-03-28T10:39:01.842Z</time></trkpt><trkpt lat="45.2417125" lon="9.0287002"><ele>70.66666666666666</ele><time>2026-03-28T10:39:02.821Z</time></trkpt><trkpt lat="45.241653" lon="9.0286152"><ele>70.33333333333333</ele><time>2026-03-28T10:39:03.828Z</time></trkpt><trkpt lat="45.2415904" lon="9.0285329"><ele>70.0</ele><time>2026-03-28T10:39:04.825Z</time></trkpt><trkpt lat="45.2415213" lon="9.0284462"><ele>69.33333333333333</ele><time>2026-03-28T10:39:05.833Z</time></trkpt><trkpt lat="45.2414538" lon="9.0283731"><ele>68.66666666666666</ele><time>2026-03-28T10:39:06.837Z</time></trkpt><trkpt lat="45.2413869" lon="9.028301"><ele>68.0</ele><time>2026-03-28T10:39:07.831Z</time></trkpt><trkpt lat="45.2413292" lon="9.0282293"><ele>67.33333333333333</ele><time>2026-03-28T10:39:08.822Z</time></trkpt><trkpt lat="45.2412639" lon="9.0281629"><ele>66.66666666666667</ele><time>2026-03-28T10:39:09.835Z</time></trkpt><trkpt lat="45.2412073" lon="9.0280905"><ele>66.0</ele><time>2026-03-28T10:39:10.828Z</time></trkpt><trkpt lat="45.2411525" lon="9.0280269"><ele>66.0</ele><time>2026-03-28T10:39:11.831Z</time></trkpt><trkpt lat="45.2410974" lon="9.0279674"><ele>66.0</ele><time>2026-03-28T10:39:12.822Z</time></trkpt><trkpt lat="45.2410422" lon="9.0279094"><ele>66.0</ele><time>2026-03-28T10:39:13.83Z</time></trkpt><trkpt lat="45.2409454" lon="9.0278029"><ele>66.0</ele><time>2026-03-28T10:39:15.829Z</time></trkpt><trkpt lat="45.2408614" lon="9.0277082"><ele>66.0</ele><time>2026-03-28T10:39:17.827Z</time></trkpt><trkpt lat="45.2407786" lon="9.0276211"><ele>66.0</ele><time>2026-03-28T10:39:19.826Z</time></trkpt><trkpt lat="45.2407067" lon="9.0275432"><ele>66.0</ele><time>2026-03-28T10:39:21.827Z</time></trkpt><trkpt lat="45.2406461" lon="9.0274707"><ele>66.0</ele><time>2026-03-28T10:39:23.831Z</time></trkpt><trkpt lat="45.2405946" lon="9.0274062"><ele>66.0</ele><time>2026-03-28T10:39:25.837Z</time></trkpt><trkpt lat="45.2405311" lon="9.0273242"><ele>66.0</ele><time>2026-03-28T10:39:28.893Z</time></trkpt><trkpt lat="45.2404664" lon="9.0272866"><ele>66.0</ele><time>2026-03-28T10:39:31.835Z</time></trkpt><trkpt lat="45.2403858" lon="9.0273034"><ele>66.0</ele><time>2026-03-28T10:39:34.831Z</time></trkpt><trkpt lat="45.2403271" lon="9.0274183"><ele>66.0</ele><time>2026-03-28T10:39:37.827Z</time></trkpt><trkpt lat="45.2402919" lon="9.027576"><ele>66.0</ele><time>2026-03-28T10:39:39.83Z</time></trkpt><trkpt lat="45.240239" lon="9.027699"><ele>66.0</ele><time>2026-03-28T10:39:41.877Z</time></trkpt><trkpt lat="45.2401908" lon="9.0278056"><ele>66.0</ele><time>2026-03-28T10:39:43.826Z</time></trkpt><trkpt lat="45.2401354" lon="9.0279041"><ele>65.83333333333333</ele><time>2026-03-28T10:39:45.827Z</time></trkpt><trkpt lat="45.240085" lon="9.0280021"><ele>65.66666666666667</ele><time>2026-03-28T10:39:47.826Z</time></trkpt><trkpt lat="45.2400386" lon="9.0280821"><ele>65.5</ele><time>2026-03-28T10:39:49.825Z</time></trkpt><trkpt lat="45.2399831" lon="9.028164"><ele>65.33333333333334</ele><time>2026-03-28T10:39:51.821Z</time></trkpt><trkpt lat="45.2399262" lon="9.0282483"><ele>65.16666666666667</ele><time>2026-03-28T10:39:53.829Z</time></trkpt><trkpt lat="45.2398651" lon="9.0283252"><ele>65.0</ele><time>2026-03-28T10:39:55.824Z</time></trkpt><trkpt lat="45.2398125" lon="9.0284108"><ele>65.14285714285715</ele><time>2026-03-28T10:39:57.825Z</time></trkpt><trkpt lat="45.239759" lon="9.0284819"><ele>65.28571428571429</ele><time>2026-03-28T10:39:59.833Z</time></trkpt><trkpt lat="45.2397057" lon="9.0285431"><ele>65.42857142857143</ele><time>2026-03-28T10:40:01.826Z</time></trkpt><trkpt lat="45.2396521" lon="9.028612"><ele>65.57142857142858</ele><time>2026-03-28T10:40:03.832Z</time></trkpt><trkpt lat="45.2395963" lon="9.0286815"><ele>65.71428571428572</ele><time>2026-03-28T10:40:05.827Z</time></trkpt><trkpt lat="45.2395461" lon="9.0287557"><ele>65.85714285714286</ele><time>2026-03-28T10:40:07.824Z</time></trkpt><trkpt lat="45.2394991" lon="9.0288264"><ele>66.0</ele><time>2026-03-28T10:40:09.837Z</time></trkpt><trkpt lat="45.2394598" lon="9.0288977"><ele>66.0</ele><time>2026-03-28T10:40:11.833Z</time></trkpt><trkpt lat="45.2394387" lon="9.0289835"><ele>66.0</ele><time>2026-03-28T10:40:13.827Z</time></trkpt><trkpt lat="45.2394227" lon="9.0290751"><ele>66.0</ele><time>2026-03-28T10:40:15.83Z</time></trkpt><trkpt lat="45.2394047" lon="9.0291624"><ele>66.0</ele><time>2026-03-28T10:40:17.894Z</time></trkpt><trkpt lat="45.2393684" lon="9.0292521"><ele>66.0</ele><time>2026-03-28T10:40:20.836Z</time></trkpt><trkpt lat="45.2393028" lon="9.0292728"><ele>66.0</ele><time>2026-03-28T10:40:23.835Z</time></trkpt><trkpt lat="45.23926" lon="9.0292029"><ele>66.0</ele><time>2026-03-28T10:40:25.825Z</time></trkpt><trkpt lat="45.2392126" lon="9.0291426"><ele>66.0</ele><time>2026-03-28T10:40:27.831Z</time></trkpt><trkpt lat="45.2391346" lon="9.0290975"><ele>66.0</ele><time>2026-03-28T10:40:30.831Z</time></trkpt><trkpt lat="45.2390449" lon="9.0291308"><ele>66.0</ele><time>2026-03-28T10:40:33.831Z</time></trkpt><trkpt lat="45.2389588" lon="9.029188"><ele>66.0</ele><time>2026-03-28T10:40:36.824Z</time></trkpt><trkpt lat="45.2388872" lon="9.0292338"><ele>66.0</ele><time>2026-03-28T10:40:38.83Z</time></trkpt><trkpt lat="45.2388255" lon="9.0292827"><ele>66.0</ele><time>2026-03-28T10:40:40.841Z</time></trkpt><trkpt lat="45.2387491" lon="9.0293221"><ele>66.14285714285714</ele><time>2026-03-28T10:40:42.826Z</time></trkpt><trkpt lat="45.2386807" lon="9.0293435"><ele>66.28571428571429</ele><time>2026-03-28T10:40:44.828Z</time></trkpt><trkpt lat="45.2386078" lon="9.0293691"><ele>66.42857142857143</ele><time>2026-03-28T10:40:46.827Z</time></trkpt><trkpt lat="45.2385397" lon="9.0294031"><ele>66.57142857142857</ele><time>2026-03-28T10:40:48.823Z</time></trkpt><trkpt lat="45.2384755" lon="9.0294333"><ele>66.71428571428571</ele><time>2026-03-28T10:40:50.831Z</time></trkpt><trkpt lat="45.2383919" lon="9.0294896"><ele>66.85714285714286</ele><time>2026-03-28T10:40:53.829Z</time></trkpt><trkpt lat="45.2383283" lon="9.0295223"><ele>67.0</ele><time>2026-03-28T10:40:55.835Z</time></trkpt><trkpt lat="45.2382605" lon="9.0295519"><ele>67.0</ele><time>2026-03-28T10:40:57.831Z</time></trkpt><trkpt lat="45.2381968" lon="9.0295651"><ele>67.0</ele><time>2026-03-28T10:40:59.833Z</time></trkpt><trkpt lat="45.2381002" lon="9.0295895"><ele>67.0</ele><time>2026-03-28T10:41:02.826Z</time></trkpt><trkpt lat="45.2380338" lon="9.0296096"><ele>67.0</ele><time>2026-03-28T10:41:04.829Z</time></trkpt><trkpt lat="45.2379557" lon="9.0296256"><ele>67.0</ele><time>2026-03-28T10:41:06.826Z</time></trkpt><trkpt lat="45.2378924" lon="9.0296307"><ele>67.0</ele><time>2026-03-28T10:41:08.833Z</time></trkpt><trkpt lat="45.2378244" lon="9.0296403"><ele>67.0</ele><time>2026-03-28T10:41:10.831Z</time></trkpt><trkpt lat="45.2377481" lon="9.0296416"><ele>67.33333333333333</ele><time>2026-03-28T10:41:12.834Z</time></trkpt><trkpt lat="45.2376793" lon="9.0296408"><ele>67.66666666666666</ele><time>2026-03-28T10:41:14.841Z</time></trkpt><trkpt lat="45.2376051" lon="9.0296625"><ele>68.0</ele><time>2026-03-28T10:41:16.823Z</time></trkpt><trkpt lat="45.2375375" lon="9.0296902"><ele>68.33333333333333</ele><time>2026-03-28T10:41:18.823Z</time></trkpt><trkpt lat="45.2374802" lon="9.0297691"><ele>68.66666666666667</ele><time>2026-03-28T10:41:21.827Z</time></trkpt><trkpt lat="45.2374642" lon="9.0298958"><ele>69.0</ele><time>2026-03-28T10:41:24.827Z</time></trkpt><trkpt lat="45.2374469" lon="9.0299957"><ele>71.0</ele><time>2026-03-28T10:41:27.828Z</time></trkpt><trkpt lat="45.2375066" lon="9.0299319"><ele>69.0</ele><time>2026-03-28T10:41:50.497Z</time></trkpt></trkseg></trk></gpx>